<?xml version="1.0" encoding="UTF-8" standalone="no" ?>
<gpx xmlns="http://www.topografix.com/GPX/1/1" xmlns:xsi="http://www.w3.org/2001/XMLSchema-instance" xsi:schemaLocation="http://www.topografix.com/GPX/1/1 http://www.topografix.com/GPX/1/1/gpx.xsd" version="1.1" creator="VisuGPX - https://www.visugpx.com">
  <metadata>
    <name>Sur les traces de l'espace VTT Pyrénées - Comminges</name>
    <desc><![CDATA[Boucle de 50 km entre Castelbiague, Arbas, Chein-Dessus,Estadens et Souiech empruntant plusieurs circuits de l'espace VTT-FFC Pyrénées-Comminges (n°22, 23, 31, 34 principalement)]]></desc>
  </metadata>
  <trk>
    <name><![CDATA[Move]]></name>
    <trkseg>
      <trkpt lat="43.036" lon="0.92438">
        <ele>381.60000610352</ele>
        <time>2019-04-22T12:58:54.008Z</time>
      </trkpt>
      <trkpt lat="43.03597" lon="0.92433">
        <ele>370</ele>
        <time>2019-04-22T12:58:55.008Z</time>
      </trkpt>
      <trkpt lat="43.03586" lon="0.92412">
        <ele>370</ele>
        <time>2019-04-22T12:58:59.008Z</time>
      </trkpt>
      <trkpt lat="43.0358" lon="0.92401">
        <ele>367</ele>
        <time>2019-04-22T12:59:01.008Z</time>
      </trkpt>
      <trkpt lat="43.03577" lon="0.92395">
        <ele>367</ele>
        <time>2019-04-22T12:59:02.008Z</time>
      </trkpt>
      <trkpt lat="43.03573" lon="0.92389">
        <ele>367</ele>
        <time>2019-04-22T12:59:03.008Z</time>
      </trkpt>
      <trkpt lat="43.0357" lon="0.92382">
        <ele>367</ele>
        <time>2019-04-22T12:59:04.008Z</time>
      </trkpt>
      <trkpt lat="43.03566" lon="0.92376">
        <ele>366.8419968</ele>
        <time>2019-04-22T12:59:05.008Z</time>
      </trkpt>
      <trkpt lat="43.03562" lon="0.9237">
        <ele>366</ele>
        <time>2019-04-22T12:59:06.008Z</time>
      </trkpt>
      <trkpt lat="43.03557" lon="0.92365">
        <ele>366</ele>
        <time>2019-04-22T12:59:07.008Z</time>
      </trkpt>
      <trkpt lat="43.03551" lon="0.9236">
        <ele>366</ele>
        <time>2019-04-22T12:59:08.008Z</time>
      </trkpt>
      <trkpt lat="43.03545" lon="0.92358">
        <ele>366</ele>
        <time>2019-04-22T12:59:09.008Z</time>
      </trkpt>
      <trkpt lat="43.03539" lon="0.92356">
        <ele>366</ele>
        <time>2019-04-22T12:59:10.008Z</time>
      </trkpt>
      <trkpt lat="43.03532" lon="0.92355">
        <ele>366</ele>
        <time>2019-04-22T12:59:11.008Z</time>
      </trkpt>
      <trkpt lat="43.03525" lon="0.92354">
        <ele>366</ele>
        <time>2019-04-22T12:59:12.008Z</time>
      </trkpt>
      <trkpt lat="43.03518" lon="0.92354">
        <ele>366</ele>
        <time>2019-04-22T12:59:13.008Z</time>
      </trkpt>
      <trkpt lat="43.03511" lon="0.92354">
        <ele>366</ele>
        <time>2019-04-22T12:59:14.008Z</time>
      </trkpt>
      <trkpt lat="43.03504" lon="0.92353">
        <ele>366</ele>
        <time>2019-04-22T12:59:15.008Z</time>
      </trkpt>
      <trkpt lat="43.03496" lon="0.92353">
        <ele>366</ele>
        <time>2019-04-22T12:59:16.008Z</time>
      </trkpt>
      <trkpt lat="43.03489" lon="0.92352">
        <ele>366</ele>
        <time>2019-04-22T12:59:17.008Z</time>
      </trkpt>
      <trkpt lat="43.03481" lon="0.9235">
        <ele>366</ele>
        <time>2019-04-22T12:59:18.008Z</time>
      </trkpt>
      <trkpt lat="43.03474" lon="0.92347">
        <ele>366</ele>
        <time>2019-04-22T12:59:19.008Z</time>
      </trkpt>
      <trkpt lat="43.03467" lon="0.92342">
        <ele>365.6839936</ele>
        <time>2019-04-22T12:59:20.008Z</time>
      </trkpt>
      <trkpt lat="43.03461" lon="0.92335">
        <ele>364</ele>
        <time>2019-04-22T12:59:21.008Z</time>
      </trkpt>
      <trkpt lat="43.03456" lon="0.92328">
        <ele>364</ele>
        <time>2019-04-22T12:59:22.008Z</time>
      </trkpt>
      <trkpt lat="43.0345" lon="0.92321">
        <ele>364</ele>
        <time>2019-04-22T12:59:23.008Z</time>
      </trkpt>
      <trkpt lat="43.03445" lon="0.92314">
        <ele>364</ele>
        <time>2019-04-22T12:59:24.008Z</time>
      </trkpt>
      <trkpt lat="43.03441" lon="0.92306">
        <ele>364</ele>
        <time>2019-04-22T12:59:25.008Z</time>
      </trkpt>
      <trkpt lat="43.03436" lon="0.92299">
        <ele>364</ele>
        <time>2019-04-22T12:59:26.008Z</time>
      </trkpt>
      <trkpt lat="43.03432" lon="0.92291">
        <ele>364</ele>
        <time>2019-04-22T12:59:27.008Z</time>
      </trkpt>
      <trkpt lat="43.03428" lon="0.92284">
        <ele>364</ele>
        <time>2019-04-22T12:59:28.008Z</time>
      </trkpt>
      <trkpt lat="43.03424" lon="0.92276">
        <ele>364</ele>
        <time>2019-04-22T12:59:29.008Z</time>
      </trkpt>
      <trkpt lat="43.0342" lon="0.92269">
        <ele>364</ele>
        <time>2019-04-22T12:59:30.008Z</time>
      </trkpt>
      <trkpt lat="43.03417" lon="0.92261">
        <ele>364</ele>
        <time>2019-04-22T12:59:31.008Z</time>
      </trkpt>
      <trkpt lat="43.03414" lon="0.92253">
        <ele>364</ele>
        <time>2019-04-22T12:59:32.008Z</time>
      </trkpt>
      <trkpt lat="43.0341" lon="0.92246">
        <ele>364</ele>
        <time>2019-04-22T12:59:33.008Z</time>
      </trkpt>
      <trkpt lat="43.03408" lon="0.92239">
        <ele>364</ele>
        <time>2019-04-22T12:59:34.008Z</time>
      </trkpt>
      <trkpt lat="43.03405" lon="0.92231">
        <ele>364</ele>
        <time>2019-04-22T12:59:35.008Z</time>
      </trkpt>
      <trkpt lat="43.03402" lon="0.92224">
        <ele>364</ele>
        <time>2019-04-22T12:59:36.008Z</time>
      </trkpt>
      <trkpt lat="43.034" lon="0.92216">
        <ele>364</ele>
        <time>2019-04-22T12:59:37.008Z</time>
      </trkpt>
      <trkpt lat="43.03397" lon="0.92209">
        <ele>364</ele>
        <time>2019-04-22T12:59:38.008Z</time>
      </trkpt>
      <trkpt lat="43.03395" lon="0.92202">
        <ele>364</ele>
        <time>2019-04-22T12:59:39.008Z</time>
      </trkpt>
      <trkpt lat="43.03392" lon="0.92194">
        <ele>364</ele>
        <time>2019-04-22T12:59:40.008Z</time>
      </trkpt>
      <trkpt lat="43.0339" lon="0.92187">
        <ele>364</ele>
        <time>2019-04-22T12:59:41.008Z</time>
      </trkpt>
      <trkpt lat="43.03387" lon="0.9218">
        <ele>364</ele>
        <time>2019-04-22T12:59:42.008Z</time>
      </trkpt>
      <trkpt lat="43.03385" lon="0.92173">
        <ele>364</ele>
        <time>2019-04-22T12:59:43.008Z</time>
      </trkpt>
      <trkpt lat="43.0338" lon="0.92159">
        <ele>364</ele>
        <time>2019-04-22T12:59:45.008Z</time>
      </trkpt>
      <trkpt lat="43.03377" lon="0.92152">
        <ele>364</ele>
        <time>2019-04-22T12:59:46.008Z</time>
      </trkpt>
      <trkpt lat="43.03374" lon="0.92145">
        <ele>364</ele>
        <time>2019-04-22T12:59:47.008Z</time>
      </trkpt>
      <trkpt lat="43.03371" lon="0.92138">
        <ele>364</ele>
        <time>2019-04-22T12:59:48.008Z</time>
      </trkpt>
      <trkpt lat="43.03369" lon="0.92131">
        <ele>364</ele>
        <time>2019-04-22T12:59:49.008Z</time>
      </trkpt>
      <trkpt lat="43.03366" lon="0.92124">
        <ele>364</ele>
        <time>2019-04-22T12:59:50.008Z</time>
      </trkpt>
      <trkpt lat="43.03363" lon="0.92117">
        <ele>364</ele>
        <time>2019-04-22T12:59:51.008Z</time>
      </trkpt>
      <trkpt lat="43.0336" lon="0.9211">
        <ele>364</ele>
        <time>2019-04-22T12:59:52.008Z</time>
      </trkpt>
      <trkpt lat="43.03357" lon="0.92102">
        <ele>364</ele>
        <time>2019-04-22T12:59:53.008Z</time>
      </trkpt>
      <trkpt lat="43.03354" lon="0.92095">
        <ele>364</ele>
        <time>2019-04-22T12:59:54.008Z</time>
      </trkpt>
      <trkpt lat="43.03351" lon="0.92088">
        <ele>364</ele>
        <time>2019-04-22T12:59:55.008Z</time>
      </trkpt>
      <trkpt lat="43.03348" lon="0.9208">
        <ele>364</ele>
        <time>2019-04-22T12:59:56.008Z</time>
      </trkpt>
      <trkpt lat="43.03346" lon="0.92073">
        <ele>364</ele>
        <time>2019-04-22T12:59:57.008Z</time>
      </trkpt>
      <trkpt lat="43.03343" lon="0.92065">
        <ele>364</ele>
        <time>2019-04-22T12:59:58.008Z</time>
      </trkpt>
      <trkpt lat="43.0334" lon="0.92058">
        <ele>364</ele>
        <time>2019-04-22T12:59:59.008Z</time>
      </trkpt>
      <trkpt lat="43.03337" lon="0.9205">
        <ele>364</ele>
        <time>2019-04-22T13:00:00.008Z</time>
      </trkpt>
      <trkpt lat="43.03334" lon="0.92043">
        <ele>364</ele>
        <time>2019-04-22T13:00:01.008Z</time>
      </trkpt>
      <trkpt lat="43.03331" lon="0.92036">
        <ele>364</ele>
        <time>2019-04-22T13:00:02.008Z</time>
      </trkpt>
      <trkpt lat="43.03328" lon="0.92028">
        <ele>364</ele>
        <time>2019-04-22T13:00:03.008Z</time>
      </trkpt>
      <trkpt lat="43.03323" lon="0.92014">
        <ele>364</ele>
        <time>2019-04-22T13:00:05.008Z</time>
      </trkpt>
      <trkpt lat="43.0332" lon="0.92007">
        <ele>364</ele>
        <time>2019-04-22T13:00:06.008Z</time>
      </trkpt>
      <trkpt lat="43.03317" lon="0.92">
        <ele>364</ele>
        <time>2019-04-22T13:00:07.008Z</time>
      </trkpt>
      <trkpt lat="43.03314" lon="0.91994">
        <ele>364</ele>
        <time>2019-04-22T13:00:08.008Z</time>
      </trkpt>
      <trkpt lat="43.0331" lon="0.91988">
        <ele>364</ele>
        <time>2019-04-22T13:00:09.008Z</time>
      </trkpt>
      <trkpt lat="43.03305" lon="0.91983">
        <ele>363.8419968</ele>
        <time>2019-04-22T13:00:10.008Z</time>
      </trkpt>
      <trkpt lat="43.03299" lon="0.91979">
        <ele>363</ele>
        <time>2019-04-22T13:00:11.008Z</time>
      </trkpt>
      <trkpt lat="43.03293" lon="0.91978">
        <ele>363</ele>
        <time>2019-04-22T13:00:12.008Z</time>
      </trkpt>
      <trkpt lat="43.03287" lon="0.91979">
        <ele>363</ele>
        <time>2019-04-22T13:00:13.008Z</time>
      </trkpt>
      <trkpt lat="43.0328" lon="0.91981">
        <ele>363</ele>
        <time>2019-04-22T13:00:14.008Z</time>
      </trkpt>
      <trkpt lat="43.03274" lon="0.91985">
        <ele>363</ele>
        <time>2019-04-22T13:00:15.008Z</time>
      </trkpt>
      <trkpt lat="43.03267" lon="0.91989">
        <ele>363</ele>
        <time>2019-04-22T13:00:16.008Z</time>
      </trkpt>
      <trkpt lat="43.03261" lon="0.91994">
        <ele>363</ele>
        <time>2019-04-22T13:00:17.008Z</time>
      </trkpt>
      <trkpt lat="43.03255" lon="0.91999">
        <ele>363</ele>
        <time>2019-04-22T13:00:18.008Z</time>
      </trkpt>
      <trkpt lat="43.03249" lon="0.92003">
        <ele>363</ele>
        <time>2019-04-22T13:00:19.008Z</time>
      </trkpt>
      <trkpt lat="43.03242" lon="0.92008">
        <ele>362.8419968</ele>
        <time>2019-04-22T13:00:20.008Z</time>
      </trkpt>
      <trkpt lat="43.03236" lon="0.92012">
        <ele>362</ele>
        <time>2019-04-22T13:00:21.008Z</time>
      </trkpt>
      <trkpt lat="43.0323" lon="0.92017">
        <ele>362</ele>
        <time>2019-04-22T13:00:22.008Z</time>
      </trkpt>
      <trkpt lat="43.03224" lon="0.9202">
        <ele>362</ele>
        <time>2019-04-22T13:00:23.008Z</time>
      </trkpt>
      <trkpt lat="43.03217" lon="0.92022">
        <ele>362</ele>
        <time>2019-04-22T13:00:24.008Z</time>
      </trkpt>
      <trkpt lat="43.0321" lon="0.92023">
        <ele>362</ele>
        <time>2019-04-22T13:00:25.008Z</time>
      </trkpt>
      <trkpt lat="43.03203" lon="0.92022">
        <ele>362</ele>
        <time>2019-04-22T13:00:26.008Z</time>
      </trkpt>
      <trkpt lat="43.03196" lon="0.92018">
        <ele>362</ele>
        <time>2019-04-22T13:00:27.008Z</time>
      </trkpt>
      <trkpt lat="43.0319" lon="0.92013">
        <ele>362</ele>
        <time>2019-04-22T13:00:28.008Z</time>
      </trkpt>
      <trkpt lat="43.03183" lon="0.92006">
        <ele>362</ele>
        <time>2019-04-22T13:00:29.008Z</time>
      </trkpt>
      <trkpt lat="43.03177" lon="0.91999">
        <ele>361.5259904</ele>
        <time>2019-04-22T13:00:30.008Z</time>
      </trkpt>
      <trkpt lat="43.0317" lon="0.91994">
        <ele>359</ele>
        <time>2019-04-22T13:00:31.008Z</time>
      </trkpt>
      <trkpt lat="43.03163" lon="0.91991">
        <ele>359</ele>
        <time>2019-04-22T13:00:32.008Z</time>
      </trkpt>
      <trkpt lat="43.03155" lon="0.9199">
        <ele>359</ele>
        <time>2019-04-22T13:00:33.008Z</time>
      </trkpt>
      <trkpt lat="43.03148" lon="0.91991">
        <ele>359</ele>
        <time>2019-04-22T13:00:34.008Z</time>
      </trkpt>
      <trkpt lat="43.03134" lon="0.92">
        <ele>357</ele>
        <time>2019-04-22T13:00:36.008Z</time>
      </trkpt>
      <trkpt lat="43.03122" lon="0.92014">
        <ele>357</ele>
        <time>2019-04-22T13:00:38.008Z</time>
      </trkpt>
      <trkpt lat="43.03111" lon="0.9203">
        <ele>357</ele>
        <time>2019-04-22T13:00:40.008Z</time>
      </trkpt>
      <trkpt lat="43.03097" lon="0.92045">
        <ele>357</ele>
        <time>2019-04-22T13:00:42.008Z</time>
      </trkpt>
      <trkpt lat="43.03088" lon="0.92051">
        <ele>357</ele>
        <time>2019-04-22T13:00:43.008Z</time>
      </trkpt>
      <trkpt lat="43.03073" lon="0.92055">
        <ele>357</ele>
        <time>2019-04-22T13:00:45.008Z</time>
      </trkpt>
      <trkpt lat="43.03059" lon="0.92052">
        <ele>357</ele>
        <time>2019-04-22T13:00:47.008Z</time>
      </trkpt>
      <trkpt lat="43.03048" lon="0.92043">
        <ele>357</ele>
        <time>2019-04-22T13:00:49.008Z</time>
      </trkpt>
      <trkpt lat="43.03043" lon="0.92039">
        <ele>357.1580032</ele>
        <time>2019-04-22T13:00:50.008Z</time>
      </trkpt>
      <trkpt lat="43.03034" lon="0.92029">
        <ele>358</ele>
        <time>2019-04-22T13:00:52.008Z</time>
      </trkpt>
      <trkpt lat="43.0303" lon="0.92018">
        <ele>358</ele>
        <time>2019-04-22T13:00:54.008Z</time>
      </trkpt>
      <trkpt lat="43.03027" lon="0.9201">
        <ele>358</ele>
        <time>2019-04-22T13:00:56.008Z</time>
      </trkpt>
      <trkpt lat="43.03024" lon="0.92003">
        <ele>358</ele>
        <time>2019-04-22T13:00:58.008Z</time>
      </trkpt>
      <trkpt lat="43.03021" lon="0.91996">
        <ele>358.4740096</ele>
        <time>2019-04-22T13:01:00.008Z</time>
      </trkpt>
      <trkpt lat="43.03018" lon="0.9199">
        <ele>361</ele>
        <time>2019-04-22T13:01:02.008Z</time>
      </trkpt>
      <trkpt lat="43.03015" lon="0.91984">
        <ele>361</ele>
        <time>2019-04-22T13:01:04.008Z</time>
      </trkpt>
      <trkpt lat="43.03013" lon="0.91978">
        <ele>363</ele>
        <time>2019-04-22T13:01:06.008Z</time>
      </trkpt>
      <trkpt lat="43.03012" lon="0.91971">
        <ele>363</ele>
        <time>2019-04-22T13:01:08.008Z</time>
      </trkpt>
      <trkpt lat="43.03012" lon="0.91965">
        <ele>363.3160064</ele>
        <time>2019-04-22T13:01:10.008Z</time>
      </trkpt>
      <trkpt lat="43.03013" lon="0.91958">
        <ele>365</ele>
        <time>2019-04-22T13:01:12.008Z</time>
      </trkpt>
      <trkpt lat="43.03015" lon="0.91952">
        <ele>365</ele>
        <time>2019-04-22T13:01:14.008Z</time>
      </trkpt>
      <trkpt lat="43.03017" lon="0.91946">
        <ele>367</ele>
        <time>2019-04-22T13:01:16.008Z</time>
      </trkpt>
      <trkpt lat="43.03019" lon="0.9194">
        <ele>367</ele>
        <time>2019-04-22T13:01:18.008Z</time>
      </trkpt>
      <trkpt lat="43.0302" lon="0.91934">
        <ele>367.1580032</ele>
        <time>2019-04-22T13:01:20.008Z</time>
      </trkpt>
      <trkpt lat="43.03022" lon="0.91927">
        <ele>368</ele>
        <time>2019-04-22T13:01:22.008Z</time>
      </trkpt>
      <trkpt lat="43.03023" lon="0.91921">
        <ele>368</ele>
        <time>2019-04-22T13:01:24.008Z</time>
      </trkpt>
      <trkpt lat="43.03025" lon="0.91915">
        <ele>370</ele>
        <time>2019-04-22T13:01:26.008Z</time>
      </trkpt>
      <trkpt lat="43.03026" lon="0.91908">
        <ele>370</ele>
        <time>2019-04-22T13:01:28.008Z</time>
      </trkpt>
      <trkpt lat="43.03028" lon="0.91902">
        <ele>370.3160064</ele>
        <time>2019-04-22T13:01:30.008Z</time>
      </trkpt>
      <trkpt lat="43.03029" lon="0.91896">
        <ele>372</ele>
        <time>2019-04-22T13:01:32.008Z</time>
      </trkpt>
      <trkpt lat="43.03031" lon="0.91889">
        <ele>372</ele>
        <time>2019-04-22T13:01:34.008Z</time>
      </trkpt>
      <trkpt lat="43.03032" lon="0.91883">
        <ele>373</ele>
        <time>2019-04-22T13:01:36.008Z</time>
      </trkpt>
      <trkpt lat="43.03034" lon="0.91877">
        <ele>373</ele>
        <time>2019-04-22T13:01:38.008Z</time>
      </trkpt>
      <trkpt lat="43.03035" lon="0.91871">
        <ele>373.1580032</ele>
        <time>2019-04-22T13:01:40.008Z</time>
      </trkpt>
      <trkpt lat="43.03037" lon="0.91865">
        <ele>374</ele>
        <time>2019-04-22T13:01:42.008Z</time>
      </trkpt>
      <trkpt lat="43.03038" lon="0.91858">
        <ele>374</ele>
        <time>2019-04-22T13:01:44.008Z</time>
      </trkpt>
      <trkpt lat="43.03039" lon="0.91852">
        <ele>374.14950093091</ele>
        <time>2019-04-22T13:01:46.008Z</time>
      </trkpt>
      <trkpt lat="43.0304" lon="0.91845">
        <ele>375</ele>
        <time>2019-04-22T13:01:48.008Z</time>
      </trkpt>
      <trkpt lat="43.03041" lon="0.91839">
        <ele>375</ele>
        <time>2019-04-22T13:01:50.008Z</time>
      </trkpt>
      <trkpt lat="43.03042" lon="0.91833">
        <ele>377</ele>
        <time>2019-04-22T13:01:52.008Z</time>
      </trkpt>
      <trkpt lat="43.03042" lon="0.91827">
        <ele>377</ele>
        <time>2019-04-22T13:01:54.008Z</time>
      </trkpt>
      <trkpt lat="43.03043" lon="0.9182">
        <ele>377.3160064</ele>
        <time>2019-04-22T13:01:56.008Z</time>
      </trkpt>
      <trkpt lat="43.03043" lon="0.91814">
        <ele>379</ele>
        <time>2019-04-22T13:01:58.008Z</time>
      </trkpt>
      <trkpt lat="43.03043" lon="0.91808">
        <ele>379</ele>
        <time>2019-04-22T13:02:00.008Z</time>
      </trkpt>
      <trkpt lat="43.03044" lon="0.91802">
        <ele>380</ele>
        <time>2019-04-22T13:02:02.008Z</time>
      </trkpt>
      <trkpt lat="43.03044" lon="0.91796">
        <ele>380</ele>
        <time>2019-04-22T13:02:04.008Z</time>
      </trkpt>
      <trkpt lat="43.03044" lon="0.91791">
        <ele>380</ele>
        <time>2019-04-22T13:02:06.008Z</time>
      </trkpt>
      <trkpt lat="43.03043" lon="0.91785">
        <ele>380</ele>
        <time>2019-04-22T13:02:08.008Z</time>
      </trkpt>
      <trkpt lat="43.03042" lon="0.91779">
        <ele>380</ele>
        <time>2019-04-22T13:02:10.008Z</time>
      </trkpt>
      <trkpt lat="43.03042" lon="0.91774">
        <ele>382</ele>
        <time>2019-04-22T13:02:12.008Z</time>
      </trkpt>
      <trkpt lat="43.03041" lon="0.91768">
        <ele>382</ele>
        <time>2019-04-22T13:02:14.008Z</time>
      </trkpt>
      <trkpt lat="43.03041" lon="0.91763">
        <ele>382.3160064</ele>
        <time>2019-04-22T13:02:16.008Z</time>
      </trkpt>
      <trkpt lat="43.0304" lon="0.91757">
        <ele>384</ele>
        <time>2019-04-22T13:02:18.008Z</time>
      </trkpt>
      <trkpt lat="43.03039" lon="0.91752">
        <ele>384</ele>
        <time>2019-04-22T13:02:20.008Z</time>
      </trkpt>
      <trkpt lat="43.03039" lon="0.91747">
        <ele>385</ele>
        <time>2019-04-22T13:02:22.008Z</time>
      </trkpt>
      <trkpt lat="43.03038" lon="0.91742">
        <ele>385</ele>
        <time>2019-04-22T13:02:24.008Z</time>
      </trkpt>
      <trkpt lat="43.03035" lon="0.91735">
        <ele>387</ele>
        <time>2019-04-22T13:02:27.008Z</time>
      </trkpt>
      <trkpt lat="43.03035" lon="0.9173">
        <ele>387</ele>
        <time>2019-04-22T13:02:29.008Z</time>
      </trkpt>
      <trkpt lat="43.03033" lon="0.91725">
        <ele>387.1580032</ele>
        <time>2019-04-22T13:02:31.008Z</time>
      </trkpt>
      <trkpt lat="43.03032" lon="0.91719">
        <ele>388</ele>
        <time>2019-04-22T13:02:33.008Z</time>
      </trkpt>
      <trkpt lat="43.0303" lon="0.91712">
        <ele>388.1580032</ele>
        <time>2019-04-22T13:02:36.008Z</time>
      </trkpt>
      <trkpt lat="43.03028" lon="0.91704">
        <ele>389</ele>
        <time>2019-04-22T13:02:39.008Z</time>
      </trkpt>
      <trkpt lat="43.03026" lon="0.91697">
        <ele>391</ele>
        <time>2019-04-22T13:02:42.008Z</time>
      </trkpt>
      <trkpt lat="43.03024" lon="0.91689">
        <ele>391</ele>
        <time>2019-04-22T13:02:45.008Z</time>
      </trkpt>
      <trkpt lat="43.03023" lon="0.9168">
        <ele>392</ele>
        <time>2019-04-22T13:02:49.008Z</time>
      </trkpt>
      <trkpt lat="43.03023" lon="0.91671">
        <ele>392</ele>
        <time>2019-04-22T13:02:52.008Z</time>
      </trkpt>
      <trkpt lat="43.03023" lon="0.91664">
        <ele>392</ele>
        <time>2019-04-22T13:02:54.008Z</time>
      </trkpt>
      <trkpt lat="43.03023" lon="0.91653">
        <ele>392</ele>
        <time>2019-04-22T13:02:57.008Z</time>
      </trkpt>
      <trkpt lat="43.03023" lon="0.91643">
        <ele>392</ele>
        <time>2019-04-22T13:03:00.008Z</time>
      </trkpt>
      <trkpt lat="43.03024" lon="0.91633">
        <ele>393</ele>
        <time>2019-04-22T13:03:03.008Z</time>
      </trkpt>
      <trkpt lat="43.03026" lon="0.91623">
        <ele>393</ele>
        <time>2019-04-22T13:03:06.008Z</time>
      </trkpt>
      <trkpt lat="43.03027" lon="0.91614">
        <ele>393</ele>
        <time>2019-04-22T13:03:09.008Z</time>
      </trkpt>
      <trkpt lat="43.03029" lon="0.91605">
        <ele>395</ele>
        <time>2019-04-22T13:03:12.008Z</time>
      </trkpt>
      <trkpt lat="43.03032" lon="0.91596">
        <ele>395</ele>
        <time>2019-04-22T13:03:15.008Z</time>
      </trkpt>
      <trkpt lat="43.03035" lon="0.91587">
        <ele>395</ele>
        <time>2019-04-22T13:03:18.008Z</time>
      </trkpt>
      <trkpt lat="43.03036" lon="0.91582">
        <ele>395</ele>
        <time>2019-04-22T13:03:20.008Z</time>
      </trkpt>
      <trkpt lat="43.03038" lon="0.91576">
        <ele>397</ele>
        <time>2019-04-22T13:03:22.008Z</time>
      </trkpt>
      <trkpt lat="43.03041" lon="0.9157">
        <ele>397</ele>
        <time>2019-04-22T13:03:24.008Z</time>
      </trkpt>
      <trkpt lat="43.03043" lon="0.91564">
        <ele>397</ele>
        <time>2019-04-22T13:03:26.008Z</time>
      </trkpt>
      <trkpt lat="43.03047" lon="0.91552">
        <ele>397</ele>
        <time>2019-04-22T13:03:30.008Z</time>
      </trkpt>
      <trkpt lat="43.03052" lon="0.91541">
        <ele>398</ele>
        <time>2019-04-22T13:03:34.008Z</time>
      </trkpt>
      <trkpt lat="43.03055" lon="0.91532">
        <ele>398</ele>
        <time>2019-04-22T13:03:37.008Z</time>
      </trkpt>
      <trkpt lat="43.03057" lon="0.91526">
        <ele>398</ele>
        <time>2019-04-22T13:03:39.008Z</time>
      </trkpt>
      <trkpt lat="43.03058" lon="0.91523">
        <ele>398</ele>
        <time>2019-04-22T13:03:40.008Z</time>
      </trkpt>
      <trkpt lat="43.03058" lon="0.9152">
        <ele>398.1580032</ele>
        <time>2019-04-22T13:03:41.008Z</time>
      </trkpt>
      <trkpt lat="43.03059" lon="0.91517">
        <ele>399</ele>
        <time>2019-04-22T13:03:42.008Z</time>
      </trkpt>
      <trkpt lat="43.0306" lon="0.91514">
        <ele>399</ele>
        <time>2019-04-22T13:03:43.008Z</time>
      </trkpt>
      <trkpt lat="43.0306" lon="0.91511">
        <ele>399</ele>
        <time>2019-04-22T13:03:44.008Z</time>
      </trkpt>
      <trkpt lat="43.0306" lon="0.91508">
        <ele>399</ele>
        <time>2019-04-22T13:03:45.008Z</time>
      </trkpt>
      <trkpt lat="43.03061" lon="0.91505">
        <ele>399</ele>
        <time>2019-04-22T13:03:46.008Z</time>
      </trkpt>
      <trkpt lat="43.03061" lon="0.91499">
        <ele>399</ele>
        <time>2019-04-22T13:03:48.008Z</time>
      </trkpt>
      <trkpt lat="43.0306" lon="0.91492">
        <ele>399</ele>
        <time>2019-04-22T13:03:50.008Z</time>
      </trkpt>
      <trkpt lat="43.0306" lon="0.91486">
        <ele>401</ele>
        <time>2019-04-22T13:03:52.008Z</time>
      </trkpt>
      <trkpt lat="43.03058" lon="0.9148">
        <ele>401</ele>
        <time>2019-04-22T13:03:54.008Z</time>
      </trkpt>
      <trkpt lat="43.03057" lon="0.91474">
        <ele>401</ele>
        <time>2019-04-22T13:03:56.008Z</time>
      </trkpt>
      <trkpt lat="43.03055" lon="0.91468">
        <ele>401</ele>
        <time>2019-04-22T13:03:58.008Z</time>
      </trkpt>
      <trkpt lat="43.03053" lon="0.91463">
        <ele>401</ele>
        <time>2019-04-22T13:04:00.008Z</time>
      </trkpt>
      <trkpt lat="43.03051" lon="0.91457">
        <ele>404</ele>
        <time>2019-04-22T13:04:02.008Z</time>
      </trkpt>
      <trkpt lat="43.03049" lon="0.91452">
        <ele>404</ele>
        <time>2019-04-22T13:04:04.008Z</time>
      </trkpt>
      <trkpt lat="43.03048" lon="0.91447">
        <ele>404.1580032</ele>
        <time>2019-04-22T13:04:06.008Z</time>
      </trkpt>
      <trkpt lat="43.03046" lon="0.91442">
        <ele>405</ele>
        <time>2019-04-22T13:04:08.008Z</time>
      </trkpt>
      <trkpt lat="43.03045" lon="0.91436">
        <ele>405</ele>
        <time>2019-04-22T13:04:10.008Z</time>
      </trkpt>
      <trkpt lat="43.03042" lon="0.91429">
        <ele>406</ele>
        <time>2019-04-22T13:04:13.008Z</time>
      </trkpt>
      <trkpt lat="43.03041" lon="0.91421">
        <ele>406.3160064</ele>
        <time>2019-04-22T13:04:16.008Z</time>
      </trkpt>
      <trkpt lat="43.03039" lon="0.91414">
        <ele>408</ele>
        <time>2019-04-22T13:04:19.008Z</time>
      </trkpt>
      <trkpt lat="43.03036" lon="0.91406">
        <ele>409</ele>
        <time>2019-04-22T13:04:22.008Z</time>
      </trkpt>
      <trkpt lat="43.03033" lon="0.91398">
        <ele>409</ele>
        <time>2019-04-22T13:04:25.008Z</time>
      </trkpt>
      <trkpt lat="43.03032" lon="0.91392">
        <ele>410</ele>
        <time>2019-04-22T13:04:27.008Z</time>
      </trkpt>
      <trkpt lat="43.0303" lon="0.91386">
        <ele>410</ele>
        <time>2019-04-22T13:04:29.008Z</time>
      </trkpt>
      <trkpt lat="43.03029" lon="0.91381">
        <ele>410.1580032</ele>
        <time>2019-04-22T13:04:31.008Z</time>
      </trkpt>
      <trkpt lat="43.03028" lon="0.91376">
        <ele>411</ele>
        <time>2019-04-22T13:04:33.008Z</time>
      </trkpt>
      <trkpt lat="43.03026" lon="0.9137">
        <ele>411</ele>
        <time>2019-04-22T13:04:35.008Z</time>
      </trkpt>
      <trkpt lat="43.03025" lon="0.91365">
        <ele>412</ele>
        <time>2019-04-22T13:04:37.008Z</time>
      </trkpt>
      <trkpt lat="43.03024" lon="0.9136">
        <ele>412</ele>
        <time>2019-04-22T13:04:39.008Z</time>
      </trkpt>
      <trkpt lat="43.03023" lon="0.91355">
        <ele>412</ele>
        <time>2019-04-22T13:04:41.008Z</time>
      </trkpt>
      <trkpt lat="43.03022" lon="0.91346">
        <ele>412</ele>
        <time>2019-04-22T13:04:44.008Z</time>
      </trkpt>
      <trkpt lat="43.03021" lon="0.91339">
        <ele>412</ele>
        <time>2019-04-22T13:04:46.008Z</time>
      </trkpt>
      <trkpt lat="43.0302" lon="0.91329">
        <ele>412</ele>
        <time>2019-04-22T13:04:48.008Z</time>
      </trkpt>
      <trkpt lat="43.03018" lon="0.91318">
        <ele>412</ele>
        <time>2019-04-22T13:04:50.008Z</time>
      </trkpt>
      <trkpt lat="43.03015" lon="0.91302">
        <ele>411</ele>
        <time>2019-04-22T13:04:52.008Z</time>
      </trkpt>
      <trkpt lat="43.03014" lon="0.91293">
        <ele>411</ele>
        <time>2019-04-22T13:04:53.008Z</time>
      </trkpt>
      <trkpt lat="43.03013" lon="0.91283">
        <ele>411</ele>
        <time>2019-04-22T13:04:54.008Z</time>
      </trkpt>
      <trkpt lat="43.03013" lon="0.91272">
        <ele>411</ele>
        <time>2019-04-22T13:04:55.008Z</time>
      </trkpt>
      <trkpt lat="43.03013" lon="0.91262">
        <ele>411</ele>
        <time>2019-04-22T13:04:56.008Z</time>
      </trkpt>
      <trkpt lat="43.03013" lon="0.91251">
        <ele>411</ele>
        <time>2019-04-22T13:04:57.008Z</time>
      </trkpt>
      <trkpt lat="43.0301" lon="0.91228">
        <ele>411</ele>
        <time>2019-04-22T13:04:59.008Z</time>
      </trkpt>
      <trkpt lat="43.03007" lon="0.91216">
        <ele>411</ele>
        <time>2019-04-22T13:05:00.008Z</time>
      </trkpt>
      <trkpt lat="43.03003" lon="0.91205">
        <ele>410.0519808</ele>
        <time>2019-04-22T13:05:01.008Z</time>
      </trkpt>
      <trkpt lat="43.02993" lon="0.91181">
        <ele>404.8419968</ele>
        <time>2019-04-22T13:05:03.008Z</time>
      </trkpt>
      <trkpt lat="43.02989" lon="0.91169">
        <ele>404</ele>
        <time>2019-04-22T13:05:04.008Z</time>
      </trkpt>
      <trkpt lat="43.02985" lon="0.91156">
        <ele>403.8419968</ele>
        <time>2019-04-22T13:05:05.008Z</time>
      </trkpt>
      <trkpt lat="43.02983" lon="0.91143">
        <ele>403</ele>
        <time>2019-04-22T13:05:06.008Z</time>
      </trkpt>
      <trkpt lat="43.02981" lon="0.91129">
        <ele>402.8419968</ele>
        <time>2019-04-22T13:05:07.008Z</time>
      </trkpt>
      <trkpt lat="43.0298" lon="0.91116">
        <ele>402</ele>
        <time>2019-04-22T13:05:08.008Z</time>
      </trkpt>
      <trkpt lat="43.02978" lon="0.91103">
        <ele>401.8419968</ele>
        <time>2019-04-22T13:05:09.008Z</time>
      </trkpt>
      <trkpt lat="43.02976" lon="0.9109">
        <ele>401</ele>
        <time>2019-04-22T13:05:10.008Z</time>
      </trkpt>
      <trkpt lat="43.02973" lon="0.91078">
        <ele>400.8419968</ele>
        <time>2019-04-22T13:05:11.008Z</time>
      </trkpt>
      <trkpt lat="43.0297" lon="0.91067">
        <ele>399.8419968</ele>
        <time>2019-04-22T13:05:12.008Z</time>
      </trkpt>
      <trkpt lat="43.02965" lon="0.91056">
        <ele>399</ele>
        <time>2019-04-22T13:05:13.008Z</time>
      </trkpt>
      <trkpt lat="43.0296" lon="0.91045">
        <ele>398.8419968</ele>
        <time>2019-04-22T13:05:14.008Z</time>
      </trkpt>
      <trkpt lat="43.02955" lon="0.91034">
        <ele>397.8419968</ele>
        <time>2019-04-22T13:05:15.008Z</time>
      </trkpt>
      <trkpt lat="43.02948" lon="0.91022">
        <ele>396.6839936</ele>
        <time>2019-04-22T13:05:16.008Z</time>
      </trkpt>
      <trkpt lat="43.02941" lon="0.9101">
        <ele>394.6839936</ele>
        <time>2019-04-22T13:05:17.008Z</time>
      </trkpt>
      <trkpt lat="43.02934" lon="0.90998">
        <ele>392.8419968</ele>
        <time>2019-04-22T13:05:18.008Z</time>
      </trkpt>
      <trkpt lat="43.02927" lon="0.90985">
        <ele>391.8419968</ele>
        <time>2019-04-22T13:05:19.008Z</time>
      </trkpt>
      <trkpt lat="43.0292" lon="0.90973">
        <ele>391</ele>
        <time>2019-04-22T13:05:20.008Z</time>
      </trkpt>
      <trkpt lat="43.02916" lon="0.90959">
        <ele>391</ele>
        <time>2019-04-22T13:05:21.008Z</time>
      </trkpt>
      <trkpt lat="43.02914" lon="0.90946">
        <ele>391</ele>
        <time>2019-04-22T13:05:22.008Z</time>
      </trkpt>
      <trkpt lat="43.02915" lon="0.90919">
        <ele>391</ele>
        <time>2019-04-22T13:05:24.008Z</time>
      </trkpt>
      <trkpt lat="43.02915" lon="0.90895">
        <ele>390.6839936</ele>
        <time>2019-04-22T13:05:26.008Z</time>
      </trkpt>
      <trkpt lat="43.02911" lon="0.90871">
        <ele>388</ele>
        <time>2019-04-22T13:05:28.008Z</time>
      </trkpt>
      <trkpt lat="43.02903" lon="0.9085">
        <ele>387.8419968</ele>
        <time>2019-04-22T13:05:30.008Z</time>
      </trkpt>
      <trkpt lat="43.02895" lon="0.90828">
        <ele>387</ele>
        <time>2019-04-22T13:05:32.008Z</time>
      </trkpt>
      <trkpt lat="43.0289" lon="0.90803">
        <ele>387</ele>
        <time>2019-04-22T13:05:34.008Z</time>
      </trkpt>
      <trkpt lat="43.02888" lon="0.90791">
        <ele>387</ele>
        <time>2019-04-22T13:05:35.008Z</time>
      </trkpt>
      <trkpt lat="43.02887" lon="0.9078">
        <ele>387</ele>
        <time>2019-04-22T13:05:36.008Z</time>
      </trkpt>
      <trkpt lat="43.02886" lon="0.90757">
        <ele>387</ele>
        <time>2019-04-22T13:05:38.008Z</time>
      </trkpt>
      <trkpt lat="43.02884" lon="0.90736">
        <ele>387</ele>
        <time>2019-04-22T13:05:40.008Z</time>
      </trkpt>
      <trkpt lat="43.02879" lon="0.90714">
        <ele>385</ele>
        <time>2019-04-22T13:05:42.008Z</time>
      </trkpt>
      <trkpt lat="43.02873" lon="0.90693">
        <ele>385</ele>
        <time>2019-04-22T13:05:44.008Z</time>
      </trkpt>
      <trkpt lat="43.0287" lon="0.90682">
        <ele>385</ele>
        <time>2019-04-22T13:05:45.008Z</time>
      </trkpt>
      <trkpt lat="43.02866" lon="0.90672">
        <ele>384.6839936</ele>
        <time>2019-04-22T13:05:46.008Z</time>
      </trkpt>
      <trkpt lat="43.02861" lon="0.90661">
        <ele>383</ele>
        <time>2019-04-22T13:05:47.008Z</time>
      </trkpt>
      <trkpt lat="43.02857" lon="0.90651">
        <ele>383</ele>
        <time>2019-04-22T13:05:48.008Z</time>
      </trkpt>
      <trkpt lat="43.02852" lon="0.9064">
        <ele>383</ele>
        <time>2019-04-22T13:05:49.008Z</time>
      </trkpt>
      <trkpt lat="43.02847" lon="0.90629">
        <ele>383</ele>
        <time>2019-04-22T13:05:50.008Z</time>
      </trkpt>
      <trkpt lat="43.02837" lon="0.90606">
        <ele>380</ele>
        <time>2019-04-22T13:05:52.008Z</time>
      </trkpt>
      <trkpt lat="43.0283" lon="0.90585">
        <ele>380</ele>
        <time>2019-04-22T13:05:54.008Z</time>
      </trkpt>
      <trkpt lat="43.02828" lon="0.90576">
        <ele>380</ele>
        <time>2019-04-22T13:05:55.008Z</time>
      </trkpt>
      <trkpt lat="43.02828" lon="0.90567">
        <ele>380.1580032</ele>
        <time>2019-04-22T13:05:56.008Z</time>
      </trkpt>
      <trkpt lat="43.02829" lon="0.90559">
        <ele>381</ele>
        <time>2019-04-22T13:05:57.008Z</time>
      </trkpt>
      <trkpt lat="43.02829" lon="0.90545">
        <ele>381</ele>
        <time>2019-04-22T13:05:59.008Z</time>
      </trkpt>
      <trkpt lat="43.02831" lon="0.90534">
        <ele>381.6320128</ele>
        <time>2019-04-22T13:06:01.008Z</time>
      </trkpt>
      <trkpt lat="43.02831" lon="0.90525">
        <ele>385</ele>
        <time>2019-04-22T13:06:03.008Z</time>
      </trkpt>
      <trkpt lat="43.02834" lon="0.90514">
        <ele>385.3160064</ele>
        <time>2019-04-22T13:06:06.008Z</time>
      </trkpt>
      <trkpt lat="43.0284" lon="0.90508">
        <ele>387</ele>
        <time>2019-04-22T13:06:09.008Z</time>
      </trkpt>
      <trkpt lat="43.02845" lon="0.90505">
        <ele>387</ele>
        <time>2019-04-22T13:06:11.008Z</time>
      </trkpt>
      <trkpt lat="43.02848" lon="0.905">
        <ele>387</ele>
        <time>2019-04-22T13:06:14.008Z</time>
      </trkpt>
      <trkpt lat="43.02844" lon="0.90497">
        <ele>388</ele>
        <time>2019-04-22T13:06:17.008Z</time>
      </trkpt>
      <trkpt lat="43.02838" lon="0.90498">
        <ele>388</ele>
        <time>2019-04-22T13:06:20.008Z</time>
      </trkpt>
      <trkpt lat="43.02833" lon="0.90499">
        <ele>389</ele>
        <time>2019-04-22T13:06:24.008Z</time>
      </trkpt>
      <trkpt lat="43.02827" lon="0.90498">
        <ele>389</ele>
        <time>2019-04-22T13:06:37.008Z</time>
      </trkpt>
      <trkpt lat="43.02819" lon="0.90499">
        <ele>389</ele>
        <time>2019-04-22T13:06:40.008Z</time>
      </trkpt>
      <trkpt lat="43.0281" lon="0.90499">
        <ele>391</ele>
        <time>2019-04-22T13:06:43.008Z</time>
      </trkpt>
      <trkpt lat="43.02804" lon="0.90499">
        <ele>391</ele>
        <time>2019-04-22T13:06:45.008Z</time>
      </trkpt>
      <trkpt lat="43.02798" lon="0.90498">
        <ele>391</ele>
        <time>2019-04-22T13:06:47.008Z</time>
      </trkpt>
      <trkpt lat="43.02791" lon="0.90496">
        <ele>391</ele>
        <time>2019-04-22T13:06:49.008Z</time>
      </trkpt>
      <trkpt lat="43.02785" lon="0.90494">
        <ele>391.3160064</ele>
        <time>2019-04-22T13:06:51.008Z</time>
      </trkpt>
      <trkpt lat="43.02779" lon="0.9049">
        <ele>393</ele>
        <time>2019-04-22T13:06:53.008Z</time>
      </trkpt>
      <trkpt lat="43.02775" lon="0.90484">
        <ele>393</ele>
        <time>2019-04-22T13:06:55.008Z</time>
      </trkpt>
      <trkpt lat="43.02771" lon="0.90478">
        <ele>393</ele>
        <time>2019-04-22T13:06:57.008Z</time>
      </trkpt>
      <trkpt lat="43.02767" lon="0.90471">
        <ele>393</ele>
        <time>2019-04-22T13:06:59.008Z</time>
      </trkpt>
      <trkpt lat="43.02764" lon="0.90464">
        <ele>393.4740096</ele>
        <time>2019-04-22T13:07:01.008Z</time>
      </trkpt>
      <trkpt lat="43.02762" lon="0.90456">
        <ele>396</ele>
        <time>2019-04-22T13:07:03.008Z</time>
      </trkpt>
      <trkpt lat="43.02762" lon="0.90444">
        <ele>396.3160064</ele>
        <time>2019-04-22T13:07:06.008Z</time>
      </trkpt>
      <trkpt lat="43.02764" lon="0.90432">
        <ele>398</ele>
        <time>2019-04-22T13:07:09.008Z</time>
      </trkpt>
      <trkpt lat="43.02768" lon="0.90421">
        <ele>399</ele>
        <time>2019-04-22T13:07:12.008Z</time>
      </trkpt>
      <trkpt lat="43.02772" lon="0.90413">
        <ele>399</ele>
        <time>2019-04-22T13:07:14.008Z</time>
      </trkpt>
      <trkpt lat="43.02774" lon="0.90406">
        <ele>399</ele>
        <time>2019-04-22T13:07:16.008Z</time>
      </trkpt>
      <trkpt lat="43.02777" lon="0.90399">
        <ele>399</ele>
        <time>2019-04-22T13:07:18.008Z</time>
      </trkpt>
      <trkpt lat="43.02778" lon="0.90391">
        <ele>399</ele>
        <time>2019-04-22T13:07:20.008Z</time>
      </trkpt>
      <trkpt lat="43.02779" lon="0.90382">
        <ele>401</ele>
        <time>2019-04-22T13:07:22.008Z</time>
      </trkpt>
      <trkpt lat="43.02779" lon="0.90374">
        <ele>401</ele>
        <time>2019-04-22T13:07:24.008Z</time>
      </trkpt>
      <trkpt lat="43.02778" lon="0.90366">
        <ele>401</ele>
        <time>2019-04-22T13:07:26.008Z</time>
      </trkpt>
      <trkpt lat="43.02777" lon="0.90358">
        <ele>401</ele>
        <time>2019-04-22T13:07:28.008Z</time>
      </trkpt>
      <trkpt lat="43.02775" lon="0.9035">
        <ele>401</ele>
        <time>2019-04-22T13:07:30.008Z</time>
      </trkpt>
      <trkpt lat="43.02774" lon="0.90342">
        <ele>403</ele>
        <time>2019-04-22T13:07:32.008Z</time>
      </trkpt>
      <trkpt lat="43.02772" lon="0.90334">
        <ele>403</ele>
        <time>2019-04-22T13:07:34.008Z</time>
      </trkpt>
      <trkpt lat="43.0277" lon="0.90326">
        <ele>403</ele>
        <time>2019-04-22T13:07:36.008Z</time>
      </trkpt>
      <trkpt lat="43.02769" lon="0.90318">
        <ele>403</ele>
        <time>2019-04-22T13:07:38.008Z</time>
      </trkpt>
      <trkpt lat="43.02768" lon="0.9031">
        <ele>403</ele>
        <time>2019-04-22T13:07:40.008Z</time>
      </trkpt>
      <trkpt lat="43.02767" lon="0.90302">
        <ele>405</ele>
        <time>2019-04-22T13:07:42.008Z</time>
      </trkpt>
      <trkpt lat="43.02767" lon="0.9029">
        <ele>405</ele>
        <time>2019-04-22T13:07:45.008Z</time>
      </trkpt>
      <trkpt lat="43.02767" lon="0.90282">
        <ele>405</ele>
        <time>2019-04-22T13:07:47.008Z</time>
      </trkpt>
      <trkpt lat="43.02767" lon="0.90274">
        <ele>405</ele>
        <time>2019-04-22T13:07:49.008Z</time>
      </trkpt>
      <trkpt lat="43.02766" lon="0.90266">
        <ele>405.4740096</ele>
        <time>2019-04-22T13:07:51.008Z</time>
      </trkpt>
      <trkpt lat="43.02767" lon="0.90258">
        <ele>408</ele>
        <time>2019-04-22T13:07:53.008Z</time>
      </trkpt>
      <trkpt lat="43.02767" lon="0.9025">
        <ele>408</ele>
        <time>2019-04-22T13:07:55.008Z</time>
      </trkpt>
      <trkpt lat="43.02767" lon="0.90242">
        <ele>410</ele>
        <time>2019-04-22T13:07:57.008Z</time>
      </trkpt>
      <trkpt lat="43.02767" lon="0.90234">
        <ele>410</ele>
        <time>2019-04-22T13:07:59.008Z</time>
      </trkpt>
      <trkpt lat="43.02768" lon="0.90226">
        <ele>410.1580032</ele>
        <time>2019-04-22T13:08:01.008Z</time>
      </trkpt>
      <trkpt lat="43.02769" lon="0.90218">
        <ele>411</ele>
        <time>2019-04-22T13:08:03.008Z</time>
      </trkpt>
      <trkpt lat="43.0277" lon="0.9021">
        <ele>411</ele>
        <time>2019-04-22T13:08:05.008Z</time>
      </trkpt>
      <trkpt lat="43.0277" lon="0.90206">
        <ele>411</ele>
        <time>2019-04-22T13:08:06.008Z</time>
      </trkpt>
      <trkpt lat="43.02771" lon="0.90202">
        <ele>411</ele>
        <time>2019-04-22T13:08:07.008Z</time>
      </trkpt>
      <trkpt lat="43.02771" lon="0.90198">
        <ele>411</ele>
        <time>2019-04-22T13:08:08.008Z</time>
      </trkpt>
      <trkpt lat="43.02772" lon="0.90194">
        <ele>411</ele>
        <time>2019-04-22T13:08:09.008Z</time>
      </trkpt>
      <trkpt lat="43.02772" lon="0.9019">
        <ele>411</ele>
        <time>2019-04-22T13:08:10.008Z</time>
      </trkpt>
      <trkpt lat="43.02772" lon="0.90186">
        <ele>411.3160064</ele>
        <time>2019-04-22T13:08:11.008Z</time>
      </trkpt>
      <trkpt lat="43.02773" lon="0.90178">
        <ele>413</ele>
        <time>2019-04-22T13:08:13.008Z</time>
      </trkpt>
      <trkpt lat="43.02774" lon="0.9017">
        <ele>413</ele>
        <time>2019-04-22T13:08:15.008Z</time>
      </trkpt>
      <trkpt lat="43.02774" lon="0.90162">
        <ele>413</ele>
        <time>2019-04-22T13:08:17.008Z</time>
      </trkpt>
      <trkpt lat="43.02775" lon="0.90153">
        <ele>413</ele>
        <time>2019-04-22T13:08:19.008Z</time>
      </trkpt>
      <trkpt lat="43.02775" lon="0.90145">
        <ele>413.3160064</ele>
        <time>2019-04-22T13:08:21.008Z</time>
      </trkpt>
      <trkpt lat="43.02775" lon="0.90137">
        <ele>415</ele>
        <time>2019-04-22T13:08:23.008Z</time>
      </trkpt>
      <trkpt lat="43.02775" lon="0.90129">
        <ele>415</ele>
        <time>2019-04-22T13:08:25.008Z</time>
      </trkpt>
      <trkpt lat="43.02774" lon="0.90122">
        <ele>415</ele>
        <time>2019-04-22T13:08:27.008Z</time>
      </trkpt>
      <trkpt lat="43.02772" lon="0.90114">
        <ele>415</ele>
        <time>2019-04-22T13:08:29.008Z</time>
      </trkpt>
      <trkpt lat="43.0277" lon="0.90107">
        <ele>415.3160064</ele>
        <time>2019-04-22T13:08:31.008Z</time>
      </trkpt>
      <trkpt lat="43.02768" lon="0.901">
        <ele>417</ele>
        <time>2019-04-22T13:08:33.008Z</time>
      </trkpt>
      <trkpt lat="43.02765" lon="0.90093">
        <ele>417</ele>
        <time>2019-04-22T13:08:35.008Z</time>
      </trkpt>
      <trkpt lat="43.02761" lon="0.90082">
        <ele>417</ele>
        <time>2019-04-22T13:08:38.008Z</time>
      </trkpt>
      <trkpt lat="43.02757" lon="0.90072">
        <ele>417.3160064</ele>
        <time>2019-04-22T13:08:41.008Z</time>
      </trkpt>
      <trkpt lat="43.02753" lon="0.90066">
        <ele>419</ele>
        <time>2019-04-22T13:08:43.008Z</time>
      </trkpt>
      <trkpt lat="43.02751" lon="0.90059">
        <ele>419</ele>
        <time>2019-04-22T13:08:45.008Z</time>
      </trkpt>
      <trkpt lat="43.0275" lon="0.90051">
        <ele>421</ele>
        <time>2019-04-22T13:08:47.008Z</time>
      </trkpt>
      <trkpt lat="43.0275" lon="0.90042">
        <ele>421</ele>
        <time>2019-04-22T13:08:49.008Z</time>
      </trkpt>
      <trkpt lat="43.0275" lon="0.90033">
        <ele>421.1580032</ele>
        <time>2019-04-22T13:08:51.008Z</time>
      </trkpt>
      <trkpt lat="43.0275" lon="0.9002">
        <ele>422</ele>
        <time>2019-04-22T13:08:54.008Z</time>
      </trkpt>
      <trkpt lat="43.02751" lon="0.90012">
        <ele>422.1580032</ele>
        <time>2019-04-22T13:08:56.008Z</time>
      </trkpt>
      <trkpt lat="43.02753" lon="0.89998">
        <ele>423</ele>
        <time>2019-04-22T13:08:59.008Z</time>
      </trkpt>
      <trkpt lat="43.02754" lon="0.89989">
        <ele>423</ele>
        <time>2019-04-22T13:09:01.008Z</time>
      </trkpt>
      <trkpt lat="43.02755" lon="0.8998">
        <ele>423</ele>
        <time>2019-04-22T13:09:03.008Z</time>
      </trkpt>
      <trkpt lat="43.02756" lon="0.89972">
        <ele>423</ele>
        <time>2019-04-22T13:09:05.008Z</time>
      </trkpt>
      <trkpt lat="43.02757" lon="0.89963">
        <ele>423</ele>
        <time>2019-04-22T13:09:07.008Z</time>
      </trkpt>
      <trkpt lat="43.02758" lon="0.89954">
        <ele>423</ele>
        <time>2019-04-22T13:09:09.008Z</time>
      </trkpt>
      <trkpt lat="43.02759" lon="0.89945">
        <ele>423.1580032</ele>
        <time>2019-04-22T13:09:11.008Z</time>
      </trkpt>
      <trkpt lat="43.0276" lon="0.89936">
        <ele>424</ele>
        <time>2019-04-22T13:09:13.008Z</time>
      </trkpt>
      <trkpt lat="43.02761" lon="0.89928">
        <ele>424</ele>
        <time>2019-04-22T13:09:15.008Z</time>
      </trkpt>
      <trkpt lat="43.02761" lon="0.89919">
        <ele>424</ele>
        <time>2019-04-22T13:09:17.008Z</time>
      </trkpt>
      <trkpt lat="43.02761" lon="0.89915">
        <ele>424</ele>
        <time>2019-04-22T13:09:18.008Z</time>
      </trkpt>
      <trkpt lat="43.02762" lon="0.89906">
        <ele>424</ele>
        <time>2019-04-22T13:09:20.008Z</time>
      </trkpt>
      <trkpt lat="43.02762" lon="0.89902">
        <ele>424.3160064</ele>
        <time>2019-04-22T13:09:21.008Z</time>
      </trkpt>
      <trkpt lat="43.02762" lon="0.89898">
        <ele>426</ele>
        <time>2019-04-22T13:09:22.008Z</time>
      </trkpt>
      <trkpt lat="43.02762" lon="0.89894">
        <ele>426</ele>
        <time>2019-04-22T13:09:23.008Z</time>
      </trkpt>
      <trkpt lat="43.02762" lon="0.89889">
        <ele>426</ele>
        <time>2019-04-22T13:09:24.008Z</time>
      </trkpt>
      <trkpt lat="43.02761" lon="0.89885">
        <ele>426</ele>
        <time>2019-04-22T13:09:25.008Z</time>
      </trkpt>
      <trkpt lat="43.02761" lon="0.8988">
        <ele>426</ele>
        <time>2019-04-22T13:09:26.008Z</time>
      </trkpt>
      <trkpt lat="43.0276" lon="0.89876">
        <ele>426</ele>
        <time>2019-04-22T13:09:27.008Z</time>
      </trkpt>
      <trkpt lat="43.0276" lon="0.89872">
        <ele>426</ele>
        <time>2019-04-22T13:09:28.008Z</time>
      </trkpt>
      <trkpt lat="43.02759" lon="0.89867">
        <ele>426</ele>
        <time>2019-04-22T13:09:29.008Z</time>
      </trkpt>
      <trkpt lat="43.02759" lon="0.89863">
        <ele>426</ele>
        <time>2019-04-22T13:09:30.008Z</time>
      </trkpt>
      <trkpt lat="43.02758" lon="0.89859">
        <ele>426.1580032</ele>
        <time>2019-04-22T13:09:31.008Z</time>
      </trkpt>
      <trkpt lat="43.02757" lon="0.89854">
        <ele>427</ele>
        <time>2019-04-22T13:09:32.008Z</time>
      </trkpt>
      <trkpt lat="43.02757" lon="0.8985">
        <ele>427</ele>
        <time>2019-04-22T13:09:33.008Z</time>
      </trkpt>
      <trkpt lat="43.02756" lon="0.89845">
        <ele>427</ele>
        <time>2019-04-22T13:09:34.008Z</time>
      </trkpt>
      <trkpt lat="43.02756" lon="0.89841">
        <ele>427</ele>
        <time>2019-04-22T13:09:35.008Z</time>
      </trkpt>
      <trkpt lat="43.02755" lon="0.89836">
        <ele>427</ele>
        <time>2019-04-22T13:09:36.008Z</time>
      </trkpt>
      <trkpt lat="43.02755" lon="0.89832">
        <ele>427</ele>
        <time>2019-04-22T13:09:37.008Z</time>
      </trkpt>
      <trkpt lat="43.02753" lon="0.89824">
        <ele>427</ele>
        <time>2019-04-22T13:09:39.008Z</time>
      </trkpt>
      <trkpt lat="43.02753" lon="0.89819">
        <ele>427</ele>
        <time>2019-04-22T13:09:40.008Z</time>
      </trkpt>
      <trkpt lat="43.02752" lon="0.89814">
        <ele>427.3160064</ele>
        <time>2019-04-22T13:09:41.008Z</time>
      </trkpt>
      <trkpt lat="43.02751" lon="0.8981">
        <ele>429</ele>
        <time>2019-04-22T13:09:42.008Z</time>
      </trkpt>
      <trkpt lat="43.0275" lon="0.89801">
        <ele>429</ele>
        <time>2019-04-22T13:09:44.008Z</time>
      </trkpt>
      <trkpt lat="43.02748" lon="0.89793">
        <ele>429</ele>
        <time>2019-04-22T13:09:46.008Z</time>
      </trkpt>
      <trkpt lat="43.02746" lon="0.89784">
        <ele>429</ele>
        <time>2019-04-22T13:09:48.008Z</time>
      </trkpt>
      <trkpt lat="43.02743" lon="0.89776">
        <ele>429</ele>
        <time>2019-04-22T13:09:50.008Z</time>
      </trkpt>
      <trkpt lat="43.02739" lon="0.89769">
        <ele>431</ele>
        <time>2019-04-22T13:09:52.008Z</time>
      </trkpt>
      <trkpt lat="43.02734" lon="0.89762">
        <ele>431</ele>
        <time>2019-04-22T13:09:54.008Z</time>
      </trkpt>
      <trkpt lat="43.0273" lon="0.89756">
        <ele>431</ele>
        <time>2019-04-22T13:09:56.008Z</time>
      </trkpt>
      <trkpt lat="43.02725" lon="0.8975">
        <ele>431</ele>
        <time>2019-04-22T13:09:58.008Z</time>
      </trkpt>
      <trkpt lat="43.0272" lon="0.89744">
        <ele>431</ele>
        <time>2019-04-22T13:10:00.008Z</time>
      </trkpt>
      <trkpt lat="43.02716" lon="0.89738">
        <ele>433</ele>
        <time>2019-04-22T13:10:02.008Z</time>
      </trkpt>
      <trkpt lat="43.0271" lon="0.89732">
        <ele>433</ele>
        <time>2019-04-22T13:10:04.008Z</time>
      </trkpt>
      <trkpt lat="43.02705" lon="0.89727">
        <ele>433</ele>
        <time>2019-04-22T13:10:06.008Z</time>
      </trkpt>
      <trkpt lat="43.027" lon="0.89721">
        <ele>433</ele>
        <time>2019-04-22T13:10:08.008Z</time>
      </trkpt>
      <trkpt lat="43.02695" lon="0.89716">
        <ele>433</ele>
        <time>2019-04-22T13:10:10.008Z</time>
      </trkpt>
      <trkpt lat="43.0269" lon="0.89711">
        <ele>435</ele>
        <time>2019-04-22T13:10:12.008Z</time>
      </trkpt>
      <trkpt lat="43.02685" lon="0.89706">
        <ele>435</ele>
        <time>2019-04-22T13:10:14.008Z</time>
      </trkpt>
      <trkpt lat="43.0268" lon="0.897">
        <ele>435</ele>
        <time>2019-04-22T13:10:16.008Z</time>
      </trkpt>
      <trkpt lat="43.02674" lon="0.89695">
        <ele>435</ele>
        <time>2019-04-22T13:10:18.008Z</time>
      </trkpt>
      <trkpt lat="43.02667" lon="0.89691">
        <ele>435</ele>
        <time>2019-04-22T13:10:20.008Z</time>
      </trkpt>
      <trkpt lat="43.0266" lon="0.89689">
        <ele>435</ele>
        <time>2019-04-22T13:10:22.008Z</time>
      </trkpt>
      <trkpt lat="43.02653" lon="0.89687">
        <ele>435</ele>
        <time>2019-04-22T13:10:24.008Z</time>
      </trkpt>
      <trkpt lat="43.02645" lon="0.89686">
        <ele>435</ele>
        <time>2019-04-22T13:10:26.008Z</time>
      </trkpt>
      <trkpt lat="43.02637" lon="0.89686">
        <ele>435</ele>
        <time>2019-04-22T13:10:28.008Z</time>
      </trkpt>
      <trkpt lat="43.02629" lon="0.89687">
        <ele>435</ele>
        <time>2019-04-22T13:10:30.008Z</time>
      </trkpt>
      <trkpt lat="43.02621" lon="0.89687">
        <ele>435</ele>
        <time>2019-04-22T13:10:32.008Z</time>
      </trkpt>
      <trkpt lat="43.02613" lon="0.89687">
        <ele>435</ele>
        <time>2019-04-22T13:10:34.008Z</time>
      </trkpt>
      <trkpt lat="43.02605" lon="0.89687">
        <ele>435</ele>
        <time>2019-04-22T13:10:36.008Z</time>
      </trkpt>
      <trkpt lat="43.02596" lon="0.89687">
        <ele>435</ele>
        <time>2019-04-22T13:10:38.008Z</time>
      </trkpt>
      <trkpt lat="43.02588" lon="0.89686">
        <ele>435</ele>
        <time>2019-04-22T13:10:40.008Z</time>
      </trkpt>
      <trkpt lat="43.02578" lon="0.89684">
        <ele>434</ele>
        <time>2019-04-22T13:10:42.008Z</time>
      </trkpt>
      <trkpt lat="43.02568" lon="0.8968">
        <ele>434</ele>
        <time>2019-04-22T13:10:44.008Z</time>
      </trkpt>
      <trkpt lat="43.02558" lon="0.89673">
        <ele>434</ele>
        <time>2019-04-22T13:10:46.008Z</time>
      </trkpt>
      <trkpt lat="43.02546" lon="0.89668">
        <ele>434</ele>
        <time>2019-04-22T13:10:48.008Z</time>
      </trkpt>
      <trkpt lat="43.02532" lon="0.8966">
        <ele>434</ele>
        <time>2019-04-22T13:10:50.008Z</time>
      </trkpt>
      <trkpt lat="43.02525" lon="0.89654">
        <ele>433.3679872</ele>
        <time>2019-04-22T13:10:51.008Z</time>
      </trkpt>
      <trkpt lat="43.02519" lon="0.89645">
        <ele>430</ele>
        <time>2019-04-22T13:10:52.008Z</time>
      </trkpt>
      <trkpt lat="43.02514" lon="0.89636">
        <ele>430</ele>
        <time>2019-04-22T13:10:53.008Z</time>
      </trkpt>
      <trkpt lat="43.02509" lon="0.89626">
        <ele>430</ele>
        <time>2019-04-22T13:10:54.008Z</time>
      </trkpt>
      <trkpt lat="43.02503" lon="0.89618">
        <ele>430</ele>
        <time>2019-04-22T13:10:55.008Z</time>
      </trkpt>
      <trkpt lat="43.02496" lon="0.89611">
        <ele>429.8419968</ele>
        <time>2019-04-22T13:10:56.008Z</time>
      </trkpt>
      <trkpt lat="43.02487" lon="0.89606">
        <ele>429</ele>
        <time>2019-04-22T13:10:57.008Z</time>
      </trkpt>
      <trkpt lat="43.02479" lon="0.89603">
        <ele>429</ele>
        <time>2019-04-22T13:10:58.008Z</time>
      </trkpt>
      <trkpt lat="43.02471" lon="0.89603">
        <ele>429</ele>
        <time>2019-04-22T13:10:59.008Z</time>
      </trkpt>
      <trkpt lat="43.02463" lon="0.89605">
        <ele>429</ele>
        <time>2019-04-22T13:11:00.008Z</time>
      </trkpt>
      <trkpt lat="43.02455" lon="0.89609">
        <ele>428.8419968</ele>
        <time>2019-04-22T13:11:01.008Z</time>
      </trkpt>
      <trkpt lat="43.02448" lon="0.89612">
        <ele>428</ele>
        <time>2019-04-22T13:11:02.008Z</time>
      </trkpt>
      <trkpt lat="43.02441" lon="0.89614">
        <ele>428</ele>
        <time>2019-04-22T13:11:03.008Z</time>
      </trkpt>
      <trkpt lat="43.02435" lon="0.89618">
        <ele>428</ele>
        <time>2019-04-22T13:11:04.008Z</time>
      </trkpt>
      <trkpt lat="43.02423" lon="0.89623">
        <ele>428.1580032</ele>
        <time>2019-04-22T13:11:06.008Z</time>
      </trkpt>
      <trkpt lat="43.02412" lon="0.89629">
        <ele>429</ele>
        <time>2019-04-22T13:11:08.008Z</time>
      </trkpt>
      <trkpt lat="43.024" lon="0.89633">
        <ele>429</ele>
        <time>2019-04-22T13:11:10.008Z</time>
      </trkpt>
      <trkpt lat="43.02388" lon="0.89638">
        <ele>429</ele>
        <time>2019-04-22T13:11:12.008Z</time>
      </trkpt>
      <trkpt lat="43.02376" lon="0.89641">
        <ele>429</ele>
        <time>2019-04-22T13:11:14.008Z</time>
      </trkpt>
      <trkpt lat="43.02364" lon="0.89644">
        <ele>429</ele>
        <time>2019-04-22T13:11:16.008Z</time>
      </trkpt>
      <trkpt lat="43.02354" lon="0.89643">
        <ele>429</ele>
        <time>2019-04-22T13:11:18.008Z</time>
      </trkpt>
      <trkpt lat="43.02339" lon="0.89643">
        <ele>429.1580032</ele>
        <time>2019-04-22T13:11:21.008Z</time>
      </trkpt>
      <trkpt lat="43.02328" lon="0.89646">
        <ele>430</ele>
        <time>2019-04-22T13:11:24.008Z</time>
      </trkpt>
      <trkpt lat="43.02318" lon="0.89654">
        <ele>430</ele>
        <time>2019-04-22T13:11:27.008Z</time>
      </trkpt>
      <trkpt lat="43.0231" lon="0.89652">
        <ele>430</ele>
        <time>2019-04-22T13:11:30.008Z</time>
      </trkpt>
      <trkpt lat="43.0231" lon="0.89641">
        <ele>432</ele>
        <time>2019-04-22T13:11:33.008Z</time>
      </trkpt>
      <trkpt lat="43.02307" lon="0.8963">
        <ele>432</ele>
        <time>2019-04-22T13:11:36.008Z</time>
      </trkpt>
      <trkpt lat="43.02305" lon="0.89623">
        <ele>432</ele>
        <time>2019-04-22T13:11:38.008Z</time>
      </trkpt>
      <trkpt lat="43.02302" lon="0.89609">
        <ele>435</ele>
        <time>2019-04-22T13:11:42.008Z</time>
      </trkpt>
      <trkpt lat="43.023" lon="0.89597">
        <ele>435</ele>
        <time>2019-04-22T13:11:45.008Z</time>
      </trkpt>
      <trkpt lat="43.02299" lon="0.89585">
        <ele>436</ele>
        <time>2019-04-22T13:11:48.008Z</time>
      </trkpt>
      <trkpt lat="43.02297" lon="0.89576">
        <ele>436</ele>
        <time>2019-04-22T13:11:50.008Z</time>
      </trkpt>
      <trkpt lat="43.02293" lon="0.89563">
        <ele>436</ele>
        <time>2019-04-22T13:11:53.008Z</time>
      </trkpt>
      <trkpt lat="43.02287" lon="0.8955">
        <ele>436</ele>
        <time>2019-04-22T13:11:56.008Z</time>
      </trkpt>
      <trkpt lat="43.02284" lon="0.89541">
        <ele>436</ele>
        <time>2019-04-22T13:11:58.008Z</time>
      </trkpt>
      <trkpt lat="43.0228" lon="0.89533">
        <ele>436</ele>
        <time>2019-04-22T13:12:00.008Z</time>
      </trkpt>
      <trkpt lat="43.02276" lon="0.89526">
        <ele>437</ele>
        <time>2019-04-22T13:12:02.008Z</time>
      </trkpt>
      <trkpt lat="43.02271" lon="0.89519">
        <ele>437</ele>
        <time>2019-04-22T13:12:04.008Z</time>
      </trkpt>
      <trkpt lat="43.02269" lon="0.89517">
        <ele>437</ele>
        <time>2019-04-22T13:12:05.008Z</time>
      </trkpt>
      <trkpt lat="43.02266" lon="0.89515">
        <ele>437</ele>
        <time>2019-04-22T13:12:06.008Z</time>
      </trkpt>
      <trkpt lat="43.02262" lon="0.89513">
        <ele>437</ele>
        <time>2019-04-22T13:12:07.008Z</time>
      </trkpt>
      <trkpt lat="43.02256" lon="0.89511">
        <ele>437</ele>
        <time>2019-04-22T13:12:09.008Z</time>
      </trkpt>
      <trkpt lat="43.0225" lon="0.8951">
        <ele>437.3160064</ele>
        <time>2019-04-22T13:12:11.008Z</time>
      </trkpt>
      <trkpt lat="43.02244" lon="0.89508">
        <ele>439</ele>
        <time>2019-04-22T13:12:13.008Z</time>
      </trkpt>
      <trkpt lat="43.02241" lon="0.89507">
        <ele>439</ele>
        <time>2019-04-22T13:12:14.008Z</time>
      </trkpt>
      <trkpt lat="43.02235" lon="0.89503">
        <ele>439</ele>
        <time>2019-04-22T13:12:16.008Z</time>
      </trkpt>
      <trkpt lat="43.02229" lon="0.89499">
        <ele>439</ele>
        <time>2019-04-22T13:12:18.008Z</time>
      </trkpt>
      <trkpt lat="43.02225" lon="0.89493">
        <ele>439</ele>
        <time>2019-04-22T13:12:20.008Z</time>
      </trkpt>
      <trkpt lat="43.02221" lon="0.89486">
        <ele>439</ele>
        <time>2019-04-22T13:12:22.008Z</time>
      </trkpt>
      <trkpt lat="43.02219" lon="0.89481">
        <ele>439</ele>
        <time>2019-04-22T13:12:24.008Z</time>
      </trkpt>
      <trkpt lat="43.02217" lon="0.89474">
        <ele>439</ele>
        <time>2019-04-22T13:12:26.008Z</time>
      </trkpt>
      <trkpt lat="43.02216" lon="0.89469">
        <ele>439</ele>
        <time>2019-04-22T13:12:27.008Z</time>
      </trkpt>
      <trkpt lat="43.02214" lon="0.89463">
        <ele>439</ele>
        <time>2019-04-22T13:12:28.008Z</time>
      </trkpt>
      <trkpt lat="43.02213" lon="0.89455">
        <ele>439</ele>
        <time>2019-04-22T13:12:29.008Z</time>
      </trkpt>
      <trkpt lat="43.02212" lon="0.89446">
        <ele>439</ele>
        <time>2019-04-22T13:12:30.008Z</time>
      </trkpt>
      <trkpt lat="43.02211" lon="0.89436">
        <ele>438.5259904</ele>
        <time>2019-04-22T13:12:31.008Z</time>
      </trkpt>
      <trkpt lat="43.0221" lon="0.89425">
        <ele>436</ele>
        <time>2019-04-22T13:12:32.008Z</time>
      </trkpt>
      <trkpt lat="43.02209" lon="0.89413">
        <ele>436</ele>
        <time>2019-04-22T13:12:33.008Z</time>
      </trkpt>
      <trkpt lat="43.02208" lon="0.89401">
        <ele>436</ele>
        <time>2019-04-22T13:12:34.008Z</time>
      </trkpt>
      <trkpt lat="43.02206" lon="0.89387">
        <ele>436</ele>
        <time>2019-04-22T13:12:35.008Z</time>
      </trkpt>
      <trkpt lat="43.02204" lon="0.89374">
        <ele>435.209984</ele>
        <time>2019-04-22T13:12:36.008Z</time>
      </trkpt>
      <trkpt lat="43.02202" lon="0.8936">
        <ele>431</ele>
        <time>2019-04-22T13:12:37.008Z</time>
      </trkpt>
      <trkpt lat="43.02199" lon="0.89345">
        <ele>431</ele>
        <time>2019-04-22T13:12:38.008Z</time>
      </trkpt>
      <trkpt lat="43.02196" lon="0.8933">
        <ele>431</ele>
        <time>2019-04-22T13:12:39.008Z</time>
      </trkpt>
      <trkpt lat="43.02194" lon="0.89315">
        <ele>431</ele>
        <time>2019-04-22T13:12:40.008Z</time>
      </trkpt>
      <trkpt lat="43.02192" lon="0.893">
        <ele>430.0519808</ele>
        <time>2019-04-22T13:12:41.008Z</time>
      </trkpt>
      <trkpt lat="43.02191" lon="0.89285">
        <ele>424.6839936</ele>
        <time>2019-04-22T13:12:42.008Z</time>
      </trkpt>
      <trkpt lat="43.02189" lon="0.8927">
        <ele>423</ele>
        <time>2019-04-22T13:12:43.008Z</time>
      </trkpt>
      <trkpt lat="43.02188" lon="0.89255">
        <ele>422.8419968</ele>
        <time>2019-04-22T13:12:44.008Z</time>
      </trkpt>
      <trkpt lat="43.02188" lon="0.89241">
        <ele>422</ele>
        <time>2019-04-22T13:12:45.008Z</time>
      </trkpt>
      <trkpt lat="43.02188" lon="0.89226">
        <ele>421.6839936</ele>
        <time>2019-04-22T13:12:46.008Z</time>
      </trkpt>
      <trkpt lat="43.02189" lon="0.89212">
        <ele>419.8419968</ele>
        <time>2019-04-22T13:12:47.008Z</time>
      </trkpt>
      <trkpt lat="43.02189" lon="0.89197">
        <ele>418.8419968</ele>
        <time>2019-04-22T13:12:48.008Z</time>
      </trkpt>
      <trkpt lat="43.02189" lon="0.89182">
        <ele>418</ele>
        <time>2019-04-22T13:12:49.008Z</time>
      </trkpt>
      <trkpt lat="43.02188" lon="0.89166">
        <ele>418</ele>
        <time>2019-04-22T13:12:50.008Z</time>
      </trkpt>
      <trkpt lat="43.02184" lon="0.89152">
        <ele>417.8419968</ele>
        <time>2019-04-22T13:12:51.008Z</time>
      </trkpt>
      <trkpt lat="43.02179" lon="0.89139">
        <ele>417.1580032</ele>
        <time>2019-04-22T13:12:52.008Z</time>
      </trkpt>
      <trkpt lat="43.02173" lon="0.89127">
        <ele>418</ele>
        <time>2019-04-22T13:12:53.008Z</time>
      </trkpt>
      <trkpt lat="43.02167" lon="0.89116">
        <ele>418</ele>
        <time>2019-04-22T13:12:54.008Z</time>
      </trkpt>
      <trkpt lat="43.02154" lon="0.89097">
        <ele>418</ele>
        <time>2019-04-22T13:12:56.008Z</time>
      </trkpt>
      <trkpt lat="43.02143" lon="0.89079">
        <ele>419</ele>
        <time>2019-04-22T13:12:58.008Z</time>
      </trkpt>
      <trkpt lat="43.02139" lon="0.89069">
        <ele>418.8419968</ele>
        <time>2019-04-22T13:12:59.008Z</time>
      </trkpt>
      <trkpt lat="43.02134" lon="0.89051">
        <ele>418</ele>
        <time>2019-04-22T13:13:01.008Z</time>
      </trkpt>
      <trkpt lat="43.02132" lon="0.89032">
        <ele>418</ele>
        <time>2019-04-22T13:13:03.008Z</time>
      </trkpt>
      <trkpt lat="43.02132" lon="0.89012">
        <ele>418</ele>
        <time>2019-04-22T13:13:05.008Z</time>
      </trkpt>
      <trkpt lat="43.02133" lon="0.88992">
        <ele>418</ele>
        <time>2019-04-22T13:13:07.008Z</time>
      </trkpt>
      <trkpt lat="43.02134" lon="0.88972">
        <ele>418</ele>
        <time>2019-04-22T13:13:09.008Z</time>
      </trkpt>
      <trkpt lat="43.02135" lon="0.88953">
        <ele>417.8419968</ele>
        <time>2019-04-22T13:13:11.008Z</time>
      </trkpt>
      <trkpt lat="43.02136" lon="0.88933">
        <ele>417</ele>
        <time>2019-04-22T13:13:13.008Z</time>
      </trkpt>
      <trkpt lat="43.02135" lon="0.88914">
        <ele>417</ele>
        <time>2019-04-22T13:13:15.008Z</time>
      </trkpt>
      <trkpt lat="43.02135" lon="0.88896">
        <ele>417</ele>
        <time>2019-04-22T13:13:17.008Z</time>
      </trkpt>
      <trkpt lat="43.02136" lon="0.88883">
        <ele>417</ele>
        <time>2019-04-22T13:13:19.008Z</time>
      </trkpt>
      <trkpt lat="43.02147" lon="0.88881">
        <ele>415</ele>
        <time>2019-04-22T13:13:23.008Z</time>
      </trkpt>
      <trkpt lat="43.02157" lon="0.88884">
        <ele>415</ele>
        <time>2019-04-22T13:13:26.008Z</time>
      </trkpt>
      <trkpt lat="43.02167" lon="0.88887">
        <ele>415</ele>
        <time>2019-04-22T13:13:29.008Z</time>
      </trkpt>
      <trkpt lat="43.02175" lon="0.88888">
        <ele>415.4740096</ele>
        <time>2019-04-22T13:13:31.008Z</time>
      </trkpt>
      <trkpt lat="43.02186" lon="0.8889">
        <ele>418</ele>
        <time>2019-04-22T13:13:34.008Z</time>
      </trkpt>
      <trkpt lat="43.02196" lon="0.88892">
        <ele>418</ele>
        <time>2019-04-22T13:13:37.008Z</time>
      </trkpt>
      <trkpt lat="43.02207" lon="0.88895">
        <ele>418</ele>
        <time>2019-04-22T13:13:40.008Z</time>
      </trkpt>
      <trkpt lat="43.02217" lon="0.88898">
        <ele>420</ele>
        <time>2019-04-22T13:13:43.008Z</time>
      </trkpt>
      <trkpt lat="43.02228" lon="0.88901">
        <ele>420.1580032</ele>
        <time>2019-04-22T13:13:46.008Z</time>
      </trkpt>
      <trkpt lat="43.02234" lon="0.88903">
        <ele>421</ele>
        <time>2019-04-22T13:13:48.008Z</time>
      </trkpt>
      <trkpt lat="43.02245" lon="0.88905">
        <ele>421.1580032</ele>
        <time>2019-04-22T13:13:51.008Z</time>
      </trkpt>
      <trkpt lat="43.02255" lon="0.88909">
        <ele>422</ele>
        <time>2019-04-22T13:13:54.008Z</time>
      </trkpt>
      <trkpt lat="43.02258" lon="0.8891">
        <ele>422</ele>
        <time>2019-04-22T13:13:55.008Z</time>
      </trkpt>
      <trkpt lat="43.02261" lon="0.88911">
        <ele>422</ele>
        <time>2019-04-22T13:13:56.008Z</time>
      </trkpt>
      <trkpt lat="43.02265" lon="0.88913">
        <ele>422</ele>
        <time>2019-04-22T13:13:57.008Z</time>
      </trkpt>
      <trkpt lat="43.02268" lon="0.88914">
        <ele>422</ele>
        <time>2019-04-22T13:13:58.008Z</time>
      </trkpt>
      <trkpt lat="43.02271" lon="0.88915">
        <ele>422</ele>
        <time>2019-04-22T13:13:59.008Z</time>
      </trkpt>
      <trkpt lat="43.02281" lon="0.88919">
        <ele>424</ele>
        <time>2019-04-22T13:14:02.008Z</time>
      </trkpt>
      <trkpt lat="43.0229" lon="0.88924">
        <ele>424</ele>
        <time>2019-04-22T13:14:05.008Z</time>
      </trkpt>
      <trkpt lat="43.02299" lon="0.88927">
        <ele>425</ele>
        <time>2019-04-22T13:14:08.008Z</time>
      </trkpt>
      <trkpt lat="43.02307" lon="0.88925">
        <ele>425.1580032</ele>
        <time>2019-04-22T13:14:11.008Z</time>
      </trkpt>
      <trkpt lat="43.02312" lon="0.88919">
        <ele>426</ele>
        <time>2019-04-22T13:14:13.008Z</time>
      </trkpt>
      <trkpt lat="43.02315" lon="0.88911">
        <ele>426</ele>
        <time>2019-04-22T13:14:15.008Z</time>
      </trkpt>
      <trkpt lat="43.02319" lon="0.88902">
        <ele>426</ele>
        <time>2019-04-22T13:14:17.008Z</time>
      </trkpt>
      <trkpt lat="43.02324" lon="0.88891">
        <ele>426</ele>
        <time>2019-04-22T13:14:19.008Z</time>
      </trkpt>
      <trkpt lat="43.02329" lon="0.8888">
        <ele>425.8419968</ele>
        <time>2019-04-22T13:14:21.008Z</time>
      </trkpt>
      <trkpt lat="43.02335" lon="0.88867">
        <ele>425</ele>
        <time>2019-04-22T13:14:23.008Z</time>
      </trkpt>
      <trkpt lat="43.02342" lon="0.88854">
        <ele>425</ele>
        <time>2019-04-22T13:14:25.008Z</time>
      </trkpt>
      <trkpt lat="43.02349" lon="0.88839">
        <ele>425</ele>
        <time>2019-04-22T13:14:27.008Z</time>
      </trkpt>
      <trkpt lat="43.02357" lon="0.88824">
        <ele>425</ele>
        <time>2019-04-22T13:14:29.008Z</time>
      </trkpt>
      <trkpt lat="43.02365" lon="0.88809">
        <ele>424.6839936</ele>
        <time>2019-04-22T13:14:31.008Z</time>
      </trkpt>
      <trkpt lat="43.02372" lon="0.88794">
        <ele>423</ele>
        <time>2019-04-22T13:14:33.008Z</time>
      </trkpt>
      <trkpt lat="43.02379" lon="0.8878">
        <ele>423</ele>
        <time>2019-04-22T13:14:35.008Z</time>
      </trkpt>
      <trkpt lat="43.02385" lon="0.88767">
        <ele>422</ele>
        <time>2019-04-22T13:14:37.008Z</time>
      </trkpt>
      <trkpt lat="43.02391" lon="0.88755">
        <ele>422</ele>
        <time>2019-04-22T13:14:39.008Z</time>
      </trkpt>
      <trkpt lat="43.02396" lon="0.88747">
        <ele>422.3160064</ele>
        <time>2019-04-22T13:14:41.008Z</time>
      </trkpt>
      <trkpt lat="43.02403" lon="0.88737">
        <ele>424</ele>
        <time>2019-04-22T13:14:44.008Z</time>
      </trkpt>
      <trkpt lat="43.0241" lon="0.88728">
        <ele>424</ele>
        <time>2019-04-22T13:14:47.008Z</time>
      </trkpt>
      <trkpt lat="43.02416" lon="0.88718">
        <ele>424</ele>
        <time>2019-04-22T13:14:50.008Z</time>
      </trkpt>
      <trkpt lat="43.02422" lon="0.8871">
        <ele>425</ele>
        <time>2019-04-22T13:14:53.008Z</time>
      </trkpt>
      <trkpt lat="43.02428" lon="0.88701">
        <ele>425</ele>
        <time>2019-04-22T13:14:56.008Z</time>
      </trkpt>
      <trkpt lat="43.02437" lon="0.88688">
        <ele>425</ele>
        <time>2019-04-22T13:15:00.008Z</time>
      </trkpt>
      <trkpt lat="43.02445" lon="0.88675">
        <ele>430</ele>
        <time>2019-04-22T13:15:04.008Z</time>
      </trkpt>
      <trkpt lat="43.02449" lon="0.88668">
        <ele>430</ele>
        <time>2019-04-22T13:15:06.008Z</time>
      </trkpt>
      <trkpt lat="43.02453" lon="0.8866">
        <ele>430</ele>
        <time>2019-04-22T13:15:08.008Z</time>
      </trkpt>
      <trkpt lat="43.02457" lon="0.88651">
        <ele>430</ele>
        <time>2019-04-22T13:15:10.008Z</time>
      </trkpt>
      <trkpt lat="43.02461" lon="0.88638">
        <ele>430</ele>
        <time>2019-04-22T13:15:13.008Z</time>
      </trkpt>
      <trkpt lat="43.02464" lon="0.8863">
        <ele>430</ele>
        <time>2019-04-22T13:15:15.008Z</time>
      </trkpt>
      <trkpt lat="43.02465" lon="0.88621">
        <ele>430</ele>
        <time>2019-04-22T13:15:17.008Z</time>
      </trkpt>
      <trkpt lat="43.02468" lon="0.88612">
        <ele>430</ele>
        <time>2019-04-22T13:15:19.008Z</time>
      </trkpt>
      <trkpt lat="43.0247" lon="0.88603">
        <ele>429.84356069247</ele>
        <time>2019-04-22T13:15:21.008Z</time>
      </trkpt>
      <trkpt lat="43.02472" lon="0.88593">
        <ele>429</ele>
        <time>2019-04-22T13:15:23.008Z</time>
      </trkpt>
      <trkpt lat="43.02475" lon="0.88577">
        <ele>429</ele>
        <time>2019-04-22T13:15:26.008Z</time>
      </trkpt>
      <trkpt lat="43.02478" lon="0.88563">
        <ele>429</ele>
        <time>2019-04-22T13:15:29.008Z</time>
      </trkpt>
      <trkpt lat="43.02481" lon="0.88546">
        <ele>427</ele>
        <time>2019-04-22T13:15:34.008Z</time>
      </trkpt>
      <trkpt lat="43.02485" lon="0.88529">
        <ele>427</ele>
        <time>2019-04-22T13:15:37.008Z</time>
      </trkpt>
      <trkpt lat="43.02484" lon="0.88516">
        <ele>427</ele>
        <time>2019-04-22T13:15:39.008Z</time>
      </trkpt>
      <trkpt lat="43.0248" lon="0.88502">
        <ele>427</ele>
        <time>2019-04-22T13:15:41.008Z</time>
      </trkpt>
      <trkpt lat="43.02478" lon="0.88489">
        <ele>427</ele>
        <time>2019-04-22T13:15:43.008Z</time>
      </trkpt>
      <trkpt lat="43.02481" lon="0.88478">
        <ele>427</ele>
        <time>2019-04-22T13:15:45.008Z</time>
      </trkpt>
      <trkpt lat="43.0249" lon="0.88464">
        <ele>427</ele>
        <time>2019-04-22T13:15:48.008Z</time>
      </trkpt>
      <trkpt lat="43.02498" lon="0.88448">
        <ele>427</ele>
        <time>2019-04-22T13:15:51.008Z</time>
      </trkpt>
      <trkpt lat="43.02506" lon="0.88431">
        <ele>427</ele>
        <time>2019-04-22T13:15:54.008Z</time>
      </trkpt>
      <trkpt lat="43.0251" lon="0.88419">
        <ele>427</ele>
        <time>2019-04-22T13:15:56.008Z</time>
      </trkpt>
      <trkpt lat="43.02513" lon="0.88407">
        <ele>427</ele>
        <time>2019-04-22T13:15:58.008Z</time>
      </trkpt>
      <trkpt lat="43.02516" lon="0.88395">
        <ele>427</ele>
        <time>2019-04-22T13:16:00.008Z</time>
      </trkpt>
      <trkpt lat="43.02518" lon="0.88383">
        <ele>426</ele>
        <time>2019-04-22T13:16:02.008Z</time>
      </trkpt>
      <trkpt lat="43.02519" lon="0.88371">
        <ele>426</ele>
        <time>2019-04-22T13:16:04.008Z</time>
      </trkpt>
      <trkpt lat="43.02515" lon="0.88361">
        <ele>426</ele>
        <time>2019-04-22T13:16:06.008Z</time>
      </trkpt>
      <trkpt lat="43.02509" lon="0.88354">
        <ele>426</ele>
        <time>2019-04-22T13:16:08.008Z</time>
      </trkpt>
      <trkpt lat="43.02501" lon="0.88349">
        <ele>426</ele>
        <time>2019-04-22T13:16:10.008Z</time>
      </trkpt>
      <trkpt lat="43.02491" lon="0.88344">
        <ele>426</ele>
        <time>2019-04-22T13:16:12.008Z</time>
      </trkpt>
      <trkpt lat="43.02482" lon="0.8834">
        <ele>426</ele>
        <time>2019-04-22T13:16:14.008Z</time>
      </trkpt>
      <trkpt lat="43.02477" lon="0.88338">
        <ele>426</ele>
        <time>2019-04-22T13:16:15.008Z</time>
      </trkpt>
      <trkpt lat="43.02472" lon="0.88336">
        <ele>426</ele>
        <time>2019-04-22T13:16:16.008Z</time>
      </trkpt>
      <trkpt lat="43.02468" lon="0.88333">
        <ele>426</ele>
        <time>2019-04-22T13:16:17.008Z</time>
      </trkpt>
      <trkpt lat="43.02463" lon="0.88331">
        <ele>426</ele>
        <time>2019-04-22T13:16:18.008Z</time>
      </trkpt>
      <trkpt lat="43.02453" lon="0.88326">
        <ele>426</ele>
        <time>2019-04-22T13:16:20.008Z</time>
      </trkpt>
      <trkpt lat="43.02443" lon="0.88322">
        <ele>424</ele>
        <time>2019-04-22T13:16:22.008Z</time>
      </trkpt>
      <trkpt lat="43.02432" lon="0.88317">
        <ele>424</ele>
        <time>2019-04-22T13:16:24.008Z</time>
      </trkpt>
      <trkpt lat="43.0242" lon="0.88313">
        <ele>424</ele>
        <time>2019-04-22T13:16:26.008Z</time>
      </trkpt>
      <trkpt lat="43.02407" lon="0.88308">
        <ele>424</ele>
        <time>2019-04-22T13:16:28.008Z</time>
      </trkpt>
      <trkpt lat="43.02393" lon="0.88303">
        <ele>424</ele>
        <time>2019-04-22T13:16:30.008Z</time>
      </trkpt>
      <trkpt lat="43.02378" lon="0.88301">
        <ele>422</ele>
        <time>2019-04-22T13:16:32.008Z</time>
      </trkpt>
      <trkpt lat="43.02362" lon="0.88298">
        <ele>422</ele>
        <time>2019-04-22T13:16:34.008Z</time>
      </trkpt>
      <trkpt lat="43.02347" lon="0.88297">
        <ele>421.5259904</ele>
        <time>2019-04-22T13:16:36.008Z</time>
      </trkpt>
      <trkpt lat="43.02339" lon="0.88296">
        <ele>419</ele>
        <time>2019-04-22T13:16:37.008Z</time>
      </trkpt>
      <trkpt lat="43.02331" lon="0.88295">
        <ele>419</ele>
        <time>2019-04-22T13:16:38.008Z</time>
      </trkpt>
      <trkpt lat="43.02313" lon="0.88294">
        <ele>419</ele>
        <time>2019-04-22T13:16:40.008Z</time>
      </trkpt>
      <trkpt lat="43.02295" lon="0.88291">
        <ele>418</ele>
        <time>2019-04-22T13:16:42.008Z</time>
      </trkpt>
      <trkpt lat="43.02286" lon="0.88289">
        <ele>418</ele>
        <time>2019-04-22T13:16:43.008Z</time>
      </trkpt>
      <trkpt lat="43.02277" lon="0.88287">
        <ele>418</ele>
        <time>2019-04-22T13:16:44.008Z</time>
      </trkpt>
      <trkpt lat="43.02267" lon="0.88284">
        <ele>418</ele>
        <time>2019-04-22T13:16:45.008Z</time>
      </trkpt>
      <trkpt lat="43.02257" lon="0.88282">
        <ele>417.55149720728</ele>
        <time>2019-04-22T13:16:46.008Z</time>
      </trkpt>
      <trkpt lat="43.02247" lon="0.8828">
        <ele>415</ele>
        <time>2019-04-22T13:16:47.008Z</time>
      </trkpt>
      <trkpt lat="43.02237" lon="0.88277">
        <ele>415</ele>
        <time>2019-04-22T13:16:48.008Z</time>
      </trkpt>
      <trkpt lat="43.02226" lon="0.88275">
        <ele>415</ele>
        <time>2019-04-22T13:16:49.008Z</time>
      </trkpt>
      <trkpt lat="43.02216" lon="0.88272">
        <ele>415</ele>
        <time>2019-04-22T13:16:50.008Z</time>
      </trkpt>
      <trkpt lat="43.02206" lon="0.8827">
        <ele>414.5259904</ele>
        <time>2019-04-22T13:16:51.008Z</time>
      </trkpt>
      <trkpt lat="43.02196" lon="0.88267">
        <ele>412</ele>
        <time>2019-04-22T13:16:52.008Z</time>
      </trkpt>
      <trkpt lat="43.02187" lon="0.88265">
        <ele>412</ele>
        <time>2019-04-22T13:16:53.008Z</time>
      </trkpt>
      <trkpt lat="43.02178" lon="0.88263">
        <ele>412</ele>
        <time>2019-04-22T13:16:54.008Z</time>
      </trkpt>
      <trkpt lat="43.02161" lon="0.8826">
        <ele>412</ele>
        <time>2019-04-22T13:16:56.008Z</time>
      </trkpt>
      <trkpt lat="43.02148" lon="0.88259">
        <ele>413</ele>
        <time>2019-04-22T13:16:58.008Z</time>
      </trkpt>
      <trkpt lat="43.02136" lon="0.88259">
        <ele>414.1580032</ele>
        <time>2019-04-22T13:17:00.008Z</time>
      </trkpt>
      <trkpt lat="43.02126" lon="0.8826">
        <ele>415</ele>
        <time>2019-04-22T13:17:02.008Z</time>
      </trkpt>
      <trkpt lat="43.02113" lon="0.88262">
        <ele>415</ele>
        <time>2019-04-22T13:17:05.008Z</time>
      </trkpt>
      <trkpt lat="43.02102" lon="0.88263">
        <ele>417</ele>
        <time>2019-04-22T13:17:08.008Z</time>
      </trkpt>
      <trkpt lat="43.02089" lon="0.88265">
        <ele>418</ele>
        <time>2019-04-22T13:17:12.008Z</time>
      </trkpt>
      <trkpt lat="43.02082" lon="0.88259">
        <ele>418</ele>
        <time>2019-04-22T13:17:15.008Z</time>
      </trkpt>
      <trkpt lat="43.02082" lon="0.8825">
        <ele>420</ele>
        <time>2019-04-22T13:17:18.008Z</time>
      </trkpt>
      <trkpt lat="43.02084" lon="0.8824">
        <ele>420.3160064</ele>
        <time>2019-04-22T13:17:21.008Z</time>
      </trkpt>
      <trkpt lat="43.02086" lon="0.8823">
        <ele>422</ele>
        <time>2019-04-22T13:17:24.008Z</time>
      </trkpt>
      <trkpt lat="43.02087" lon="0.8822">
        <ele>423</ele>
        <time>2019-04-22T13:17:27.008Z</time>
      </trkpt>
      <trkpt lat="43.02089" lon="0.8821">
        <ele>423</ele>
        <time>2019-04-22T13:17:30.008Z</time>
      </trkpt>
      <trkpt lat="43.0209" lon="0.882">
        <ele>424</ele>
        <time>2019-04-22T13:17:33.008Z</time>
      </trkpt>
      <trkpt lat="43.02092" lon="0.88191">
        <ele>424</ele>
        <time>2019-04-22T13:17:36.008Z</time>
      </trkpt>
      <trkpt lat="43.02093" lon="0.88182">
        <ele>424</ele>
        <time>2019-04-22T13:17:39.008Z</time>
      </trkpt>
      <trkpt lat="43.02092" lon="0.88169">
        <ele>426</ele>
        <time>2019-04-22T13:17:44.008Z</time>
      </trkpt>
      <trkpt lat="43.02087" lon="0.88158">
        <ele>429</ele>
        <time>2019-04-22T13:17:49.008Z</time>
      </trkpt>
      <trkpt lat="43.02087" lon="0.88145">
        <ele>430</ele>
        <time>2019-04-22T13:17:54.008Z</time>
      </trkpt>
      <trkpt lat="43.02093" lon="0.88131">
        <ele>431</ele>
        <time>2019-04-22T13:17:59.008Z</time>
      </trkpt>
      <trkpt lat="43.02097" lon="0.8812">
        <ele>432</ele>
        <time>2019-04-22T13:18:03.008Z</time>
      </trkpt>
      <trkpt lat="43.02101" lon="0.88111">
        <ele>432</ele>
        <time>2019-04-22T13:18:07.008Z</time>
      </trkpt>
      <trkpt lat="43.02104" lon="0.88103">
        <ele>432</ele>
        <time>2019-04-22T13:18:10.008Z</time>
      </trkpt>
      <trkpt lat="43.02107" lon="0.88093">
        <ele>434</ele>
        <time>2019-04-22T13:18:14.008Z</time>
      </trkpt>
      <trkpt lat="43.02111" lon="0.88083">
        <ele>434</ele>
        <time>2019-04-22T13:18:18.008Z</time>
      </trkpt>
      <trkpt lat="43.02115" lon="0.88073">
        <ele>436</ele>
        <time>2019-04-22T13:18:22.008Z</time>
      </trkpt>
      <trkpt lat="43.02119" lon="0.88059">
        <ele>436</ele>
        <time>2019-04-22T13:18:27.008Z</time>
      </trkpt>
      <trkpt lat="43.02123" lon="0.88046">
        <ele>436.3160064</ele>
        <time>2019-04-22T13:18:31.008Z</time>
      </trkpt>
      <trkpt lat="43.02126" lon="0.88036">
        <ele>438</ele>
        <time>2019-04-22T13:18:34.008Z</time>
      </trkpt>
      <trkpt lat="43.02127" lon="0.88027">
        <ele>439</ele>
        <time>2019-04-22T13:18:37.008Z</time>
      </trkpt>
      <trkpt lat="43.02129" lon="0.88015">
        <ele>439</ele>
        <time>2019-04-22T13:18:41.008Z</time>
      </trkpt>
      <trkpt lat="43.02128" lon="0.88001">
        <ele>439</ele>
        <time>2019-04-22T13:18:46.008Z</time>
      </trkpt>
      <trkpt lat="43.02133" lon="0.87989">
        <ele>439.3160064</ele>
        <time>2019-04-22T13:18:51.008Z</time>
      </trkpt>
      <trkpt lat="43.02138" lon="0.87977">
        <ele>441</ele>
        <time>2019-04-22T13:18:56.008Z</time>
      </trkpt>
      <trkpt lat="43.02146" lon="0.87968">
        <ele>441.3160064</ele>
        <time>2019-04-22T13:19:01.008Z</time>
      </trkpt>
      <trkpt lat="43.02155" lon="0.87958">
        <ele>444</ele>
        <time>2019-04-22T13:19:07.008Z</time>
      </trkpt>
      <trkpt lat="43.02165" lon="0.87953">
        <ele>446</ele>
        <time>2019-04-22T13:19:14.008Z</time>
      </trkpt>
      <trkpt lat="43.02175" lon="0.87949">
        <ele>448</ele>
        <time>2019-04-22T13:19:19.008Z</time>
      </trkpt>
      <trkpt lat="43.02186" lon="0.87949">
        <ele>450</ele>
        <time>2019-04-22T13:19:27.008Z</time>
      </trkpt>
      <trkpt lat="43.02197" lon="0.87949">
        <ele>452</ele>
        <time>2019-04-22T13:19:33.008Z</time>
      </trkpt>
      <trkpt lat="43.02209" lon="0.87948">
        <ele>453</ele>
        <time>2019-04-22T13:19:38.008Z</time>
      </trkpt>
      <trkpt lat="43.0222" lon="0.8795">
        <ele>455</ele>
        <time>2019-04-22T13:19:44.008Z</time>
      </trkpt>
      <trkpt lat="43.02229" lon="0.8795">
        <ele>455</ele>
        <time>2019-04-22T13:19:49.008Z</time>
      </trkpt>
      <trkpt lat="43.02241" lon="0.87951">
        <ele>457.33267432134</ele>
        <time>2019-04-22T13:19:56.008Z</time>
      </trkpt>
      <trkpt lat="43.0225" lon="0.87957">
        <ele>459</ele>
        <time>2019-04-22T13:20:04.008Z</time>
      </trkpt>
      <trkpt lat="43.02261" lon="0.87962">
        <ele>459</ele>
        <time>2019-04-22T13:20:10.008Z</time>
      </trkpt>
      <trkpt lat="43.02271" lon="0.87965">
        <ele>461</ele>
        <time>2019-04-22T13:20:15.008Z</time>
      </trkpt>
      <trkpt lat="43.02281" lon="0.87975">
        <ele>463</ele>
        <time>2019-04-22T13:20:22.008Z</time>
      </trkpt>
      <trkpt lat="43.02289" lon="0.87983">
        <ele>465</ele>
        <time>2019-04-22T13:20:28.008Z</time>
      </trkpt>
      <trkpt lat="43.02298" lon="0.8799">
        <ele>467</ele>
        <time>2019-04-22T13:20:33.008Z</time>
      </trkpt>
      <trkpt lat="43.02306" lon="0.87997">
        <ele>467</ele>
        <time>2019-04-22T13:20:38.008Z</time>
      </trkpt>
      <trkpt lat="43.02318" lon="0.87999">
        <ele>469</ele>
        <time>2019-04-22T13:20:44.008Z</time>
      </trkpt>
      <trkpt lat="43.02326" lon="0.88008">
        <ele>471.1580032</ele>
        <time>2019-04-22T13:20:51.008Z</time>
      </trkpt>
      <trkpt lat="43.02336" lon="0.88014">
        <ele>473</ele>
        <time>2019-04-22T13:20:57.008Z</time>
      </trkpt>
      <trkpt lat="43.02345" lon="0.88021">
        <ele>473</ele>
        <time>2019-04-22T13:21:02.008Z</time>
      </trkpt>
      <trkpt lat="43.02351" lon="0.88033">
        <ele>473</ele>
        <time>2019-04-22T13:21:07.008Z</time>
      </trkpt>
      <trkpt lat="43.02359" lon="0.88041">
        <ele>474</ele>
        <time>2019-04-22T13:21:12.008Z</time>
      </trkpt>
      <trkpt lat="43.02366" lon="0.88051">
        <ele>474</ele>
        <time>2019-04-22T13:21:18.008Z</time>
      </trkpt>
      <trkpt lat="43.02373" lon="0.88059">
        <ele>476</ele>
        <time>2019-04-22T13:21:23.008Z</time>
      </trkpt>
      <trkpt lat="43.0238" lon="0.88066">
        <ele>476</ele>
        <time>2019-04-22T13:21:28.008Z</time>
      </trkpt>
      <trkpt lat="43.02387" lon="0.8807">
        <ele>478</ele>
        <time>2019-04-22T13:21:32.008Z</time>
      </trkpt>
      <trkpt lat="43.02394" lon="0.88073">
        <ele>478</ele>
        <time>2019-04-22T13:21:36.008Z</time>
      </trkpt>
      <trkpt lat="43.02404" lon="0.88075">
        <ele>478.1580032</ele>
        <time>2019-04-22T13:21:41.008Z</time>
      </trkpt>
      <trkpt lat="43.02411" lon="0.88073">
        <ele>479</ele>
        <time>2019-04-22T13:21:45.008Z</time>
      </trkpt>
      <trkpt lat="43.0242" lon="0.88071">
        <ele>479</ele>
        <time>2019-04-22T13:21:50.008Z</time>
      </trkpt>
      <trkpt lat="43.02429" lon="0.88065">
        <ele>481</ele>
        <time>2019-04-22T13:21:55.008Z</time>
      </trkpt>
      <trkpt lat="43.02437" lon="0.88057">
        <ele>481</ele>
        <time>2019-04-22T13:22:00.008Z</time>
      </trkpt>
      <trkpt lat="43.02444" lon="0.88051">
        <ele>482</ele>
        <time>2019-04-22T13:22:05.008Z</time>
      </trkpt>
      <trkpt lat="43.02453" lon="0.88043">
        <ele>482.4740096</ele>
        <time>2019-04-22T13:22:11.008Z</time>
      </trkpt>
      <trkpt lat="43.02459" lon="0.88033">
        <ele>485.3160064</ele>
        <time>2019-04-22T13:22:16.008Z</time>
      </trkpt>
      <trkpt lat="43.02467" lon="0.88025">
        <ele>487.1580032</ele>
        <time>2019-04-22T13:22:21.008Z</time>
      </trkpt>
      <trkpt lat="43.02474" lon="0.88016">
        <ele>488</ele>
        <time>2019-04-22T13:22:28.008Z</time>
      </trkpt>
      <trkpt lat="43.02481" lon="0.8801">
        <ele>490</ele>
        <time>2019-04-22T13:22:32.008Z</time>
      </trkpt>
      <trkpt lat="43.02488" lon="0.88002">
        <ele>490.1580032</ele>
        <time>2019-04-22T13:22:36.008Z</time>
      </trkpt>
      <trkpt lat="43.02496" lon="0.87994">
        <ele>493</ele>
        <time>2019-04-22T13:22:43.008Z</time>
      </trkpt>
      <trkpt lat="43.02503" lon="0.87986">
        <ele>494</ele>
        <time>2019-04-22T13:22:47.008Z</time>
      </trkpt>
      <trkpt lat="43.02511" lon="0.87978">
        <ele>495</ele>
        <time>2019-04-22T13:22:52.008Z</time>
      </trkpt>
      <trkpt lat="43.0252" lon="0.87972">
        <ele>496.1580032</ele>
        <time>2019-04-22T13:23:01.008Z</time>
      </trkpt>
      <trkpt lat="43.02531" lon="0.87967">
        <ele>497</ele>
        <time>2019-04-22T13:23:05.008Z</time>
      </trkpt>
      <trkpt lat="43.02542" lon="0.87962">
        <ele>497</ele>
        <time>2019-04-22T13:23:09.008Z</time>
      </trkpt>
      <trkpt lat="43.02552" lon="0.87956">
        <ele>498</ele>
        <time>2019-04-22T13:23:14.008Z</time>
      </trkpt>
      <trkpt lat="43.0256" lon="0.87951">
        <ele>498</ele>
        <time>2019-04-22T13:23:18.008Z</time>
      </trkpt>
      <trkpt lat="43.02569" lon="0.87944">
        <ele>498</ele>
        <time>2019-04-22T13:23:22.008Z</time>
      </trkpt>
      <trkpt lat="43.02577" lon="0.87939">
        <ele>498</ele>
        <time>2019-04-22T13:23:27.008Z</time>
      </trkpt>
      <trkpt lat="43.02586" lon="0.87932">
        <ele>498.1580032</ele>
        <time>2019-04-22T13:23:31.008Z</time>
      </trkpt>
      <trkpt lat="43.02597" lon="0.87925">
        <ele>499</ele>
        <time>2019-04-22T13:23:38.008Z</time>
      </trkpt>
      <trkpt lat="43.02605" lon="0.87918">
        <ele>500</ele>
        <time>2019-04-22T13:23:42.008Z</time>
      </trkpt>
      <trkpt lat="43.02615" lon="0.87909">
        <ele>500</ele>
        <time>2019-04-22T13:23:47.008Z</time>
      </trkpt>
      <trkpt lat="43.02623" lon="0.87899">
        <ele>503</ele>
        <time>2019-04-22T13:23:53.008Z</time>
      </trkpt>
      <trkpt lat="43.02632" lon="0.87892">
        <ele>504</ele>
        <time>2019-04-22T13:23:58.008Z</time>
      </trkpt>
      <trkpt lat="43.02644" lon="0.87886">
        <ele>505</ele>
        <time>2019-04-22T13:24:03.008Z</time>
      </trkpt>
      <trkpt lat="43.02652" lon="0.87878">
        <ele>505</ele>
        <time>2019-04-22T13:24:09.008Z</time>
      </trkpt>
      <trkpt lat="43.02664" lon="0.87877">
        <ele>506</ele>
        <time>2019-04-22T13:24:14.008Z</time>
      </trkpt>
      <trkpt lat="43.02674" lon="0.87872">
        <ele>506</ele>
        <time>2019-04-22T13:24:18.008Z</time>
      </trkpt>
      <trkpt lat="43.02685" lon="0.87866">
        <ele>507</ele>
        <time>2019-04-22T13:24:25.008Z</time>
      </trkpt>
      <trkpt lat="43.02695" lon="0.87859">
        <ele>507</ele>
        <time>2019-04-22T13:24:29.008Z</time>
      </trkpt>
      <trkpt lat="43.02705" lon="0.87853">
        <ele>509</ele>
        <time>2019-04-22T13:24:34.008Z</time>
      </trkpt>
      <trkpt lat="43.02713" lon="0.87847">
        <ele>509</ele>
        <time>2019-04-22T13:24:39.008Z</time>
      </trkpt>
      <trkpt lat="43.02723" lon="0.87844">
        <ele>511</ele>
        <time>2019-04-22T13:24:45.008Z</time>
      </trkpt>
      <trkpt lat="43.02712" lon="0.87842">
        <ele>513</ele>
        <time>2019-04-22T13:24:59.008Z</time>
      </trkpt>
      <trkpt lat="43.02702" lon="0.87847">
        <ele>515</ele>
        <time>2019-04-22T13:25:03.008Z</time>
      </trkpt>
      <trkpt lat="43.02691" lon="0.87848">
        <ele>517</ele>
        <time>2019-04-22T13:25:13.008Z</time>
      </trkpt>
      <trkpt lat="43.0268" lon="0.87851">
        <ele>517</ele>
        <time>2019-04-22T13:25:41.008Z</time>
      </trkpt>
      <trkpt lat="43.0267" lon="0.87853">
        <ele>517</ele>
        <time>2019-04-22T13:25:46.008Z</time>
      </trkpt>
      <trkpt lat="43.02661" lon="0.87853">
        <ele>517</ele>
        <time>2019-04-22T13:25:50.008Z</time>
      </trkpt>
      <trkpt lat="43.02649" lon="0.87852">
        <ele>518</ele>
        <time>2019-04-22T13:25:55.008Z</time>
      </trkpt>
      <trkpt lat="43.02638" lon="0.87855">
        <ele>518</ele>
        <time>2019-04-22T13:26:00.008Z</time>
      </trkpt>
      <trkpt lat="43.02626" lon="0.8786">
        <ele>519</ele>
        <time>2019-04-22T13:26:05.008Z</time>
      </trkpt>
      <trkpt lat="43.02616" lon="0.87863">
        <ele>519</ele>
        <time>2019-04-22T13:26:10.008Z</time>
      </trkpt>
      <trkpt lat="43.02605" lon="0.87861">
        <ele>522</ele>
        <time>2019-04-22T13:26:15.008Z</time>
      </trkpt>
      <trkpt lat="43.02596" lon="0.87864">
        <ele>525</ele>
        <time>2019-04-22T13:26:19.008Z</time>
      </trkpt>
      <trkpt lat="43.02584" lon="0.87867">
        <ele>526</ele>
        <time>2019-04-22T13:26:25.008Z</time>
      </trkpt>
      <trkpt lat="43.02573" lon="0.87867">
        <ele>528</ele>
        <time>2019-04-22T13:26:32.008Z</time>
      </trkpt>
      <trkpt lat="43.02561" lon="0.87868">
        <ele>529</ele>
        <time>2019-04-22T13:26:38.008Z</time>
      </trkpt>
      <trkpt lat="43.02551" lon="0.87873">
        <ele>530</ele>
        <time>2019-04-22T13:26:43.008Z</time>
      </trkpt>
      <trkpt lat="43.0254" lon="0.87877">
        <ele>530</ele>
        <time>2019-04-22T13:26:49.008Z</time>
      </trkpt>
      <trkpt lat="43.02529" lon="0.87879">
        <ele>532</ele>
        <time>2019-04-22T13:26:54.008Z</time>
      </trkpt>
      <trkpt lat="43.02518" lon="0.87881">
        <ele>532</ele>
        <time>2019-04-22T13:26:59.008Z</time>
      </trkpt>
      <trkpt lat="43.02508" lon="0.87884">
        <ele>535</ele>
        <time>2019-04-22T13:27:04.008Z</time>
      </trkpt>
      <trkpt lat="43.02497" lon="0.87885">
        <ele>537</ele>
        <time>2019-04-22T13:27:10.008Z</time>
      </trkpt>
      <trkpt lat="43.02486" lon="0.87884">
        <ele>537.3160064</ele>
        <time>2019-04-22T13:27:16.008Z</time>
      </trkpt>
      <trkpt lat="43.02475" lon="0.87883">
        <ele>539</ele>
        <time>2019-04-22T13:27:20.008Z</time>
      </trkpt>
      <trkpt lat="43.02464" lon="0.87882">
        <ele>540</ele>
        <time>2019-04-22T13:27:25.008Z</time>
      </trkpt>
      <trkpt lat="43.02455" lon="0.87882">
        <ele>541</ele>
        <time>2019-04-22T13:27:29.008Z</time>
      </trkpt>
      <trkpt lat="43.02445" lon="0.8788">
        <ele>541</ele>
        <time>2019-04-22T13:27:34.008Z</time>
      </trkpt>
      <trkpt lat="43.02434" lon="0.87876">
        <ele>541</ele>
        <time>2019-04-22T13:27:40.008Z</time>
      </trkpt>
      <trkpt lat="43.02424" lon="0.87868">
        <ele>543</ele>
        <time>2019-04-22T13:27:46.008Z</time>
      </trkpt>
      <trkpt lat="43.02429" lon="0.8786">
        <ele>543.4740096</ele>
        <time>2019-04-22T13:27:51.008Z</time>
      </trkpt>
      <trkpt lat="43.02435" lon="0.87862">
        <ele>546</ele>
        <time>2019-04-22T13:27:54.008Z</time>
      </trkpt>
      <trkpt lat="43.02443" lon="0.87864">
        <ele>546</ele>
        <time>2019-04-22T13:27:57.008Z</time>
      </trkpt>
      <trkpt lat="43.0245" lon="0.87865">
        <ele>546</ele>
        <time>2019-04-22T13:28:00.008Z</time>
      </trkpt>
      <trkpt lat="43.02459" lon="0.87862">
        <ele>546</ele>
        <time>2019-04-22T13:28:04.008Z</time>
      </trkpt>
      <trkpt lat="43.02467" lon="0.87858">
        <ele>546</ele>
        <time>2019-04-22T13:28:09.008Z</time>
      </trkpt>
      <trkpt lat="43.02476" lon="0.87853">
        <ele>548</ele>
        <time>2019-04-22T13:28:14.008Z</time>
      </trkpt>
      <trkpt lat="43.02486" lon="0.87849">
        <ele>548</ele>
        <time>2019-04-22T13:28:20.008Z</time>
      </trkpt>
      <trkpt lat="43.02495" lon="0.87843">
        <ele>550</ele>
        <time>2019-04-22T13:28:25.008Z</time>
      </trkpt>
      <trkpt lat="43.02504" lon="0.87837">
        <ele>550</ele>
        <time>2019-04-22T13:28:29.008Z</time>
      </trkpt>
      <trkpt lat="43.02512" lon="0.87831">
        <ele>552</ele>
        <time>2019-04-22T13:28:33.008Z</time>
      </trkpt>
      <trkpt lat="43.02521" lon="0.87825">
        <ele>552</ele>
        <time>2019-04-22T13:28:38.008Z</time>
      </trkpt>
      <trkpt lat="43.02531" lon="0.87819">
        <ele>554</ele>
        <time>2019-04-22T13:28:42.008Z</time>
      </trkpt>
      <trkpt lat="43.02541" lon="0.87812">
        <ele>554</ele>
        <time>2019-04-22T13:28:46.008Z</time>
      </trkpt>
      <trkpt lat="43.02552" lon="0.87806">
        <ele>554</ele>
        <time>2019-04-22T13:28:50.008Z</time>
      </trkpt>
      <trkpt lat="43.02561" lon="0.878">
        <ele>556</ele>
        <time>2019-04-22T13:28:54.008Z</time>
      </trkpt>
      <trkpt lat="43.02571" lon="0.87793">
        <ele>556</ele>
        <time>2019-04-22T13:28:59.008Z</time>
      </trkpt>
      <trkpt lat="43.0258" lon="0.87787">
        <ele>557</ele>
        <time>2019-04-22T13:29:03.008Z</time>
      </trkpt>
      <trkpt lat="43.02589" lon="0.87779">
        <ele>557</ele>
        <time>2019-04-22T13:29:08.008Z</time>
      </trkpt>
      <trkpt lat="43.026" lon="0.87772">
        <ele>559</ele>
        <time>2019-04-22T13:29:13.008Z</time>
      </trkpt>
      <trkpt lat="43.0261" lon="0.87768">
        <ele>559</ele>
        <time>2019-04-22T13:29:17.008Z</time>
      </trkpt>
      <trkpt lat="43.02621" lon="0.87764">
        <ele>561</ele>
        <time>2019-04-22T13:29:22.008Z</time>
      </trkpt>
      <trkpt lat="43.02632" lon="0.87759">
        <ele>561</ele>
        <time>2019-04-22T13:29:27.008Z</time>
      </trkpt>
      <trkpt lat="43.02644" lon="0.87752">
        <ele>563</ele>
        <time>2019-04-22T13:29:32.008Z</time>
      </trkpt>
      <trkpt lat="43.02654" lon="0.87745">
        <ele>563</ele>
        <time>2019-04-22T13:29:37.008Z</time>
      </trkpt>
      <trkpt lat="43.02665" lon="0.8774">
        <ele>564</ele>
        <time>2019-04-22T13:29:43.008Z</time>
      </trkpt>
      <trkpt lat="43.02676" lon="0.87737">
        <ele>564</ele>
        <time>2019-04-22T13:29:48.008Z</time>
      </trkpt>
      <trkpt lat="43.02686" lon="0.87733">
        <ele>565</ele>
        <time>2019-04-22T13:29:52.008Z</time>
      </trkpt>
      <trkpt lat="43.02695" lon="0.87728">
        <ele>565</ele>
        <time>2019-04-22T13:29:56.008Z</time>
      </trkpt>
      <trkpt lat="43.02706" lon="0.87723">
        <ele>565</ele>
        <time>2019-04-22T13:30:00.008Z</time>
      </trkpt>
      <trkpt lat="43.02718" lon="0.87717">
        <ele>567</ele>
        <time>2019-04-22T13:30:04.008Z</time>
      </trkpt>
      <trkpt lat="43.02729" lon="0.87714">
        <ele>567</ele>
        <time>2019-04-22T13:30:10.008Z</time>
      </trkpt>
      <trkpt lat="43.02741" lon="0.8771">
        <ele>569</ele>
        <time>2019-04-22T13:30:15.008Z</time>
      </trkpt>
      <trkpt lat="43.0275" lon="0.87705">
        <ele>569</ele>
        <time>2019-04-22T13:30:19.008Z</time>
      </trkpt>
      <trkpt lat="43.02762" lon="0.87704">
        <ele>571</ele>
        <time>2019-04-22T13:30:23.008Z</time>
      </trkpt>
      <trkpt lat="43.02772" lon="0.87701">
        <ele>571</ele>
        <time>2019-04-22T13:30:28.008Z</time>
      </trkpt>
      <trkpt lat="43.02784" lon="0.87698">
        <ele>573</ele>
        <time>2019-04-22T13:30:34.008Z</time>
      </trkpt>
      <trkpt lat="43.02794" lon="0.87695">
        <ele>573</ele>
        <time>2019-04-22T13:30:38.008Z</time>
      </trkpt>
      <trkpt lat="43.02805" lon="0.87693">
        <ele>574</ele>
        <time>2019-04-22T13:30:43.008Z</time>
      </trkpt>
      <trkpt lat="43.02815" lon="0.87692">
        <ele>574</ele>
        <time>2019-04-22T13:30:47.008Z</time>
      </trkpt>
      <trkpt lat="43.02824" lon="0.87689">
        <ele>574.1580032</ele>
        <time>2019-04-22T13:30:51.008Z</time>
      </trkpt>
      <trkpt lat="43.02833" lon="0.87687">
        <ele>575</ele>
        <time>2019-04-22T13:30:55.008Z</time>
      </trkpt>
      <trkpt lat="43.02843" lon="0.87684">
        <ele>575</ele>
        <time>2019-04-22T13:31:00.008Z</time>
      </trkpt>
      <trkpt lat="43.02853" lon="0.8768">
        <ele>578.1580032</ele>
        <time>2019-04-22T13:31:06.008Z</time>
      </trkpt>
      <trkpt lat="43.02864" lon="0.87674">
        <ele>579.1580032</ele>
        <time>2019-04-22T13:31:11.008Z</time>
      </trkpt>
      <trkpt lat="43.02875" lon="0.8767">
        <ele>580</ele>
        <time>2019-04-22T13:31:15.008Z</time>
      </trkpt>
      <trkpt lat="43.02884" lon="0.87665">
        <ele>580</ele>
        <time>2019-04-22T13:31:19.008Z</time>
      </trkpt>
      <trkpt lat="43.02894" lon="0.8766">
        <ele>582</ele>
        <time>2019-04-22T13:31:23.008Z</time>
      </trkpt>
      <trkpt lat="43.02904" lon="0.8765">
        <ele>582</ele>
        <time>2019-04-22T13:31:28.008Z</time>
      </trkpt>
      <trkpt lat="43.02915" lon="0.87646">
        <ele>583</ele>
        <time>2019-04-22T13:31:33.008Z</time>
      </trkpt>
      <trkpt lat="43.02926" lon="0.87641">
        <ele>583</ele>
        <time>2019-04-22T13:31:37.008Z</time>
      </trkpt>
      <trkpt lat="43.02938" lon="0.87637">
        <ele>583.3160064</ele>
        <time>2019-04-22T13:31:41.008Z</time>
      </trkpt>
      <trkpt lat="43.02948" lon="0.8763">
        <ele>585</ele>
        <time>2019-04-22T13:31:47.008Z</time>
      </trkpt>
      <trkpt lat="43.02956" lon="0.8762">
        <ele>587</ele>
        <time>2019-04-22T13:31:52.008Z</time>
      </trkpt>
      <trkpt lat="43.02963" lon="0.87609">
        <ele>587</ele>
        <time>2019-04-22T13:31:56.008Z</time>
      </trkpt>
      <trkpt lat="43.02971" lon="0.87598">
        <ele>587.1580032</ele>
        <time>2019-04-22T13:32:01.008Z</time>
      </trkpt>
      <trkpt lat="43.02976" lon="0.87586">
        <ele>588</ele>
        <time>2019-04-22T13:32:06.008Z</time>
      </trkpt>
      <trkpt lat="43.02982" lon="0.87573">
        <ele>588.3160064</ele>
        <time>2019-04-22T13:32:11.008Z</time>
      </trkpt>
      <trkpt lat="43.0299" lon="0.87562">
        <ele>590</ele>
        <time>2019-04-22T13:32:16.008Z</time>
      </trkpt>
      <trkpt lat="43.02993" lon="0.87548">
        <ele>590.1580032</ele>
        <time>2019-04-22T13:32:21.008Z</time>
      </trkpt>
      <trkpt lat="43.03001" lon="0.87539">
        <ele>591</ele>
        <time>2019-04-22T13:32:53.008Z</time>
      </trkpt>
      <trkpt lat="43.03001" lon="0.87526">
        <ele>590</ele>
        <time>2019-04-22T13:33:29.008Z</time>
      </trkpt>
      <trkpt lat="43.03003" lon="0.87512">
        <ele>591</ele>
        <time>2019-04-22T13:33:37.008Z</time>
      </trkpt>
      <trkpt lat="43.03008" lon="0.875">
        <ele>591</ele>
        <time>2019-04-22T13:33:41.008Z</time>
      </trkpt>
      <trkpt lat="43.03012" lon="0.87487">
        <ele>591</ele>
        <time>2019-04-22T13:33:44.008Z</time>
      </trkpt>
      <trkpt lat="43.03013" lon="0.87472">
        <ele>591</ele>
        <time>2019-04-22T13:33:48.008Z</time>
      </trkpt>
      <trkpt lat="43.03005" lon="0.87457">
        <ele>589</ele>
        <time>2019-04-22T13:33:52.008Z</time>
      </trkpt>
      <trkpt lat="43.02999" lon="0.87445">
        <ele>589</ele>
        <time>2019-04-22T13:33:55.008Z</time>
      </trkpt>
      <trkpt lat="43.02993" lon="0.87434">
        <ele>589</ele>
        <time>2019-04-22T13:33:59.008Z</time>
      </trkpt>
      <trkpt lat="43.0299" lon="0.87421">
        <ele>588</ele>
        <time>2019-04-22T13:34:03.008Z</time>
      </trkpt>
      <trkpt lat="43.02983" lon="0.87406">
        <ele>588</ele>
        <time>2019-04-22T13:34:07.008Z</time>
      </trkpt>
      <trkpt lat="43.02975" lon="0.87395">
        <ele>588</ele>
        <time>2019-04-22T13:34:10.008Z</time>
      </trkpt>
      <trkpt lat="43.02968" lon="0.87378">
        <ele>587</ele>
        <time>2019-04-22T13:34:13.008Z</time>
      </trkpt>
      <trkpt lat="43.02967" lon="0.87365">
        <ele>587</ele>
        <time>2019-04-22T13:34:15.008Z</time>
      </trkpt>
      <trkpt lat="43.02966" lon="0.8735">
        <ele>587</ele>
        <time>2019-04-22T13:34:17.008Z</time>
      </trkpt>
      <trkpt lat="43.02969" lon="0.87331">
        <ele>587</ele>
        <time>2019-04-22T13:34:19.008Z</time>
      </trkpt>
      <trkpt lat="43.02974" lon="0.87312">
        <ele>586.209984</ele>
        <time>2019-04-22T13:34:21.008Z</time>
      </trkpt>
      <trkpt lat="43.0298" lon="0.8729">
        <ele>582</ele>
        <time>2019-04-22T13:34:23.008Z</time>
      </trkpt>
      <trkpt lat="43.02985" lon="0.87267">
        <ele>582</ele>
        <time>2019-04-22T13:34:25.008Z</time>
      </trkpt>
      <trkpt lat="43.02995" lon="0.87246">
        <ele>578</ele>
        <time>2019-04-22T13:34:27.008Z</time>
      </trkpt>
      <trkpt lat="43.03003" lon="0.87237">
        <ele>578</ele>
        <time>2019-04-22T13:34:28.008Z</time>
      </trkpt>
      <trkpt lat="43.03018" lon="0.87221">
        <ele>578</ele>
        <time>2019-04-22T13:34:30.008Z</time>
      </trkpt>
      <trkpt lat="43.03033" lon="0.87208">
        <ele>573.6839936</ele>
        <time>2019-04-22T13:34:32.008Z</time>
      </trkpt>
      <trkpt lat="43.03043" lon="0.87205">
        <ele>572</ele>
        <time>2019-04-22T13:34:33.008Z</time>
      </trkpt>
      <trkpt lat="43.0306" lon="0.87201">
        <ele>571</ele>
        <time>2019-04-22T13:34:35.008Z</time>
      </trkpt>
      <trkpt lat="43.03078" lon="0.87197">
        <ele>569.8419968</ele>
        <time>2019-04-22T13:34:37.008Z</time>
      </trkpt>
      <trkpt lat="43.03097" lon="0.87191">
        <ele>569</ele>
        <time>2019-04-22T13:34:39.008Z</time>
      </trkpt>
      <trkpt lat="43.03116" lon="0.87184">
        <ele>566.8419968</ele>
        <time>2019-04-22T13:34:41.008Z</time>
      </trkpt>
      <trkpt lat="43.03126" lon="0.8718">
        <ele>565.6839936</ele>
        <time>2019-04-22T13:34:42.008Z</time>
      </trkpt>
      <trkpt lat="43.03136" lon="0.87175">
        <ele>563.8419968</ele>
        <time>2019-04-22T13:34:43.008Z</time>
      </trkpt>
      <trkpt lat="43.03146" lon="0.87169">
        <ele>562.8419968</ele>
        <time>2019-04-22T13:34:44.008Z</time>
      </trkpt>
      <trkpt lat="43.03155" lon="0.87165">
        <ele>562</ele>
        <time>2019-04-22T13:34:45.008Z</time>
      </trkpt>
      <trkpt lat="43.03165" lon="0.8716">
        <ele>562</ele>
        <time>2019-04-22T13:34:46.008Z</time>
      </trkpt>
      <trkpt lat="43.03176" lon="0.87157">
        <ele>561.5259904</ele>
        <time>2019-04-22T13:34:47.008Z</time>
      </trkpt>
      <trkpt lat="43.03186" lon="0.87154">
        <ele>558.6839936</ele>
        <time>2019-04-22T13:34:48.008Z</time>
      </trkpt>
      <trkpt lat="43.03196" lon="0.87152">
        <ele>556.8419968</ele>
        <time>2019-04-22T13:34:49.008Z</time>
      </trkpt>
      <trkpt lat="43.03206" lon="0.8715">
        <ele>555.8419968</ele>
        <time>2019-04-22T13:34:50.008Z</time>
      </trkpt>
      <trkpt lat="43.03216" lon="0.87148">
        <ele>554.8419968</ele>
        <time>2019-04-22T13:34:51.008Z</time>
      </trkpt>
      <trkpt lat="43.03226" lon="0.87147">
        <ele>553.8419968</ele>
        <time>2019-04-22T13:34:52.008Z</time>
      </trkpt>
      <trkpt lat="43.03236" lon="0.87145">
        <ele>553</ele>
        <time>2019-04-22T13:34:53.008Z</time>
      </trkpt>
      <trkpt lat="43.03247" lon="0.87141">
        <ele>552.8419968</ele>
        <time>2019-04-22T13:34:54.008Z</time>
      </trkpt>
      <trkpt lat="43.03258" lon="0.87136">
        <ele>551.8419968</ele>
        <time>2019-04-22T13:34:55.008Z</time>
      </trkpt>
      <trkpt lat="43.03268" lon="0.87131">
        <ele>551</ele>
        <time>2019-04-22T13:34:56.008Z</time>
      </trkpt>
      <trkpt lat="43.03287" lon="0.87125">
        <ele>549.8419968</ele>
        <time>2019-04-22T13:34:58.008Z</time>
      </trkpt>
      <trkpt lat="43.03304" lon="0.87122">
        <ele>547.8419968</ele>
        <time>2019-04-22T13:35:00.008Z</time>
      </trkpt>
      <trkpt lat="43.03318" lon="0.87113">
        <ele>545</ele>
        <time>2019-04-22T13:35:02.008Z</time>
      </trkpt>
      <trkpt lat="43.03325" lon="0.87104">
        <ele>544.8419968</ele>
        <time>2019-04-22T13:35:03.008Z</time>
      </trkpt>
      <trkpt lat="43.03347" lon="0.87075">
        <ele>542</ele>
        <time>2019-04-22T13:35:06.008Z</time>
      </trkpt>
      <trkpt lat="43.03354" lon="0.87065">
        <ele>541.8419968</ele>
        <time>2019-04-22T13:35:07.008Z</time>
      </trkpt>
      <trkpt lat="43.03362" lon="0.87055">
        <ele>540.8419968</ele>
        <time>2019-04-22T13:35:08.008Z</time>
      </trkpt>
      <trkpt lat="43.03369" lon="0.87045">
        <ele>539.8419968</ele>
        <time>2019-04-22T13:35:09.008Z</time>
      </trkpt>
      <trkpt lat="43.03374" lon="0.87033">
        <ele>538.8419968</ele>
        <time>2019-04-22T13:35:10.008Z</time>
      </trkpt>
      <trkpt lat="43.03378" lon="0.87018">
        <ele>538</ele>
        <time>2019-04-22T13:35:11.008Z</time>
      </trkpt>
      <trkpt lat="43.0338" lon="0.87004">
        <ele>537.8419968</ele>
        <time>2019-04-22T13:35:12.008Z</time>
      </trkpt>
      <trkpt lat="43.03381" lon="0.86989">
        <ele>536.8419968</ele>
        <time>2019-04-22T13:35:13.008Z</time>
      </trkpt>
      <trkpt lat="43.03382" lon="0.86964">
        <ele>536</ele>
        <time>2019-04-22T13:35:15.008Z</time>
      </trkpt>
      <trkpt lat="43.0338" lon="0.8694">
        <ele>537</ele>
        <time>2019-04-22T13:35:17.008Z</time>
      </trkpt>
      <trkpt lat="43.03376" lon="0.8692">
        <ele>536</ele>
        <time>2019-04-22T13:35:19.008Z</time>
      </trkpt>
      <trkpt lat="43.03375" lon="0.86902">
        <ele>535</ele>
        <time>2019-04-22T13:35:21.008Z</time>
      </trkpt>
      <trkpt lat="43.03374" lon="0.86882">
        <ele>535</ele>
        <time>2019-04-22T13:35:23.008Z</time>
      </trkpt>
      <trkpt lat="43.0337" lon="0.86862">
        <ele>535</ele>
        <time>2019-04-22T13:35:25.008Z</time>
      </trkpt>
      <trkpt lat="43.03366" lon="0.8684">
        <ele>532</ele>
        <time>2019-04-22T13:35:27.008Z</time>
      </trkpt>
      <trkpt lat="43.03364" lon="0.86817">
        <ele>532</ele>
        <time>2019-04-22T13:35:29.008Z</time>
      </trkpt>
      <trkpt lat="43.03361" lon="0.86792">
        <ele>531.209984</ele>
        <time>2019-04-22T13:35:31.008Z</time>
      </trkpt>
      <trkpt lat="43.03357" lon="0.86767">
        <ele>524.8419968</ele>
        <time>2019-04-22T13:35:33.008Z</time>
      </trkpt>
      <trkpt lat="43.03353" lon="0.86742">
        <ele>522.8419968</ele>
        <time>2019-04-22T13:35:35.008Z</time>
      </trkpt>
      <trkpt lat="43.03348" lon="0.86718">
        <ele>519.6839936</ele>
        <time>2019-04-22T13:35:37.008Z</time>
      </trkpt>
      <trkpt lat="43.03342" lon="0.86693">
        <ele>517</ele>
        <time>2019-04-22T13:35:39.008Z</time>
      </trkpt>
      <trkpt lat="43.03335" lon="0.8667">
        <ele>516.7010201311</ele>
        <time>2019-04-22T13:35:41.008Z</time>
      </trkpt>
      <trkpt lat="43.03327" lon="0.86649">
        <ele>513.8419968</ele>
        <time>2019-04-22T13:35:43.008Z</time>
      </trkpt>
      <trkpt lat="43.03319" lon="0.8663">
        <ele>511.8419968</ele>
        <time>2019-04-22T13:35:45.008Z</time>
      </trkpt>
      <trkpt lat="43.0331" lon="0.86613">
        <ele>511</ele>
        <time>2019-04-22T13:35:47.008Z</time>
      </trkpt>
      <trkpt lat="43.03299" lon="0.866">
        <ele>511</ele>
        <time>2019-04-22T13:35:49.008Z</time>
      </trkpt>
      <trkpt lat="43.03284" lon="0.86591">
        <ele>509.8419968</ele>
        <time>2019-04-22T13:35:51.008Z</time>
      </trkpt>
      <trkpt lat="43.03271" lon="0.86584">
        <ele>508.8419968</ele>
        <time>2019-04-22T13:35:53.008Z</time>
      </trkpt>
      <trkpt lat="43.0328" lon="0.86576">
        <ele>506</ele>
        <time>2019-04-22T13:35:58.008Z</time>
      </trkpt>
      <trkpt lat="43.03294" lon="0.86579">
        <ele>505.8419968</ele>
        <time>2019-04-22T13:36:00.008Z</time>
      </trkpt>
      <trkpt lat="43.03306" lon="0.86584">
        <ele>504</ele>
        <time>2019-04-22T13:36:02.008Z</time>
      </trkpt>
      <trkpt lat="43.03318" lon="0.86589">
        <ele>502.8419968</ele>
        <time>2019-04-22T13:36:04.008Z</time>
      </trkpt>
      <trkpt lat="43.0333" lon="0.86595">
        <ele>501.8419968</ele>
        <time>2019-04-22T13:36:06.008Z</time>
      </trkpt>
      <trkpt lat="43.03341" lon="0.86605">
        <ele>499</ele>
        <time>2019-04-22T13:36:08.008Z</time>
      </trkpt>
      <trkpt lat="43.03353" lon="0.86619">
        <ele>498.6839936</ele>
        <time>2019-04-22T13:36:10.008Z</time>
      </trkpt>
      <trkpt lat="43.03366" lon="0.86635">
        <ele>496</ele>
        <time>2019-04-22T13:36:12.008Z</time>
      </trkpt>
      <trkpt lat="43.03377" lon="0.86653">
        <ele>495.8419968</ele>
        <time>2019-04-22T13:36:14.008Z</time>
      </trkpt>
      <trkpt lat="43.03386" lon="0.86672">
        <ele>494.6839936</ele>
        <time>2019-04-22T13:36:16.008Z</time>
      </trkpt>
      <trkpt lat="43.03395" lon="0.86692">
        <ele>492</ele>
        <time>2019-04-22T13:36:18.008Z</time>
      </trkpt>
      <trkpt lat="43.03405" lon="0.86713">
        <ele>490.8419968</ele>
        <time>2019-04-22T13:36:20.008Z</time>
      </trkpt>
      <trkpt lat="43.03414" lon="0.86735">
        <ele>489.8419968</ele>
        <time>2019-04-22T13:36:22.008Z</time>
      </trkpt>
      <trkpt lat="43.03423" lon="0.86756">
        <ele>488</ele>
        <time>2019-04-22T13:36:24.008Z</time>
      </trkpt>
      <trkpt lat="43.03432" lon="0.86776">
        <ele>487</ele>
        <time>2019-04-22T13:36:26.008Z</time>
      </trkpt>
      <trkpt lat="43.03442" lon="0.86794">
        <ele>486.8419968</ele>
        <time>2019-04-22T13:36:28.008Z</time>
      </trkpt>
      <trkpt lat="43.03452" lon="0.86811">
        <ele>485.6839936</ele>
        <time>2019-04-22T13:36:30.008Z</time>
      </trkpt>
      <trkpt lat="43.03463" lon="0.86831">
        <ele>481</ele>
        <time>2019-04-22T13:36:32.008Z</time>
      </trkpt>
      <trkpt lat="43.03471" lon="0.86851">
        <ele>480.8419968</ele>
        <time>2019-04-22T13:36:34.008Z</time>
      </trkpt>
      <trkpt lat="43.03479" lon="0.86869">
        <ele>480.8419968</ele>
        <time>2019-04-22T13:36:36.008Z</time>
      </trkpt>
      <trkpt lat="43.0349" lon="0.86882">
        <ele>479</ele>
        <time>2019-04-22T13:36:38.008Z</time>
      </trkpt>
      <trkpt lat="43.03497" lon="0.86895">
        <ele>477.8419968</ele>
        <time>2019-04-22T13:36:40.008Z</time>
      </trkpt>
      <trkpt lat="43.03502" lon="0.8691">
        <ele>476</ele>
        <time>2019-04-22T13:36:42.008Z</time>
      </trkpt>
      <trkpt lat="43.03512" lon="0.86912">
        <ele>475</ele>
        <time>2019-04-22T13:36:46.008Z</time>
      </trkpt>
      <trkpt lat="43.03513" lon="0.86892">
        <ele>473.8419968</ele>
        <time>2019-04-22T13:36:49.008Z</time>
      </trkpt>
      <trkpt lat="43.03513" lon="0.86873">
        <ele>471.8419968</ele>
        <time>2019-04-22T13:36:51.008Z</time>
      </trkpt>
      <trkpt lat="43.03512" lon="0.86852">
        <ele>470.8419968</ele>
        <time>2019-04-22T13:36:53.008Z</time>
      </trkpt>
      <trkpt lat="43.03508" lon="0.86829">
        <ele>468.8419968</ele>
        <time>2019-04-22T13:36:55.008Z</time>
      </trkpt>
      <trkpt lat="43.03499" lon="0.86807">
        <ele>467.8419968</ele>
        <time>2019-04-22T13:36:57.008Z</time>
      </trkpt>
      <trkpt lat="43.03492" lon="0.86785">
        <ele>466</ele>
        <time>2019-04-22T13:36:59.008Z</time>
      </trkpt>
      <trkpt lat="43.03484" lon="0.86763">
        <ele>465.8419968</ele>
        <time>2019-04-22T13:37:01.008Z</time>
      </trkpt>
      <trkpt lat="43.03476" lon="0.86741">
        <ele>464.8419968</ele>
        <time>2019-04-22T13:37:03.008Z</time>
      </trkpt>
      <trkpt lat="43.0347" lon="0.86721">
        <ele>462.8419968</ele>
        <time>2019-04-22T13:37:05.008Z</time>
      </trkpt>
      <trkpt lat="43.03466" lon="0.86703">
        <ele>462</ele>
        <time>2019-04-22T13:37:07.008Z</time>
      </trkpt>
      <trkpt lat="43.03465" lon="0.86685">
        <ele>461.8419968</ele>
        <time>2019-04-22T13:37:09.008Z</time>
      </trkpt>
      <trkpt lat="43.03464" lon="0.86664">
        <ele>460</ele>
        <time>2019-04-22T13:37:11.008Z</time>
      </trkpt>
      <trkpt lat="43.03464" lon="0.8664">
        <ele>457.8419968</ele>
        <time>2019-04-22T13:37:13.008Z</time>
      </trkpt>
      <trkpt lat="43.03464" lon="0.86618">
        <ele>457</ele>
        <time>2019-04-22T13:37:15.008Z</time>
      </trkpt>
      <trkpt lat="43.0346" lon="0.86597">
        <ele>457</ele>
        <time>2019-04-22T13:37:17.008Z</time>
      </trkpt>
      <trkpt lat="43.03461" lon="0.86581">
        <ele>456.8419968</ele>
        <time>2019-04-22T13:37:19.008Z</time>
      </trkpt>
      <trkpt lat="43.03466" lon="0.86564">
        <ele>456</ele>
        <time>2019-04-22T13:37:21.008Z</time>
      </trkpt>
      <trkpt lat="43.03473" lon="0.86543">
        <ele>456</ele>
        <time>2019-04-22T13:37:23.008Z</time>
      </trkpt>
      <trkpt lat="43.03481" lon="0.86522">
        <ele>456</ele>
        <time>2019-04-22T13:37:25.008Z</time>
      </trkpt>
      <trkpt lat="43.0349" lon="0.86503">
        <ele>452</ele>
        <time>2019-04-22T13:37:27.008Z</time>
      </trkpt>
      <trkpt lat="43.03499" lon="0.86489">
        <ele>452</ele>
        <time>2019-04-22T13:37:29.008Z</time>
      </trkpt>
      <trkpt lat="43.03511" lon="0.86479">
        <ele>451.6839936</ele>
        <time>2019-04-22T13:37:31.008Z</time>
      </trkpt>
      <trkpt lat="43.03527" lon="0.86473">
        <ele>449</ele>
        <time>2019-04-22T13:37:33.008Z</time>
      </trkpt>
      <trkpt lat="43.03541" lon="0.86468">
        <ele>448.8419968</ele>
        <time>2019-04-22T13:37:35.008Z</time>
      </trkpt>
      <trkpt lat="43.03556" lon="0.86464">
        <ele>448</ele>
        <time>2019-04-22T13:37:37.008Z</time>
      </trkpt>
      <trkpt lat="43.03572" lon="0.86462">
        <ele>447.8419968</ele>
        <time>2019-04-22T13:37:39.008Z</time>
      </trkpt>
      <trkpt lat="43.03588" lon="0.8646">
        <ele>447</ele>
        <time>2019-04-22T13:37:41.008Z</time>
      </trkpt>
      <trkpt lat="43.03604" lon="0.86455">
        <ele>447</ele>
        <time>2019-04-22T13:37:43.008Z</time>
      </trkpt>
      <trkpt lat="43.03617" lon="0.8645">
        <ele>447</ele>
        <time>2019-04-22T13:37:45.008Z</time>
      </trkpt>
      <trkpt lat="43.0363" lon="0.86447">
        <ele>447</ele>
        <time>2019-04-22T13:37:47.008Z</time>
      </trkpt>
      <trkpt lat="43.03643" lon="0.86444">
        <ele>447</ele>
        <time>2019-04-22T13:37:49.008Z</time>
      </trkpt>
      <trkpt lat="43.03655" lon="0.86439">
        <ele>446</ele>
        <time>2019-04-22T13:37:52.008Z</time>
      </trkpt>
      <trkpt lat="43.03667" lon="0.86436">
        <ele>446</ele>
        <time>2019-04-22T13:37:55.008Z</time>
      </trkpt>
      <trkpt lat="43.03677" lon="0.86434">
        <ele>446</ele>
        <time>2019-04-22T13:37:57.008Z</time>
      </trkpt>
      <trkpt lat="43.03687" lon="0.86431">
        <ele>446</ele>
        <time>2019-04-22T13:37:59.008Z</time>
      </trkpt>
      <trkpt lat="43.03701" lon="0.86427">
        <ele>446</ele>
        <time>2019-04-22T13:38:02.008Z</time>
      </trkpt>
      <trkpt lat="43.03711" lon="0.86421">
        <ele>446</ele>
        <time>2019-04-22T13:38:04.008Z</time>
      </trkpt>
      <trkpt lat="43.03719" lon="0.86413">
        <ele>446</ele>
        <time>2019-04-22T13:38:06.008Z</time>
      </trkpt>
      <trkpt lat="43.03727" lon="0.86406">
        <ele>446</ele>
        <time>2019-04-22T13:38:08.008Z</time>
      </trkpt>
      <trkpt lat="43.03735" lon="0.86399">
        <ele>446</ele>
        <time>2019-04-22T13:38:10.008Z</time>
      </trkpt>
      <trkpt lat="43.03744" lon="0.86393">
        <ele>446</ele>
        <time>2019-04-22T13:38:12.008Z</time>
      </trkpt>
      <trkpt lat="43.03754" lon="0.8639">
        <ele>446</ele>
        <time>2019-04-22T13:38:14.008Z</time>
      </trkpt>
      <trkpt lat="43.03759" lon="0.86389">
        <ele>446</ele>
        <time>2019-04-22T13:38:15.008Z</time>
      </trkpt>
      <trkpt lat="43.03765" lon="0.86388">
        <ele>446</ele>
        <time>2019-04-22T13:38:16.008Z</time>
      </trkpt>
      <trkpt lat="43.0377" lon="0.86387">
        <ele>446</ele>
        <time>2019-04-22T13:38:17.008Z</time>
      </trkpt>
      <trkpt lat="43.0378" lon="0.86385">
        <ele>446</ele>
        <time>2019-04-22T13:38:19.008Z</time>
      </trkpt>
      <trkpt lat="43.0379" lon="0.86382">
        <ele>445.6839936</ele>
        <time>2019-04-22T13:38:21.008Z</time>
      </trkpt>
      <trkpt lat="43.03801" lon="0.86377">
        <ele>444</ele>
        <time>2019-04-22T13:38:23.008Z</time>
      </trkpt>
      <trkpt lat="43.03811" lon="0.86371">
        <ele>444</ele>
        <time>2019-04-22T13:38:25.008Z</time>
      </trkpt>
      <trkpt lat="43.0382" lon="0.86362">
        <ele>444</ele>
        <time>2019-04-22T13:38:27.008Z</time>
      </trkpt>
      <trkpt lat="43.03829" lon="0.86354">
        <ele>444</ele>
        <time>2019-04-22T13:38:29.008Z</time>
      </trkpt>
      <trkpt lat="43.03838" lon="0.86346">
        <ele>444</ele>
        <time>2019-04-22T13:38:31.008Z</time>
      </trkpt>
      <trkpt lat="43.03847" lon="0.86338">
        <ele>444</ele>
        <time>2019-04-22T13:38:33.008Z</time>
      </trkpt>
      <trkpt lat="43.03854" lon="0.86326">
        <ele>444</ele>
        <time>2019-04-22T13:38:35.008Z</time>
      </trkpt>
      <trkpt lat="43.03859" lon="0.86313">
        <ele>444</ele>
        <time>2019-04-22T13:38:37.008Z</time>
      </trkpt>
      <trkpt lat="43.03862" lon="0.863">
        <ele>444</ele>
        <time>2019-04-22T13:38:39.008Z</time>
      </trkpt>
      <trkpt lat="43.03864" lon="0.86293">
        <ele>444</ele>
        <time>2019-04-22T13:38:40.008Z</time>
      </trkpt>
      <trkpt lat="43.03866" lon="0.86286">
        <ele>443.8419968</ele>
        <time>2019-04-22T13:38:41.008Z</time>
      </trkpt>
      <trkpt lat="43.03868" lon="0.86279">
        <ele>443</ele>
        <time>2019-04-22T13:38:42.008Z</time>
      </trkpt>
      <trkpt lat="43.03871" lon="0.86271">
        <ele>443</ele>
        <time>2019-04-22T13:38:43.008Z</time>
      </trkpt>
      <trkpt lat="43.03874" lon="0.86264">
        <ele>443</ele>
        <time>2019-04-22T13:38:44.008Z</time>
      </trkpt>
      <trkpt lat="43.03877" lon="0.86258">
        <ele>443</ele>
        <time>2019-04-22T13:38:45.008Z</time>
      </trkpt>
      <trkpt lat="43.03881" lon="0.86252">
        <ele>443</ele>
        <time>2019-04-22T13:38:46.008Z</time>
      </trkpt>
      <trkpt lat="43.0389" lon="0.86243">
        <ele>443</ele>
        <time>2019-04-22T13:38:48.008Z</time>
      </trkpt>
      <trkpt lat="43.03898" lon="0.86236">
        <ele>443</ele>
        <time>2019-04-22T13:38:50.008Z</time>
      </trkpt>
      <trkpt lat="43.03909" lon="0.86227">
        <ele>444</ele>
        <time>2019-04-22T13:38:53.008Z</time>
      </trkpt>
      <trkpt lat="43.03919" lon="0.86217">
        <ele>444</ele>
        <time>2019-04-22T13:38:56.008Z</time>
      </trkpt>
      <trkpt lat="43.03931" lon="0.86205">
        <ele>444</ele>
        <time>2019-04-22T13:38:59.008Z</time>
      </trkpt>
      <trkpt lat="43.03938" lon="0.86194">
        <ele>443.55153019666</ele>
        <time>2019-04-22T13:39:01.008Z</time>
      </trkpt>
      <trkpt lat="43.03946" lon="0.86182">
        <ele>441</ele>
        <time>2019-04-22T13:39:03.008Z</time>
      </trkpt>
      <trkpt lat="43.03953" lon="0.86169">
        <ele>441</ele>
        <time>2019-04-22T13:39:05.008Z</time>
      </trkpt>
      <trkpt lat="43.0396" lon="0.86156">
        <ele>441</ele>
        <time>2019-04-22T13:39:07.008Z</time>
      </trkpt>
      <trkpt lat="43.03966" lon="0.86142">
        <ele>441</ele>
        <time>2019-04-22T13:39:09.008Z</time>
      </trkpt>
      <trkpt lat="43.03972" lon="0.86128">
        <ele>441</ele>
        <time>2019-04-22T13:39:11.008Z</time>
      </trkpt>
      <trkpt lat="43.03978" lon="0.86114">
        <ele>441</ele>
        <time>2019-04-22T13:39:13.008Z</time>
      </trkpt>
      <trkpt lat="43.03984" lon="0.86101">
        <ele>441</ele>
        <time>2019-04-22T13:39:15.008Z</time>
      </trkpt>
      <trkpt lat="43.03992" lon="0.86088">
        <ele>441</ele>
        <time>2019-04-22T13:39:17.008Z</time>
      </trkpt>
      <trkpt lat="43.04" lon="0.86075">
        <ele>441</ele>
        <time>2019-04-22T13:39:19.008Z</time>
      </trkpt>
      <trkpt lat="43.04009" lon="0.86062">
        <ele>440.8419968</ele>
        <time>2019-04-22T13:39:21.008Z</time>
      </trkpt>
      <trkpt lat="43.04019" lon="0.8605">
        <ele>440</ele>
        <time>2019-04-22T13:39:23.008Z</time>
      </trkpt>
      <trkpt lat="43.04026" lon="0.86038">
        <ele>440</ele>
        <time>2019-04-22T13:39:25.008Z</time>
      </trkpt>
      <trkpt lat="43.04034" lon="0.86027">
        <ele>440</ele>
        <time>2019-04-22T13:39:27.008Z</time>
      </trkpt>
      <trkpt lat="43.04044" lon="0.86014">
        <ele>440</ele>
        <time>2019-04-22T13:39:29.008Z</time>
      </trkpt>
      <trkpt lat="43.04051" lon="0.85999">
        <ele>440</ele>
        <time>2019-04-22T13:39:31.008Z</time>
      </trkpt>
      <trkpt lat="43.04055" lon="0.85984">
        <ele>440</ele>
        <time>2019-04-22T13:39:33.008Z</time>
      </trkpt>
      <trkpt lat="43.04057" lon="0.85968">
        <ele>440</ele>
        <time>2019-04-22T13:39:35.008Z</time>
      </trkpt>
      <trkpt lat="43.04061" lon="0.85952">
        <ele>440</ele>
        <time>2019-04-22T13:39:37.008Z</time>
      </trkpt>
      <trkpt lat="43.04064" lon="0.85936">
        <ele>440</ele>
        <time>2019-04-22T13:39:39.008Z</time>
      </trkpt>
      <trkpt lat="43.04071" lon="0.85917">
        <ele>439.209984</ele>
        <time>2019-04-22T13:39:41.008Z</time>
      </trkpt>
      <trkpt lat="43.04072" lon="0.85894">
        <ele>432</ele>
        <time>2019-04-22T13:39:43.008Z</time>
      </trkpt>
      <trkpt lat="43.04069" lon="0.85869">
        <ele>432</ele>
        <time>2019-04-22T13:39:45.008Z</time>
      </trkpt>
      <trkpt lat="43.04064" lon="0.85846">
        <ele>432</ele>
        <time>2019-04-22T13:39:47.008Z</time>
      </trkpt>
      <trkpt lat="43.04058" lon="0.85824">
        <ele>432</ele>
        <time>2019-04-22T13:39:49.008Z</time>
      </trkpt>
      <trkpt lat="43.04057" lon="0.85807">
        <ele>431</ele>
        <time>2019-04-22T13:39:51.008Z</time>
      </trkpt>
      <trkpt lat="43.04064" lon="0.85797">
        <ele>431</ele>
        <time>2019-04-22T13:39:53.008Z</time>
      </trkpt>
      <trkpt lat="43.04074" lon="0.85786">
        <ele>431</ele>
        <time>2019-04-22T13:39:56.008Z</time>
      </trkpt>
      <trkpt lat="43.04083" lon="0.85776">
        <ele>431</ele>
        <time>2019-04-22T13:39:59.008Z</time>
      </trkpt>
      <trkpt lat="43.04092" lon="0.85768">
        <ele>431</ele>
        <time>2019-04-22T13:40:02.008Z</time>
      </trkpt>
      <trkpt lat="43.04101" lon="0.85758">
        <ele>431</ele>
        <time>2019-04-22T13:40:05.008Z</time>
      </trkpt>
      <trkpt lat="43.04111" lon="0.85748">
        <ele>431</ele>
        <time>2019-04-22T13:40:09.008Z</time>
      </trkpt>
      <trkpt lat="43.0412" lon="0.85738">
        <ele>432</ele>
        <time>2019-04-22T13:40:14.008Z</time>
      </trkpt>
      <trkpt lat="43.04128" lon="0.85731">
        <ele>432</ele>
        <time>2019-04-22T13:40:18.008Z</time>
      </trkpt>
      <trkpt lat="43.04134" lon="0.85725">
        <ele>432.3160064</ele>
        <time>2019-04-22T13:40:21.008Z</time>
      </trkpt>
      <trkpt lat="43.04139" lon="0.8572">
        <ele>434</ele>
        <time>2019-04-22T13:40:24.008Z</time>
      </trkpt>
      <trkpt lat="43.04147" lon="0.85715">
        <ele>436</ele>
        <time>2019-04-22T13:41:22.008Z</time>
      </trkpt>
      <trkpt lat="43.04157" lon="0.85722">
        <ele>436</ele>
        <time>2019-04-22T13:41:26.008Z</time>
      </trkpt>
      <trkpt lat="43.04166" lon="0.85731">
        <ele>436</ele>
        <time>2019-04-22T13:41:29.008Z</time>
      </trkpt>
      <trkpt lat="43.04171" lon="0.85737">
        <ele>436</ele>
        <time>2019-04-22T13:41:31.008Z</time>
      </trkpt>
      <trkpt lat="43.04177" lon="0.85743">
        <ele>436</ele>
        <time>2019-04-22T13:41:33.008Z</time>
      </trkpt>
      <trkpt lat="43.04183" lon="0.8575">
        <ele>436</ele>
        <time>2019-04-22T13:41:35.008Z</time>
      </trkpt>
      <trkpt lat="43.04189" lon="0.85756">
        <ele>436</ele>
        <time>2019-04-22T13:41:37.008Z</time>
      </trkpt>
      <trkpt lat="43.04195" lon="0.85763">
        <ele>436</ele>
        <time>2019-04-22T13:41:39.008Z</time>
      </trkpt>
      <trkpt lat="43.04201" lon="0.85769">
        <ele>436.1580032</ele>
        <time>2019-04-22T13:41:41.008Z</time>
      </trkpt>
      <trkpt lat="43.04208" lon="0.85769">
        <ele>437</ele>
        <time>2019-04-22T13:41:43.008Z</time>
      </trkpt>
      <trkpt lat="43.04215" lon="0.85764">
        <ele>437</ele>
        <time>2019-04-22T13:41:45.008Z</time>
      </trkpt>
      <trkpt lat="43.0422" lon="0.85757">
        <ele>437</ele>
        <time>2019-04-22T13:41:47.008Z</time>
      </trkpt>
      <trkpt lat="43.04226" lon="0.8575">
        <ele>437</ele>
        <time>2019-04-22T13:41:49.008Z</time>
      </trkpt>
      <trkpt lat="43.04231" lon="0.85743">
        <ele>437.1580032</ele>
        <time>2019-04-22T13:41:51.008Z</time>
      </trkpt>
      <trkpt lat="43.04237" lon="0.85737">
        <ele>438</ele>
        <time>2019-04-22T13:41:53.008Z</time>
      </trkpt>
      <trkpt lat="43.04242" lon="0.8573">
        <ele>438</ele>
        <time>2019-04-22T13:41:55.008Z</time>
      </trkpt>
      <trkpt lat="43.04246" lon="0.85724">
        <ele>438</ele>
        <time>2019-04-22T13:41:57.008Z</time>
      </trkpt>
      <trkpt lat="43.04251" lon="0.85718">
        <ele>438</ele>
        <time>2019-04-22T13:41:59.008Z</time>
      </trkpt>
      <trkpt lat="43.04256" lon="0.85712">
        <ele>438.4740096</ele>
        <time>2019-04-22T13:42:01.008Z</time>
      </trkpt>
      <trkpt lat="43.04261" lon="0.85706">
        <ele>441</ele>
        <time>2019-04-22T13:42:03.008Z</time>
      </trkpt>
      <trkpt lat="43.04266" lon="0.857">
        <ele>441</ele>
        <time>2019-04-22T13:42:05.008Z</time>
      </trkpt>
      <trkpt lat="43.04272" lon="0.85695">
        <ele>442</ele>
        <time>2019-04-22T13:42:07.008Z</time>
      </trkpt>
      <trkpt lat="43.04279" lon="0.85686">
        <ele>442</ele>
        <time>2019-04-22T13:42:10.008Z</time>
      </trkpt>
      <trkpt lat="43.04287" lon="0.85677">
        <ele>443</ele>
        <time>2019-04-22T13:42:13.008Z</time>
      </trkpt>
      <trkpt lat="43.04294" lon="0.85668">
        <ele>443</ele>
        <time>2019-04-22T13:42:16.008Z</time>
      </trkpt>
      <trkpt lat="43.04299" lon="0.85661">
        <ele>443</ele>
        <time>2019-04-22T13:42:18.008Z</time>
      </trkpt>
      <trkpt lat="43.04304" lon="0.85655">
        <ele>443</ele>
        <time>2019-04-22T13:42:20.008Z</time>
      </trkpt>
      <trkpt lat="43.04308" lon="0.85649">
        <ele>444</ele>
        <time>2019-04-22T13:42:22.008Z</time>
      </trkpt>
      <trkpt lat="43.04313" lon="0.85642">
        <ele>444</ele>
        <time>2019-04-22T13:42:24.008Z</time>
      </trkpt>
      <trkpt lat="43.04318" lon="0.85637">
        <ele>444</ele>
        <time>2019-04-22T13:42:26.008Z</time>
      </trkpt>
      <trkpt lat="43.04323" lon="0.85631">
        <ele>444</ele>
        <time>2019-04-22T13:42:28.008Z</time>
      </trkpt>
      <trkpt lat="43.04329" lon="0.85626">
        <ele>444</ele>
        <time>2019-04-22T13:42:30.008Z</time>
      </trkpt>
      <trkpt lat="43.04336" lon="0.85621">
        <ele>446</ele>
        <time>2019-04-22T13:42:32.008Z</time>
      </trkpt>
      <trkpt lat="43.04341" lon="0.85617">
        <ele>446</ele>
        <time>2019-04-22T13:42:34.008Z</time>
      </trkpt>
      <trkpt lat="43.04347" lon="0.85613">
        <ele>446</ele>
        <time>2019-04-22T13:42:36.008Z</time>
      </trkpt>
      <trkpt lat="43.04353" lon="0.8561">
        <ele>446</ele>
        <time>2019-04-22T13:42:38.008Z</time>
      </trkpt>
      <trkpt lat="43.0436" lon="0.85606">
        <ele>446</ele>
        <time>2019-04-22T13:42:40.008Z</time>
      </trkpt>
      <trkpt lat="43.04366" lon="0.85602">
        <ele>448</ele>
        <time>2019-04-22T13:42:42.008Z</time>
      </trkpt>
      <trkpt lat="43.04373" lon="0.85598">
        <ele>448</ele>
        <time>2019-04-22T13:42:44.008Z</time>
      </trkpt>
      <trkpt lat="43.0438" lon="0.85594">
        <ele>448</ele>
        <time>2019-04-22T13:42:46.008Z</time>
      </trkpt>
      <trkpt lat="43.04387" lon="0.8559">
        <ele>448</ele>
        <time>2019-04-22T13:42:48.008Z</time>
      </trkpt>
      <trkpt lat="43.04395" lon="0.85586">
        <ele>448</ele>
        <time>2019-04-22T13:42:50.008Z</time>
      </trkpt>
      <trkpt lat="43.04402" lon="0.85582">
        <ele>448</ele>
        <time>2019-04-22T13:42:52.008Z</time>
      </trkpt>
      <trkpt lat="43.04409" lon="0.85578">
        <ele>448</ele>
        <time>2019-04-22T13:42:54.008Z</time>
      </trkpt>
      <trkpt lat="43.04419" lon="0.85573">
        <ele>448</ele>
        <time>2019-04-22T13:42:57.008Z</time>
      </trkpt>
      <trkpt lat="43.04425" lon="0.8557">
        <ele>448</ele>
        <time>2019-04-22T13:42:59.008Z</time>
      </trkpt>
      <trkpt lat="43.04432" lon="0.85572">
        <ele>448</ele>
        <time>2019-04-22T13:43:02.008Z</time>
      </trkpt>
      <trkpt lat="43.04434" lon="0.85581">
        <ele>448</ele>
        <time>2019-04-22T13:43:04.008Z</time>
      </trkpt>
      <trkpt lat="43.04436" lon="0.85591">
        <ele>448</ele>
        <time>2019-04-22T13:43:06.008Z</time>
      </trkpt>
      <trkpt lat="43.04439" lon="0.85603">
        <ele>448</ele>
        <time>2019-04-22T13:43:08.008Z</time>
      </trkpt>
      <trkpt lat="43.04441" lon="0.85616">
        <ele>448</ele>
        <time>2019-04-22T13:43:10.008Z</time>
      </trkpt>
      <trkpt lat="43.04445" lon="0.8563">
        <ele>447</ele>
        <time>2019-04-22T13:43:12.008Z</time>
      </trkpt>
      <trkpt lat="43.04448" lon="0.85646">
        <ele>447</ele>
        <time>2019-04-22T13:43:14.008Z</time>
      </trkpt>
      <trkpt lat="43.0445" lon="0.85655">
        <ele>447</ele>
        <time>2019-04-22T13:43:15.008Z</time>
      </trkpt>
      <trkpt lat="43.04452" lon="0.85663">
        <ele>447</ele>
        <time>2019-04-22T13:43:16.008Z</time>
      </trkpt>
      <trkpt lat="43.04454" lon="0.85672">
        <ele>447</ele>
        <time>2019-04-22T13:43:17.008Z</time>
      </trkpt>
      <trkpt lat="43.04456" lon="0.85681">
        <ele>447</ele>
        <time>2019-04-22T13:43:18.008Z</time>
      </trkpt>
      <trkpt lat="43.04458" lon="0.8569">
        <ele>447</ele>
        <time>2019-04-22T13:43:19.008Z</time>
      </trkpt>
      <trkpt lat="43.0446" lon="0.85699">
        <ele>447</ele>
        <time>2019-04-22T13:43:20.008Z</time>
      </trkpt>
      <trkpt lat="43.04462" lon="0.85709">
        <ele>446.5259904</ele>
        <time>2019-04-22T13:43:21.008Z</time>
      </trkpt>
      <trkpt lat="43.04464" lon="0.85718">
        <ele>444</ele>
        <time>2019-04-22T13:43:22.008Z</time>
      </trkpt>
      <trkpt lat="43.04466" lon="0.85727">
        <ele>444</ele>
        <time>2019-04-22T13:43:23.008Z</time>
      </trkpt>
      <trkpt lat="43.04468" lon="0.85736">
        <ele>444</ele>
        <time>2019-04-22T13:43:24.008Z</time>
      </trkpt>
      <trkpt lat="43.04471" lon="0.85746">
        <ele>444</ele>
        <time>2019-04-22T13:43:25.008Z</time>
      </trkpt>
      <trkpt lat="43.04473" lon="0.85755">
        <ele>443.6839936</ele>
        <time>2019-04-22T13:43:26.008Z</time>
      </trkpt>
      <trkpt lat="43.04476" lon="0.85764">
        <ele>442</ele>
        <time>2019-04-22T13:43:27.008Z</time>
      </trkpt>
      <trkpt lat="43.04479" lon="0.85773">
        <ele>442</ele>
        <time>2019-04-22T13:43:28.008Z</time>
      </trkpt>
      <trkpt lat="43.04482" lon="0.85782">
        <ele>442</ele>
        <time>2019-04-22T13:43:29.008Z</time>
      </trkpt>
      <trkpt lat="43.04485" lon="0.8579">
        <ele>442</ele>
        <time>2019-04-22T13:43:30.008Z</time>
      </trkpt>
      <trkpt lat="43.04488" lon="0.85799">
        <ele>442</ele>
        <time>2019-04-22T13:43:31.008Z</time>
      </trkpt>
      <trkpt lat="43.04492" lon="0.85808">
        <ele>442</ele>
        <time>2019-04-22T13:43:32.008Z</time>
      </trkpt>
      <trkpt lat="43.04498" lon="0.85824">
        <ele>442</ele>
        <time>2019-04-22T13:43:34.008Z</time>
      </trkpt>
      <trkpt lat="43.04501" lon="0.85834">
        <ele>442</ele>
        <time>2019-04-22T13:43:35.008Z</time>
      </trkpt>
      <trkpt lat="43.04504" lon="0.85843">
        <ele>441.6839936</ele>
        <time>2019-04-22T13:43:36.008Z</time>
      </trkpt>
      <trkpt lat="43.04506" lon="0.85851">
        <ele>440</ele>
        <time>2019-04-22T13:43:37.008Z</time>
      </trkpt>
      <trkpt lat="43.04514" lon="0.85859">
        <ele>440</ele>
        <time>2019-04-22T13:43:39.008Z</time>
      </trkpt>
      <trkpt lat="43.04524" lon="0.8586">
        <ele>439.6839936</ele>
        <time>2019-04-22T13:43:41.008Z</time>
      </trkpt>
      <trkpt lat="43.04535" lon="0.85859">
        <ele>438</ele>
        <time>2019-04-22T13:43:43.008Z</time>
      </trkpt>
      <trkpt lat="43.04547" lon="0.85858">
        <ele>438</ele>
        <time>2019-04-22T13:43:45.008Z</time>
      </trkpt>
      <trkpt lat="43.0456" lon="0.85857">
        <ele>436</ele>
        <time>2019-04-22T13:43:47.008Z</time>
      </trkpt>
      <trkpt lat="43.04567" lon="0.85856">
        <ele>436</ele>
        <time>2019-04-22T13:43:48.008Z</time>
      </trkpt>
      <trkpt lat="43.04575" lon="0.85855">
        <ele>436</ele>
        <time>2019-04-22T13:43:49.008Z</time>
      </trkpt>
      <trkpt lat="43.04582" lon="0.85855">
        <ele>436</ele>
        <time>2019-04-22T13:43:50.008Z</time>
      </trkpt>
      <trkpt lat="43.0459" lon="0.85854">
        <ele>435.6839936</ele>
        <time>2019-04-22T13:43:51.008Z</time>
      </trkpt>
      <trkpt lat="43.04599" lon="0.85853">
        <ele>434</ele>
        <time>2019-04-22T13:43:52.008Z</time>
      </trkpt>
      <trkpt lat="43.04608" lon="0.85852">
        <ele>434</ele>
        <time>2019-04-22T13:43:53.008Z</time>
      </trkpt>
      <trkpt lat="43.04617" lon="0.85852">
        <ele>434</ele>
        <time>2019-04-22T13:43:54.008Z</time>
      </trkpt>
      <trkpt lat="43.04627" lon="0.85851">
        <ele>434</ele>
        <time>2019-04-22T13:43:55.008Z</time>
      </trkpt>
      <trkpt lat="43.04637" lon="0.85851">
        <ele>433.209984</ele>
        <time>2019-04-22T13:43:56.008Z</time>
      </trkpt>
      <trkpt lat="43.04648" lon="0.8585">
        <ele>429</ele>
        <time>2019-04-22T13:43:57.008Z</time>
      </trkpt>
      <trkpt lat="43.04659" lon="0.8585">
        <ele>429</ele>
        <time>2019-04-22T13:43:58.008Z</time>
      </trkpt>
      <trkpt lat="43.0467" lon="0.85851">
        <ele>429</ele>
        <time>2019-04-22T13:43:59.008Z</time>
      </trkpt>
      <trkpt lat="43.04681" lon="0.85853">
        <ele>429</ele>
        <time>2019-04-22T13:44:00.008Z</time>
      </trkpt>
      <trkpt lat="43.04692" lon="0.85856">
        <ele>428.3679872</ele>
        <time>2019-04-22T13:44:01.008Z</time>
      </trkpt>
      <trkpt lat="43.04702" lon="0.85858">
        <ele>425</ele>
        <time>2019-04-22T13:44:02.008Z</time>
      </trkpt>
      <trkpt lat="43.04712" lon="0.85857">
        <ele>425</ele>
        <time>2019-04-22T13:44:03.008Z</time>
      </trkpt>
      <trkpt lat="43.04722" lon="0.85852">
        <ele>425</ele>
        <time>2019-04-22T13:44:04.008Z</time>
      </trkpt>
      <trkpt lat="43.04729" lon="0.85846">
        <ele>425</ele>
        <time>2019-04-22T13:44:05.008Z</time>
      </trkpt>
      <trkpt lat="43.04736" lon="0.8584">
        <ele>425</ele>
        <time>2019-04-22T13:44:06.008Z</time>
      </trkpt>
      <trkpt lat="43.04743" lon="0.85833">
        <ele>425</ele>
        <time>2019-04-22T13:44:07.008Z</time>
      </trkpt>
      <trkpt lat="43.04756" lon="0.85821">
        <ele>426</ele>
        <time>2019-04-22T13:44:09.008Z</time>
      </trkpt>
      <trkpt lat="43.04766" lon="0.85809">
        <ele>427</ele>
        <time>2019-04-22T13:44:11.008Z</time>
      </trkpt>
      <trkpt lat="43.04776" lon="0.85799">
        <ele>427</ele>
        <time>2019-04-22T13:44:13.008Z</time>
      </trkpt>
      <trkpt lat="43.04785" lon="0.8579">
        <ele>427</ele>
        <time>2019-04-22T13:44:15.008Z</time>
      </trkpt>
      <trkpt lat="43.04793" lon="0.85781">
        <ele>427</ele>
        <time>2019-04-22T13:44:17.008Z</time>
      </trkpt>
      <trkpt lat="43.04797" lon="0.8577">
        <ele>427</ele>
        <time>2019-04-22T13:44:19.008Z</time>
      </trkpt>
      <trkpt lat="43.04798" lon="0.85757">
        <ele>427</ele>
        <time>2019-04-22T13:44:21.008Z</time>
      </trkpt>
      <trkpt lat="43.04798" lon="0.85744">
        <ele>427</ele>
        <time>2019-04-22T13:44:23.008Z</time>
      </trkpt>
      <trkpt lat="43.04798" lon="0.85731">
        <ele>427</ele>
        <time>2019-04-22T13:44:25.008Z</time>
      </trkpt>
      <trkpt lat="43.04798" lon="0.85725">
        <ele>427</ele>
        <time>2019-04-22T13:44:26.008Z</time>
      </trkpt>
      <trkpt lat="43.04798" lon="0.85712">
        <ele>427</ele>
        <time>2019-04-22T13:44:28.008Z</time>
      </trkpt>
      <trkpt lat="43.048" lon="0.85699">
        <ele>427</ele>
        <time>2019-04-22T13:44:30.008Z</time>
      </trkpt>
      <trkpt lat="43.04803" lon="0.85687">
        <ele>429</ele>
        <time>2019-04-22T13:44:32.008Z</time>
      </trkpt>
      <trkpt lat="43.04806" lon="0.85676">
        <ele>429</ele>
        <time>2019-04-22T13:44:34.008Z</time>
      </trkpt>
      <trkpt lat="43.0481" lon="0.85665">
        <ele>429</ele>
        <time>2019-04-22T13:44:36.008Z</time>
      </trkpt>
      <trkpt lat="43.04813" lon="0.85655">
        <ele>429</ele>
        <time>2019-04-22T13:44:38.008Z</time>
      </trkpt>
      <trkpt lat="43.04818" lon="0.85646">
        <ele>429</ele>
        <time>2019-04-22T13:44:40.008Z</time>
      </trkpt>
      <trkpt lat="43.04822" lon="0.85637">
        <ele>432</ele>
        <time>2019-04-22T13:44:42.008Z</time>
      </trkpt>
      <trkpt lat="43.04827" lon="0.85628">
        <ele>432</ele>
        <time>2019-04-22T13:44:44.008Z</time>
      </trkpt>
      <trkpt lat="43.04831" lon="0.8562">
        <ele>432</ele>
        <time>2019-04-22T13:44:46.008Z</time>
      </trkpt>
      <trkpt lat="43.04836" lon="0.85611">
        <ele>432</ele>
        <time>2019-04-22T13:44:48.008Z</time>
      </trkpt>
      <trkpt lat="43.0484" lon="0.85603">
        <ele>431</ele>
        <time>2019-04-22T13:44:50.008Z</time>
      </trkpt>
      <trkpt lat="43.04845" lon="0.85595">
        <ele>432</ele>
        <time>2019-04-22T13:44:52.008Z</time>
      </trkpt>
      <trkpt lat="43.04851" lon="0.85583">
        <ele>432</ele>
        <time>2019-04-22T13:44:55.008Z</time>
      </trkpt>
      <trkpt lat="43.04857" lon="0.85572">
        <ele>432</ele>
        <time>2019-04-22T13:44:58.008Z</time>
      </trkpt>
      <trkpt lat="43.04863" lon="0.8556">
        <ele>432.1580032</ele>
        <time>2019-04-22T13:45:01.008Z</time>
      </trkpt>
      <trkpt lat="43.04866" lon="0.85552">
        <ele>433</ele>
        <time>2019-04-22T13:45:03.008Z</time>
      </trkpt>
      <trkpt lat="43.0487" lon="0.85544">
        <ele>433</ele>
        <time>2019-04-22T13:45:05.008Z</time>
      </trkpt>
      <trkpt lat="43.04876" lon="0.85532">
        <ele>433</ele>
        <time>2019-04-22T13:45:08.008Z</time>
      </trkpt>
      <trkpt lat="43.04883" lon="0.85529">
        <ele>433</ele>
        <time>2019-04-22T13:45:10.008Z</time>
      </trkpt>
      <trkpt lat="43.0489" lon="0.85529">
        <ele>435</ele>
        <time>2019-04-22T13:45:12.008Z</time>
      </trkpt>
      <trkpt lat="43.04897" lon="0.85529">
        <ele>435</ele>
        <time>2019-04-22T13:45:14.008Z</time>
      </trkpt>
      <trkpt lat="43.04904" lon="0.85528">
        <ele>435</ele>
        <time>2019-04-22T13:45:16.008Z</time>
      </trkpt>
      <trkpt lat="43.04912" lon="0.85527">
        <ele>435</ele>
        <time>2019-04-22T13:45:18.008Z</time>
      </trkpt>
      <trkpt lat="43.04919" lon="0.85527">
        <ele>435</ele>
        <time>2019-04-22T13:45:20.008Z</time>
      </trkpt>
      <trkpt lat="43.04927" lon="0.85526">
        <ele>436</ele>
        <time>2019-04-22T13:45:22.008Z</time>
      </trkpt>
      <trkpt lat="43.04934" lon="0.85525">
        <ele>436</ele>
        <time>2019-04-22T13:45:24.008Z</time>
      </trkpt>
      <trkpt lat="43.04942" lon="0.85525">
        <ele>436</ele>
        <time>2019-04-22T13:45:26.008Z</time>
      </trkpt>
      <trkpt lat="43.04949" lon="0.85524">
        <ele>436</ele>
        <time>2019-04-22T13:45:28.008Z</time>
      </trkpt>
      <trkpt lat="43.04957" lon="0.85524">
        <ele>436</ele>
        <time>2019-04-22T13:45:30.008Z</time>
      </trkpt>
      <trkpt lat="43.04965" lon="0.85523">
        <ele>438</ele>
        <time>2019-04-22T13:45:32.008Z</time>
      </trkpt>
      <trkpt lat="43.04973" lon="0.85524">
        <ele>438</ele>
        <time>2019-04-22T13:45:34.008Z</time>
      </trkpt>
      <trkpt lat="43.0498" lon="0.85525">
        <ele>438</ele>
        <time>2019-04-22T13:45:36.008Z</time>
      </trkpt>
      <trkpt lat="43.04989" lon="0.85526">
        <ele>438</ele>
        <time>2019-04-22T13:45:38.008Z</time>
      </trkpt>
      <trkpt lat="43.04997" lon="0.85527">
        <ele>438</ele>
        <time>2019-04-22T13:45:40.008Z</time>
      </trkpt>
      <trkpt lat="43.05007" lon="0.85528">
        <ele>438</ele>
        <time>2019-04-22T13:45:42.008Z</time>
      </trkpt>
      <trkpt lat="43.05017" lon="0.85528">
        <ele>438</ele>
        <time>2019-04-22T13:45:44.008Z</time>
      </trkpt>
      <trkpt lat="43.05027" lon="0.85529">
        <ele>438</ele>
        <time>2019-04-22T13:45:46.008Z</time>
      </trkpt>
      <trkpt lat="43.05037" lon="0.8553">
        <ele>438</ele>
        <time>2019-04-22T13:45:48.008Z</time>
      </trkpt>
      <trkpt lat="43.05047" lon="0.85531">
        <ele>438</ele>
        <time>2019-04-22T13:45:50.008Z</time>
      </trkpt>
      <trkpt lat="43.05057" lon="0.85532">
        <ele>437</ele>
        <time>2019-04-22T13:45:52.008Z</time>
      </trkpt>
      <trkpt lat="43.05068" lon="0.85534">
        <ele>437</ele>
        <time>2019-04-22T13:45:54.008Z</time>
      </trkpt>
      <trkpt lat="43.05077" lon="0.85536">
        <ele>437</ele>
        <time>2019-04-22T13:45:56.008Z</time>
      </trkpt>
      <trkpt lat="43.05087" lon="0.85538">
        <ele>437</ele>
        <time>2019-04-22T13:45:58.008Z</time>
      </trkpt>
      <trkpt lat="43.05096" lon="0.85538">
        <ele>437</ele>
        <time>2019-04-22T13:46:00.008Z</time>
      </trkpt>
      <trkpt lat="43.05103" lon="0.85534">
        <ele>438</ele>
        <time>2019-04-22T13:46:02.008Z</time>
      </trkpt>
      <trkpt lat="43.05106" lon="0.85526">
        <ele>438</ele>
        <time>2019-04-22T13:46:04.008Z</time>
      </trkpt>
      <trkpt lat="43.05105" lon="0.85516">
        <ele>438</ele>
        <time>2019-04-22T13:46:06.008Z</time>
      </trkpt>
      <trkpt lat="43.05101" lon="0.85506">
        <ele>438</ele>
        <time>2019-04-22T13:46:08.008Z</time>
      </trkpt>
      <trkpt lat="43.05097" lon="0.85496">
        <ele>438</ele>
        <time>2019-04-22T13:46:10.008Z</time>
      </trkpt>
      <trkpt lat="43.05094" lon="0.85486">
        <ele>440</ele>
        <time>2019-04-22T13:46:12.008Z</time>
      </trkpt>
      <trkpt lat="43.0509" lon="0.85477">
        <ele>440</ele>
        <time>2019-04-22T13:46:14.008Z</time>
      </trkpt>
      <trkpt lat="43.05086" lon="0.85467">
        <ele>440</ele>
        <time>2019-04-22T13:46:16.008Z</time>
      </trkpt>
      <trkpt lat="43.05082" lon="0.85459">
        <ele>440</ele>
        <time>2019-04-22T13:46:18.008Z</time>
      </trkpt>
      <trkpt lat="43.05077" lon="0.8545">
        <ele>440</ele>
        <time>2019-04-22T13:46:20.008Z</time>
      </trkpt>
      <trkpt lat="43.05072" lon="0.85442">
        <ele>441</ele>
        <time>2019-04-22T13:46:22.008Z</time>
      </trkpt>
      <trkpt lat="43.05067" lon="0.85434">
        <ele>441</ele>
        <time>2019-04-22T13:46:24.008Z</time>
      </trkpt>
      <trkpt lat="43.05062" lon="0.85426">
        <ele>441</ele>
        <time>2019-04-22T13:46:26.008Z</time>
      </trkpt>
      <trkpt lat="43.05056" lon="0.85419">
        <ele>441</ele>
        <time>2019-04-22T13:46:28.008Z</time>
      </trkpt>
      <trkpt lat="43.05051" lon="0.85412">
        <ele>441</ele>
        <time>2019-04-22T13:46:30.008Z</time>
      </trkpt>
      <trkpt lat="43.05046" lon="0.85404">
        <ele>443</ele>
        <time>2019-04-22T13:46:32.008Z</time>
      </trkpt>
      <trkpt lat="43.05041" lon="0.85396">
        <ele>443</ele>
        <time>2019-04-22T13:46:34.008Z</time>
      </trkpt>
      <trkpt lat="43.05036" lon="0.85388">
        <ele>443</ele>
        <time>2019-04-22T13:46:36.008Z</time>
      </trkpt>
      <trkpt lat="43.05031" lon="0.85381">
        <ele>443</ele>
        <time>2019-04-22T13:46:38.008Z</time>
      </trkpt>
      <trkpt lat="43.05026" lon="0.85373">
        <ele>443</ele>
        <time>2019-04-22T13:46:40.008Z</time>
      </trkpt>
      <trkpt lat="43.05023" lon="0.85364">
        <ele>445</ele>
        <time>2019-04-22T13:46:42.008Z</time>
      </trkpt>
      <trkpt lat="43.05018" lon="0.85356">
        <ele>444</ele>
        <time>2019-04-22T13:46:44.008Z</time>
      </trkpt>
      <trkpt lat="43.05014" lon="0.85348">
        <ele>444</ele>
        <time>2019-04-22T13:46:46.008Z</time>
      </trkpt>
      <trkpt lat="43.0501" lon="0.85339">
        <ele>444</ele>
        <time>2019-04-22T13:46:48.008Z</time>
      </trkpt>
      <trkpt lat="43.05006" lon="0.85331">
        <ele>444</ele>
        <time>2019-04-22T13:46:50.008Z</time>
      </trkpt>
      <trkpt lat="43.05002" lon="0.85323">
        <ele>446</ele>
        <time>2019-04-22T13:46:52.008Z</time>
      </trkpt>
      <trkpt lat="43.04998" lon="0.85314">
        <ele>446</ele>
        <time>2019-04-22T13:46:54.008Z</time>
      </trkpt>
      <trkpt lat="43.04995" lon="0.85306">
        <ele>446</ele>
        <time>2019-04-22T13:46:56.008Z</time>
      </trkpt>
      <trkpt lat="43.04992" lon="0.85297">
        <ele>446</ele>
        <time>2019-04-22T13:46:58.008Z</time>
      </trkpt>
      <trkpt lat="43.04989" lon="0.85288">
        <ele>446</ele>
        <time>2019-04-22T13:47:00.008Z</time>
      </trkpt>
      <trkpt lat="43.04986" lon="0.85279">
        <ele>449</ele>
        <time>2019-04-22T13:47:02.008Z</time>
      </trkpt>
      <trkpt lat="43.04984" lon="0.85269">
        <ele>449</ele>
        <time>2019-04-22T13:47:04.008Z</time>
      </trkpt>
      <trkpt lat="43.04983" lon="0.85264">
        <ele>449</ele>
        <time>2019-04-22T13:47:05.008Z</time>
      </trkpt>
      <trkpt lat="43.04982" lon="0.8526">
        <ele>449.1580032</ele>
        <time>2019-04-22T13:47:06.008Z</time>
      </trkpt>
      <trkpt lat="43.04979" lon="0.8525">
        <ele>449.8419968</ele>
        <time>2019-04-22T13:47:08.008Z</time>
      </trkpt>
      <trkpt lat="43.04977" lon="0.85241">
        <ele>449</ele>
        <time>2019-04-22T13:47:10.008Z</time>
      </trkpt>
      <trkpt lat="43.04974" lon="0.85232">
        <ele>451</ele>
        <time>2019-04-22T13:47:12.008Z</time>
      </trkpt>
      <trkpt lat="43.04972" lon="0.85222">
        <ele>451</ele>
        <time>2019-04-22T13:47:14.008Z</time>
      </trkpt>
      <trkpt lat="43.0497" lon="0.85213">
        <ele>451.3160064</ele>
        <time>2019-04-22T13:47:16.008Z</time>
      </trkpt>
      <trkpt lat="43.04967" lon="0.85204">
        <ele>453</ele>
        <time>2019-04-22T13:47:18.008Z</time>
      </trkpt>
      <trkpt lat="43.04965" lon="0.85195">
        <ele>453</ele>
        <time>2019-04-22T13:47:20.008Z</time>
      </trkpt>
      <trkpt lat="43.04963" lon="0.85186">
        <ele>455</ele>
        <time>2019-04-22T13:47:22.008Z</time>
      </trkpt>
      <trkpt lat="43.04961" lon="0.85178">
        <ele>455</ele>
        <time>2019-04-22T13:47:24.008Z</time>
      </trkpt>
      <trkpt lat="43.04959" lon="0.85169">
        <ele>454.1580032</ele>
        <time>2019-04-22T13:47:26.008Z</time>
      </trkpt>
      <trkpt lat="43.04956" lon="0.85161">
        <ele>455</ele>
        <time>2019-04-22T13:47:28.008Z</time>
      </trkpt>
      <trkpt lat="43.04954" lon="0.85152">
        <ele>455</ele>
        <time>2019-04-22T13:47:30.008Z</time>
      </trkpt>
      <trkpt lat="43.04952" lon="0.85144">
        <ele>457</ele>
        <time>2019-04-22T13:47:32.008Z</time>
      </trkpt>
      <trkpt lat="43.0495" lon="0.85136">
        <ele>457</ele>
        <time>2019-04-22T13:47:34.008Z</time>
      </trkpt>
      <trkpt lat="43.04948" lon="0.85128">
        <ele>457.3160064</ele>
        <time>2019-04-22T13:47:36.008Z</time>
      </trkpt>
      <trkpt lat="43.04945" lon="0.85121">
        <ele>459</ele>
        <time>2019-04-22T13:47:38.008Z</time>
      </trkpt>
      <trkpt lat="43.04944" lon="0.85113">
        <ele>459</ele>
        <time>2019-04-22T13:47:40.008Z</time>
      </trkpt>
      <trkpt lat="43.04941" lon="0.85106">
        <ele>461</ele>
        <time>2019-04-22T13:47:42.008Z</time>
      </trkpt>
      <trkpt lat="43.0494" lon="0.85098">
        <ele>461</ele>
        <time>2019-04-22T13:47:44.008Z</time>
      </trkpt>
      <trkpt lat="43.04938" lon="0.8509">
        <ele>461.1580032</ele>
        <time>2019-04-22T13:47:46.008Z</time>
      </trkpt>
      <trkpt lat="43.04936" lon="0.85082">
        <ele>462</ele>
        <time>2019-04-22T13:47:48.008Z</time>
      </trkpt>
      <trkpt lat="43.04934" lon="0.85075">
        <ele>462</ele>
        <time>2019-04-22T13:47:50.008Z</time>
      </trkpt>
      <trkpt lat="43.04931" lon="0.85063">
        <ele>464</ele>
        <time>2019-04-22T13:47:53.008Z</time>
      </trkpt>
      <trkpt lat="43.04929" lon="0.85055">
        <ele>464</ele>
        <time>2019-04-22T13:47:55.008Z</time>
      </trkpt>
      <trkpt lat="43.04927" lon="0.85044">
        <ele>465</ele>
        <time>2019-04-22T13:47:58.008Z</time>
      </trkpt>
      <trkpt lat="43.04924" lon="0.85032">
        <ele>465.1580032</ele>
        <time>2019-04-22T13:48:01.008Z</time>
      </trkpt>
      <trkpt lat="43.04921" lon="0.85021">
        <ele>466</ele>
        <time>2019-04-22T13:48:04.008Z</time>
      </trkpt>
      <trkpt lat="43.04919" lon="0.85009">
        <ele>467</ele>
        <time>2019-04-22T13:48:07.008Z</time>
      </trkpt>
      <trkpt lat="43.04915" lon="0.84998">
        <ele>467</ele>
        <time>2019-04-22T13:48:10.008Z</time>
      </trkpt>
      <trkpt lat="43.04913" lon="0.84991">
        <ele>468</ele>
        <time>2019-04-22T13:48:12.008Z</time>
      </trkpt>
      <trkpt lat="43.04911" lon="0.84983">
        <ele>468</ele>
        <time>2019-04-22T13:48:14.008Z</time>
      </trkpt>
      <trkpt lat="43.04908" lon="0.84976">
        <ele>468</ele>
        <time>2019-04-22T13:48:16.008Z</time>
      </trkpt>
      <trkpt lat="43.04905" lon="0.84968">
        <ele>468</ele>
        <time>2019-04-22T13:48:18.008Z</time>
      </trkpt>
      <trkpt lat="43.04903" lon="0.8496">
        <ele>468</ele>
        <time>2019-04-22T13:48:20.008Z</time>
      </trkpt>
      <trkpt lat="43.049" lon="0.84952">
        <ele>469</ele>
        <time>2019-04-22T13:48:22.008Z</time>
      </trkpt>
      <trkpt lat="43.04897" lon="0.84944">
        <ele>469</ele>
        <time>2019-04-22T13:48:24.008Z</time>
      </trkpt>
      <trkpt lat="43.04892" lon="0.84936">
        <ele>469</ele>
        <time>2019-04-22T13:48:26.008Z</time>
      </trkpt>
      <trkpt lat="43.04888" lon="0.84928">
        <ele>469</ele>
        <time>2019-04-22T13:48:28.008Z</time>
      </trkpt>
      <trkpt lat="43.04884" lon="0.84919">
        <ele>469</ele>
        <time>2019-04-22T13:48:30.008Z</time>
      </trkpt>
      <trkpt lat="43.0488" lon="0.8491">
        <ele>469</ele>
        <time>2019-04-22T13:48:32.008Z</time>
      </trkpt>
      <trkpt lat="43.04876" lon="0.84901">
        <ele>469</ele>
        <time>2019-04-22T13:48:34.008Z</time>
      </trkpt>
      <trkpt lat="43.04871" lon="0.84893">
        <ele>469</ele>
        <time>2019-04-22T13:48:36.008Z</time>
      </trkpt>
      <trkpt lat="43.04867" lon="0.84884">
        <ele>469</ele>
        <time>2019-04-22T13:48:38.008Z</time>
      </trkpt>
      <trkpt lat="43.04863" lon="0.84874">
        <ele>469</ele>
        <time>2019-04-22T13:48:40.008Z</time>
      </trkpt>
      <trkpt lat="43.04858" lon="0.84865">
        <ele>469</ele>
        <time>2019-04-22T13:48:42.008Z</time>
      </trkpt>
      <trkpt lat="43.04853" lon="0.84855">
        <ele>469</ele>
        <time>2019-04-22T13:48:44.008Z</time>
      </trkpt>
      <trkpt lat="43.04851" lon="0.8485">
        <ele>469</ele>
        <time>2019-04-22T13:48:45.008Z</time>
      </trkpt>
      <trkpt lat="43.04846" lon="0.8484">
        <ele>469</ele>
        <time>2019-04-22T13:48:47.008Z</time>
      </trkpt>
      <trkpt lat="43.04841" lon="0.84831">
        <ele>469</ele>
        <time>2019-04-22T13:48:49.008Z</time>
      </trkpt>
      <trkpt lat="43.04836" lon="0.8482">
        <ele>469.1580032</ele>
        <time>2019-04-22T13:48:51.008Z</time>
      </trkpt>
      <trkpt lat="43.04832" lon="0.8481">
        <ele>470</ele>
        <time>2019-04-22T13:48:53.008Z</time>
      </trkpt>
      <trkpt lat="43.04827" lon="0.848">
        <ele>470</ele>
        <time>2019-04-22T13:48:55.008Z</time>
      </trkpt>
      <trkpt lat="43.04822" lon="0.84789">
        <ele>470</ele>
        <time>2019-04-22T13:48:57.008Z</time>
      </trkpt>
      <trkpt lat="43.04817" lon="0.8478">
        <ele>470</ele>
        <time>2019-04-22T13:48:59.008Z</time>
      </trkpt>
      <trkpt lat="43.04812" lon="0.8477">
        <ele>470</ele>
        <time>2019-04-22T13:49:01.008Z</time>
      </trkpt>
      <trkpt lat="43.04808" lon="0.84761">
        <ele>470</ele>
        <time>2019-04-22T13:49:03.008Z</time>
      </trkpt>
      <trkpt lat="43.04803" lon="0.84752">
        <ele>470</ele>
        <time>2019-04-22T13:49:05.008Z</time>
      </trkpt>
      <trkpt lat="43.04799" lon="0.84743">
        <ele>470</ele>
        <time>2019-04-22T13:49:07.008Z</time>
      </trkpt>
      <trkpt lat="43.04794" lon="0.84735">
        <ele>470</ele>
        <time>2019-04-22T13:49:09.008Z</time>
      </trkpt>
      <trkpt lat="43.04789" lon="0.84727">
        <ele>470.3160064</ele>
        <time>2019-04-22T13:49:11.008Z</time>
      </trkpt>
      <trkpt lat="43.04786" lon="0.84718">
        <ele>472</ele>
        <time>2019-04-22T13:49:13.008Z</time>
      </trkpt>
      <trkpt lat="43.04783" lon="0.84709">
        <ele>472</ele>
        <time>2019-04-22T13:49:15.008Z</time>
      </trkpt>
      <trkpt lat="43.04778" lon="0.84701">
        <ele>472</ele>
        <time>2019-04-22T13:49:17.008Z</time>
      </trkpt>
      <trkpt lat="43.04774" lon="0.84693">
        <ele>472</ele>
        <time>2019-04-22T13:49:19.008Z</time>
      </trkpt>
      <trkpt lat="43.04769" lon="0.84686">
        <ele>472.1580032</ele>
        <time>2019-04-22T13:49:21.008Z</time>
      </trkpt>
      <trkpt lat="43.04764" lon="0.84678">
        <ele>473</ele>
        <time>2019-04-22T13:49:23.008Z</time>
      </trkpt>
      <trkpt lat="43.04759" lon="0.8467">
        <ele>473</ele>
        <time>2019-04-22T13:49:25.008Z</time>
      </trkpt>
      <trkpt lat="43.04755" lon="0.84662">
        <ele>473</ele>
        <time>2019-04-22T13:49:27.008Z</time>
      </trkpt>
      <trkpt lat="43.0475" lon="0.84653">
        <ele>473</ele>
        <time>2019-04-22T13:49:29.008Z</time>
      </trkpt>
      <trkpt lat="43.04746" lon="0.84645">
        <ele>473.1580032</ele>
        <time>2019-04-22T13:49:31.008Z</time>
      </trkpt>
      <trkpt lat="43.04742" lon="0.84636">
        <ele>474</ele>
        <time>2019-04-22T13:49:33.008Z</time>
      </trkpt>
      <trkpt lat="43.04738" lon="0.84627">
        <ele>474</ele>
        <time>2019-04-22T13:49:35.008Z</time>
      </trkpt>
      <trkpt lat="43.04732" lon="0.84618">
        <ele>474</ele>
        <time>2019-04-22T13:49:37.008Z</time>
      </trkpt>
      <trkpt lat="43.04726" lon="0.84611">
        <ele>474</ele>
        <time>2019-04-22T13:49:39.008Z</time>
      </trkpt>
      <trkpt lat="43.0472" lon="0.84602">
        <ele>474</ele>
        <time>2019-04-22T13:49:41.008Z</time>
      </trkpt>
      <trkpt lat="43.04715" lon="0.84594">
        <ele>474</ele>
        <time>2019-04-22T13:49:43.008Z</time>
      </trkpt>
      <trkpt lat="43.04712" lon="0.8459">
        <ele>474</ele>
        <time>2019-04-22T13:49:44.008Z</time>
      </trkpt>
      <trkpt lat="43.04702" lon="0.84578">
        <ele>474</ele>
        <time>2019-04-22T13:49:47.008Z</time>
      </trkpt>
      <trkpt lat="43.04695" lon="0.8457">
        <ele>474</ele>
        <time>2019-04-22T13:49:49.008Z</time>
      </trkpt>
      <trkpt lat="43.04688" lon="0.84562">
        <ele>474</ele>
        <time>2019-04-22T13:49:51.008Z</time>
      </trkpt>
      <trkpt lat="43.04681" lon="0.84554">
        <ele>474</ele>
        <time>2019-04-22T13:49:53.008Z</time>
      </trkpt>
      <trkpt lat="43.04675" lon="0.84546">
        <ele>474</ele>
        <time>2019-04-22T13:49:55.008Z</time>
      </trkpt>
      <trkpt lat="43.04668" lon="0.84538">
        <ele>474</ele>
        <time>2019-04-22T13:49:57.008Z</time>
      </trkpt>
      <trkpt lat="43.04661" lon="0.8453">
        <ele>474</ele>
        <time>2019-04-22T13:49:59.008Z</time>
      </trkpt>
      <trkpt lat="43.04654" lon="0.84522">
        <ele>474.1580032</ele>
        <time>2019-04-22T13:50:01.008Z</time>
      </trkpt>
      <trkpt lat="43.04648" lon="0.84514">
        <ele>475</ele>
        <time>2019-04-22T13:50:03.008Z</time>
      </trkpt>
      <trkpt lat="43.04641" lon="0.84506">
        <ele>475</ele>
        <time>2019-04-22T13:50:05.008Z</time>
      </trkpt>
      <trkpt lat="43.04635" lon="0.84498">
        <ele>475</ele>
        <time>2019-04-22T13:50:07.008Z</time>
      </trkpt>
      <trkpt lat="43.04628" lon="0.8449">
        <ele>475</ele>
        <time>2019-04-22T13:50:09.008Z</time>
      </trkpt>
      <trkpt lat="43.04621" lon="0.84482">
        <ele>475.15643930753</ele>
        <time>2019-04-22T13:50:11.008Z</time>
      </trkpt>
      <trkpt lat="43.04615" lon="0.84474">
        <ele>476</ele>
        <time>2019-04-22T13:50:13.008Z</time>
      </trkpt>
      <trkpt lat="43.04608" lon="0.84467">
        <ele>476</ele>
        <time>2019-04-22T13:50:15.008Z</time>
      </trkpt>
      <trkpt lat="43.04602" lon="0.84459">
        <ele>476</ele>
        <time>2019-04-22T13:50:17.008Z</time>
      </trkpt>
      <trkpt lat="43.04596" lon="0.84452">
        <ele>476</ele>
        <time>2019-04-22T13:50:19.008Z</time>
      </trkpt>
      <trkpt lat="43.04589" lon="0.84444">
        <ele>476.1580032</ele>
        <time>2019-04-22T13:50:21.008Z</time>
      </trkpt>
      <trkpt lat="43.04583" lon="0.84436">
        <ele>477</ele>
        <time>2019-04-22T13:50:23.008Z</time>
      </trkpt>
      <trkpt lat="43.04577" lon="0.84429">
        <ele>477</ele>
        <time>2019-04-22T13:50:25.008Z</time>
      </trkpt>
      <trkpt lat="43.04571" lon="0.84421">
        <ele>477</ele>
        <time>2019-04-22T13:50:27.008Z</time>
      </trkpt>
      <trkpt lat="43.04565" lon="0.84413">
        <ele>477</ele>
        <time>2019-04-22T13:50:29.008Z</time>
      </trkpt>
      <trkpt lat="43.04559" lon="0.84405">
        <ele>477.3160064</ele>
        <time>2019-04-22T13:50:31.008Z</time>
      </trkpt>
      <trkpt lat="43.04553" lon="0.84398">
        <ele>479</ele>
        <time>2019-04-22T13:50:33.008Z</time>
      </trkpt>
      <trkpt lat="43.04548" lon="0.8439">
        <ele>479</ele>
        <time>2019-04-22T13:50:35.008Z</time>
      </trkpt>
      <trkpt lat="43.04542" lon="0.84382">
        <ele>479</ele>
        <time>2019-04-22T13:50:37.008Z</time>
      </trkpt>
      <trkpt lat="43.04536" lon="0.84374">
        <ele>479</ele>
        <time>2019-04-22T13:50:39.008Z</time>
      </trkpt>
      <trkpt lat="43.0453" lon="0.84366">
        <ele>479.1580032</ele>
        <time>2019-04-22T13:50:41.008Z</time>
      </trkpt>
      <trkpt lat="43.04524" lon="0.84358">
        <ele>480</ele>
        <time>2019-04-22T13:50:43.008Z</time>
      </trkpt>
      <trkpt lat="43.04518" lon="0.8435">
        <ele>480</ele>
        <time>2019-04-22T13:50:45.008Z</time>
      </trkpt>
      <trkpt lat="43.04512" lon="0.84342">
        <ele>480</ele>
        <time>2019-04-22T13:50:47.008Z</time>
      </trkpt>
      <trkpt lat="43.04507" lon="0.84334">
        <ele>480</ele>
        <time>2019-04-22T13:50:49.008Z</time>
      </trkpt>
      <trkpt lat="43.04501" lon="0.84327">
        <ele>480.3160064</ele>
        <time>2019-04-22T13:50:51.008Z</time>
      </trkpt>
      <trkpt lat="43.04495" lon="0.84319">
        <ele>482</ele>
        <time>2019-04-22T13:50:53.008Z</time>
      </trkpt>
      <trkpt lat="43.0449" lon="0.84311">
        <ele>482</ele>
        <time>2019-04-22T13:50:55.008Z</time>
      </trkpt>
      <trkpt lat="43.04485" lon="0.84304">
        <ele>482</ele>
        <time>2019-04-22T13:50:57.008Z</time>
      </trkpt>
      <trkpt lat="43.04479" lon="0.84297">
        <ele>482</ele>
        <time>2019-04-22T13:50:59.008Z</time>
      </trkpt>
      <trkpt lat="43.04474" lon="0.8429">
        <ele>482.1580032</ele>
        <time>2019-04-22T13:51:01.008Z</time>
      </trkpt>
      <trkpt lat="43.04469" lon="0.84284">
        <ele>483</ele>
        <time>2019-04-22T13:51:03.008Z</time>
      </trkpt>
      <trkpt lat="43.04466" lon="0.84277">
        <ele>483</ele>
        <time>2019-04-22T13:51:05.008Z</time>
      </trkpt>
      <trkpt lat="43.04465" lon="0.84269">
        <ele>483</ele>
        <time>2019-04-22T13:51:07.008Z</time>
      </trkpt>
      <trkpt lat="43.04468" lon="0.84262">
        <ele>483</ele>
        <time>2019-04-22T13:51:09.008Z</time>
      </trkpt>
      <trkpt lat="43.04473" lon="0.84254">
        <ele>483</ele>
        <time>2019-04-22T13:51:11.008Z</time>
      </trkpt>
      <trkpt lat="43.04478" lon="0.84246">
        <ele>483</ele>
        <time>2019-04-22T13:51:13.008Z</time>
      </trkpt>
      <trkpt lat="43.0448" lon="0.84241">
        <ele>483</ele>
        <time>2019-04-22T13:51:14.008Z</time>
      </trkpt>
      <trkpt lat="43.04486" lon="0.84231">
        <ele>483</ele>
        <time>2019-04-22T13:51:16.008Z</time>
      </trkpt>
      <trkpt lat="43.0449" lon="0.84226">
        <ele>483</ele>
        <time>2019-04-22T13:51:17.008Z</time>
      </trkpt>
      <trkpt lat="43.04497" lon="0.84214">
        <ele>483</ele>
        <time>2019-04-22T13:51:19.008Z</time>
      </trkpt>
      <trkpt lat="43.04501" lon="0.84207">
        <ele>483</ele>
        <time>2019-04-22T13:51:20.008Z</time>
      </trkpt>
      <trkpt lat="43.04509" lon="0.84194">
        <ele>481</ele>
        <time>2019-04-22T13:51:22.008Z</time>
      </trkpt>
      <trkpt lat="43.04513" lon="0.84187">
        <ele>481</ele>
        <time>2019-04-22T13:51:23.008Z</time>
      </trkpt>
      <trkpt lat="43.04517" lon="0.8418">
        <ele>481</ele>
        <time>2019-04-22T13:51:24.008Z</time>
      </trkpt>
      <trkpt lat="43.04521" lon="0.84173">
        <ele>481</ele>
        <time>2019-04-22T13:51:25.008Z</time>
      </trkpt>
      <trkpt lat="43.04525" lon="0.84165">
        <ele>481</ele>
        <time>2019-04-22T13:51:26.008Z</time>
      </trkpt>
      <trkpt lat="43.04535" lon="0.84149">
        <ele>481</ele>
        <time>2019-04-22T13:51:28.008Z</time>
      </trkpt>
      <trkpt lat="43.0454" lon="0.8414">
        <ele>481</ele>
        <time>2019-04-22T13:51:29.008Z</time>
      </trkpt>
      <trkpt lat="43.04544" lon="0.84132">
        <ele>481</ele>
        <time>2019-04-22T13:51:30.008Z</time>
      </trkpt>
      <trkpt lat="43.04549" lon="0.84124">
        <ele>480.209984</ele>
        <time>2019-04-22T13:51:31.008Z</time>
      </trkpt>
      <trkpt lat="43.04554" lon="0.84115">
        <ele>476</ele>
        <time>2019-04-22T13:51:32.008Z</time>
      </trkpt>
      <trkpt lat="43.04562" lon="0.84098">
        <ele>476</ele>
        <time>2019-04-22T13:51:34.008Z</time>
      </trkpt>
      <trkpt lat="43.04567" lon="0.84089">
        <ele>476</ele>
        <time>2019-04-22T13:51:35.008Z</time>
      </trkpt>
      <trkpt lat="43.04571" lon="0.84081">
        <ele>475.25249534547</ele>
        <time>2019-04-22T13:51:36.008Z</time>
      </trkpt>
      <trkpt lat="43.04575" lon="0.84072">
        <ele>471</ele>
        <time>2019-04-22T13:51:37.008Z</time>
      </trkpt>
      <trkpt lat="43.04584" lon="0.84054">
        <ele>471</ele>
        <time>2019-04-22T13:51:39.008Z</time>
      </trkpt>
      <trkpt lat="43.04588" lon="0.84045">
        <ele>471</ele>
        <time>2019-04-22T13:51:40.008Z</time>
      </trkpt>
      <trkpt lat="43.04592" lon="0.84035">
        <ele>470.5259904</ele>
        <time>2019-04-22T13:51:41.008Z</time>
      </trkpt>
      <trkpt lat="43.04596" lon="0.84026">
        <ele>467.6839936</ele>
        <time>2019-04-22T13:51:42.008Z</time>
      </trkpt>
      <trkpt lat="43.046" lon="0.84016">
        <ele>465.8419968</ele>
        <time>2019-04-22T13:51:43.008Z</time>
      </trkpt>
      <trkpt lat="43.04604" lon="0.84007">
        <ele>464.8419968</ele>
        <time>2019-04-22T13:51:44.008Z</time>
      </trkpt>
      <trkpt lat="43.04609" lon="0.83997">
        <ele>464</ele>
        <time>2019-04-22T13:51:45.008Z</time>
      </trkpt>
      <trkpt lat="43.04613" lon="0.83987">
        <ele>463.8419968</ele>
        <time>2019-04-22T13:51:46.008Z</time>
      </trkpt>
      <trkpt lat="43.04618" lon="0.83976">
        <ele>463</ele>
        <time>2019-04-22T13:51:47.008Z</time>
      </trkpt>
      <trkpt lat="43.04626" lon="0.83953">
        <ele>463</ele>
        <time>2019-04-22T13:51:49.008Z</time>
      </trkpt>
      <trkpt lat="43.0463" lon="0.83941">
        <ele>463</ele>
        <time>2019-04-22T13:51:50.008Z</time>
      </trkpt>
      <trkpt lat="43.04639" lon="0.83918">
        <ele>462.8419968</ele>
        <time>2019-04-22T13:51:52.008Z</time>
      </trkpt>
      <trkpt lat="43.04642" lon="0.83905">
        <ele>462</ele>
        <time>2019-04-22T13:51:53.008Z</time>
      </trkpt>
      <trkpt lat="43.04644" lon="0.83893">
        <ele>461.8419968</ele>
        <time>2019-04-22T13:51:54.008Z</time>
      </trkpt>
      <trkpt lat="43.04645" lon="0.8388">
        <ele>460.8419968</ele>
        <time>2019-04-22T13:51:55.008Z</time>
      </trkpt>
      <trkpt lat="43.04646" lon="0.83868">
        <ele>460</ele>
        <time>2019-04-22T13:51:56.008Z</time>
      </trkpt>
      <trkpt lat="43.04648" lon="0.83856">
        <ele>460</ele>
        <time>2019-04-22T13:51:57.008Z</time>
      </trkpt>
      <trkpt lat="43.0465" lon="0.83845">
        <ele>460</ele>
        <time>2019-04-22T13:51:58.008Z</time>
      </trkpt>
      <trkpt lat="43.04651" lon="0.83835">
        <ele>460</ele>
        <time>2019-04-22T13:51:59.008Z</time>
      </trkpt>
      <trkpt lat="43.04653" lon="0.83825">
        <ele>460</ele>
        <time>2019-04-22T13:52:00.008Z</time>
      </trkpt>
      <trkpt lat="43.04655" lon="0.83808">
        <ele>460</ele>
        <time>2019-04-22T13:52:02.008Z</time>
      </trkpt>
      <trkpt lat="43.04658" lon="0.83795">
        <ele>460</ele>
        <time>2019-04-22T13:52:04.008Z</time>
      </trkpt>
      <trkpt lat="43.0466" lon="0.8378">
        <ele>460</ele>
        <time>2019-04-22T13:52:07.008Z</time>
      </trkpt>
      <trkpt lat="43.04661" lon="0.83769">
        <ele>460</ele>
        <time>2019-04-22T13:52:09.008Z</time>
      </trkpt>
      <trkpt lat="43.04663" lon="0.83757">
        <ele>460.3160064</ele>
        <time>2019-04-22T13:52:11.008Z</time>
      </trkpt>
      <trkpt lat="43.04664" lon="0.83746">
        <ele>462</ele>
        <time>2019-04-22T13:52:13.008Z</time>
      </trkpt>
      <trkpt lat="43.04667" lon="0.83736">
        <ele>462</ele>
        <time>2019-04-22T13:52:15.008Z</time>
      </trkpt>
      <trkpt lat="43.04669" lon="0.83725">
        <ele>462</ele>
        <time>2019-04-22T13:52:17.008Z</time>
      </trkpt>
      <trkpt lat="43.04672" lon="0.83715">
        <ele>462</ele>
        <time>2019-04-22T13:52:19.008Z</time>
      </trkpt>
      <trkpt lat="43.04675" lon="0.83705">
        <ele>462.1580032</ele>
        <time>2019-04-22T13:52:21.008Z</time>
      </trkpt>
      <trkpt lat="43.04679" lon="0.83692">
        <ele>463</ele>
        <time>2019-04-22T13:52:24.008Z</time>
      </trkpt>
      <trkpt lat="43.04685" lon="0.83678">
        <ele>463</ele>
        <time>2019-04-22T13:52:28.008Z</time>
      </trkpt>
      <trkpt lat="43.04693" lon="0.83665">
        <ele>464</ele>
        <time>2019-04-22T13:52:32.008Z</time>
      </trkpt>
      <trkpt lat="43.04701" lon="0.83651">
        <ele>464</ele>
        <time>2019-04-22T13:52:35.008Z</time>
      </trkpt>
      <trkpt lat="43.04703" lon="0.83638">
        <ele>464</ele>
        <time>2019-04-22T13:55:25.008Z</time>
      </trkpt>
      <trkpt lat="43.04709" lon="0.83625">
        <ele>464</ele>
        <time>2019-04-22T13:55:28.008Z</time>
      </trkpt>
      <trkpt lat="43.04715" lon="0.83615">
        <ele>464</ele>
        <time>2019-04-22T13:55:30.008Z</time>
      </trkpt>
      <trkpt lat="43.04722" lon="0.83605">
        <ele>464</ele>
        <time>2019-04-22T13:55:32.008Z</time>
      </trkpt>
      <trkpt lat="43.04731" lon="0.83594">
        <ele>464</ele>
        <time>2019-04-22T13:55:35.008Z</time>
      </trkpt>
      <trkpt lat="43.04739" lon="0.8358">
        <ele>464</ele>
        <time>2019-04-22T13:55:39.008Z</time>
      </trkpt>
      <trkpt lat="43.04748" lon="0.83562">
        <ele>462</ele>
        <time>2019-04-22T13:55:42.008Z</time>
      </trkpt>
      <trkpt lat="43.04755" lon="0.83547">
        <ele>462</ele>
        <time>2019-04-22T13:55:44.008Z</time>
      </trkpt>
      <trkpt lat="43.04763" lon="0.83532">
        <ele>461.3679872</ele>
        <time>2019-04-22T13:55:46.008Z</time>
      </trkpt>
      <trkpt lat="43.0477" lon="0.83516">
        <ele>458</ele>
        <time>2019-04-22T13:55:48.008Z</time>
      </trkpt>
      <trkpt lat="43.04779" lon="0.83501">
        <ele>458</ele>
        <time>2019-04-22T13:55:50.008Z</time>
      </trkpt>
      <trkpt lat="43.04787" lon="0.8349">
        <ele>455.8419968</ele>
        <time>2019-04-22T13:55:52.008Z</time>
      </trkpt>
      <trkpt lat="43.04796" lon="0.83477">
        <ele>453.8419968</ele>
        <time>2019-04-22T13:55:55.008Z</time>
      </trkpt>
      <trkpt lat="43.04804" lon="0.83463">
        <ele>453</ele>
        <time>2019-04-22T13:55:57.008Z</time>
      </trkpt>
      <trkpt lat="43.04812" lon="0.83445">
        <ele>452</ele>
        <time>2019-04-22T13:55:59.008Z</time>
      </trkpt>
      <trkpt lat="43.04818" lon="0.83426">
        <ele>451.8419968</ele>
        <time>2019-04-22T13:56:01.008Z</time>
      </trkpt>
      <trkpt lat="43.04823" lon="0.83408">
        <ele>451</ele>
        <time>2019-04-22T13:56:03.008Z</time>
      </trkpt>
      <trkpt lat="43.04828" lon="0.8339">
        <ele>450.6839936</ele>
        <time>2019-04-22T13:56:05.008Z</time>
      </trkpt>
      <trkpt lat="43.0483" lon="0.83369">
        <ele>447.8419968</ele>
        <time>2019-04-22T13:56:07.008Z</time>
      </trkpt>
      <trkpt lat="43.04833" lon="0.83342">
        <ele>445.8419968</ele>
        <time>2019-04-22T13:56:09.008Z</time>
      </trkpt>
      <trkpt lat="43.04838" lon="0.83317">
        <ele>443.8419968</ele>
        <time>2019-04-22T13:56:11.008Z</time>
      </trkpt>
      <trkpt lat="43.04842" lon="0.83293">
        <ele>440.8419968</ele>
        <time>2019-04-22T13:56:13.008Z</time>
      </trkpt>
      <trkpt lat="43.04848" lon="0.83267">
        <ele>438.8419968</ele>
        <time>2019-04-22T13:56:15.008Z</time>
      </trkpt>
      <trkpt lat="43.04853" lon="0.83247">
        <ele>436.8419968</ele>
        <time>2019-04-22T13:56:17.008Z</time>
      </trkpt>
      <trkpt lat="43.04857" lon="0.83226">
        <ele>434.8419968</ele>
        <time>2019-04-22T13:56:19.008Z</time>
      </trkpt>
      <trkpt lat="43.04863" lon="0.83208">
        <ele>433</ele>
        <time>2019-04-22T13:56:21.008Z</time>
      </trkpt>
      <trkpt lat="43.04873" lon="0.83186">
        <ele>430.8419968</ele>
        <time>2019-04-22T13:56:23.008Z</time>
      </trkpt>
      <trkpt lat="43.04879" lon="0.83167">
        <ele>429.6839936</ele>
        <time>2019-04-22T13:56:25.008Z</time>
      </trkpt>
      <trkpt lat="43.04886" lon="0.83149">
        <ele>426.8419968</ele>
        <time>2019-04-22T13:56:27.008Z</time>
      </trkpt>
      <trkpt lat="43.04896" lon="0.8313">
        <ele>425</ele>
        <time>2019-04-22T13:56:29.008Z</time>
      </trkpt>
      <trkpt lat="43.04905" lon="0.83112">
        <ele>423.8419968</ele>
        <time>2019-04-22T13:56:31.008Z</time>
      </trkpt>
      <trkpt lat="43.04912" lon="0.83091">
        <ele>421</ele>
        <time>2019-04-22T13:56:33.008Z</time>
      </trkpt>
      <trkpt lat="43.04921" lon="0.83071">
        <ele>420.6839936</ele>
        <time>2019-04-22T13:56:35.008Z</time>
      </trkpt>
      <trkpt lat="43.0493" lon="0.83054">
        <ele>416.8419968</ele>
        <time>2019-04-22T13:56:37.008Z</time>
      </trkpt>
      <trkpt lat="43.04938" lon="0.83035">
        <ele>415.8419968</ele>
        <time>2019-04-22T13:56:39.008Z</time>
      </trkpt>
      <trkpt lat="43.04946" lon="0.83017">
        <ele>413.8419968</ele>
        <time>2019-04-22T13:56:41.008Z</time>
      </trkpt>
      <trkpt lat="43.04958" lon="0.83">
        <ele>410.8419968</ele>
        <time>2019-04-22T13:56:43.008Z</time>
      </trkpt>
      <trkpt lat="43.04968" lon="0.82983">
        <ele>409.8419968</ele>
        <time>2019-04-22T13:56:45.008Z</time>
      </trkpt>
      <trkpt lat="43.04978" lon="0.82968">
        <ele>408.8419968</ele>
        <time>2019-04-22T13:56:47.008Z</time>
      </trkpt>
      <trkpt lat="43.04984" lon="0.82947">
        <ele>406.8419968</ele>
        <time>2019-04-22T13:56:49.008Z</time>
      </trkpt>
      <trkpt lat="43.04985" lon="0.82921">
        <ele>406</ele>
        <time>2019-04-22T13:56:51.008Z</time>
      </trkpt>
      <trkpt lat="43.04987" lon="0.82897">
        <ele>404.8419968</ele>
        <time>2019-04-22T13:56:53.008Z</time>
      </trkpt>
      <trkpt lat="43.04994" lon="0.82876">
        <ele>403.1580032</ele>
        <time>2019-04-22T13:56:55.008Z</time>
      </trkpt>
      <trkpt lat="43.05003" lon="0.82858">
        <ele>403.8419968</ele>
        <time>2019-04-22T13:56:57.008Z</time>
      </trkpt>
      <trkpt lat="43.05012" lon="0.82843">
        <ele>403</ele>
        <time>2019-04-22T13:56:59.008Z</time>
      </trkpt>
      <trkpt lat="43.05019" lon="0.82835">
        <ele>402.8419968</ele>
        <time>2019-04-22T13:57:01.008Z</time>
      </trkpt>
      <trkpt lat="43.05014" lon="0.82841">
        <ele>403</ele>
        <time>2019-04-22T13:57:08.008Z</time>
      </trkpt>
      <trkpt lat="43.0501" lon="0.82847">
        <ele>403</ele>
        <time>2019-04-22T13:57:10.008Z</time>
      </trkpt>
      <trkpt lat="43.05006" lon="0.82853">
        <ele>403</ele>
        <time>2019-04-22T13:57:12.008Z</time>
      </trkpt>
      <trkpt lat="43.05002" lon="0.8286">
        <ele>403</ele>
        <time>2019-04-22T13:57:14.008Z</time>
      </trkpt>
      <trkpt lat="43.04999" lon="0.82868">
        <ele>403</ele>
        <time>2019-04-22T13:57:16.008Z</time>
      </trkpt>
      <trkpt lat="43.04995" lon="0.82879">
        <ele>403</ele>
        <time>2019-04-22T13:57:19.008Z</time>
      </trkpt>
      <trkpt lat="43.04993" lon="0.82887">
        <ele>403</ele>
        <time>2019-04-22T13:57:21.008Z</time>
      </trkpt>
      <trkpt lat="43.0499" lon="0.82895">
        <ele>403</ele>
        <time>2019-04-22T13:57:23.008Z</time>
      </trkpt>
      <trkpt lat="43.04987" lon="0.82905">
        <ele>403</ele>
        <time>2019-04-22T13:57:26.008Z</time>
      </trkpt>
      <trkpt lat="43.04986" lon="0.82912">
        <ele>403</ele>
        <time>2019-04-22T13:57:28.008Z</time>
      </trkpt>
      <trkpt lat="43.04987" lon="0.82922">
        <ele>403.1580032</ele>
        <time>2019-04-22T13:57:31.008Z</time>
      </trkpt>
      <trkpt lat="43.04988" lon="0.82931">
        <ele>404</ele>
        <time>2019-04-22T13:57:34.008Z</time>
      </trkpt>
      <trkpt lat="43.04989" lon="0.8294">
        <ele>404</ele>
        <time>2019-04-22T13:57:37.008Z</time>
      </trkpt>
      <trkpt lat="43.04989" lon="0.82951">
        <ele>404.3160064</ele>
        <time>2019-04-22T13:57:41.008Z</time>
      </trkpt>
      <trkpt lat="43.04989" lon="0.82961">
        <ele>406</ele>
        <time>2019-04-22T13:57:44.008Z</time>
      </trkpt>
      <trkpt lat="43.04987" lon="0.82969">
        <ele>406</ele>
        <time>2019-04-22T13:57:47.008Z</time>
      </trkpt>
      <trkpt lat="43.04985" lon="0.82979">
        <ele>406.4740096</ele>
        <time>2019-04-22T13:57:51.008Z</time>
      </trkpt>
      <trkpt lat="43.04981" lon="0.82988">
        <ele>409.1580032</ele>
        <time>2019-04-22T13:57:56.008Z</time>
      </trkpt>
      <trkpt lat="43.04975" lon="0.82997">
        <ele>410.1580032</ele>
        <time>2019-04-22T13:58:01.008Z</time>
      </trkpt>
      <trkpt lat="43.04969" lon="0.83004">
        <ele>411</ele>
        <time>2019-04-22T13:58:05.008Z</time>
      </trkpt>
      <trkpt lat="43.04963" lon="0.83011">
        <ele>412</ele>
        <time>2019-04-22T13:58:09.008Z</time>
      </trkpt>
      <trkpt lat="43.04958" lon="0.83016">
        <ele>414</ele>
        <time>2019-04-22T13:58:13.008Z</time>
      </trkpt>
      <trkpt lat="43.04953" lon="0.83023">
        <ele>415</ele>
        <time>2019-04-22T13:58:18.008Z</time>
      </trkpt>
      <trkpt lat="43.04948" lon="0.83032">
        <ele>415</ele>
        <time>2019-04-22T13:58:23.008Z</time>
      </trkpt>
      <trkpt lat="43.04944" lon="0.83041">
        <ele>415</ele>
        <time>2019-04-22T13:58:28.008Z</time>
      </trkpt>
      <trkpt lat="43.04939" lon="0.8305">
        <ele>417</ele>
        <time>2019-04-22T13:58:33.008Z</time>
      </trkpt>
      <trkpt lat="43.04934" lon="0.83059">
        <ele>417</ele>
        <time>2019-04-22T13:58:38.008Z</time>
      </trkpt>
      <trkpt lat="43.04929" lon="0.83069">
        <ele>419</ele>
        <time>2019-04-22T13:58:45.008Z</time>
      </trkpt>
      <trkpt lat="43.04924" lon="0.83078">
        <ele>419</ele>
        <time>2019-04-22T13:58:50.008Z</time>
      </trkpt>
      <trkpt lat="43.0492" lon="0.83089">
        <ele>421</ele>
        <time>2019-04-22T13:58:55.008Z</time>
      </trkpt>
      <trkpt lat="43.04917" lon="0.83099">
        <ele>422</ele>
        <time>2019-04-22T13:59:00.008Z</time>
      </trkpt>
      <trkpt lat="43.04912" lon="0.83109">
        <ele>423</ele>
        <time>2019-04-22T13:59:05.008Z</time>
      </trkpt>
      <trkpt lat="43.04908" lon="0.83119">
        <ele>423.3160064</ele>
        <time>2019-04-22T13:59:11.008Z</time>
      </trkpt>
      <trkpt lat="43.04904" lon="0.83127">
        <ele>425</ele>
        <time>2019-04-22T13:59:15.008Z</time>
      </trkpt>
      <trkpt lat="43.04899" lon="0.83135">
        <ele>425</ele>
        <time>2019-04-22T13:59:19.008Z</time>
      </trkpt>
      <trkpt lat="43.04895" lon="0.83145">
        <ele>427</ele>
        <time>2019-04-22T13:59:24.008Z</time>
      </trkpt>
      <trkpt lat="43.04891" lon="0.83153">
        <ele>427</ele>
        <time>2019-04-22T13:59:28.008Z</time>
      </trkpt>
      <trkpt lat="43.04886" lon="0.83163">
        <ele>428</ele>
        <time>2019-04-22T13:59:34.008Z</time>
      </trkpt>
      <trkpt lat="43.04883" lon="0.83175">
        <ele>428</ele>
        <time>2019-04-22T13:59:40.008Z</time>
      </trkpt>
      <trkpt lat="43.04879" lon="0.83186">
        <ele>429</ele>
        <time>2019-04-22T13:59:45.008Z</time>
      </trkpt>
      <trkpt lat="43.04875" lon="0.83197">
        <ele>429.4740096</ele>
        <time>2019-04-22T13:59:51.008Z</time>
      </trkpt>
      <trkpt lat="43.04872" lon="0.83206">
        <ele>432.1580032</ele>
        <time>2019-04-22T13:59:56.008Z</time>
      </trkpt>
      <trkpt lat="43.04869" lon="0.83218">
        <ele>434</ele>
        <time>2019-04-22T14:00:03.008Z</time>
      </trkpt>
      <trkpt lat="43.04864" lon="0.83229">
        <ele>435</ele>
        <time>2019-04-22T14:00:08.008Z</time>
      </trkpt>
      <trkpt lat="43.0486" lon="0.8324">
        <ele>436</ele>
        <time>2019-04-22T14:00:13.008Z</time>
      </trkpt>
      <trkpt lat="43.04857" lon="0.83251">
        <ele>436</ele>
        <time>2019-04-22T14:00:19.008Z</time>
      </trkpt>
      <trkpt lat="43.04854" lon="0.83264">
        <ele>438</ele>
        <time>2019-04-22T14:00:25.008Z</time>
      </trkpt>
      <trkpt lat="43.04852" lon="0.83275">
        <ele>438</ele>
        <time>2019-04-22T14:00:30.008Z</time>
      </trkpt>
      <trkpt lat="43.04849" lon="0.83288">
        <ele>440.1580032</ele>
        <time>2019-04-22T14:00:36.008Z</time>
      </trkpt>
      <trkpt lat="43.04845" lon="0.83299">
        <ele>443</ele>
        <time>2019-04-22T14:00:42.008Z</time>
      </trkpt>
      <trkpt lat="43.04843" lon="0.8331">
        <ele>445</ele>
        <time>2019-04-22T14:00:47.008Z</time>
      </trkpt>
      <trkpt lat="43.04839" lon="0.83322">
        <ele>446</ele>
        <time>2019-04-22T14:00:52.008Z</time>
      </trkpt>
      <trkpt lat="43.04837" lon="0.83333">
        <ele>446</ele>
        <time>2019-04-22T14:00:56.008Z</time>
      </trkpt>
      <trkpt lat="43.04835" lon="0.83345">
        <ele>446.1580032</ele>
        <time>2019-04-22T14:01:01.008Z</time>
      </trkpt>
      <trkpt lat="43.04831" lon="0.83356">
        <ele>447</ele>
        <time>2019-04-22T14:01:05.008Z</time>
      </trkpt>
      <trkpt lat="43.04833" lon="0.83368">
        <ele>447.3160064</ele>
        <time>2019-04-22T14:01:11.008Z</time>
      </trkpt>
      <trkpt lat="43.04831" lon="0.83379">
        <ele>449</ele>
        <time>2019-04-22T14:01:16.008Z</time>
      </trkpt>
      <trkpt lat="43.04829" lon="0.8339">
        <ele>449.3160064</ele>
        <time>2019-04-22T14:01:21.008Z</time>
      </trkpt>
      <trkpt lat="43.04828" lon="0.83402">
        <ele>451</ele>
        <time>2019-04-22T14:01:25.008Z</time>
      </trkpt>
      <trkpt lat="43.04825" lon="0.83415">
        <ele>451</ele>
        <time>2019-04-22T14:01:30.008Z</time>
      </trkpt>
      <trkpt lat="43.04823" lon="0.83427">
        <ele>453</ele>
        <time>2019-04-22T14:01:34.008Z</time>
      </trkpt>
      <trkpt lat="43.0482" lon="0.8344">
        <ele>453</ele>
        <time>2019-04-22T14:01:39.008Z</time>
      </trkpt>
      <trkpt lat="43.04816" lon="0.8345">
        <ele>453</ele>
        <time>2019-04-22T14:01:45.008Z</time>
      </trkpt>
      <trkpt lat="43.04822" lon="0.83439">
        <ele>453</ele>
        <time>2019-04-22T14:02:40.008Z</time>
      </trkpt>
      <trkpt lat="43.04825" lon="0.83425">
        <ele>452</ele>
        <time>2019-04-22T14:02:43.008Z</time>
      </trkpt>
      <trkpt lat="43.04826" lon="0.8341">
        <ele>452</ele>
        <time>2019-04-22T14:02:46.008Z</time>
      </trkpt>
      <trkpt lat="43.04829" lon="0.83397">
        <ele>452</ele>
        <time>2019-04-22T14:02:48.008Z</time>
      </trkpt>
      <trkpt lat="43.04831" lon="0.83381">
        <ele>452</ele>
        <time>2019-04-22T14:02:50.008Z</time>
      </trkpt>
      <trkpt lat="43.04832" lon="0.83362">
        <ele>449</ele>
        <time>2019-04-22T14:02:52.008Z</time>
      </trkpt>
      <trkpt lat="43.04834" lon="0.83343">
        <ele>449</ele>
        <time>2019-04-22T14:02:54.008Z</time>
      </trkpt>
      <trkpt lat="43.04837" lon="0.83323">
        <ele>448.3679872</ele>
        <time>2019-04-22T14:02:56.008Z</time>
      </trkpt>
      <trkpt lat="43.0484" lon="0.83303">
        <ele>445</ele>
        <time>2019-04-22T14:02:58.008Z</time>
      </trkpt>
      <trkpt lat="43.04846" lon="0.83283">
        <ele>445</ele>
        <time>2019-04-22T14:03:00.008Z</time>
      </trkpt>
      <trkpt lat="43.04852" lon="0.8326">
        <ele>438</ele>
        <time>2019-04-22T14:03:02.008Z</time>
      </trkpt>
      <trkpt lat="43.04861" lon="0.83236">
        <ele>436.6839936</ele>
        <time>2019-04-22T14:03:04.008Z</time>
      </trkpt>
      <trkpt lat="43.04867" lon="0.83224">
        <ele>435</ele>
        <time>2019-04-22T14:03:05.008Z</time>
      </trkpt>
      <trkpt lat="43.04875" lon="0.832">
        <ele>433.6839936</ele>
        <time>2019-04-22T14:03:07.008Z</time>
      </trkpt>
      <trkpt lat="43.0488" lon="0.83188">
        <ele>431.8419968</ele>
        <time>2019-04-22T14:03:08.008Z</time>
      </trkpt>
      <trkpt lat="43.04887" lon="0.83166">
        <ele>429.8419968</ele>
        <time>2019-04-22T14:03:10.008Z</time>
      </trkpt>
      <trkpt lat="43.04895" lon="0.83144">
        <ele>427</ele>
        <time>2019-04-22T14:03:12.008Z</time>
      </trkpt>
      <trkpt lat="43.04903" lon="0.83122">
        <ele>425.8419968</ele>
        <time>2019-04-22T14:03:14.008Z</time>
      </trkpt>
      <trkpt lat="43.04911" lon="0.83102">
        <ele>424.8419968</ele>
        <time>2019-04-22T14:03:16.008Z</time>
      </trkpt>
      <trkpt lat="43.04919" lon="0.83081">
        <ele>420.8419968</ele>
        <time>2019-04-22T14:03:18.008Z</time>
      </trkpt>
      <trkpt lat="43.04929" lon="0.83059">
        <ele>419.8419968</ele>
        <time>2019-04-22T14:03:20.008Z</time>
      </trkpt>
      <trkpt lat="43.04935" lon="0.83047">
        <ele>419</ele>
        <time>2019-04-22T14:03:21.008Z</time>
      </trkpt>
      <trkpt lat="43.04942" lon="0.83035">
        <ele>418.6839936</ele>
        <time>2019-04-22T14:03:22.008Z</time>
      </trkpt>
      <trkpt lat="43.04953" lon="0.83013">
        <ele>413.8419968</ele>
        <time>2019-04-22T14:03:24.008Z</time>
      </trkpt>
      <trkpt lat="43.04966" lon="0.82995">
        <ele>413.6839936</ele>
        <time>2019-04-22T14:03:26.008Z</time>
      </trkpt>
      <trkpt lat="43.04972" lon="0.82988">
        <ele>412</ele>
        <time>2019-04-22T14:03:27.008Z</time>
      </trkpt>
      <trkpt lat="43.04977" lon="0.8298">
        <ele>411.6839936</ele>
        <time>2019-04-22T14:03:28.008Z</time>
      </trkpt>
      <trkpt lat="43.04982" lon="0.8297">
        <ele>409.8419968</ele>
        <time>2019-04-22T14:03:29.008Z</time>
      </trkpt>
      <trkpt lat="43.04985" lon="0.8296">
        <ele>408.8419968</ele>
        <time>2019-04-22T14:03:30.008Z</time>
      </trkpt>
      <trkpt lat="43.04989" lon="0.82939">
        <ele>407.8419968</ele>
        <time>2019-04-22T14:03:32.008Z</time>
      </trkpt>
      <trkpt lat="43.04988" lon="0.82915">
        <ele>406.8419968</ele>
        <time>2019-04-22T14:03:34.008Z</time>
      </trkpt>
      <trkpt lat="43.04988" lon="0.82904">
        <ele>405.8419968</ele>
        <time>2019-04-22T14:03:35.008Z</time>
      </trkpt>
      <trkpt lat="43.04989" lon="0.82893">
        <ele>405</ele>
        <time>2019-04-22T14:03:36.008Z</time>
      </trkpt>
      <trkpt lat="43.04995" lon="0.82874">
        <ele>404.1580032</ele>
        <time>2019-04-22T14:03:38.008Z</time>
      </trkpt>
      <trkpt lat="43.05002" lon="0.82857">
        <ele>405</ele>
        <time>2019-04-22T14:03:40.008Z</time>
      </trkpt>
      <trkpt lat="43.05011" lon="0.82842">
        <ele>404</ele>
        <time>2019-04-22T14:03:42.008Z</time>
      </trkpt>
      <trkpt lat="43.05022" lon="0.82828">
        <ele>404</ele>
        <time>2019-04-22T14:03:44.008Z</time>
      </trkpt>
      <trkpt lat="43.05027" lon="0.82821">
        <ele>404</ele>
        <time>2019-04-22T14:03:45.008Z</time>
      </trkpt>
      <trkpt lat="43.05032" lon="0.82813">
        <ele>403.8419968</ele>
        <time>2019-04-22T14:03:46.008Z</time>
      </trkpt>
      <trkpt lat="43.05036" lon="0.82804">
        <ele>403</ele>
        <time>2019-04-22T14:03:47.008Z</time>
      </trkpt>
      <trkpt lat="43.0504" lon="0.82795">
        <ele>403</ele>
        <time>2019-04-22T14:03:48.008Z</time>
      </trkpt>
      <trkpt lat="43.05043" lon="0.82785">
        <ele>403</ele>
        <time>2019-04-22T14:03:49.008Z</time>
      </trkpt>
      <trkpt lat="43.05046" lon="0.82773">
        <ele>403</ele>
        <time>2019-04-22T14:03:50.008Z</time>
      </trkpt>
      <trkpt lat="43.05049" lon="0.82762">
        <ele>402.6839936</ele>
        <time>2019-04-22T14:03:51.008Z</time>
      </trkpt>
      <trkpt lat="43.05052" lon="0.8275">
        <ele>401</ele>
        <time>2019-04-22T14:03:52.008Z</time>
      </trkpt>
      <trkpt lat="43.05056" lon="0.82739">
        <ele>401</ele>
        <time>2019-04-22T14:03:53.008Z</time>
      </trkpt>
      <trkpt lat="43.05058" lon="0.82727">
        <ele>401</ele>
        <time>2019-04-22T14:03:54.008Z</time>
      </trkpt>
      <trkpt lat="43.05062" lon="0.82715">
        <ele>401</ele>
        <time>2019-04-22T14:03:55.008Z</time>
      </trkpt>
      <trkpt lat="43.05065" lon="0.82703">
        <ele>400.6839936</ele>
        <time>2019-04-22T14:03:56.008Z</time>
      </trkpt>
      <trkpt lat="43.0507" lon="0.82691">
        <ele>399</ele>
        <time>2019-04-22T14:03:57.008Z</time>
      </trkpt>
      <trkpt lat="43.05075" lon="0.8268">
        <ele>399</ele>
        <time>2019-04-22T14:03:58.008Z</time>
      </trkpt>
      <trkpt lat="43.05082" lon="0.82671">
        <ele>399</ele>
        <time>2019-04-22T14:03:59.008Z</time>
      </trkpt>
      <trkpt lat="43.05088" lon="0.82662">
        <ele>399</ele>
        <time>2019-04-22T14:04:00.008Z</time>
      </trkpt>
      <trkpt lat="43.05096" lon="0.82654">
        <ele>398.5259904</ele>
        <time>2019-04-22T14:04:01.008Z</time>
      </trkpt>
      <trkpt lat="43.05103" lon="0.82648">
        <ele>396</ele>
        <time>2019-04-22T14:04:02.008Z</time>
      </trkpt>
      <trkpt lat="43.05111" lon="0.82642">
        <ele>396</ele>
        <time>2019-04-22T14:04:03.008Z</time>
      </trkpt>
      <trkpt lat="43.05119" lon="0.82638">
        <ele>396</ele>
        <time>2019-04-22T14:04:04.008Z</time>
      </trkpt>
      <trkpt lat="43.05126" lon="0.82636">
        <ele>396</ele>
        <time>2019-04-22T14:04:05.008Z</time>
      </trkpt>
      <trkpt lat="43.05133" lon="0.82633">
        <ele>396</ele>
        <time>2019-04-22T14:04:06.008Z</time>
      </trkpt>
      <trkpt lat="43.05139" lon="0.82632">
        <ele>396</ele>
        <time>2019-04-22T14:04:07.008Z</time>
      </trkpt>
      <trkpt lat="43.05145" lon="0.8263">
        <ele>396</ele>
        <time>2019-04-22T14:04:08.008Z</time>
      </trkpt>
      <trkpt lat="43.05151" lon="0.82628">
        <ele>396</ele>
        <time>2019-04-22T14:04:09.008Z</time>
      </trkpt>
      <trkpt lat="43.05157" lon="0.82626">
        <ele>396</ele>
        <time>2019-04-22T14:04:10.008Z</time>
      </trkpt>
      <trkpt lat="43.05162" lon="0.82625">
        <ele>395.85051006555</ele>
        <time>2019-04-22T14:04:11.008Z</time>
      </trkpt>
      <trkpt lat="43.05172" lon="0.82621">
        <ele>395</ele>
        <time>2019-04-22T14:04:13.008Z</time>
      </trkpt>
      <trkpt lat="43.05179" lon="0.82614">
        <ele>395</ele>
        <time>2019-04-22T14:04:15.008Z</time>
      </trkpt>
      <trkpt lat="43.0518" lon="0.826">
        <ele>395</ele>
        <time>2019-04-22T14:04:17.008Z</time>
      </trkpt>
      <trkpt lat="43.05179" lon="0.82585">
        <ele>395</ele>
        <time>2019-04-22T14:04:19.008Z</time>
      </trkpt>
      <trkpt lat="43.05178" lon="0.82569">
        <ele>394.6839936</ele>
        <time>2019-04-22T14:04:21.008Z</time>
      </trkpt>
      <trkpt lat="43.05178" lon="0.82551">
        <ele>393</ele>
        <time>2019-04-22T14:04:23.008Z</time>
      </trkpt>
      <trkpt lat="43.05178" lon="0.82541">
        <ele>393</ele>
        <time>2019-04-22T14:04:24.008Z</time>
      </trkpt>
      <trkpt lat="43.05178" lon="0.82532">
        <ele>393</ele>
        <time>2019-04-22T14:04:25.008Z</time>
      </trkpt>
      <trkpt lat="43.05177" lon="0.82523">
        <ele>392.8419968</ele>
        <time>2019-04-22T14:04:26.008Z</time>
      </trkpt>
      <trkpt lat="43.05177" lon="0.82514">
        <ele>392</ele>
        <time>2019-04-22T14:04:27.008Z</time>
      </trkpt>
      <trkpt lat="43.05177" lon="0.82506">
        <ele>392</ele>
        <time>2019-04-22T14:04:28.008Z</time>
      </trkpt>
      <trkpt lat="43.05178" lon="0.82499">
        <ele>392</ele>
        <time>2019-04-22T14:04:29.008Z</time>
      </trkpt>
      <trkpt lat="43.05178" lon="0.82491">
        <ele>392</ele>
        <time>2019-04-22T14:04:30.008Z</time>
      </trkpt>
      <trkpt lat="43.05179" lon="0.82477">
        <ele>391</ele>
        <time>2019-04-22T14:04:32.008Z</time>
      </trkpt>
      <trkpt lat="43.05179" lon="0.82462">
        <ele>391</ele>
        <time>2019-04-22T14:04:34.008Z</time>
      </trkpt>
      <trkpt lat="43.05178" lon="0.82447">
        <ele>391</ele>
        <time>2019-04-22T14:04:36.008Z</time>
      </trkpt>
      <trkpt lat="43.05179" lon="0.82432">
        <ele>391</ele>
        <time>2019-04-22T14:04:38.008Z</time>
      </trkpt>
      <trkpt lat="43.05178" lon="0.82417">
        <ele>391</ele>
        <time>2019-04-22T14:04:40.008Z</time>
      </trkpt>
      <trkpt lat="43.05177" lon="0.8241">
        <ele>391</ele>
        <time>2019-04-22T14:04:41.008Z</time>
      </trkpt>
      <trkpt lat="43.05175" lon="0.82404">
        <ele>391</ele>
        <time>2019-04-22T14:04:42.008Z</time>
      </trkpt>
      <trkpt lat="43.05173" lon="0.82398">
        <ele>391</ele>
        <time>2019-04-22T14:04:43.008Z</time>
      </trkpt>
      <trkpt lat="43.05172" lon="0.82392">
        <ele>391</ele>
        <time>2019-04-22T14:04:44.008Z</time>
      </trkpt>
      <trkpt lat="43.05171" lon="0.82386">
        <ele>391</ele>
        <time>2019-04-22T14:04:45.008Z</time>
      </trkpt>
      <trkpt lat="43.05171" lon="0.82381">
        <ele>391</ele>
        <time>2019-04-22T14:04:46.008Z</time>
      </trkpt>
      <trkpt lat="43.05169" lon="0.82373">
        <ele>391</ele>
        <time>2019-04-22T14:04:48.008Z</time>
      </trkpt>
      <trkpt lat="43.05167" lon="0.82365">
        <ele>391</ele>
        <time>2019-04-22T14:04:50.008Z</time>
      </trkpt>
      <trkpt lat="43.05162" lon="0.82356">
        <ele>393</ele>
        <time>2019-04-22T14:04:53.008Z</time>
      </trkpt>
      <trkpt lat="43.05156" lon="0.82348">
        <ele>393</ele>
        <time>2019-04-22T14:04:56.008Z</time>
      </trkpt>
      <trkpt lat="43.0515" lon="0.82342">
        <ele>393</ele>
        <time>2019-04-22T14:04:59.008Z</time>
      </trkpt>
      <trkpt lat="43.05146" lon="0.82334">
        <ele>396</ele>
        <time>2019-04-22T14:05:02.008Z</time>
      </trkpt>
      <trkpt lat="43.05142" lon="0.82327">
        <ele>396</ele>
        <time>2019-04-22T14:05:05.008Z</time>
      </trkpt>
      <trkpt lat="43.05137" lon="0.8232">
        <ele>398</ele>
        <time>2019-04-22T14:05:08.008Z</time>
      </trkpt>
      <trkpt lat="43.05133" lon="0.82312">
        <ele>398.3160064</ele>
        <time>2019-04-22T14:05:11.008Z</time>
      </trkpt>
      <trkpt lat="43.05129" lon="0.82305">
        <ele>400</ele>
        <time>2019-04-22T14:05:14.008Z</time>
      </trkpt>
      <trkpt lat="43.05125" lon="0.82298">
        <ele>402</ele>
        <time>2019-04-22T14:05:17.008Z</time>
      </trkpt>
      <trkpt lat="43.0512" lon="0.82291">
        <ele>402</ele>
        <time>2019-04-22T14:05:20.008Z</time>
      </trkpt>
      <trkpt lat="43.05116" lon="0.82284">
        <ele>403</ele>
        <time>2019-04-22T14:05:23.008Z</time>
      </trkpt>
      <trkpt lat="43.05112" lon="0.82277">
        <ele>403.3160064</ele>
        <time>2019-04-22T14:05:26.008Z</time>
      </trkpt>
      <trkpt lat="43.05107" lon="0.82269">
        <ele>405</ele>
        <time>2019-04-22T14:05:29.008Z</time>
      </trkpt>
      <trkpt lat="43.05103" lon="0.82262">
        <ele>407</ele>
        <time>2019-04-22T14:05:32.008Z</time>
      </trkpt>
      <trkpt lat="43.05099" lon="0.82255">
        <ele>407</ele>
        <time>2019-04-22T14:05:35.008Z</time>
      </trkpt>
      <trkpt lat="43.05095" lon="0.82247">
        <ele>408</ele>
        <time>2019-04-22T14:05:38.008Z</time>
      </trkpt>
      <trkpt lat="43.0509" lon="0.82239">
        <ele>408</ele>
        <time>2019-04-22T14:05:41.008Z</time>
      </trkpt>
      <trkpt lat="43.05086" lon="0.82231">
        <ele>408</ele>
        <time>2019-04-22T14:05:44.008Z</time>
      </trkpt>
      <trkpt lat="43.05081" lon="0.82224">
        <ele>408</ele>
        <time>2019-04-22T14:05:47.008Z</time>
      </trkpt>
      <trkpt lat="43.05076" lon="0.82216">
        <ele>408</ele>
        <time>2019-04-22T14:05:50.008Z</time>
      </trkpt>
      <trkpt lat="43.05072" lon="0.82208">
        <ele>410</ele>
        <time>2019-04-22T14:05:53.008Z</time>
      </trkpt>
      <trkpt lat="43.05068" lon="0.822">
        <ele>410</ele>
        <time>2019-04-22T14:05:56.008Z</time>
      </trkpt>
      <trkpt lat="43.05065" lon="0.82194">
        <ele>410</ele>
        <time>2019-04-22T14:05:58.008Z</time>
      </trkpt>
      <trkpt lat="43.05062" lon="0.82187">
        <ele>410</ele>
        <time>2019-04-22T14:06:00.008Z</time>
      </trkpt>
      <trkpt lat="43.05059" lon="0.82179">
        <ele>410</ele>
        <time>2019-04-22T14:06:02.008Z</time>
      </trkpt>
      <trkpt lat="43.05056" lon="0.8217">
        <ele>410</ele>
        <time>2019-04-22T14:06:04.008Z</time>
      </trkpt>
      <trkpt lat="43.05054" lon="0.82164">
        <ele>410</ele>
        <time>2019-04-22T14:06:05.008Z</time>
      </trkpt>
      <trkpt lat="43.05052" lon="0.82159">
        <ele>410</ele>
        <time>2019-04-22T14:06:06.008Z</time>
      </trkpt>
      <trkpt lat="43.0505" lon="0.82153">
        <ele>410</ele>
        <time>2019-04-22T14:06:07.008Z</time>
      </trkpt>
      <trkpt lat="43.05048" lon="0.82147">
        <ele>410</ele>
        <time>2019-04-22T14:06:08.008Z</time>
      </trkpt>
      <trkpt lat="43.05046" lon="0.82141">
        <ele>410</ele>
        <time>2019-04-22T14:06:09.008Z</time>
      </trkpt>
      <trkpt lat="43.05045" lon="0.82135">
        <ele>410</ele>
        <time>2019-04-22T14:06:10.008Z</time>
      </trkpt>
      <trkpt lat="43.05045" lon="0.8213">
        <ele>410</ele>
        <time>2019-04-22T14:06:11.008Z</time>
      </trkpt>
      <trkpt lat="43.05049" lon="0.82122">
        <ele>410</ele>
        <time>2019-04-22T14:06:13.008Z</time>
      </trkpt>
      <trkpt lat="43.05054" lon="0.82119">
        <ele>410</ele>
        <time>2019-04-22T14:06:15.008Z</time>
      </trkpt>
      <trkpt lat="43.05058" lon="0.82117">
        <ele>410</ele>
        <time>2019-04-22T14:06:17.008Z</time>
      </trkpt>
      <trkpt lat="43.05063" lon="0.82116">
        <ele>410</ele>
        <time>2019-04-22T14:06:19.008Z</time>
      </trkpt>
      <trkpt lat="43.05067" lon="0.82114">
        <ele>410.2989798689</ele>
        <time>2019-04-22T14:06:21.008Z</time>
      </trkpt>
      <trkpt lat="43.05071" lon="0.82111">
        <ele>412</ele>
        <time>2019-04-22T14:06:23.008Z</time>
      </trkpt>
      <trkpt lat="43.05075" lon="0.82109">
        <ele>412</ele>
        <time>2019-04-22T14:06:25.008Z</time>
      </trkpt>
      <trkpt lat="43.05079" lon="0.82107">
        <ele>414</ele>
        <time>2019-04-22T14:06:27.008Z</time>
      </trkpt>
      <trkpt lat="43.05084" lon="0.82106">
        <ele>414</ele>
        <time>2019-04-22T14:06:29.008Z</time>
      </trkpt>
      <trkpt lat="43.05087" lon="0.82105">
        <ele>414.3160064</ele>
        <time>2019-04-22T14:06:31.008Z</time>
      </trkpt>
      <trkpt lat="43.05093" lon="0.82103">
        <ele>416</ele>
        <time>2019-04-22T14:06:34.008Z</time>
      </trkpt>
      <trkpt lat="43.05099" lon="0.821">
        <ele>417</ele>
        <time>2019-04-22T14:06:37.008Z</time>
      </trkpt>
      <trkpt lat="43.05105" lon="0.82097">
        <ele>417</ele>
        <time>2019-04-22T14:06:40.008Z</time>
      </trkpt>
      <trkpt lat="43.0511" lon="0.82093">
        <ele>419</ele>
        <time>2019-04-22T14:06:43.008Z</time>
      </trkpt>
      <trkpt lat="43.05116" lon="0.8209">
        <ele>419.3160064</ele>
        <time>2019-04-22T14:06:46.008Z</time>
      </trkpt>
      <trkpt lat="43.05122" lon="0.82087">
        <ele>421</ele>
        <time>2019-04-22T14:06:49.008Z</time>
      </trkpt>
      <trkpt lat="43.05129" lon="0.82085">
        <ele>421</ele>
        <time>2019-04-22T14:06:52.008Z</time>
      </trkpt>
      <trkpt lat="43.05136" lon="0.82084">
        <ele>421</ele>
        <time>2019-04-22T14:06:55.008Z</time>
      </trkpt>
      <trkpt lat="43.05144" lon="0.82081">
        <ele>422</ele>
        <time>2019-04-22T14:06:59.008Z</time>
      </trkpt>
      <trkpt lat="43.05151" lon="0.82075">
        <ele>423</ele>
        <time>2019-04-22T14:07:03.008Z</time>
      </trkpt>
      <trkpt lat="43.05156" lon="0.82067">
        <ele>423</ele>
        <time>2019-04-22T14:07:07.008Z</time>
      </trkpt>
      <trkpt lat="43.05159" lon="0.82057">
        <ele>423</ele>
        <time>2019-04-22T14:07:10.008Z</time>
      </trkpt>
      <trkpt lat="43.05168" lon="0.82045">
        <ele>421</ele>
        <time>2019-04-22T14:07:13.008Z</time>
      </trkpt>
      <trkpt lat="43.05176" lon="0.82031">
        <ele>421</ele>
        <time>2019-04-22T14:07:16.008Z</time>
      </trkpt>
      <trkpt lat="43.05185" lon="0.82016">
        <ele>421</ele>
        <time>2019-04-22T14:07:18.008Z</time>
      </trkpt>
      <trkpt lat="43.05193" lon="0.81998">
        <ele>421</ele>
        <time>2019-04-22T14:07:20.008Z</time>
      </trkpt>
      <trkpt lat="43.05199" lon="0.81985">
        <ele>419</ele>
        <time>2019-04-22T14:07:22.008Z</time>
      </trkpt>
      <trkpt lat="43.05205" lon="0.81971">
        <ele>418.8419968</ele>
        <time>2019-04-22T14:07:26.008Z</time>
      </trkpt>
      <trkpt lat="43.0521" lon="0.81956">
        <ele>418.1580032</ele>
        <time>2019-04-22T14:07:31.008Z</time>
      </trkpt>
      <trkpt lat="43.05212" lon="0.81939">
        <ele>419</ele>
        <time>2019-04-22T14:07:36.008Z</time>
      </trkpt>
      <trkpt lat="43.05216" lon="0.81926">
        <ele>419</ele>
        <time>2019-04-22T14:07:40.008Z</time>
      </trkpt>
      <trkpt lat="43.05217" lon="0.81911">
        <ele>420</ele>
        <time>2019-04-22T14:07:44.008Z</time>
      </trkpt>
      <trkpt lat="43.05221" lon="0.81897">
        <ele>420</ele>
        <time>2019-04-22T14:07:48.008Z</time>
      </trkpt>
      <trkpt lat="43.05221" lon="0.81882">
        <ele>420</ele>
        <time>2019-04-22T14:07:52.008Z</time>
      </trkpt>
      <trkpt lat="43.05222" lon="0.81866">
        <ele>420</ele>
        <time>2019-04-22T14:07:56.008Z</time>
      </trkpt>
      <trkpt lat="43.05228" lon="0.81855">
        <ele>420</ele>
        <time>2019-04-22T14:07:59.008Z</time>
      </trkpt>
      <trkpt lat="43.05232" lon="0.81842">
        <ele>422</ele>
        <time>2019-04-22T14:08:03.008Z</time>
      </trkpt>
      <trkpt lat="43.05238" lon="0.81827">
        <ele>422</ele>
        <time>2019-04-22T14:08:07.008Z</time>
      </trkpt>
      <trkpt lat="43.05242" lon="0.81815">
        <ele>422</ele>
        <time>2019-04-22T14:08:10.008Z</time>
      </trkpt>
      <trkpt lat="43.05247" lon="0.81799">
        <ele>422</ele>
        <time>2019-04-22T14:08:15.008Z</time>
      </trkpt>
      <trkpt lat="43.05253" lon="0.81785">
        <ele>422</ele>
        <time>2019-04-22T14:08:19.008Z</time>
      </trkpt>
      <trkpt lat="43.05257" lon="0.8177">
        <ele>422</ele>
        <time>2019-04-22T14:08:23.008Z</time>
      </trkpt>
      <trkpt lat="43.05257" lon="0.81754">
        <ele>422</ele>
        <time>2019-04-22T14:08:27.008Z</time>
      </trkpt>
      <trkpt lat="43.05258" lon="0.81739">
        <ele>422.1580032</ele>
        <time>2019-04-22T14:08:31.008Z</time>
      </trkpt>
      <trkpt lat="43.05263" lon="0.81725">
        <ele>423</ele>
        <time>2019-04-22T14:08:35.008Z</time>
      </trkpt>
      <trkpt lat="43.05264" lon="0.8171">
        <ele>423</ele>
        <time>2019-04-22T14:08:40.008Z</time>
      </trkpt>
      <trkpt lat="43.05266" lon="0.81693">
        <ele>423</ele>
        <time>2019-04-22T14:08:45.008Z</time>
      </trkpt>
      <trkpt lat="43.05272" lon="0.81678">
        <ele>423</ele>
        <time>2019-04-22T14:08:49.008Z</time>
      </trkpt>
      <trkpt lat="43.05277" lon="0.81667">
        <ele>423</ele>
        <time>2019-04-22T14:08:52.008Z</time>
      </trkpt>
      <trkpt lat="43.05283" lon="0.81654">
        <ele>423</ele>
        <time>2019-04-22T14:08:56.008Z</time>
      </trkpt>
      <trkpt lat="43.05285" lon="0.81641">
        <ele>423</ele>
        <time>2019-04-22T14:09:00.008Z</time>
      </trkpt>
      <trkpt lat="43.05285" lon="0.81627">
        <ele>426</ele>
        <time>2019-04-22T14:09:05.008Z</time>
      </trkpt>
      <trkpt lat="43.05287" lon="0.81611">
        <ele>426</ele>
        <time>2019-04-22T14:09:10.008Z</time>
      </trkpt>
      <trkpt lat="43.05292" lon="0.81596">
        <ele>426</ele>
        <time>2019-04-22T14:09:14.008Z</time>
      </trkpt>
      <trkpt lat="43.05302" lon="0.81581">
        <ele>426</ele>
        <time>2019-04-22T14:09:17.008Z</time>
      </trkpt>
      <trkpt lat="43.05304" lon="0.81563">
        <ele>426</ele>
        <time>2019-04-22T14:09:20.008Z</time>
      </trkpt>
      <trkpt lat="43.05302" lon="0.81547">
        <ele>425</ele>
        <time>2019-04-22T14:09:23.008Z</time>
      </trkpt>
      <trkpt lat="43.05297" lon="0.81533">
        <ele>425</ele>
        <time>2019-04-22T14:09:26.008Z</time>
      </trkpt>
      <trkpt lat="43.05291" lon="0.81521">
        <ele>425.4740096</ele>
        <time>2019-04-22T14:09:31.008Z</time>
      </trkpt>
      <trkpt lat="43.05283" lon="0.81513">
        <ele>428.3160064</ele>
        <time>2019-04-22T14:09:36.008Z</time>
      </trkpt>
      <trkpt lat="43.05275" lon="0.81502">
        <ele>430.4740096</ele>
        <time>2019-04-22T14:09:41.008Z</time>
      </trkpt>
      <trkpt lat="43.05272" lon="0.8149">
        <ele>434</ele>
        <time>2019-04-22T14:09:46.008Z</time>
      </trkpt>
      <trkpt lat="43.05268" lon="0.81478">
        <ele>435</ele>
        <time>2019-04-22T14:09:51.008Z</time>
      </trkpt>
      <trkpt lat="43.05262" lon="0.81468">
        <ele>435</ele>
        <time>2019-04-22T14:09:55.008Z</time>
      </trkpt>
      <trkpt lat="43.05257" lon="0.8146">
        <ele>435</ele>
        <time>2019-04-22T14:10:00.008Z</time>
      </trkpt>
      <trkpt lat="43.0525" lon="0.81453">
        <ele>438</ele>
        <time>2019-04-22T14:10:04.008Z</time>
      </trkpt>
      <trkpt lat="43.05244" lon="0.81447">
        <ele>440</ele>
        <time>2019-04-22T14:10:09.008Z</time>
      </trkpt>
      <trkpt lat="43.05236" lon="0.8144">
        <ele>441</ele>
        <time>2019-04-22T14:10:14.008Z</time>
      </trkpt>
      <trkpt lat="43.05229" lon="0.81433">
        <ele>443</ele>
        <time>2019-04-22T14:10:20.008Z</time>
      </trkpt>
      <trkpt lat="43.05222" lon="0.81426">
        <ele>444</ele>
        <time>2019-04-22T14:10:25.008Z</time>
      </trkpt>
      <trkpt lat="43.05216" lon="0.81419">
        <ele>445</ele>
        <time>2019-04-22T14:10:30.008Z</time>
      </trkpt>
      <trkpt lat="43.05208" lon="0.81416">
        <ele>447</ele>
        <time>2019-04-22T14:10:33.008Z</time>
      </trkpt>
      <trkpt lat="43.05201" lon="0.81414">
        <ele>448</ele>
        <time>2019-04-22T14:10:37.008Z</time>
      </trkpt>
      <trkpt lat="43.05194" lon="0.81406">
        <ele>450</ele>
        <time>2019-04-22T14:10:42.008Z</time>
      </trkpt>
      <trkpt lat="43.05188" lon="0.81402">
        <ele>450</ele>
        <time>2019-04-22T14:10:45.008Z</time>
      </trkpt>
      <trkpt lat="43.05182" lon="0.814">
        <ele>450</ele>
        <time>2019-04-22T14:10:48.008Z</time>
      </trkpt>
      <trkpt lat="43.05177" lon="0.81398">
        <ele>450</ele>
        <time>2019-04-22T14:10:51.008Z</time>
      </trkpt>
      <trkpt lat="43.05175" lon="0.81388">
        <ele>450</ele>
        <time>2019-04-22T14:11:07.008Z</time>
      </trkpt>
      <trkpt lat="43.05181" lon="0.81372">
        <ele>450</ele>
        <time>2019-04-22T14:11:10.008Z</time>
      </trkpt>
      <trkpt lat="43.05189" lon="0.81359">
        <ele>448</ele>
        <time>2019-04-22T14:11:12.008Z</time>
      </trkpt>
      <trkpt lat="43.05196" lon="0.81346">
        <ele>448</ele>
        <time>2019-04-22T14:11:14.008Z</time>
      </trkpt>
      <trkpt lat="43.05203" lon="0.81334">
        <ele>447.3679872</ele>
        <time>2019-04-22T14:11:16.008Z</time>
      </trkpt>
      <trkpt lat="43.0521" lon="0.8132">
        <ele>444</ele>
        <time>2019-04-22T14:11:18.008Z</time>
      </trkpt>
      <trkpt lat="43.05214" lon="0.81303">
        <ele>444</ele>
        <time>2019-04-22T14:11:20.008Z</time>
      </trkpt>
      <trkpt lat="43.05214" lon="0.81287">
        <ele>440.8419968</ele>
        <time>2019-04-22T14:11:22.008Z</time>
      </trkpt>
      <trkpt lat="43.05217" lon="0.81271">
        <ele>440</ele>
        <time>2019-04-22T14:11:24.008Z</time>
      </trkpt>
      <trkpt lat="43.05221" lon="0.81257">
        <ele>440</ele>
        <time>2019-04-22T14:11:26.008Z</time>
      </trkpt>
      <trkpt lat="43.05226" lon="0.81243">
        <ele>440</ele>
        <time>2019-04-22T14:11:28.008Z</time>
      </trkpt>
      <trkpt lat="43.0523" lon="0.81229">
        <ele>439</ele>
        <time>2019-04-22T14:11:30.008Z</time>
      </trkpt>
      <trkpt lat="43.05233" lon="0.81214">
        <ele>438</ele>
        <time>2019-04-22T14:11:32.008Z</time>
      </trkpt>
      <trkpt lat="43.05241" lon="0.812">
        <ele>438</ele>
        <time>2019-04-22T14:11:34.008Z</time>
      </trkpt>
      <trkpt lat="43.05247" lon="0.81185">
        <ele>438</ele>
        <time>2019-04-22T14:11:36.008Z</time>
      </trkpt>
      <trkpt lat="43.05251" lon="0.81167">
        <ele>438</ele>
        <time>2019-04-22T14:11:38.008Z</time>
      </trkpt>
      <trkpt lat="43.05253" lon="0.81152">
        <ele>438</ele>
        <time>2019-04-22T14:11:40.008Z</time>
      </trkpt>
      <trkpt lat="43.05253" lon="0.81134">
        <ele>438</ele>
        <time>2019-04-22T14:11:43.008Z</time>
      </trkpt>
      <trkpt lat="43.05251" lon="0.81119">
        <ele>438</ele>
        <time>2019-04-22T14:11:46.008Z</time>
      </trkpt>
      <trkpt lat="43.05251" lon="0.81102">
        <ele>438</ele>
        <time>2019-04-22T14:11:50.008Z</time>
      </trkpt>
      <trkpt lat="43.05252" lon="0.81089">
        <ele>439</ele>
        <time>2019-04-22T14:11:53.008Z</time>
      </trkpt>
      <trkpt lat="43.05253" lon="0.81075">
        <ele>439</ele>
        <time>2019-04-22T14:11:56.008Z</time>
      </trkpt>
      <trkpt lat="43.05254" lon="0.81062">
        <ele>439</ele>
        <time>2019-04-22T14:11:59.008Z</time>
      </trkpt>
      <trkpt lat="43.05252" lon="0.81049">
        <ele>438</ele>
        <time>2019-04-22T14:12:02.008Z</time>
      </trkpt>
      <trkpt lat="43.05248" lon="0.81035">
        <ele>438</ele>
        <time>2019-04-22T14:12:05.008Z</time>
      </trkpt>
      <trkpt lat="43.05246" lon="0.81022">
        <ele>438</ele>
        <time>2019-04-22T14:12:08.008Z</time>
      </trkpt>
      <trkpt lat="43.05242" lon="0.81012">
        <ele>438</ele>
        <time>2019-04-22T14:12:10.008Z</time>
      </trkpt>
      <trkpt lat="43.05238" lon="0.81">
        <ele>438</ele>
        <time>2019-04-22T14:12:12.008Z</time>
      </trkpt>
      <trkpt lat="43.05236" lon="0.80983">
        <ele>438</ele>
        <time>2019-04-22T14:12:15.008Z</time>
      </trkpt>
      <trkpt lat="43.05232" lon="0.80968">
        <ele>438</ele>
        <time>2019-04-22T14:12:18.008Z</time>
      </trkpt>
      <trkpt lat="43.05228" lon="0.80951">
        <ele>438</ele>
        <time>2019-04-22T14:12:21.008Z</time>
      </trkpt>
      <trkpt lat="43.05226" lon="0.80937">
        <ele>438</ele>
        <time>2019-04-22T14:12:24.008Z</time>
      </trkpt>
      <trkpt lat="43.05224" lon="0.80921">
        <ele>438</ele>
        <time>2019-04-22T14:12:27.008Z</time>
      </trkpt>
      <trkpt lat="43.0522" lon="0.80908">
        <ele>438</ele>
        <time>2019-04-22T14:12:30.008Z</time>
      </trkpt>
      <trkpt lat="43.05216" lon="0.80896">
        <ele>439</ele>
        <time>2019-04-22T14:12:33.008Z</time>
      </trkpt>
      <trkpt lat="43.05213" lon="0.80883">
        <ele>439</ele>
        <time>2019-04-22T14:12:37.008Z</time>
      </trkpt>
      <trkpt lat="43.05208" lon="0.80871">
        <ele>439</ele>
        <time>2019-04-22T14:12:40.008Z</time>
      </trkpt>
      <trkpt lat="43.05207" lon="0.80859">
        <ele>441</ele>
        <time>2019-04-22T14:12:43.008Z</time>
      </trkpt>
      <trkpt lat="43.05204" lon="0.80845">
        <ele>441</ele>
        <time>2019-04-22T14:12:46.008Z</time>
      </trkpt>
      <trkpt lat="43.05203" lon="0.80833">
        <ele>441</ele>
        <time>2019-04-22T14:12:49.008Z</time>
      </trkpt>
      <trkpt lat="43.05201" lon="0.8082">
        <ele>442</ele>
        <time>2019-04-22T14:12:52.008Z</time>
      </trkpt>
      <trkpt lat="43.05202" lon="0.80807">
        <ele>442</ele>
        <time>2019-04-22T14:12:55.008Z</time>
      </trkpt>
      <trkpt lat="43.05203" lon="0.80792">
        <ele>442</ele>
        <time>2019-04-22T14:12:58.008Z</time>
      </trkpt>
      <trkpt lat="43.05209" lon="0.80775">
        <ele>441.3679872</ele>
        <time>2019-04-22T14:13:01.008Z</time>
      </trkpt>
      <trkpt lat="43.05211" lon="0.80762">
        <ele>438</ele>
        <time>2019-04-22T14:13:03.008Z</time>
      </trkpt>
      <trkpt lat="43.05207" lon="0.80745">
        <ele>438</ele>
        <time>2019-04-22T14:13:05.008Z</time>
      </trkpt>
      <trkpt lat="43.05202" lon="0.80729">
        <ele>437</ele>
        <time>2019-04-22T14:13:07.008Z</time>
      </trkpt>
      <trkpt lat="43.052" lon="0.80712">
        <ele>437</ele>
        <time>2019-04-22T14:13:09.008Z</time>
      </trkpt>
      <trkpt lat="43.052" lon="0.80693">
        <ele>436.8419968</ele>
        <time>2019-04-22T14:13:11.008Z</time>
      </trkpt>
      <trkpt lat="43.05201" lon="0.80676">
        <ele>436</ele>
        <time>2019-04-22T14:13:13.008Z</time>
      </trkpt>
      <trkpt lat="43.05202" lon="0.8066">
        <ele>436</ele>
        <time>2019-04-22T14:13:15.008Z</time>
      </trkpt>
      <trkpt lat="43.05201" lon="0.80645">
        <ele>433</ele>
        <time>2019-04-22T14:13:17.008Z</time>
      </trkpt>
      <trkpt lat="43.05198" lon="0.80631">
        <ele>433</ele>
        <time>2019-04-22T14:13:19.008Z</time>
      </trkpt>
      <trkpt lat="43.05194" lon="0.80614">
        <ele>432.7010201311</ele>
        <time>2019-04-22T14:13:21.008Z</time>
      </trkpt>
      <trkpt lat="43.05192" lon="0.80596">
        <ele>428.6839936</ele>
        <time>2019-04-22T14:13:23.008Z</time>
      </trkpt>
      <trkpt lat="43.05191" lon="0.80579">
        <ele>425.8419968</ele>
        <time>2019-04-22T14:13:25.008Z</time>
      </trkpt>
      <trkpt lat="43.05187" lon="0.80561">
        <ele>425</ele>
        <time>2019-04-22T14:13:27.008Z</time>
      </trkpt>
      <trkpt lat="43.05183" lon="0.80546">
        <ele>423.8419968</ele>
        <time>2019-04-22T14:13:29.008Z</time>
      </trkpt>
      <trkpt lat="43.05176" lon="0.80533">
        <ele>422</ele>
        <time>2019-04-22T14:13:31.008Z</time>
      </trkpt>
      <trkpt lat="43.0517" lon="0.80522">
        <ele>421</ele>
        <time>2019-04-22T14:13:35.008Z</time>
      </trkpt>
      <trkpt lat="43.05162" lon="0.80509">
        <ele>421</ele>
        <time>2019-04-22T14:13:39.008Z</time>
      </trkpt>
      <trkpt lat="43.0516" lon="0.80496">
        <ele>420</ele>
        <time>2019-04-22T14:13:43.008Z</time>
      </trkpt>
      <trkpt lat="43.05161" lon="0.80481">
        <ele>420</ele>
        <time>2019-04-22T14:13:50.008Z</time>
      </trkpt>
      <trkpt lat="43.05163" lon="0.80468">
        <ele>420</ele>
        <time>2019-04-22T14:13:55.008Z</time>
      </trkpt>
      <trkpt lat="43.0517" lon="0.80458">
        <ele>417</ele>
        <time>2019-04-22T14:14:02.008Z</time>
      </trkpt>
      <trkpt lat="43.05174" lon="0.80445">
        <ele>418</ele>
        <time>2019-04-22T14:14:12.008Z</time>
      </trkpt>
      <trkpt lat="43.0518" lon="0.8043">
        <ele>418</ele>
        <time>2019-04-22T14:14:16.008Z</time>
      </trkpt>
      <trkpt lat="43.05185" lon="0.80415">
        <ele>418</ele>
        <time>2019-04-22T14:14:19.008Z</time>
      </trkpt>
      <trkpt lat="43.05188" lon="0.804">
        <ele>416</ele>
        <time>2019-04-22T14:14:22.008Z</time>
      </trkpt>
      <trkpt lat="43.05189" lon="0.80385">
        <ele>416</ele>
        <time>2019-04-22T14:14:26.008Z</time>
      </trkpt>
      <trkpt lat="43.0519" lon="0.8037">
        <ele>416.1580032</ele>
        <time>2019-04-22T14:14:31.008Z</time>
      </trkpt>
      <trkpt lat="43.05189" lon="0.80355">
        <ele>417</ele>
        <time>2019-04-22T14:14:36.008Z</time>
      </trkpt>
      <trkpt lat="43.05189" lon="0.80341">
        <ele>417</ele>
        <time>2019-04-22T14:14:40.008Z</time>
      </trkpt>
      <trkpt lat="43.05187" lon="0.80329">
        <ele>418</ele>
        <time>2019-04-22T14:14:43.008Z</time>
      </trkpt>
      <trkpt lat="43.05189" lon="0.80316">
        <ele>418</ele>
        <time>2019-04-22T14:14:48.008Z</time>
      </trkpt>
      <trkpt lat="43.05187" lon="0.80303">
        <ele>420</ele>
        <time>2019-04-22T14:14:53.008Z</time>
      </trkpt>
      <trkpt lat="43.05186" lon="0.80289">
        <ele>420</ele>
        <time>2019-04-22T14:14:58.008Z</time>
      </trkpt>
      <trkpt lat="43.05187" lon="0.80277">
        <ele>420</ele>
        <time>2019-04-22T14:15:02.008Z</time>
      </trkpt>
      <trkpt lat="43.05193" lon="0.80264">
        <ele>420</ele>
        <time>2019-04-22T14:15:07.008Z</time>
      </trkpt>
      <trkpt lat="43.05198" lon="0.80251">
        <ele>420</ele>
        <time>2019-04-22T14:15:11.008Z</time>
      </trkpt>
      <trkpt lat="43.05202" lon="0.80236">
        <ele>420</ele>
        <time>2019-04-22T14:15:15.008Z</time>
      </trkpt>
      <trkpt lat="43.05206" lon="0.80222">
        <ele>420</ele>
        <time>2019-04-22T14:15:19.008Z</time>
      </trkpt>
      <trkpt lat="43.0521" lon="0.80207">
        <ele>420</ele>
        <time>2019-04-22T14:15:23.008Z</time>
      </trkpt>
      <trkpt lat="43.05215" lon="0.80194">
        <ele>420</ele>
        <time>2019-04-22T14:15:27.008Z</time>
      </trkpt>
      <trkpt lat="43.0522" lon="0.80183">
        <ele>419.6839936</ele>
        <time>2019-04-22T14:15:31.008Z</time>
      </trkpt>
      <trkpt lat="43.05225" lon="0.80166">
        <ele>418</ele>
        <time>2019-04-22T14:15:35.008Z</time>
      </trkpt>
      <trkpt lat="43.05228" lon="0.80152">
        <ele>416</ele>
        <time>2019-04-22T14:15:38.008Z</time>
      </trkpt>
      <trkpt lat="43.05231" lon="0.80138">
        <ele>416</ele>
        <time>2019-04-22T14:15:41.008Z</time>
      </trkpt>
      <trkpt lat="43.05236" lon="0.80123">
        <ele>416</ele>
        <time>2019-04-22T14:15:45.008Z</time>
      </trkpt>
      <trkpt lat="43.05248" lon="0.80117">
        <ele>416</ele>
        <time>2019-04-22T14:15:48.008Z</time>
      </trkpt>
      <trkpt lat="43.05262" lon="0.80114">
        <ele>415.6839936</ele>
        <time>2019-04-22T14:15:51.008Z</time>
      </trkpt>
      <trkpt lat="43.05271" lon="0.80112">
        <ele>414</ele>
        <time>2019-04-22T14:15:53.008Z</time>
      </trkpt>
      <trkpt lat="43.05281" lon="0.80109">
        <ele>413.5259904</ele>
        <time>2019-04-22T14:15:56.008Z</time>
      </trkpt>
      <trkpt lat="43.05284" lon="0.80098">
        <ele>411</ele>
        <time>2019-04-22T14:16:00.008Z</time>
      </trkpt>
      <trkpt lat="43.05279" lon="0.80092">
        <ele>411</ele>
        <time>2019-04-22T14:16:02.008Z</time>
      </trkpt>
      <trkpt lat="43.05275" lon="0.80079">
        <ele>411</ele>
        <time>2019-04-22T14:16:05.008Z</time>
      </trkpt>
      <trkpt lat="43.05273" lon="0.8007">
        <ele>411</ele>
        <time>2019-04-22T14:16:07.008Z</time>
      </trkpt>
      <trkpt lat="43.05271" lon="0.8006">
        <ele>411</ele>
        <time>2019-04-22T14:16:09.008Z</time>
      </trkpt>
      <trkpt lat="43.05268" lon="0.8005">
        <ele>411.1580032</ele>
        <time>2019-04-22T14:16:11.008Z</time>
      </trkpt>
      <trkpt lat="43.05266" lon="0.80041">
        <ele>412</ele>
        <time>2019-04-22T14:16:13.008Z</time>
      </trkpt>
      <trkpt lat="43.05264" lon="0.80031">
        <ele>412</ele>
        <time>2019-04-22T14:16:15.008Z</time>
      </trkpt>
      <trkpt lat="43.05263" lon="0.8002">
        <ele>412</ele>
        <time>2019-04-22T14:16:17.008Z</time>
      </trkpt>
      <trkpt lat="43.05261" lon="0.8001">
        <ele>412</ele>
        <time>2019-04-22T14:16:19.008Z</time>
      </trkpt>
      <trkpt lat="43.0526" lon="0.80005">
        <ele>412</ele>
        <time>2019-04-22T14:16:20.008Z</time>
      </trkpt>
      <trkpt lat="43.05258" lon="0.79995">
        <ele>412</ele>
        <time>2019-04-22T14:16:22.008Z</time>
      </trkpt>
      <trkpt lat="43.05256" lon="0.79984">
        <ele>412</ele>
        <time>2019-04-22T14:16:24.008Z</time>
      </trkpt>
      <trkpt lat="43.05254" lon="0.79974">
        <ele>412</ele>
        <time>2019-04-22T14:16:26.008Z</time>
      </trkpt>
      <trkpt lat="43.05252" lon="0.79964">
        <ele>412</ele>
        <time>2019-04-22T14:16:28.008Z</time>
      </trkpt>
      <trkpt lat="43.0525" lon="0.79954">
        <ele>412</ele>
        <time>2019-04-22T14:16:30.008Z</time>
      </trkpt>
      <trkpt lat="43.05248" lon="0.79944">
        <ele>413</ele>
        <time>2019-04-22T14:16:32.008Z</time>
      </trkpt>
      <trkpt lat="43.05247" lon="0.79939">
        <ele>413</ele>
        <time>2019-04-22T14:16:33.008Z</time>
      </trkpt>
      <trkpt lat="43.05244" lon="0.79929">
        <ele>413</ele>
        <time>2019-04-22T14:16:35.008Z</time>
      </trkpt>
      <trkpt lat="43.05242" lon="0.79919">
        <ele>413</ele>
        <time>2019-04-22T14:16:37.008Z</time>
      </trkpt>
      <trkpt lat="43.0524" lon="0.79909">
        <ele>413</ele>
        <time>2019-04-22T14:16:39.008Z</time>
      </trkpt>
      <trkpt lat="43.05238" lon="0.799">
        <ele>413.1580032</ele>
        <time>2019-04-22T14:16:41.008Z</time>
      </trkpt>
      <trkpt lat="43.05236" lon="0.79891">
        <ele>414</ele>
        <time>2019-04-22T14:16:43.008Z</time>
      </trkpt>
      <trkpt lat="43.05234" lon="0.79881">
        <ele>414</ele>
        <time>2019-04-22T14:16:45.008Z</time>
      </trkpt>
      <trkpt lat="43.05231" lon="0.79872">
        <ele>414</ele>
        <time>2019-04-22T14:16:47.008Z</time>
      </trkpt>
      <trkpt lat="43.05228" lon="0.79862">
        <ele>414</ele>
        <time>2019-04-22T14:16:49.008Z</time>
      </trkpt>
      <trkpt lat="43.05226" lon="0.79854">
        <ele>414.1580032</ele>
        <time>2019-04-22T14:16:51.008Z</time>
      </trkpt>
      <trkpt lat="43.05223" lon="0.79845">
        <ele>415</ele>
        <time>2019-04-22T14:16:53.008Z</time>
      </trkpt>
      <trkpt lat="43.05219" lon="0.79838">
        <ele>415</ele>
        <time>2019-04-22T14:16:55.008Z</time>
      </trkpt>
      <trkpt lat="43.05215" lon="0.79829">
        <ele>415</ele>
        <time>2019-04-22T14:16:57.008Z</time>
      </trkpt>
      <trkpt lat="43.05212" lon="0.7982">
        <ele>415</ele>
        <time>2019-04-22T14:16:59.008Z</time>
      </trkpt>
      <trkpt lat="43.05209" lon="0.79811">
        <ele>415.3160064</ele>
        <time>2019-04-22T14:17:01.008Z</time>
      </trkpt>
      <trkpt lat="43.05206" lon="0.79802">
        <ele>417</ele>
        <time>2019-04-22T14:17:03.008Z</time>
      </trkpt>
      <trkpt lat="43.05203" lon="0.79794">
        <ele>417</ele>
        <time>2019-04-22T14:17:05.008Z</time>
      </trkpt>
      <trkpt lat="43.05201" lon="0.79785">
        <ele>417</ele>
        <time>2019-04-22T14:17:07.008Z</time>
      </trkpt>
      <trkpt lat="43.05199" lon="0.79777">
        <ele>417</ele>
        <time>2019-04-22T14:17:09.008Z</time>
      </trkpt>
      <trkpt lat="43.05197" lon="0.79768">
        <ele>417.3160064</ele>
        <time>2019-04-22T14:17:11.008Z</time>
      </trkpt>
      <trkpt lat="43.05195" lon="0.7976">
        <ele>419</ele>
        <time>2019-04-22T14:17:13.008Z</time>
      </trkpt>
      <trkpt lat="43.05192" lon="0.79749">
        <ele>419.4740096</ele>
        <time>2019-04-22T14:17:16.008Z</time>
      </trkpt>
      <trkpt lat="43.05191" lon="0.79737">
        <ele>422</ele>
        <time>2019-04-22T14:17:19.008Z</time>
      </trkpt>
      <trkpt lat="43.05191" lon="0.79725">
        <ele>423</ele>
        <time>2019-04-22T14:17:22.008Z</time>
      </trkpt>
      <trkpt lat="43.05188" lon="0.79713">
        <ele>423</ele>
        <time>2019-04-22T14:17:25.008Z</time>
      </trkpt>
      <trkpt lat="43.05184" lon="0.79702">
        <ele>424</ele>
        <time>2019-04-22T14:17:28.008Z</time>
      </trkpt>
      <trkpt lat="43.05179" lon="0.79693">
        <ele>424.1580032</ele>
        <time>2019-04-22T14:17:31.008Z</time>
      </trkpt>
      <trkpt lat="43.05173" lon="0.79683">
        <ele>425</ele>
        <time>2019-04-22T14:17:34.008Z</time>
      </trkpt>
      <trkpt lat="43.05168" lon="0.79676">
        <ele>425</ele>
        <time>2019-04-22T14:17:36.008Z</time>
      </trkpt>
      <trkpt lat="43.05164" lon="0.79669">
        <ele>425</ele>
        <time>2019-04-22T14:17:38.008Z</time>
      </trkpt>
      <trkpt lat="43.05158" lon="0.79663">
        <ele>425</ele>
        <time>2019-04-22T14:17:40.008Z</time>
      </trkpt>
      <trkpt lat="43.05154" lon="0.79657">
        <ele>428</ele>
        <time>2019-04-22T14:17:42.008Z</time>
      </trkpt>
      <trkpt lat="43.0515" lon="0.7965">
        <ele>428</ele>
        <time>2019-04-22T14:17:44.008Z</time>
      </trkpt>
      <trkpt lat="43.05146" lon="0.79643">
        <ele>428</ele>
        <time>2019-04-22T14:17:46.008Z</time>
      </trkpt>
      <trkpt lat="43.05142" lon="0.79635">
        <ele>428</ele>
        <time>2019-04-22T14:17:48.008Z</time>
      </trkpt>
      <trkpt lat="43.05139" lon="0.79627">
        <ele>428</ele>
        <time>2019-04-22T14:17:50.008Z</time>
      </trkpt>
      <trkpt lat="43.05136" lon="0.79618">
        <ele>429</ele>
        <time>2019-04-22T14:17:53.008Z</time>
      </trkpt>
      <trkpt lat="43.05133" lon="0.79607">
        <ele>429</ele>
        <time>2019-04-22T14:17:56.008Z</time>
      </trkpt>
      <trkpt lat="43.05132" lon="0.79598">
        <ele>429</ele>
        <time>2019-04-22T14:17:58.008Z</time>
      </trkpt>
      <trkpt lat="43.0513" lon="0.7959">
        <ele>429</ele>
        <time>2019-04-22T14:18:00.008Z</time>
      </trkpt>
      <trkpt lat="43.05129" lon="0.79582">
        <ele>431</ele>
        <time>2019-04-22T14:18:02.008Z</time>
      </trkpt>
      <trkpt lat="43.05127" lon="0.79573">
        <ele>431</ele>
        <time>2019-04-22T14:18:04.008Z</time>
      </trkpt>
      <trkpt lat="43.05126" lon="0.79565">
        <ele>431</ele>
        <time>2019-04-22T14:18:06.008Z</time>
      </trkpt>
      <trkpt lat="43.05124" lon="0.79556">
        <ele>431</ele>
        <time>2019-04-22T14:18:08.008Z</time>
      </trkpt>
      <trkpt lat="43.05122" lon="0.79548">
        <ele>431</ele>
        <time>2019-04-22T14:18:10.008Z</time>
      </trkpt>
      <trkpt lat="43.05121" lon="0.79539">
        <ele>432</ele>
        <time>2019-04-22T14:18:12.008Z</time>
      </trkpt>
      <trkpt lat="43.0512" lon="0.79529">
        <ele>432</ele>
        <time>2019-04-22T14:18:14.008Z</time>
      </trkpt>
      <trkpt lat="43.05118" lon="0.79519">
        <ele>431.8419968</ele>
        <time>2019-04-22T14:18:16.008Z</time>
      </trkpt>
      <trkpt lat="43.05117" lon="0.79514">
        <ele>431</ele>
        <time>2019-04-22T14:18:17.008Z</time>
      </trkpt>
      <trkpt lat="43.05117" lon="0.79508">
        <ele>431</ele>
        <time>2019-04-22T14:18:18.008Z</time>
      </trkpt>
      <trkpt lat="43.05115" lon="0.79496">
        <ele>431</ele>
        <time>2019-04-22T14:18:20.008Z</time>
      </trkpt>
      <trkpt lat="43.05114" lon="0.79489">
        <ele>431</ele>
        <time>2019-04-22T14:18:21.008Z</time>
      </trkpt>
      <trkpt lat="43.05113" lon="0.79482">
        <ele>431</ele>
        <time>2019-04-22T14:18:22.008Z</time>
      </trkpt>
      <trkpt lat="43.05112" lon="0.79475">
        <ele>430.8419968</ele>
        <time>2019-04-22T14:18:23.008Z</time>
      </trkpt>
      <trkpt lat="43.0511" lon="0.79467">
        <ele>430</ele>
        <time>2019-04-22T14:18:24.008Z</time>
      </trkpt>
      <trkpt lat="43.05109" lon="0.79459">
        <ele>430</ele>
        <time>2019-04-22T14:18:25.008Z</time>
      </trkpt>
      <trkpt lat="43.05105" lon="0.79443">
        <ele>430</ele>
        <time>2019-04-22T14:18:27.008Z</time>
      </trkpt>
      <trkpt lat="43.05104" lon="0.79435">
        <ele>430</ele>
        <time>2019-04-22T14:18:28.008Z</time>
      </trkpt>
      <trkpt lat="43.05102" lon="0.79427">
        <ele>430</ele>
        <time>2019-04-22T14:18:29.008Z</time>
      </trkpt>
      <trkpt lat="43.05099" lon="0.79418">
        <ele>430</ele>
        <time>2019-04-22T14:18:30.008Z</time>
      </trkpt>
      <trkpt lat="43.05097" lon="0.79409">
        <ele>429.8419968</ele>
        <time>2019-04-22T14:18:31.008Z</time>
      </trkpt>
      <trkpt lat="43.05096" lon="0.794">
        <ele>429</ele>
        <time>2019-04-22T14:18:32.008Z</time>
      </trkpt>
      <trkpt lat="43.05094" lon="0.79392">
        <ele>429</ele>
        <time>2019-04-22T14:18:33.008Z</time>
      </trkpt>
      <trkpt lat="43.05092" lon="0.79383">
        <ele>429</ele>
        <time>2019-04-22T14:18:34.008Z</time>
      </trkpt>
      <trkpt lat="43.0509" lon="0.79374">
        <ele>429</ele>
        <time>2019-04-22T14:18:35.008Z</time>
      </trkpt>
      <trkpt lat="43.05089" lon="0.79366">
        <ele>429</ele>
        <time>2019-04-22T14:18:36.008Z</time>
      </trkpt>
      <trkpt lat="43.05087" lon="0.79357">
        <ele>428.8419968</ele>
        <time>2019-04-22T14:18:37.008Z</time>
      </trkpt>
      <trkpt lat="43.05086" lon="0.79349">
        <ele>428</ele>
        <time>2019-04-22T14:18:38.008Z</time>
      </trkpt>
      <trkpt lat="43.05084" lon="0.79341">
        <ele>428</ele>
        <time>2019-04-22T14:18:39.008Z</time>
      </trkpt>
      <trkpt lat="43.05083" lon="0.79333">
        <ele>428</ele>
        <time>2019-04-22T14:18:40.008Z</time>
      </trkpt>
      <trkpt lat="43.05082" lon="0.79325">
        <ele>428</ele>
        <time>2019-04-22T14:18:41.008Z</time>
      </trkpt>
      <trkpt lat="43.05081" lon="0.79317">
        <ele>428</ele>
        <time>2019-04-22T14:18:42.008Z</time>
      </trkpt>
      <trkpt lat="43.05081" lon="0.7931">
        <ele>428</ele>
        <time>2019-04-22T14:18:43.008Z</time>
      </trkpt>
      <trkpt lat="43.0508" lon="0.79302">
        <ele>428</ele>
        <time>2019-04-22T14:18:44.008Z</time>
      </trkpt>
      <trkpt lat="43.05079" lon="0.79295">
        <ele>428</ele>
        <time>2019-04-22T14:18:45.008Z</time>
      </trkpt>
      <trkpt lat="43.05079" lon="0.79287">
        <ele>428</ele>
        <time>2019-04-22T14:18:46.008Z</time>
      </trkpt>
      <trkpt lat="43.05079" lon="0.7928">
        <ele>428</ele>
        <time>2019-04-22T14:18:47.008Z</time>
      </trkpt>
      <trkpt lat="43.05078" lon="0.79273">
        <ele>427.8419968</ele>
        <time>2019-04-22T14:18:48.008Z</time>
      </trkpt>
      <trkpt lat="43.05078" lon="0.79266">
        <ele>427</ele>
        <time>2019-04-22T14:18:49.008Z</time>
      </trkpt>
      <trkpt lat="43.05078" lon="0.79259">
        <ele>427</ele>
        <time>2019-04-22T14:18:50.008Z</time>
      </trkpt>
      <trkpt lat="43.05077" lon="0.79253">
        <ele>427.3160064</ele>
        <time>2019-04-22T14:18:51.008Z</time>
      </trkpt>
      <trkpt lat="43.05077" lon="0.79246">
        <ele>429</ele>
        <time>2019-04-22T14:18:52.008Z</time>
      </trkpt>
      <trkpt lat="43.05077" lon="0.79239">
        <ele>429</ele>
        <time>2019-04-22T14:18:53.008Z</time>
      </trkpt>
      <trkpt lat="43.05076" lon="0.79233">
        <ele>429</ele>
        <time>2019-04-22T14:18:54.008Z</time>
      </trkpt>
      <trkpt lat="43.05076" lon="0.79227">
        <ele>429</ele>
        <time>2019-04-22T14:18:55.008Z</time>
      </trkpt>
      <trkpt lat="43.05075" lon="0.79221">
        <ele>429</ele>
        <time>2019-04-22T14:18:56.008Z</time>
      </trkpt>
      <trkpt lat="43.05074" lon="0.79214">
        <ele>429</ele>
        <time>2019-04-22T14:18:57.008Z</time>
      </trkpt>
      <trkpt lat="43.05073" lon="0.79208">
        <ele>429</ele>
        <time>2019-04-22T14:18:58.008Z</time>
      </trkpt>
      <trkpt lat="43.05073" lon="0.79202">
        <ele>429</ele>
        <time>2019-04-22T14:18:59.008Z</time>
      </trkpt>
      <trkpt lat="43.05072" lon="0.79196">
        <ele>429</ele>
        <time>2019-04-22T14:19:00.008Z</time>
      </trkpt>
      <trkpt lat="43.05071" lon="0.7919">
        <ele>429.3160064</ele>
        <time>2019-04-22T14:19:01.008Z</time>
      </trkpt>
      <trkpt lat="43.05071" lon="0.79184">
        <ele>431</ele>
        <time>2019-04-22T14:19:02.008Z</time>
      </trkpt>
      <trkpt lat="43.0507" lon="0.79178">
        <ele>431</ele>
        <time>2019-04-22T14:19:03.008Z</time>
      </trkpt>
      <trkpt lat="43.05069" lon="0.79172">
        <ele>431</ele>
        <time>2019-04-22T14:19:04.008Z</time>
      </trkpt>
      <trkpt lat="43.05069" lon="0.79166">
        <ele>431</ele>
        <time>2019-04-22T14:19:05.008Z</time>
      </trkpt>
      <trkpt lat="43.05068" lon="0.7916">
        <ele>431</ele>
        <time>2019-04-22T14:19:06.008Z</time>
      </trkpt>
      <trkpt lat="43.05068" lon="0.79154">
        <ele>431</ele>
        <time>2019-04-22T14:19:07.008Z</time>
      </trkpt>
      <trkpt lat="43.05067" lon="0.79148">
        <ele>431</ele>
        <time>2019-04-22T14:19:08.008Z</time>
      </trkpt>
      <trkpt lat="43.05067" lon="0.79142">
        <ele>431</ele>
        <time>2019-04-22T14:19:09.008Z</time>
      </trkpt>
      <trkpt lat="43.05066" lon="0.79136">
        <ele>431</ele>
        <time>2019-04-22T14:19:10.008Z</time>
      </trkpt>
      <trkpt lat="43.05065" lon="0.7913">
        <ele>431</ele>
        <time>2019-04-22T14:19:11.008Z</time>
      </trkpt>
      <trkpt lat="43.05064" lon="0.79123">
        <ele>431</ele>
        <time>2019-04-22T14:19:12.008Z</time>
      </trkpt>
      <trkpt lat="43.05063" lon="0.79117">
        <ele>431</ele>
        <time>2019-04-22T14:19:13.008Z</time>
      </trkpt>
      <trkpt lat="43.05062" lon="0.79111">
        <ele>431</ele>
        <time>2019-04-22T14:19:14.008Z</time>
      </trkpt>
      <trkpt lat="43.05061" lon="0.79105">
        <ele>431</ele>
        <time>2019-04-22T14:19:15.008Z</time>
      </trkpt>
      <trkpt lat="43.0506" lon="0.79099">
        <ele>431</ele>
        <time>2019-04-22T14:19:16.008Z</time>
      </trkpt>
      <trkpt lat="43.05059" lon="0.79093">
        <ele>431</ele>
        <time>2019-04-22T14:19:17.008Z</time>
      </trkpt>
      <trkpt lat="43.05058" lon="0.79087">
        <ele>431</ele>
        <time>2019-04-22T14:19:18.008Z</time>
      </trkpt>
      <trkpt lat="43.05056" lon="0.79081">
        <ele>431</ele>
        <time>2019-04-22T14:19:19.008Z</time>
      </trkpt>
      <trkpt lat="43.05055" lon="0.79075">
        <ele>431</ele>
        <time>2019-04-22T14:19:20.008Z</time>
      </trkpt>
      <trkpt lat="43.05053" lon="0.79064">
        <ele>431</ele>
        <time>2019-04-22T14:19:22.008Z</time>
      </trkpt>
      <trkpt lat="43.05052" lon="0.79058">
        <ele>431</ele>
        <time>2019-04-22T14:19:23.008Z</time>
      </trkpt>
      <trkpt lat="43.05051" lon="0.79052">
        <ele>431</ele>
        <time>2019-04-22T14:19:24.008Z</time>
      </trkpt>
      <trkpt lat="43.05049" lon="0.79045">
        <ele>431</ele>
        <time>2019-04-22T14:19:25.008Z</time>
      </trkpt>
      <trkpt lat="43.05048" lon="0.79039">
        <ele>431</ele>
        <time>2019-04-22T14:19:26.008Z</time>
      </trkpt>
      <trkpt lat="43.05046" lon="0.79027">
        <ele>431</ele>
        <time>2019-04-22T14:19:28.008Z</time>
      </trkpt>
      <trkpt lat="43.05043" lon="0.79014">
        <ele>431</ele>
        <time>2019-04-22T14:19:30.008Z</time>
      </trkpt>
      <trkpt lat="43.0504" lon="0.79003">
        <ele>431</ele>
        <time>2019-04-22T14:19:32.008Z</time>
      </trkpt>
      <trkpt lat="43.05038" lon="0.78991">
        <ele>431</ele>
        <time>2019-04-22T14:19:34.008Z</time>
      </trkpt>
      <trkpt lat="43.05036" lon="0.7898">
        <ele>431</ele>
        <time>2019-04-22T14:19:36.008Z</time>
      </trkpt>
      <trkpt lat="43.05033" lon="0.78967">
        <ele>431</ele>
        <time>2019-04-22T14:19:38.008Z</time>
      </trkpt>
      <trkpt lat="43.05031" lon="0.78952">
        <ele>431</ele>
        <time>2019-04-22T14:19:40.008Z</time>
      </trkpt>
      <trkpt lat="43.0503" lon="0.78937">
        <ele>429.84356267505</ele>
        <time>2019-04-22T14:19:42.008Z</time>
      </trkpt>
      <trkpt lat="43.05033" lon="0.78921">
        <ele>429</ele>
        <time>2019-04-22T14:19:44.008Z</time>
      </trkpt>
      <trkpt lat="43.05041" lon="0.78912">
        <ele>429</ele>
        <time>2019-04-22T14:19:46.008Z</time>
      </trkpt>
      <trkpt lat="43.05047" lon="0.78906">
        <ele>429</ele>
        <time>2019-04-22T14:19:48.008Z</time>
      </trkpt>
      <trkpt lat="43.0505" lon="0.78891">
        <ele>426</ele>
        <time>2019-04-22T14:19:57.008Z</time>
      </trkpt>
      <trkpt lat="43.05047" lon="0.78883">
        <ele>426</ele>
        <time>2019-04-22T14:19:59.008Z</time>
      </trkpt>
      <trkpt lat="43.05044" lon="0.78873">
        <ele>426.1580032</ele>
        <time>2019-04-22T14:20:01.008Z</time>
      </trkpt>
      <trkpt lat="43.05042" lon="0.78869">
        <ele>427</ele>
        <time>2019-04-22T14:20:02.008Z</time>
      </trkpt>
      <trkpt lat="43.05041" lon="0.78864">
        <ele>427</ele>
        <time>2019-04-22T14:20:03.008Z</time>
      </trkpt>
      <trkpt lat="43.05037" lon="0.78854">
        <ele>427</ele>
        <time>2019-04-22T14:20:05.008Z</time>
      </trkpt>
      <trkpt lat="43.05035" lon="0.78849">
        <ele>427</ele>
        <time>2019-04-22T14:20:06.008Z</time>
      </trkpt>
      <trkpt lat="43.05034" lon="0.78844">
        <ele>427</ele>
        <time>2019-04-22T14:20:07.008Z</time>
      </trkpt>
      <trkpt lat="43.0503" lon="0.78833">
        <ele>427</ele>
        <time>2019-04-22T14:20:09.008Z</time>
      </trkpt>
      <trkpt lat="43.05027" lon="0.78824">
        <ele>427</ele>
        <time>2019-04-22T14:20:11.008Z</time>
      </trkpt>
      <trkpt lat="43.05025" lon="0.78819">
        <ele>427</ele>
        <time>2019-04-22T14:20:12.008Z</time>
      </trkpt>
      <trkpt lat="43.05023" lon="0.78814">
        <ele>427</ele>
        <time>2019-04-22T14:20:13.008Z</time>
      </trkpt>
      <trkpt lat="43.0502" lon="0.78805">
        <ele>427</ele>
        <time>2019-04-22T14:20:15.008Z</time>
      </trkpt>
      <trkpt lat="43.05018" lon="0.788">
        <ele>427</ele>
        <time>2019-04-22T14:20:16.008Z</time>
      </trkpt>
      <trkpt lat="43.05016" lon="0.78795">
        <ele>427</ele>
        <time>2019-04-22T14:20:17.008Z</time>
      </trkpt>
      <trkpt lat="43.05014" lon="0.78789">
        <ele>427</ele>
        <time>2019-04-22T14:20:18.008Z</time>
      </trkpt>
      <trkpt lat="43.05013" lon="0.78783">
        <ele>427</ele>
        <time>2019-04-22T14:20:19.008Z</time>
      </trkpt>
      <trkpt lat="43.05011" lon="0.78777">
        <ele>427</ele>
        <time>2019-04-22T14:20:20.008Z</time>
      </trkpt>
      <trkpt lat="43.0501" lon="0.78771">
        <ele>427</ele>
        <time>2019-04-22T14:20:21.008Z</time>
      </trkpt>
      <trkpt lat="43.05008" lon="0.78765">
        <ele>427</ele>
        <time>2019-04-22T14:20:22.008Z</time>
      </trkpt>
      <trkpt lat="43.05006" lon="0.78759">
        <ele>427</ele>
        <time>2019-04-22T14:20:23.008Z</time>
      </trkpt>
      <trkpt lat="43.05005" lon="0.78753">
        <ele>427</ele>
        <time>2019-04-22T14:20:24.008Z</time>
      </trkpt>
      <trkpt lat="43.05003" lon="0.78747">
        <ele>427</ele>
        <time>2019-04-22T14:20:25.008Z</time>
      </trkpt>
      <trkpt lat="43.05002" lon="0.7874">
        <ele>427</ele>
        <time>2019-04-22T14:20:26.008Z</time>
      </trkpt>
      <trkpt lat="43.05001" lon="0.78734">
        <ele>427</ele>
        <time>2019-04-22T14:20:27.008Z</time>
      </trkpt>
      <trkpt lat="43.05" lon="0.78728">
        <ele>427</ele>
        <time>2019-04-22T14:20:28.008Z</time>
      </trkpt>
      <trkpt lat="43.04999" lon="0.78721">
        <ele>427</ele>
        <time>2019-04-22T14:20:29.008Z</time>
      </trkpt>
      <trkpt lat="43.04998" lon="0.78715">
        <ele>427</ele>
        <time>2019-04-22T14:20:30.008Z</time>
      </trkpt>
      <trkpt lat="43.04997" lon="0.78708">
        <ele>427</ele>
        <time>2019-04-22T14:20:31.008Z</time>
      </trkpt>
      <trkpt lat="43.04996" lon="0.78701">
        <ele>427</ele>
        <time>2019-04-22T14:20:32.008Z</time>
      </trkpt>
      <trkpt lat="43.04995" lon="0.78695">
        <ele>427</ele>
        <time>2019-04-22T14:20:33.008Z</time>
      </trkpt>
      <trkpt lat="43.04993" lon="0.78688">
        <ele>427</ele>
        <time>2019-04-22T14:20:34.008Z</time>
      </trkpt>
      <trkpt lat="43.04992" lon="0.78682">
        <ele>427</ele>
        <time>2019-04-22T14:20:35.008Z</time>
      </trkpt>
      <trkpt lat="43.04991" lon="0.78675">
        <ele>427</ele>
        <time>2019-04-22T14:20:36.008Z</time>
      </trkpt>
      <trkpt lat="43.0499" lon="0.78668">
        <ele>427</ele>
        <time>2019-04-22T14:20:37.008Z</time>
      </trkpt>
      <trkpt lat="43.04988" lon="0.7866">
        <ele>427</ele>
        <time>2019-04-22T14:20:38.008Z</time>
      </trkpt>
      <trkpt lat="43.04986" lon="0.78653">
        <ele>427</ele>
        <time>2019-04-22T14:20:39.008Z</time>
      </trkpt>
      <trkpt lat="43.04985" lon="0.78647">
        <ele>427</ele>
        <time>2019-04-22T14:20:40.008Z</time>
      </trkpt>
      <trkpt lat="43.04985" lon="0.78642">
        <ele>427</ele>
        <time>2019-04-22T14:20:41.008Z</time>
      </trkpt>
      <trkpt lat="43.04984" lon="0.78637">
        <ele>427</ele>
        <time>2019-04-22T14:20:42.008Z</time>
      </trkpt>
      <trkpt lat="43.04982" lon="0.78628">
        <ele>427</ele>
        <time>2019-04-22T14:20:44.008Z</time>
      </trkpt>
      <trkpt lat="43.04982" lon="0.78623">
        <ele>427</ele>
        <time>2019-04-22T14:20:45.008Z</time>
      </trkpt>
      <trkpt lat="43.04981" lon="0.78618">
        <ele>427</ele>
        <time>2019-04-22T14:20:46.008Z</time>
      </trkpt>
      <trkpt lat="43.0498" lon="0.78612">
        <ele>427</ele>
        <time>2019-04-22T14:20:47.008Z</time>
      </trkpt>
      <trkpt lat="43.04979" lon="0.78606">
        <ele>427</ele>
        <time>2019-04-22T14:20:48.008Z</time>
      </trkpt>
      <trkpt lat="43.04978" lon="0.786">
        <ele>427</ele>
        <time>2019-04-22T14:20:49.008Z</time>
      </trkpt>
      <trkpt lat="43.04977" lon="0.78594">
        <ele>427</ele>
        <time>2019-04-22T14:20:50.008Z</time>
      </trkpt>
      <trkpt lat="43.04977" lon="0.78587">
        <ele>426.8419968</ele>
        <time>2019-04-22T14:20:51.008Z</time>
      </trkpt>
      <trkpt lat="43.04976" lon="0.78581">
        <ele>426</ele>
        <time>2019-04-22T14:20:52.008Z</time>
      </trkpt>
      <trkpt lat="43.04975" lon="0.78568">
        <ele>426</ele>
        <time>2019-04-22T14:20:54.008Z</time>
      </trkpt>
      <trkpt lat="43.04975" lon="0.78561">
        <ele>426</ele>
        <time>2019-04-22T14:20:55.008Z</time>
      </trkpt>
      <trkpt lat="43.04974" lon="0.78555">
        <ele>426</ele>
        <time>2019-04-22T14:20:56.008Z</time>
      </trkpt>
      <trkpt lat="43.04973" lon="0.78548">
        <ele>426</ele>
        <time>2019-04-22T14:20:57.008Z</time>
      </trkpt>
      <trkpt lat="43.04973" lon="0.78542">
        <ele>426</ele>
        <time>2019-04-22T14:20:58.008Z</time>
      </trkpt>
      <trkpt lat="43.04972" lon="0.78535">
        <ele>426</ele>
        <time>2019-04-22T14:20:59.008Z</time>
      </trkpt>
      <trkpt lat="43.04972" lon="0.78529">
        <ele>426</ele>
        <time>2019-04-22T14:21:00.008Z</time>
      </trkpt>
      <trkpt lat="43.04971" lon="0.78522">
        <ele>425.6839936</ele>
        <time>2019-04-22T14:21:01.008Z</time>
      </trkpt>
      <trkpt lat="43.0497" lon="0.78516">
        <ele>424</ele>
        <time>2019-04-22T14:21:02.008Z</time>
      </trkpt>
      <trkpt lat="43.04969" lon="0.78509">
        <ele>424</ele>
        <time>2019-04-22T14:21:03.008Z</time>
      </trkpt>
      <trkpt lat="43.04969" lon="0.78503">
        <ele>424</ele>
        <time>2019-04-22T14:21:04.008Z</time>
      </trkpt>
      <trkpt lat="43.04968" lon="0.78496">
        <ele>424</ele>
        <time>2019-04-22T14:21:05.008Z</time>
      </trkpt>
      <trkpt lat="43.04968" lon="0.7849">
        <ele>424</ele>
        <time>2019-04-22T14:21:06.008Z</time>
      </trkpt>
      <trkpt lat="43.04967" lon="0.78484">
        <ele>424</ele>
        <time>2019-04-22T14:21:07.008Z</time>
      </trkpt>
      <trkpt lat="43.04966" lon="0.78477">
        <ele>424</ele>
        <time>2019-04-22T14:21:08.008Z</time>
      </trkpt>
      <trkpt lat="43.04966" lon="0.78471">
        <ele>424</ele>
        <time>2019-04-22T14:21:09.008Z</time>
      </trkpt>
      <trkpt lat="43.04965" lon="0.78465">
        <ele>424</ele>
        <time>2019-04-22T14:21:10.008Z</time>
      </trkpt>
      <trkpt lat="43.04965" lon="0.78458">
        <ele>423.8419968</ele>
        <time>2019-04-22T14:21:11.008Z</time>
      </trkpt>
      <trkpt lat="43.04964" lon="0.78452">
        <ele>423</ele>
        <time>2019-04-22T14:21:12.008Z</time>
      </trkpt>
      <trkpt lat="43.04964" lon="0.78446">
        <ele>423</ele>
        <time>2019-04-22T14:21:13.008Z</time>
      </trkpt>
      <trkpt lat="43.04963" lon="0.78439">
        <ele>423</ele>
        <time>2019-04-22T14:21:14.008Z</time>
      </trkpt>
      <trkpt lat="43.04962" lon="0.78426">
        <ele>423</ele>
        <time>2019-04-22T14:21:16.008Z</time>
      </trkpt>
      <trkpt lat="43.04961" lon="0.7842">
        <ele>423</ele>
        <time>2019-04-22T14:21:17.008Z</time>
      </trkpt>
      <trkpt lat="43.0496" lon="0.78413">
        <ele>423</ele>
        <time>2019-04-22T14:21:18.008Z</time>
      </trkpt>
      <trkpt lat="43.0496" lon="0.78406">
        <ele>423</ele>
        <time>2019-04-22T14:21:19.008Z</time>
      </trkpt>
      <trkpt lat="43.04959" lon="0.78399">
        <ele>423</ele>
        <time>2019-04-22T14:21:20.008Z</time>
      </trkpt>
      <trkpt lat="43.04959" lon="0.78392">
        <ele>422.8419968</ele>
        <time>2019-04-22T14:21:21.008Z</time>
      </trkpt>
      <trkpt lat="43.04958" lon="0.78385">
        <ele>422</ele>
        <time>2019-04-22T14:21:22.008Z</time>
      </trkpt>
      <trkpt lat="43.04958" lon="0.78378">
        <ele>422</ele>
        <time>2019-04-22T14:21:23.008Z</time>
      </trkpt>
      <trkpt lat="43.04958" lon="0.78371">
        <ele>422</ele>
        <time>2019-04-22T14:21:24.008Z</time>
      </trkpt>
      <trkpt lat="43.04957" lon="0.78365">
        <ele>422</ele>
        <time>2019-04-22T14:21:25.008Z</time>
      </trkpt>
      <trkpt lat="43.04955" lon="0.78359">
        <ele>422</ele>
        <time>2019-04-22T14:21:26.008Z</time>
      </trkpt>
      <trkpt lat="43.04953" lon="0.78354">
        <ele>422</ele>
        <time>2019-04-22T14:21:27.008Z</time>
      </trkpt>
      <trkpt lat="43.04951" lon="0.78349">
        <ele>422</ele>
        <time>2019-04-22T14:21:28.008Z</time>
      </trkpt>
      <trkpt lat="43.04947" lon="0.78345">
        <ele>422</ele>
        <time>2019-04-22T14:21:29.008Z</time>
      </trkpt>
      <trkpt lat="43.04943" lon="0.78344">
        <ele>422</ele>
        <time>2019-04-22T14:21:30.008Z</time>
      </trkpt>
      <trkpt lat="43.04939" lon="0.78344">
        <ele>422</ele>
        <time>2019-04-22T14:21:31.008Z</time>
      </trkpt>
      <trkpt lat="43.04935" lon="0.78345">
        <ele>422</ele>
        <time>2019-04-22T14:21:32.008Z</time>
      </trkpt>
      <trkpt lat="43.04931" lon="0.78346">
        <ele>422</ele>
        <time>2019-04-22T14:21:33.008Z</time>
      </trkpt>
      <trkpt lat="43.04927" lon="0.78347">
        <ele>422</ele>
        <time>2019-04-22T14:21:34.008Z</time>
      </trkpt>
      <trkpt lat="43.04922" lon="0.78347">
        <ele>422</ele>
        <time>2019-04-22T14:21:35.008Z</time>
      </trkpt>
      <trkpt lat="43.04918" lon="0.78348">
        <ele>422</ele>
        <time>2019-04-22T14:21:36.008Z</time>
      </trkpt>
      <trkpt lat="43.04914" lon="0.78348">
        <ele>422</ele>
        <time>2019-04-22T14:21:37.008Z</time>
      </trkpt>
      <trkpt lat="43.0491" lon="0.78348">
        <ele>422</ele>
        <time>2019-04-22T14:21:38.008Z</time>
      </trkpt>
      <trkpt lat="43.04906" lon="0.78349">
        <ele>422</ele>
        <time>2019-04-22T14:21:39.008Z</time>
      </trkpt>
      <trkpt lat="43.04902" lon="0.78349">
        <ele>422</ele>
        <time>2019-04-22T14:21:40.008Z</time>
      </trkpt>
      <trkpt lat="43.04898" lon="0.78349">
        <ele>422.3160064</ele>
        <time>2019-04-22T14:21:41.008Z</time>
      </trkpt>
      <trkpt lat="43.04889" lon="0.78351">
        <ele>424</ele>
        <time>2019-04-22T14:21:43.008Z</time>
      </trkpt>
      <trkpt lat="43.04885" lon="0.78352">
        <ele>424</ele>
        <time>2019-04-22T14:21:44.008Z</time>
      </trkpt>
      <trkpt lat="43.04881" lon="0.78353">
        <ele>424</ele>
        <time>2019-04-22T14:21:45.008Z</time>
      </trkpt>
      <trkpt lat="43.04877" lon="0.78353">
        <ele>424</ele>
        <time>2019-04-22T14:21:46.008Z</time>
      </trkpt>
      <trkpt lat="43.04873" lon="0.78353">
        <ele>424</ele>
        <time>2019-04-22T14:21:47.008Z</time>
      </trkpt>
      <trkpt lat="43.04869" lon="0.78353">
        <ele>424</ele>
        <time>2019-04-22T14:21:48.008Z</time>
      </trkpt>
      <trkpt lat="43.04865" lon="0.78353">
        <ele>424</ele>
        <time>2019-04-22T14:21:49.008Z</time>
      </trkpt>
      <trkpt lat="43.04861" lon="0.78353">
        <ele>424</ele>
        <time>2019-04-22T14:21:50.008Z</time>
      </trkpt>
      <trkpt lat="43.04857" lon="0.78352">
        <ele>424</ele>
        <time>2019-04-22T14:21:51.008Z</time>
      </trkpt>
      <trkpt lat="43.04853" lon="0.78352">
        <ele>424</ele>
        <time>2019-04-22T14:21:52.008Z</time>
      </trkpt>
      <trkpt lat="43.04845" lon="0.7835">
        <ele>424</ele>
        <time>2019-04-22T14:21:54.008Z</time>
      </trkpt>
      <trkpt lat="43.04841" lon="0.78349">
        <ele>424</ele>
        <time>2019-04-22T14:21:55.008Z</time>
      </trkpt>
      <trkpt lat="43.04833" lon="0.78346">
        <ele>424</ele>
        <time>2019-04-22T14:21:57.008Z</time>
      </trkpt>
      <trkpt lat="43.04825" lon="0.78342">
        <ele>424</ele>
        <time>2019-04-22T14:21:59.008Z</time>
      </trkpt>
      <trkpt lat="43.04817" lon="0.78338">
        <ele>424</ele>
        <time>2019-04-22T14:22:01.008Z</time>
      </trkpt>
      <trkpt lat="43.0481" lon="0.78334">
        <ele>424</ele>
        <time>2019-04-22T14:22:03.008Z</time>
      </trkpt>
      <trkpt lat="43.04802" lon="0.78329">
        <ele>424</ele>
        <time>2019-04-22T14:22:05.008Z</time>
      </trkpt>
      <trkpt lat="43.04794" lon="0.78325">
        <ele>424</ele>
        <time>2019-04-22T14:22:07.008Z</time>
      </trkpt>
      <trkpt lat="43.04791" lon="0.78323">
        <ele>424</ele>
        <time>2019-04-22T14:22:08.008Z</time>
      </trkpt>
      <trkpt lat="43.04787" lon="0.78321">
        <ele>424</ele>
        <time>2019-04-22T14:22:09.008Z</time>
      </trkpt>
      <trkpt lat="43.04783" lon="0.78319">
        <ele>424</ele>
        <time>2019-04-22T14:22:10.008Z</time>
      </trkpt>
      <trkpt lat="43.04779" lon="0.78317">
        <ele>424</ele>
        <time>2019-04-22T14:22:11.008Z</time>
      </trkpt>
      <trkpt lat="43.04775" lon="0.78315">
        <ele>424</ele>
        <time>2019-04-22T14:22:12.008Z</time>
      </trkpt>
      <trkpt lat="43.04771" lon="0.78313">
        <ele>424</ele>
        <time>2019-04-22T14:22:13.008Z</time>
      </trkpt>
      <trkpt lat="43.04767" lon="0.78311">
        <ele>424</ele>
        <time>2019-04-22T14:22:14.008Z</time>
      </trkpt>
      <trkpt lat="43.04763" lon="0.7831">
        <ele>424</ele>
        <time>2019-04-22T14:22:15.008Z</time>
      </trkpt>
      <trkpt lat="43.04754" lon="0.78311">
        <ele>424</ele>
        <time>2019-04-22T14:22:17.008Z</time>
      </trkpt>
      <trkpt lat="43.0475" lon="0.78315">
        <ele>424</ele>
        <time>2019-04-22T14:22:18.008Z</time>
      </trkpt>
      <trkpt lat="43.04747" lon="0.7832">
        <ele>424</ele>
        <time>2019-04-22T14:22:19.008Z</time>
      </trkpt>
      <trkpt lat="43.04745" lon="0.78325">
        <ele>424</ele>
        <time>2019-04-22T14:22:20.008Z</time>
      </trkpt>
      <trkpt lat="43.04743" lon="0.7833">
        <ele>424</ele>
        <time>2019-04-22T14:22:21.008Z</time>
      </trkpt>
      <trkpt lat="43.04741" lon="0.78336">
        <ele>424</ele>
        <time>2019-04-22T14:22:22.008Z</time>
      </trkpt>
      <trkpt lat="43.0474" lon="0.78341">
        <ele>424</ele>
        <time>2019-04-22T14:22:23.008Z</time>
      </trkpt>
      <trkpt lat="43.04738" lon="0.78347">
        <ele>424</ele>
        <time>2019-04-22T14:22:24.008Z</time>
      </trkpt>
      <trkpt lat="43.04736" lon="0.78352">
        <ele>424</ele>
        <time>2019-04-22T14:22:25.008Z</time>
      </trkpt>
      <trkpt lat="43.04735" lon="0.78358">
        <ele>424</ele>
        <time>2019-04-22T14:22:26.008Z</time>
      </trkpt>
      <trkpt lat="43.04733" lon="0.78363">
        <ele>424</ele>
        <time>2019-04-22T14:22:27.008Z</time>
      </trkpt>
      <trkpt lat="43.04731" lon="0.78368">
        <ele>424</ele>
        <time>2019-04-22T14:22:28.008Z</time>
      </trkpt>
      <trkpt lat="43.0473" lon="0.78374">
        <ele>424</ele>
        <time>2019-04-22T14:22:29.008Z</time>
      </trkpt>
      <trkpt lat="43.04728" lon="0.78379">
        <ele>424</ele>
        <time>2019-04-22T14:22:30.008Z</time>
      </trkpt>
      <trkpt lat="43.04727" lon="0.78383">
        <ele>424.1580032</ele>
        <time>2019-04-22T14:22:31.008Z</time>
      </trkpt>
      <trkpt lat="43.04725" lon="0.78388">
        <ele>425</ele>
        <time>2019-04-22T14:22:32.008Z</time>
      </trkpt>
      <trkpt lat="43.04723" lon="0.78392">
        <ele>425</ele>
        <time>2019-04-22T14:22:33.008Z</time>
      </trkpt>
      <trkpt lat="43.04722" lon="0.78397">
        <ele>425</ele>
        <time>2019-04-22T14:22:34.008Z</time>
      </trkpt>
      <trkpt lat="43.0472" lon="0.78401">
        <ele>425</ele>
        <time>2019-04-22T14:22:35.008Z</time>
      </trkpt>
      <trkpt lat="43.04718" lon="0.78406">
        <ele>425</ele>
        <time>2019-04-22T14:22:36.008Z</time>
      </trkpt>
      <trkpt lat="43.04716" lon="0.7841">
        <ele>425</ele>
        <time>2019-04-22T14:22:37.008Z</time>
      </trkpt>
      <trkpt lat="43.04715" lon="0.78414">
        <ele>425</ele>
        <time>2019-04-22T14:22:38.008Z</time>
      </trkpt>
      <trkpt lat="43.04713" lon="0.78418">
        <ele>425</ele>
        <time>2019-04-22T14:22:39.008Z</time>
      </trkpt>
      <trkpt lat="43.04711" lon="0.78422">
        <ele>425</ele>
        <time>2019-04-22T14:22:40.008Z</time>
      </trkpt>
      <trkpt lat="43.04709" lon="0.78427">
        <ele>425.3160064</ele>
        <time>2019-04-22T14:22:41.008Z</time>
      </trkpt>
      <trkpt lat="43.04708" lon="0.78431">
        <ele>427</ele>
        <time>2019-04-22T14:22:42.008Z</time>
      </trkpt>
      <trkpt lat="43.04706" lon="0.78435">
        <ele>427</ele>
        <time>2019-04-22T14:22:43.008Z</time>
      </trkpt>
      <trkpt lat="43.04704" lon="0.78438">
        <ele>427</ele>
        <time>2019-04-22T14:22:44.008Z</time>
      </trkpt>
      <trkpt lat="43.04702" lon="0.78442">
        <ele>427</ele>
        <time>2019-04-22T14:22:45.008Z</time>
      </trkpt>
      <trkpt lat="43.047" lon="0.78446">
        <ele>427</ele>
        <time>2019-04-22T14:22:46.008Z</time>
      </trkpt>
      <trkpt lat="43.04698" lon="0.78449">
        <ele>427</ele>
        <time>2019-04-22T14:22:47.008Z</time>
      </trkpt>
      <trkpt lat="43.04695" lon="0.78452">
        <ele>427</ele>
        <time>2019-04-22T14:22:48.008Z</time>
      </trkpt>
      <trkpt lat="43.04693" lon="0.78455">
        <ele>427</ele>
        <time>2019-04-22T14:22:49.008Z</time>
      </trkpt>
      <trkpt lat="43.0469" lon="0.78458">
        <ele>427</ele>
        <time>2019-04-22T14:22:50.008Z</time>
      </trkpt>
      <trkpt lat="43.04688" lon="0.7846">
        <ele>427.3160064</ele>
        <time>2019-04-22T14:22:51.008Z</time>
      </trkpt>
      <trkpt lat="43.04685" lon="0.78463">
        <ele>429</ele>
        <time>2019-04-22T14:22:52.008Z</time>
      </trkpt>
      <trkpt lat="43.04682" lon="0.78466">
        <ele>429</ele>
        <time>2019-04-22T14:22:53.008Z</time>
      </trkpt>
      <trkpt lat="43.0468" lon="0.78469">
        <ele>429</ele>
        <time>2019-04-22T14:22:54.008Z</time>
      </trkpt>
      <trkpt lat="43.04675" lon="0.78475">
        <ele>429</ele>
        <time>2019-04-22T14:22:56.008Z</time>
      </trkpt>
      <trkpt lat="43.0467" lon="0.78482">
        <ele>429</ele>
        <time>2019-04-22T14:22:58.008Z</time>
      </trkpt>
      <trkpt lat="43.04665" lon="0.78489">
        <ele>429</ele>
        <time>2019-04-22T14:23:00.008Z</time>
      </trkpt>
      <trkpt lat="43.04661" lon="0.78496">
        <ele>430</ele>
        <time>2019-04-22T14:23:02.008Z</time>
      </trkpt>
      <trkpt lat="43.04657" lon="0.78503">
        <ele>430</ele>
        <time>2019-04-22T14:23:04.008Z</time>
      </trkpt>
      <trkpt lat="43.04652" lon="0.7851">
        <ele>430</ele>
        <time>2019-04-22T14:23:06.008Z</time>
      </trkpt>
      <trkpt lat="43.04648" lon="0.78517">
        <ele>430</ele>
        <time>2019-04-22T14:23:08.008Z</time>
      </trkpt>
      <trkpt lat="43.04644" lon="0.78524">
        <ele>430</ele>
        <time>2019-04-22T14:23:10.008Z</time>
      </trkpt>
      <trkpt lat="43.04639" lon="0.78531">
        <ele>432</ele>
        <time>2019-04-22T14:23:12.008Z</time>
      </trkpt>
      <trkpt lat="43.04635" lon="0.78539">
        <ele>432</ele>
        <time>2019-04-22T14:23:14.008Z</time>
      </trkpt>
      <trkpt lat="43.04631" lon="0.78546">
        <ele>432</ele>
        <time>2019-04-22T14:23:16.008Z</time>
      </trkpt>
      <trkpt lat="43.04627" lon="0.78553">
        <ele>432</ele>
        <time>2019-04-22T14:23:18.008Z</time>
      </trkpt>
      <trkpt lat="43.04625" lon="0.78556">
        <ele>432</ele>
        <time>2019-04-22T14:23:19.008Z</time>
      </trkpt>
      <trkpt lat="43.04622" lon="0.7856">
        <ele>432</ele>
        <time>2019-04-22T14:23:20.008Z</time>
      </trkpt>
      <trkpt lat="43.0462" lon="0.78563">
        <ele>432.3160064</ele>
        <time>2019-04-22T14:23:21.008Z</time>
      </trkpt>
      <trkpt lat="43.04619" lon="0.78567">
        <ele>434</ele>
        <time>2019-04-22T14:23:22.008Z</time>
      </trkpt>
      <trkpt lat="43.04617" lon="0.7857">
        <ele>434</ele>
        <time>2019-04-22T14:23:23.008Z</time>
      </trkpt>
      <trkpt lat="43.04615" lon="0.78574">
        <ele>434</ele>
        <time>2019-04-22T14:23:24.008Z</time>
      </trkpt>
      <trkpt lat="43.04613" lon="0.78578">
        <ele>434</ele>
        <time>2019-04-22T14:23:25.008Z</time>
      </trkpt>
      <trkpt lat="43.04612" lon="0.78582">
        <ele>434</ele>
        <time>2019-04-22T14:23:26.008Z</time>
      </trkpt>
      <trkpt lat="43.0461" lon="0.78586">
        <ele>434</ele>
        <time>2019-04-22T14:23:27.008Z</time>
      </trkpt>
      <trkpt lat="43.04608" lon="0.78595">
        <ele>434</ele>
        <time>2019-04-22T14:23:29.008Z</time>
      </trkpt>
      <trkpt lat="43.04608" lon="0.78599">
        <ele>434</ele>
        <time>2019-04-22T14:23:30.008Z</time>
      </trkpt>
      <trkpt lat="43.04608" lon="0.78604">
        <ele>434.3160064</ele>
        <time>2019-04-22T14:23:31.008Z</time>
      </trkpt>
      <trkpt lat="43.04608" lon="0.78608">
        <ele>436</ele>
        <time>2019-04-22T14:23:32.008Z</time>
      </trkpt>
      <trkpt lat="43.04608" lon="0.78611">
        <ele>436</ele>
        <time>2019-04-22T14:23:33.008Z</time>
      </trkpt>
      <trkpt lat="43.04608" lon="0.78615">
        <ele>436</ele>
        <time>2019-04-22T14:23:34.008Z</time>
      </trkpt>
      <trkpt lat="43.04608" lon="0.78619">
        <ele>436</ele>
        <time>2019-04-22T14:23:35.008Z</time>
      </trkpt>
      <trkpt lat="43.04608" lon="0.78622">
        <ele>436</ele>
        <time>2019-04-22T14:23:36.008Z</time>
      </trkpt>
      <trkpt lat="43.04609" lon="0.78626">
        <ele>436</ele>
        <time>2019-04-22T14:23:37.008Z</time>
      </trkpt>
      <trkpt lat="43.04609" lon="0.78629">
        <ele>436</ele>
        <time>2019-04-22T14:23:38.008Z</time>
      </trkpt>
      <trkpt lat="43.04609" lon="0.78633">
        <ele>436</ele>
        <time>2019-04-22T14:23:39.008Z</time>
      </trkpt>
      <trkpt lat="43.04609" lon="0.78636">
        <ele>436</ele>
        <time>2019-04-22T14:23:40.008Z</time>
      </trkpt>
      <trkpt lat="43.04608" lon="0.78643">
        <ele>437</ele>
        <time>2019-04-22T14:23:42.008Z</time>
      </trkpt>
      <trkpt lat="43.04606" lon="0.7865">
        <ele>437</ele>
        <time>2019-04-22T14:23:44.008Z</time>
      </trkpt>
      <trkpt lat="43.04603" lon="0.78657">
        <ele>437</ele>
        <time>2019-04-22T14:23:46.008Z</time>
      </trkpt>
      <trkpt lat="43.04598" lon="0.78663">
        <ele>437</ele>
        <time>2019-04-22T14:23:48.008Z</time>
      </trkpt>
      <trkpt lat="43.04593" lon="0.78667">
        <ele>437</ele>
        <time>2019-04-22T14:23:50.008Z</time>
      </trkpt>
      <trkpt lat="43.04581" lon="0.78673">
        <ele>437</ele>
        <time>2019-04-22T14:23:54.008Z</time>
      </trkpt>
      <trkpt lat="43.04574" lon="0.78676">
        <ele>437</ele>
        <time>2019-04-22T14:23:56.008Z</time>
      </trkpt>
      <trkpt lat="43.04568" lon="0.78679">
        <ele>437</ele>
        <time>2019-04-22T14:23:58.008Z</time>
      </trkpt>
      <trkpt lat="43.04562" lon="0.78682">
        <ele>437</ele>
        <time>2019-04-22T14:24:00.008Z</time>
      </trkpt>
      <trkpt lat="43.04553" lon="0.78687">
        <ele>438</ele>
        <time>2019-04-22T14:24:03.008Z</time>
      </trkpt>
      <trkpt lat="43.04548" lon="0.78691">
        <ele>438</ele>
        <time>2019-04-22T14:24:05.008Z</time>
      </trkpt>
      <trkpt lat="43.04542" lon="0.78697">
        <ele>438</ele>
        <time>2019-04-22T14:24:07.008Z</time>
      </trkpt>
      <trkpt lat="43.04538" lon="0.78703">
        <ele>438</ele>
        <time>2019-04-22T14:24:09.008Z</time>
      </trkpt>
      <trkpt lat="43.04533" lon="0.78709">
        <ele>438.3160064</ele>
        <time>2019-04-22T14:24:11.008Z</time>
      </trkpt>
      <trkpt lat="43.04529" lon="0.78715">
        <ele>440</ele>
        <time>2019-04-22T14:24:13.008Z</time>
      </trkpt>
      <trkpt lat="43.04524" lon="0.78721">
        <ele>440</ele>
        <time>2019-04-22T14:24:15.008Z</time>
      </trkpt>
      <trkpt lat="43.04518" lon="0.78731">
        <ele>440</ele>
        <time>2019-04-22T14:24:18.008Z</time>
      </trkpt>
      <trkpt lat="43.04515" lon="0.78738">
        <ele>440</ele>
        <time>2019-04-22T14:24:20.008Z</time>
      </trkpt>
      <trkpt lat="43.0451" lon="0.78746">
        <ele>442</ele>
        <time>2019-04-22T14:24:22.008Z</time>
      </trkpt>
      <trkpt lat="43.04508" lon="0.7875">
        <ele>442</ele>
        <time>2019-04-22T14:24:23.008Z</time>
      </trkpt>
      <trkpt lat="43.04506" lon="0.78754">
        <ele>442</ele>
        <time>2019-04-22T14:24:24.008Z</time>
      </trkpt>
      <trkpt lat="43.04504" lon="0.78758">
        <ele>442</ele>
        <time>2019-04-22T14:24:25.008Z</time>
      </trkpt>
      <trkpt lat="43.04502" lon="0.78762">
        <ele>442</ele>
        <time>2019-04-22T14:24:26.008Z</time>
      </trkpt>
      <trkpt lat="43.045" lon="0.78765">
        <ele>442</ele>
        <time>2019-04-22T14:24:27.008Z</time>
      </trkpt>
      <trkpt lat="43.04498" lon="0.78769">
        <ele>442</ele>
        <time>2019-04-22T14:24:28.008Z</time>
      </trkpt>
      <trkpt lat="43.04496" lon="0.78773">
        <ele>442</ele>
        <time>2019-04-22T14:24:29.008Z</time>
      </trkpt>
      <trkpt lat="43.04494" lon="0.78777">
        <ele>442</ele>
        <time>2019-04-22T14:24:30.008Z</time>
      </trkpt>
      <trkpt lat="43.04493" lon="0.78781">
        <ele>442</ele>
        <time>2019-04-22T14:24:31.008Z</time>
      </trkpt>
      <trkpt lat="43.0449" lon="0.7879">
        <ele>442</ele>
        <time>2019-04-22T14:24:33.008Z</time>
      </trkpt>
      <trkpt lat="43.04486" lon="0.78798">
        <ele>442</ele>
        <time>2019-04-22T14:24:35.008Z</time>
      </trkpt>
      <trkpt lat="43.04483" lon="0.78806">
        <ele>442</ele>
        <time>2019-04-22T14:24:37.008Z</time>
      </trkpt>
      <trkpt lat="43.04482" lon="0.7881">
        <ele>442</ele>
        <time>2019-04-22T14:24:38.008Z</time>
      </trkpt>
      <trkpt lat="43.04479" lon="0.78819">
        <ele>442</ele>
        <time>2019-04-22T14:24:40.008Z</time>
      </trkpt>
      <trkpt lat="43.04477" lon="0.78823">
        <ele>442.3160064</ele>
        <time>2019-04-22T14:24:41.008Z</time>
      </trkpt>
      <trkpt lat="43.04475" lon="0.78831">
        <ele>444</ele>
        <time>2019-04-22T14:24:43.008Z</time>
      </trkpt>
      <trkpt lat="43.04473" lon="0.78838">
        <ele>444</ele>
        <time>2019-04-22T14:24:45.008Z</time>
      </trkpt>
      <trkpt lat="43.0447" lon="0.78846">
        <ele>444</ele>
        <time>2019-04-22T14:24:47.008Z</time>
      </trkpt>
      <trkpt lat="43.04467" lon="0.78855">
        <ele>444</ele>
        <time>2019-04-22T14:24:49.008Z</time>
      </trkpt>
      <trkpt lat="43.04465" lon="0.78862">
        <ele>444.3160064</ele>
        <time>2019-04-22T14:24:51.008Z</time>
      </trkpt>
      <trkpt lat="43.04463" lon="0.78869">
        <ele>446</ele>
        <time>2019-04-22T14:24:53.008Z</time>
      </trkpt>
      <trkpt lat="43.04461" lon="0.78877">
        <ele>446</ele>
        <time>2019-04-22T14:24:55.008Z</time>
      </trkpt>
      <trkpt lat="43.04459" lon="0.78885">
        <ele>446</ele>
        <time>2019-04-22T14:24:57.008Z</time>
      </trkpt>
      <trkpt lat="43.04455" lon="0.78896">
        <ele>446</ele>
        <time>2019-04-22T14:25:00.008Z</time>
      </trkpt>
      <trkpt lat="43.04451" lon="0.7891">
        <ele>447</ele>
        <time>2019-04-22T14:25:03.008Z</time>
      </trkpt>
      <trkpt lat="43.04447" lon="0.78923">
        <ele>447</ele>
        <time>2019-04-22T14:25:06.008Z</time>
      </trkpt>
      <trkpt lat="43.04444" lon="0.78932">
        <ele>447</ele>
        <time>2019-04-22T14:25:08.008Z</time>
      </trkpt>
      <trkpt lat="43.04441" lon="0.78947">
        <ele>447.15643930753</ele>
        <time>2019-04-22T14:25:11.008Z</time>
      </trkpt>
      <trkpt lat="43.04438" lon="0.78958">
        <ele>448</ele>
        <time>2019-04-22T14:25:13.008Z</time>
      </trkpt>
      <trkpt lat="43.04436" lon="0.78968">
        <ele>448</ele>
        <time>2019-04-22T14:25:15.008Z</time>
      </trkpt>
      <trkpt lat="43.04433" lon="0.78978">
        <ele>448</ele>
        <time>2019-04-22T14:25:17.008Z</time>
      </trkpt>
      <trkpt lat="43.0443" lon="0.78987">
        <ele>448</ele>
        <time>2019-04-22T14:25:19.008Z</time>
      </trkpt>
      <trkpt lat="43.04427" lon="0.78997">
        <ele>448.1580032</ele>
        <time>2019-04-22T14:25:21.008Z</time>
      </trkpt>
      <trkpt lat="43.04425" lon="0.79006">
        <ele>449</ele>
        <time>2019-04-22T14:25:23.008Z</time>
      </trkpt>
      <trkpt lat="43.04422" lon="0.79014">
        <ele>449</ele>
        <time>2019-04-22T14:25:25.008Z</time>
      </trkpt>
      <trkpt lat="43.04419" lon="0.79023">
        <ele>449</ele>
        <time>2019-04-22T14:25:27.008Z</time>
      </trkpt>
      <trkpt lat="43.04417" lon="0.79031">
        <ele>449</ele>
        <time>2019-04-22T14:25:29.008Z</time>
      </trkpt>
      <trkpt lat="43.04415" lon="0.79038">
        <ele>449.1580032</ele>
        <time>2019-04-22T14:25:31.008Z</time>
      </trkpt>
      <trkpt lat="43.04414" lon="0.79046">
        <ele>450</ele>
        <time>2019-04-22T14:25:33.008Z</time>
      </trkpt>
      <trkpt lat="43.04413" lon="0.79054">
        <ele>450</ele>
        <time>2019-04-22T14:25:35.008Z</time>
      </trkpt>
      <trkpt lat="43.04411" lon="0.79064">
        <ele>450</ele>
        <time>2019-04-22T14:25:38.008Z</time>
      </trkpt>
      <trkpt lat="43.04407" lon="0.79075">
        <ele>450.3160064</ele>
        <time>2019-04-22T14:25:41.008Z</time>
      </trkpt>
      <trkpt lat="43.04405" lon="0.79082">
        <ele>452</ele>
        <time>2019-04-22T14:25:43.008Z</time>
      </trkpt>
      <trkpt lat="43.04402" lon="0.79094">
        <ele>452</ele>
        <time>2019-04-22T14:25:46.008Z</time>
      </trkpt>
      <trkpt lat="43.04398" lon="0.79101">
        <ele>452</ele>
        <time>2019-04-22T14:25:48.008Z</time>
      </trkpt>
      <trkpt lat="43.04395" lon="0.79108">
        <ele>452</ele>
        <time>2019-04-22T14:25:50.008Z</time>
      </trkpt>
      <trkpt lat="43.04392" lon="0.79115">
        <ele>454</ele>
        <time>2019-04-22T14:25:52.008Z</time>
      </trkpt>
      <trkpt lat="43.0439" lon="0.79122">
        <ele>454</ele>
        <time>2019-04-22T14:25:54.008Z</time>
      </trkpt>
      <trkpt lat="43.04387" lon="0.7913">
        <ele>454</ele>
        <time>2019-04-22T14:25:56.008Z</time>
      </trkpt>
      <trkpt lat="43.04384" lon="0.79137">
        <ele>454</ele>
        <time>2019-04-22T14:25:58.008Z</time>
      </trkpt>
      <trkpt lat="43.04381" lon="0.79144">
        <ele>454</ele>
        <time>2019-04-22T14:26:00.008Z</time>
      </trkpt>
      <trkpt lat="43.04377" lon="0.79151">
        <ele>455</ele>
        <time>2019-04-22T14:26:02.008Z</time>
      </trkpt>
      <trkpt lat="43.04374" lon="0.79158">
        <ele>455</ele>
        <time>2019-04-22T14:26:04.008Z</time>
      </trkpt>
      <trkpt lat="43.0437" lon="0.79165">
        <ele>455</ele>
        <time>2019-04-22T14:26:06.008Z</time>
      </trkpt>
      <trkpt lat="43.04367" lon="0.79171">
        <ele>455</ele>
        <time>2019-04-22T14:26:08.008Z</time>
      </trkpt>
      <trkpt lat="43.04363" lon="0.79178">
        <ele>455</ele>
        <time>2019-04-22T14:26:10.008Z</time>
      </trkpt>
      <trkpt lat="43.04359" lon="0.79184">
        <ele>455</ele>
        <time>2019-04-22T14:26:12.008Z</time>
      </trkpt>
      <trkpt lat="43.04355" lon="0.79191">
        <ele>455</ele>
        <time>2019-04-22T14:26:14.008Z</time>
      </trkpt>
      <trkpt lat="43.04351" lon="0.79198">
        <ele>455</ele>
        <time>2019-04-22T14:26:16.008Z</time>
      </trkpt>
      <trkpt lat="43.04348" lon="0.79205">
        <ele>455</ele>
        <time>2019-04-22T14:26:18.008Z</time>
      </trkpt>
      <trkpt lat="43.04344" lon="0.79212">
        <ele>455</ele>
        <time>2019-04-22T14:26:20.008Z</time>
      </trkpt>
      <trkpt lat="43.04342" lon="0.79219">
        <ele>457</ele>
        <time>2019-04-22T14:26:22.008Z</time>
      </trkpt>
      <trkpt lat="43.04339" lon="0.79226">
        <ele>457</ele>
        <time>2019-04-22T14:26:24.008Z</time>
      </trkpt>
      <trkpt lat="43.04337" lon="0.79233">
        <ele>457</ele>
        <time>2019-04-22T14:26:26.008Z</time>
      </trkpt>
      <trkpt lat="43.04337" lon="0.79241">
        <ele>457</ele>
        <time>2019-04-22T14:26:28.008Z</time>
      </trkpt>
      <trkpt lat="43.04336" lon="0.79247">
        <ele>457</ele>
        <time>2019-04-22T14:26:30.008Z</time>
      </trkpt>
      <trkpt lat="43.04336" lon="0.79257">
        <ele>459</ele>
        <time>2019-04-22T14:26:33.008Z</time>
      </trkpt>
      <trkpt lat="43.04337" lon="0.79266">
        <ele>459</ele>
        <time>2019-04-22T14:26:36.008Z</time>
      </trkpt>
      <trkpt lat="43.04337" lon="0.79276">
        <ele>459</ele>
        <time>2019-04-22T14:26:40.008Z</time>
      </trkpt>
      <trkpt lat="43.04337" lon="0.79285">
        <ele>462</ele>
        <time>2019-04-22T14:26:43.008Z</time>
      </trkpt>
      <trkpt lat="43.04338" lon="0.79294">
        <ele>464</ele>
        <time>2019-04-22T14:26:47.008Z</time>
      </trkpt>
      <trkpt lat="43.0434" lon="0.79302">
        <ele>464</ele>
        <time>2019-04-22T14:26:50.008Z</time>
      </trkpt>
      <trkpt lat="43.04339" lon="0.79311">
        <ele>465</ele>
        <time>2019-04-22T14:26:53.008Z</time>
      </trkpt>
      <trkpt lat="43.04339" lon="0.79323">
        <ele>466</ele>
        <time>2019-04-22T14:26:58.008Z</time>
      </trkpt>
      <trkpt lat="43.04338" lon="0.79333">
        <ele>466</ele>
        <time>2019-04-22T14:27:01.008Z</time>
      </trkpt>
      <trkpt lat="43.04336" lon="0.79343">
        <ele>466</ele>
        <time>2019-04-22T14:27:04.008Z</time>
      </trkpt>
      <trkpt lat="43.04336" lon="0.79354">
        <ele>466</ele>
        <time>2019-04-22T14:27:07.008Z</time>
      </trkpt>
      <trkpt lat="43.04332" lon="0.79365">
        <ele>466.1580032</ele>
        <time>2019-04-22T14:27:11.008Z</time>
      </trkpt>
      <trkpt lat="43.04325" lon="0.79372">
        <ele>467</ele>
        <time>2019-04-22T14:27:15.008Z</time>
      </trkpt>
      <trkpt lat="43.0432" lon="0.7938">
        <ele>467</ele>
        <time>2019-04-22T14:27:19.008Z</time>
      </trkpt>
      <trkpt lat="43.04317" lon="0.79391">
        <ele>469</ele>
        <time>2019-04-22T14:27:24.008Z</time>
      </trkpt>
      <trkpt lat="43.04316" lon="0.79401">
        <ele>469</ele>
        <time>2019-04-22T14:27:30.008Z</time>
      </trkpt>
      <trkpt lat="43.04316" lon="0.79412">
        <ele>473.3160064</ele>
        <time>2019-04-22T14:27:36.008Z</time>
      </trkpt>
      <trkpt lat="43.04322" lon="0.79419">
        <ele>475</ele>
        <time>2019-04-22T14:27:40.008Z</time>
      </trkpt>
      <trkpt lat="43.04326" lon="0.79427">
        <ele>476</ele>
        <time>2019-04-22T14:27:44.008Z</time>
      </trkpt>
      <trkpt lat="43.04333" lon="0.79433">
        <ele>477</ele>
        <time>2019-04-22T14:27:48.008Z</time>
      </trkpt>
      <trkpt lat="43.04338" lon="0.79443">
        <ele>479</ele>
        <time>2019-04-22T14:27:53.008Z</time>
      </trkpt>
      <trkpt lat="43.0434" lon="0.79452">
        <ele>479</ele>
        <time>2019-04-22T14:27:57.008Z</time>
      </trkpt>
      <trkpt lat="43.04345" lon="0.79461">
        <ele>479.1580032</ele>
        <time>2019-04-22T14:28:01.008Z</time>
      </trkpt>
      <trkpt lat="43.04346" lon="0.7947">
        <ele>480</ele>
        <time>2019-04-22T14:28:05.008Z</time>
      </trkpt>
      <trkpt lat="43.0435" lon="0.7948">
        <ele>480</ele>
        <time>2019-04-22T14:28:10.008Z</time>
      </trkpt>
      <trkpt lat="43.04354" lon="0.7949">
        <ele>482</ele>
        <time>2019-04-22T14:28:14.008Z</time>
      </trkpt>
      <trkpt lat="43.04353" lon="0.79498">
        <ele>482</ele>
        <time>2019-04-22T14:28:17.008Z</time>
      </trkpt>
      <trkpt lat="43.04357" lon="0.79507">
        <ele>482.3160064</ele>
        <time>2019-04-22T14:28:21.008Z</time>
      </trkpt>
      <trkpt lat="43.04358" lon="0.79517">
        <ele>484</ele>
        <time>2019-04-22T14:28:25.008Z</time>
      </trkpt>
      <trkpt lat="43.0436" lon="0.79527">
        <ele>484</ele>
        <time>2019-04-22T14:28:29.008Z</time>
      </trkpt>
      <trkpt lat="43.04362" lon="0.79534">
        <ele>486</ele>
        <time>2019-04-22T14:28:32.008Z</time>
      </trkpt>
      <trkpt lat="43.04363" lon="0.79544">
        <ele>486.3160064</ele>
        <time>2019-04-22T14:28:36.008Z</time>
      </trkpt>
      <trkpt lat="43.04364" lon="0.79552">
        <ele>488</ele>
        <time>2019-04-22T14:28:39.008Z</time>
      </trkpt>
      <trkpt lat="43.04365" lon="0.79562">
        <ele>490</ele>
        <time>2019-04-22T14:28:43.008Z</time>
      </trkpt>
      <trkpt lat="43.04366" lon="0.79571">
        <ele>490</ele>
        <time>2019-04-22T14:28:47.008Z</time>
      </trkpt>
      <trkpt lat="43.04367" lon="0.7958">
        <ele>490.3160064</ele>
        <time>2019-04-22T14:28:51.008Z</time>
      </trkpt>
      <trkpt lat="43.0437" lon="0.79589">
        <ele>492</ele>
        <time>2019-04-22T14:28:55.008Z</time>
      </trkpt>
      <trkpt lat="43.04369" lon="0.79598">
        <ele>492</ele>
        <time>2019-04-22T14:28:59.008Z</time>
      </trkpt>
      <trkpt lat="43.0437" lon="0.79607">
        <ele>494</ele>
        <time>2019-04-22T14:29:03.008Z</time>
      </trkpt>
      <trkpt lat="43.04371" lon="0.79616">
        <ele>494</ele>
        <time>2019-04-22T14:29:06.008Z</time>
      </trkpt>
      <trkpt lat="43.04373" lon="0.79624">
        <ele>494</ele>
        <time>2019-04-22T14:29:09.008Z</time>
      </trkpt>
      <trkpt lat="43.04374" lon="0.79632">
        <ele>496</ele>
        <time>2019-04-22T14:29:12.008Z</time>
      </trkpt>
      <trkpt lat="43.04372" lon="0.79642">
        <ele>496</ele>
        <time>2019-04-22T14:29:16.008Z</time>
      </trkpt>
      <trkpt lat="43.0437" lon="0.79649">
        <ele>496</ele>
        <time>2019-04-22T14:29:19.008Z</time>
      </trkpt>
      <trkpt lat="43.04365" lon="0.79655">
        <ele>498</ele>
        <time>2019-04-22T14:29:22.008Z</time>
      </trkpt>
      <trkpt lat="43.04359" lon="0.7966">
        <ele>498</ele>
        <time>2019-04-22T14:29:25.008Z</time>
      </trkpt>
      <trkpt lat="43.04352" lon="0.79663">
        <ele>498</ele>
        <time>2019-04-22T14:29:30.008Z</time>
      </trkpt>
      <trkpt lat="43.04346" lon="0.79665">
        <ele>499</ele>
        <time>2019-04-22T14:29:34.008Z</time>
      </trkpt>
      <trkpt lat="43.0434" lon="0.79663">
        <ele>499</ele>
        <time>2019-04-22T14:29:38.008Z</time>
      </trkpt>
      <trkpt lat="43.04336" lon="0.79659">
        <ele>502</ele>
        <time>2019-04-22T14:29:42.008Z</time>
      </trkpt>
      <trkpt lat="43.04332" lon="0.79654">
        <ele>502</ele>
        <time>2019-04-22T14:29:45.008Z</time>
      </trkpt>
      <trkpt lat="43.04326" lon="0.79653">
        <ele>504</ele>
        <time>2019-04-22T14:29:49.008Z</time>
      </trkpt>
      <trkpt lat="43.04322" lon="0.79659">
        <ele>505</ele>
        <time>2019-04-22T14:29:53.008Z</time>
      </trkpt>
      <trkpt lat="43.04317" lon="0.79663">
        <ele>505.3160064</ele>
        <time>2019-04-22T14:29:56.008Z</time>
      </trkpt>
      <trkpt lat="43.04314" lon="0.79669">
        <ele>507</ele>
        <time>2019-04-22T14:29:59.008Z</time>
      </trkpt>
      <trkpt lat="43.0431" lon="0.79677">
        <ele>508</ele>
        <time>2019-04-22T14:30:03.008Z</time>
      </trkpt>
      <trkpt lat="43.04306" lon="0.79684">
        <ele>510</ele>
        <time>2019-04-22T14:30:07.008Z</time>
      </trkpt>
      <trkpt lat="43.04303" lon="0.7969">
        <ele>510</ele>
        <time>2019-04-22T14:30:10.008Z</time>
      </trkpt>
      <trkpt lat="43.04299" lon="0.79698">
        <ele>510</ele>
        <time>2019-04-22T14:30:13.008Z</time>
      </trkpt>
      <trkpt lat="43.04296" lon="0.79705">
        <ele>510.1580032</ele>
        <time>2019-04-22T14:30:16.008Z</time>
      </trkpt>
      <trkpt lat="43.04293" lon="0.79714">
        <ele>511</ele>
        <time>2019-04-22T14:30:20.008Z</time>
      </trkpt>
      <trkpt lat="43.04291" lon="0.79723">
        <ele>511</ele>
        <time>2019-04-22T14:30:24.008Z</time>
      </trkpt>
      <trkpt lat="43.04289" lon="0.79733">
        <ele>511</ele>
        <time>2019-04-22T14:30:27.008Z</time>
      </trkpt>
      <trkpt lat="43.04287" lon="0.79742">
        <ele>511</ele>
        <time>2019-04-22T14:30:30.008Z</time>
      </trkpt>
      <trkpt lat="43.04283" lon="0.79751">
        <ele>512</ele>
        <time>2019-04-22T14:30:33.008Z</time>
      </trkpt>
      <trkpt lat="43.0428" lon="0.79757">
        <ele>512</ele>
        <time>2019-04-22T14:30:36.008Z</time>
      </trkpt>
      <trkpt lat="43.04277" lon="0.79764">
        <ele>512</ele>
        <time>2019-04-22T14:30:38.008Z</time>
      </trkpt>
      <trkpt lat="43.04273" lon="0.7977">
        <ele>512.4740096</ele>
        <time>2019-04-22T14:30:41.008Z</time>
      </trkpt>
      <trkpt lat="43.04268" lon="0.79776">
        <ele>515</ele>
        <time>2019-04-22T14:30:45.008Z</time>
      </trkpt>
      <trkpt lat="43.04262" lon="0.79783">
        <ele>517</ele>
        <time>2019-04-22T14:30:50.008Z</time>
      </trkpt>
      <trkpt lat="43.04256" lon="0.79789">
        <ele>518</ele>
        <time>2019-04-22T14:30:54.008Z</time>
      </trkpt>
      <trkpt lat="43.04251" lon="0.79796">
        <ele>520</ele>
        <time>2019-04-22T14:30:58.008Z</time>
      </trkpt>
      <trkpt lat="43.04246" lon="0.79801">
        <ele>522</ele>
        <time>2019-04-22T14:31:02.008Z</time>
      </trkpt>
      <trkpt lat="43.0424" lon="0.79806">
        <ele>522</ele>
        <time>2019-04-22T14:31:05.008Z</time>
      </trkpt>
      <trkpt lat="43.04235" lon="0.79812">
        <ele>523</ele>
        <time>2019-04-22T14:31:09.008Z</time>
      </trkpt>
      <trkpt lat="43.04229" lon="0.7982">
        <ele>525</ele>
        <time>2019-04-22T14:31:13.008Z</time>
      </trkpt>
      <trkpt lat="43.04222" lon="0.79825">
        <ele>525</ele>
        <time>2019-04-22T14:31:17.008Z</time>
      </trkpt>
      <trkpt lat="43.04214" lon="0.7983">
        <ele>525.1580032</ele>
        <time>2019-04-22T14:31:21.008Z</time>
      </trkpt>
      <trkpt lat="43.04207" lon="0.79832">
        <ele>526</ele>
        <time>2019-04-22T14:31:25.008Z</time>
      </trkpt>
      <trkpt lat="43.04201" lon="0.79834">
        <ele>526</ele>
        <time>2019-04-22T14:31:28.008Z</time>
      </trkpt>
      <trkpt lat="43.04196" lon="0.79836">
        <ele>526</ele>
        <time>2019-04-22T14:31:30.008Z</time>
      </trkpt>
      <trkpt lat="43.04188" lon="0.79839">
        <ele>527</ele>
        <time>2019-04-22T14:31:33.008Z</time>
      </trkpt>
      <trkpt lat="43.04179" lon="0.79842">
        <ele>527</ele>
        <time>2019-04-22T14:31:36.008Z</time>
      </trkpt>
      <trkpt lat="43.04174" lon="0.79843">
        <ele>527</ele>
        <time>2019-04-22T14:31:38.008Z</time>
      </trkpt>
      <trkpt lat="43.04167" lon="0.79845">
        <ele>527.3160064</ele>
        <time>2019-04-22T14:31:41.008Z</time>
      </trkpt>
      <trkpt lat="43.04161" lon="0.79847">
        <ele>529</ele>
        <time>2019-04-22T14:31:44.008Z</time>
      </trkpt>
      <trkpt lat="43.04155" lon="0.79851">
        <ele>529</ele>
        <time>2019-04-22T14:31:47.008Z</time>
      </trkpt>
      <trkpt lat="43.04148" lon="0.79855">
        <ele>529</ele>
        <time>2019-04-22T14:31:50.008Z</time>
      </trkpt>
      <trkpt lat="43.04137" lon="0.79859">
        <ele>531</ele>
        <time>2019-04-22T14:31:55.008Z</time>
      </trkpt>
      <trkpt lat="43.04128" lon="0.79863">
        <ele>531</ele>
        <time>2019-04-22T14:31:59.008Z</time>
      </trkpt>
      <trkpt lat="43.04119" lon="0.79868">
        <ele>533</ele>
        <time>2019-04-22T14:32:03.008Z</time>
      </trkpt>
      <trkpt lat="43.04112" lon="0.79873">
        <ele>533</ele>
        <time>2019-04-22T14:32:06.008Z</time>
      </trkpt>
      <trkpt lat="43.04103" lon="0.79879">
        <ele>534</ele>
        <time>2019-04-22T14:32:12.008Z</time>
      </trkpt>
      <trkpt lat="43.04094" lon="0.79887">
        <ele>534</ele>
        <time>2019-04-22T14:32:16.008Z</time>
      </trkpt>
      <trkpt lat="43.04086" lon="0.79896">
        <ele>534.3160064</ele>
        <time>2019-04-22T14:32:21.008Z</time>
      </trkpt>
      <trkpt lat="43.04078" lon="0.79905">
        <ele>536</ele>
        <time>2019-04-22T14:32:25.008Z</time>
      </trkpt>
      <trkpt lat="43.04069" lon="0.79915">
        <ele>536</ele>
        <time>2019-04-22T14:32:29.008Z</time>
      </trkpt>
      <trkpt lat="43.04062" lon="0.79925">
        <ele>537</ele>
        <time>2019-04-22T14:32:33.008Z</time>
      </trkpt>
      <trkpt lat="43.04053" lon="0.79935">
        <ele>537</ele>
        <time>2019-04-22T14:32:38.008Z</time>
      </trkpt>
      <trkpt lat="43.04047" lon="0.79944">
        <ele>539</ele>
        <time>2019-04-22T14:32:42.008Z</time>
      </trkpt>
      <trkpt lat="43.04041" lon="0.79953">
        <ele>539</ele>
        <time>2019-04-22T14:32:46.008Z</time>
      </trkpt>
      <trkpt lat="43.04033" lon="0.79962">
        <ele>539.1580032</ele>
        <time>2019-04-22T14:32:51.008Z</time>
      </trkpt>
      <trkpt lat="43.04027" lon="0.79971">
        <ele>540</ele>
        <time>2019-04-22T14:32:55.008Z</time>
      </trkpt>
      <trkpt lat="43.04021" lon="0.79978">
        <ele>540</ele>
        <time>2019-04-22T14:32:59.008Z</time>
      </trkpt>
      <trkpt lat="43.04014" lon="0.79986">
        <ele>543</ele>
        <time>2019-04-22T14:33:03.008Z</time>
      </trkpt>
      <trkpt lat="43.04005" lon="0.79996">
        <ele>545</ele>
        <time>2019-04-22T14:33:07.008Z</time>
      </trkpt>
      <trkpt lat="43.03997" lon="0.80007">
        <ele>545.1580032</ele>
        <time>2019-04-22T14:33:11.008Z</time>
      </trkpt>
      <trkpt lat="43.03989" lon="0.80016">
        <ele>546.1580032</ele>
        <time>2019-04-22T14:33:16.008Z</time>
      </trkpt>
      <trkpt lat="43.0398" lon="0.80025">
        <ele>547.1580032</ele>
        <time>2019-04-22T14:33:21.008Z</time>
      </trkpt>
      <trkpt lat="43.03971" lon="0.80036">
        <ele>548</ele>
        <time>2019-04-22T14:33:27.008Z</time>
      </trkpt>
      <trkpt lat="43.03966" lon="0.80043">
        <ele>548</ele>
        <time>2019-04-22T14:33:31.008Z</time>
      </trkpt>
      <trkpt lat="43.03961" lon="0.80051">
        <ele>548</ele>
        <time>2019-04-22T14:33:34.008Z</time>
      </trkpt>
      <trkpt lat="43.03955" lon="0.80057">
        <ele>548</ele>
        <time>2019-04-22T14:33:37.008Z</time>
      </trkpt>
      <trkpt lat="43.03948" lon="0.80066">
        <ele>548.3160064</ele>
        <time>2019-04-22T14:33:41.008Z</time>
      </trkpt>
      <trkpt lat="43.03941" lon="0.80073">
        <ele>550</ele>
        <time>2019-04-22T14:33:46.008Z</time>
      </trkpt>
      <trkpt lat="43.03934" lon="0.80081">
        <ele>550</ele>
        <time>2019-04-22T14:33:49.008Z</time>
      </trkpt>
      <trkpt lat="43.03927" lon="0.80086">
        <ele>552</ele>
        <time>2019-04-22T14:33:52.008Z</time>
      </trkpt>
      <trkpt lat="43.03922" lon="0.80092">
        <ele>552</ele>
        <time>2019-04-22T14:33:55.008Z</time>
      </trkpt>
      <trkpt lat="43.03917" lon="0.801">
        <ele>552</ele>
        <time>2019-04-22T14:33:58.008Z</time>
      </trkpt>
      <trkpt lat="43.0391" lon="0.8011">
        <ele>555</ele>
        <time>2019-04-22T14:34:03.008Z</time>
      </trkpt>
      <trkpt lat="43.03906" lon="0.80119">
        <ele>556</ele>
        <time>2019-04-22T14:34:07.008Z</time>
      </trkpt>
      <trkpt lat="43.039" lon="0.80124">
        <ele>556.1580032</ele>
        <time>2019-04-22T14:34:11.008Z</time>
      </trkpt>
      <trkpt lat="43.03894" lon="0.80127">
        <ele>557</ele>
        <time>2019-04-22T14:34:14.008Z</time>
      </trkpt>
      <trkpt lat="43.03888" lon="0.80129">
        <ele>559</ele>
        <time>2019-04-22T14:34:17.008Z</time>
      </trkpt>
      <trkpt lat="43.03882" lon="0.80129">
        <ele>559.3160064</ele>
        <time>2019-04-22T14:34:21.008Z</time>
      </trkpt>
      <trkpt lat="43.03876" lon="0.80131">
        <ele>561</ele>
        <time>2019-04-22T14:34:25.008Z</time>
      </trkpt>
      <trkpt lat="43.03869" lon="0.80136">
        <ele>563</ele>
        <time>2019-04-22T14:34:29.008Z</time>
      </trkpt>
      <trkpt lat="43.03861" lon="0.8014">
        <ele>566</ele>
        <time>2019-04-22T14:34:33.008Z</time>
      </trkpt>
      <trkpt lat="43.03855" lon="0.80142">
        <ele>566</ele>
        <time>2019-04-22T14:34:37.008Z</time>
      </trkpt>
      <trkpt lat="43.03848" lon="0.80144">
        <ele>566</ele>
        <time>2019-04-22T14:34:40.008Z</time>
      </trkpt>
      <trkpt lat="43.03842" lon="0.80147">
        <ele>567</ele>
        <time>2019-04-22T14:34:43.008Z</time>
      </trkpt>
      <trkpt lat="43.03837" lon="0.80149">
        <ele>567</ele>
        <time>2019-04-22T14:34:46.008Z</time>
      </trkpt>
      <trkpt lat="43.03832" lon="0.80152">
        <ele>567</ele>
        <time>2019-04-22T14:34:49.008Z</time>
      </trkpt>
      <trkpt lat="43.03826" lon="0.80154">
        <ele>569</ele>
        <time>2019-04-22T14:34:53.008Z</time>
      </trkpt>
      <trkpt lat="43.03821" lon="0.80158">
        <ele>569</ele>
        <time>2019-04-22T14:34:57.008Z</time>
      </trkpt>
      <trkpt lat="43.03822" lon="0.80165">
        <ele>574</ele>
        <time>2019-04-22T14:35:04.008Z</time>
      </trkpt>
      <trkpt lat="43.03826" lon="0.80169">
        <ele>574</ele>
        <time>2019-04-22T14:35:07.008Z</time>
      </trkpt>
      <trkpt lat="43.03823" lon="0.80167">
        <ele>574</ele>
        <time>2019-04-22T14:36:02.008Z</time>
      </trkpt>
      <trkpt lat="43.0382" lon="0.80162">
        <ele>574</ele>
        <time>2019-04-22T14:36:06.008Z</time>
      </trkpt>
      <trkpt lat="43.03826" lon="0.80154">
        <ele>573.3679872</ele>
        <time>2019-04-22T14:36:11.008Z</time>
      </trkpt>
      <trkpt lat="43.03836" lon="0.80148">
        <ele>570</ele>
        <time>2019-04-22T14:36:13.008Z</time>
      </trkpt>
      <trkpt lat="43.03847" lon="0.80142">
        <ele>570</ele>
        <time>2019-04-22T14:36:15.008Z</time>
      </trkpt>
      <trkpt lat="43.03857" lon="0.8014">
        <ele>567</ele>
        <time>2019-04-22T14:36:18.008Z</time>
      </trkpt>
      <trkpt lat="43.03865" lon="0.80145">
        <ele>567.1580032</ele>
        <time>2019-04-22T14:36:21.008Z</time>
      </trkpt>
      <trkpt lat="43.03869" lon="0.80151">
        <ele>568</ele>
        <time>2019-04-22T14:36:24.008Z</time>
      </trkpt>
      <trkpt lat="43.03873" lon="0.80155">
        <ele>568</ele>
        <time>2019-04-22T14:36:27.008Z</time>
      </trkpt>
      <trkpt lat="43.03873" lon="0.80161">
        <ele>568.4740096</ele>
        <time>2019-04-22T14:36:31.008Z</time>
      </trkpt>
      <trkpt lat="43.03868" lon="0.80165">
        <ele>571.4740096</ele>
        <time>2019-04-22T14:36:36.008Z</time>
      </trkpt>
      <trkpt lat="43.03864" lon="0.80173">
        <ele>575</ele>
        <time>2019-04-22T14:36:42.008Z</time>
      </trkpt>
      <trkpt lat="43.03859" lon="0.8018">
        <ele>575.3160064</ele>
        <time>2019-04-22T14:36:46.008Z</time>
      </trkpt>
      <trkpt lat="43.03855" lon="0.80187">
        <ele>577</ele>
        <time>2019-04-22T14:36:50.008Z</time>
      </trkpt>
      <trkpt lat="43.03851" lon="0.80194">
        <ele>579</ele>
        <time>2019-04-22T14:36:54.008Z</time>
      </trkpt>
      <trkpt lat="43.03852" lon="0.80205">
        <ele>582</ele>
        <time>2019-04-22T14:36:58.008Z</time>
      </trkpt>
      <trkpt lat="43.03849" lon="0.80213">
        <ele>583</ele>
        <time>2019-04-22T14:37:03.008Z</time>
      </trkpt>
      <trkpt lat="43.03846" lon="0.8022">
        <ele>584</ele>
        <time>2019-04-22T14:37:07.008Z</time>
      </trkpt>
      <trkpt lat="43.03843" lon="0.80228">
        <ele>585</ele>
        <time>2019-04-22T14:37:12.008Z</time>
      </trkpt>
      <trkpt lat="43.0384" lon="0.80236">
        <ele>585.1580032</ele>
        <time>2019-04-22T14:37:16.008Z</time>
      </trkpt>
      <trkpt lat="43.03835" lon="0.80243">
        <ele>586</ele>
        <time>2019-04-22T14:37:20.008Z</time>
      </trkpt>
      <trkpt lat="43.03831" lon="0.80249">
        <ele>586</ele>
        <time>2019-04-22T14:37:23.008Z</time>
      </trkpt>
      <trkpt lat="43.03827" lon="0.80259">
        <ele>586</ele>
        <time>2019-04-22T14:37:27.008Z</time>
      </trkpt>
      <trkpt lat="43.03822" lon="0.8027">
        <ele>586</ele>
        <time>2019-04-22T14:37:30.008Z</time>
      </trkpt>
      <trkpt lat="43.03816" lon="0.80283">
        <ele>584</ele>
        <time>2019-04-22T14:37:33.008Z</time>
      </trkpt>
      <trkpt lat="43.03811" lon="0.80293">
        <ele>584</ele>
        <time>2019-04-22T14:37:35.008Z</time>
      </trkpt>
      <trkpt lat="43.03807" lon="0.80303">
        <ele>584</ele>
        <time>2019-04-22T14:37:37.008Z</time>
      </trkpt>
      <trkpt lat="43.03798" lon="0.80317">
        <ele>584</ele>
        <time>2019-04-22T14:37:40.008Z</time>
      </trkpt>
      <trkpt lat="43.03787" lon="0.80327">
        <ele>569.8419968</ele>
        <time>2019-04-22T14:37:43.008Z</time>
      </trkpt>
      <trkpt lat="43.03774" lon="0.80332">
        <ele>566.8419968</ele>
        <time>2019-04-22T14:37:45.008Z</time>
      </trkpt>
      <trkpt lat="43.03755" lon="0.80337">
        <ele>566</ele>
        <time>2019-04-22T14:37:47.008Z</time>
      </trkpt>
      <trkpt lat="43.03741" lon="0.80349">
        <ele>566</ele>
        <time>2019-04-22T14:37:49.008Z</time>
      </trkpt>
      <trkpt lat="43.03729" lon="0.80363">
        <ele>566</ele>
        <time>2019-04-22T14:37:51.008Z</time>
      </trkpt>
      <trkpt lat="43.03721" lon="0.80379">
        <ele>564.8419968</ele>
        <time>2019-04-22T14:37:53.008Z</time>
      </trkpt>
      <trkpt lat="43.03714" lon="0.80396">
        <ele>563</ele>
        <time>2019-04-22T14:37:55.008Z</time>
      </trkpt>
      <trkpt lat="43.03707" lon="0.80414">
        <ele>561.8419968</ele>
        <time>2019-04-22T14:37:57.008Z</time>
      </trkpt>
      <trkpt lat="43.037" lon="0.80429">
        <ele>561</ele>
        <time>2019-04-22T14:37:59.008Z</time>
      </trkpt>
      <trkpt lat="43.03694" lon="0.80445">
        <ele>561</ele>
        <time>2019-04-22T14:38:01.008Z</time>
      </trkpt>
      <trkpt lat="43.03688" lon="0.80463">
        <ele>561</ele>
        <time>2019-04-22T14:38:03.008Z</time>
      </trkpt>
      <trkpt lat="43.03683" lon="0.8048">
        <ele>561</ele>
        <time>2019-04-22T14:38:05.008Z</time>
      </trkpt>
      <trkpt lat="43.03677" lon="0.80501">
        <ele>559</ele>
        <time>2019-04-22T14:38:07.008Z</time>
      </trkpt>
      <trkpt lat="43.03672" lon="0.80523">
        <ele>559</ele>
        <time>2019-04-22T14:38:09.008Z</time>
      </trkpt>
      <trkpt lat="43.03667" lon="0.80544">
        <ele>558.8419968</ele>
        <time>2019-04-22T14:38:11.008Z</time>
      </trkpt>
      <trkpt lat="43.03663" lon="0.80561">
        <ele>558</ele>
        <time>2019-04-22T14:38:13.008Z</time>
      </trkpt>
      <trkpt lat="43.03657" lon="0.80576">
        <ele>558.3160064</ele>
        <time>2019-04-22T14:38:16.008Z</time>
      </trkpt>
      <trkpt lat="43.03655" lon="0.80589">
        <ele>560</ele>
        <time>2019-04-22T14:38:19.008Z</time>
      </trkpt>
      <trkpt lat="43.03652" lon="0.80601">
        <ele>560</ele>
        <time>2019-04-22T14:38:22.008Z</time>
      </trkpt>
      <trkpt lat="43.0365" lon="0.80612">
        <ele>560</ele>
        <time>2019-04-22T14:38:25.008Z</time>
      </trkpt>
      <trkpt lat="43.03648" lon="0.80621">
        <ele>560</ele>
        <time>2019-04-22T14:38:28.008Z</time>
      </trkpt>
      <trkpt lat="43.03646" lon="0.80633">
        <ele>560.3160064</ele>
        <time>2019-04-22T14:38:31.008Z</time>
      </trkpt>
      <trkpt lat="43.03644" lon="0.80644">
        <ele>562</ele>
        <time>2019-04-22T14:38:34.008Z</time>
      </trkpt>
      <trkpt lat="43.03639" lon="0.80656">
        <ele>562</ele>
        <time>2019-04-22T14:38:37.008Z</time>
      </trkpt>
      <trkpt lat="43.03637" lon="0.80667">
        <ele>562</ele>
        <time>2019-04-22T14:38:40.008Z</time>
      </trkpt>
      <trkpt lat="43.03635" lon="0.80679">
        <ele>562</ele>
        <time>2019-04-22T14:38:43.008Z</time>
      </trkpt>
      <trkpt lat="43.03632" lon="0.80692">
        <ele>562</ele>
        <time>2019-04-22T14:38:46.008Z</time>
      </trkpt>
      <trkpt lat="43.03629" lon="0.80702">
        <ele>562</ele>
        <time>2019-04-22T14:38:49.008Z</time>
      </trkpt>
      <trkpt lat="43.03627" lon="0.80714">
        <ele>563</ele>
        <time>2019-04-22T14:38:52.008Z</time>
      </trkpt>
      <trkpt lat="43.03624" lon="0.80723">
        <ele>563</ele>
        <time>2019-04-22T14:38:54.008Z</time>
      </trkpt>
      <trkpt lat="43.03623" lon="0.80732">
        <ele>563</ele>
        <time>2019-04-22T14:38:56.008Z</time>
      </trkpt>
      <trkpt lat="43.03622" lon="0.80741">
        <ele>563</ele>
        <time>2019-04-22T14:38:58.008Z</time>
      </trkpt>
      <trkpt lat="43.03615" lon="0.80749">
        <ele>562.6839936</ele>
        <time>2019-04-22T14:39:01.008Z</time>
      </trkpt>
      <trkpt lat="43.03608" lon="0.80757">
        <ele>561</ele>
        <time>2019-04-22T14:39:03.008Z</time>
      </trkpt>
      <trkpt lat="43.036" lon="0.80766">
        <ele>561</ele>
        <time>2019-04-22T14:39:05.008Z</time>
      </trkpt>
      <trkpt lat="43.03594" lon="0.80774">
        <ele>561</ele>
        <time>2019-04-22T14:39:07.008Z</time>
      </trkpt>
      <trkpt lat="43.03589" lon="0.80786">
        <ele>561</ele>
        <time>2019-04-22T14:39:09.008Z</time>
      </trkpt>
      <trkpt lat="43.03587" lon="0.80803">
        <ele>560.3679872</ele>
        <time>2019-04-22T14:39:11.008Z</time>
      </trkpt>
      <trkpt lat="43.03585" lon="0.80822">
        <ele>557</ele>
        <time>2019-04-22T14:39:13.008Z</time>
      </trkpt>
      <trkpt lat="43.03582" lon="0.80843">
        <ele>557</ele>
        <time>2019-04-22T14:39:15.008Z</time>
      </trkpt>
      <trkpt lat="43.0358" lon="0.80865">
        <ele>553</ele>
        <time>2019-04-22T14:39:17.008Z</time>
      </trkpt>
      <trkpt lat="43.03578" lon="0.80888">
        <ele>553</ele>
        <time>2019-04-22T14:39:19.008Z</time>
      </trkpt>
      <trkpt lat="43.03577" lon="0.809">
        <ele>553</ele>
        <time>2019-04-22T14:39:20.008Z</time>
      </trkpt>
      <trkpt lat="43.03576" lon="0.80912">
        <ele>552.209984</ele>
        <time>2019-04-22T14:39:21.008Z</time>
      </trkpt>
      <trkpt lat="43.03575" lon="0.80925">
        <ele>547.5259904</ele>
        <time>2019-04-22T14:39:22.008Z</time>
      </trkpt>
      <trkpt lat="43.03574" lon="0.80948">
        <ele>543.6839936</ele>
        <time>2019-04-22T14:39:24.008Z</time>
      </trkpt>
      <trkpt lat="43.03573" lon="0.80969">
        <ele>540.8419968</ele>
        <time>2019-04-22T14:39:26.008Z</time>
      </trkpt>
      <trkpt lat="43.03573" lon="0.80988">
        <ele>539</ele>
        <time>2019-04-22T14:39:28.008Z</time>
      </trkpt>
      <trkpt lat="43.03571" lon="0.81001">
        <ele>538</ele>
        <time>2019-04-22T14:39:31.008Z</time>
      </trkpt>
      <trkpt lat="43.03576" lon="0.80995">
        <ele>538.8419968</ele>
        <time>2019-04-22T14:39:41.008Z</time>
      </trkpt>
      <trkpt lat="43.03581" lon="0.80998">
        <ele>540</ele>
        <time>2019-04-22T14:41:12.008Z</time>
      </trkpt>
      <trkpt lat="43.03579" lon="0.81006">
        <ele>540</ele>
        <time>2019-04-22T14:44:30.008Z</time>
      </trkpt>
      <trkpt lat="43.0358" lon="0.81021">
        <ele>538</ele>
        <time>2019-04-22T14:44:33.008Z</time>
      </trkpt>
      <trkpt lat="43.03581" lon="0.81034">
        <ele>538</ele>
        <time>2019-04-22T14:44:35.008Z</time>
      </trkpt>
      <trkpt lat="43.03583" lon="0.81053">
        <ele>538</ele>
        <time>2019-04-22T14:44:37.008Z</time>
      </trkpt>
      <trkpt lat="43.03586" lon="0.81071">
        <ele>538</ele>
        <time>2019-04-22T14:44:39.008Z</time>
      </trkpt>
      <trkpt lat="43.03588" lon="0.81089">
        <ele>536.7359744</ele>
        <time>2019-04-22T14:44:41.008Z</time>
      </trkpt>
      <trkpt lat="43.03591" lon="0.81105">
        <ele>525.8419968</ele>
        <time>2019-04-22T14:44:43.008Z</time>
      </trkpt>
      <trkpt lat="43.03597" lon="0.81121">
        <ele>523.8419968</ele>
        <time>2019-04-22T14:44:45.008Z</time>
      </trkpt>
      <trkpt lat="43.03606" lon="0.81136">
        <ele>522</ele>
        <time>2019-04-22T14:44:47.008Z</time>
      </trkpt>
      <trkpt lat="43.03615" lon="0.81152">
        <ele>520.6839936</ele>
        <time>2019-04-22T14:44:49.008Z</time>
      </trkpt>
      <trkpt lat="43.03627" lon="0.81166">
        <ele>518</ele>
        <time>2019-04-22T14:44:51.008Z</time>
      </trkpt>
      <trkpt lat="43.03637" lon="0.81176">
        <ele>517.8419968</ele>
        <time>2019-04-22T14:44:53.008Z</time>
      </trkpt>
      <trkpt lat="43.03647" lon="0.81186">
        <ele>514.8419968</ele>
        <time>2019-04-22T14:44:56.008Z</time>
      </trkpt>
      <trkpt lat="43.03644" lon="0.81199">
        <ele>511</ele>
        <time>2019-04-22T14:45:03.008Z</time>
      </trkpt>
      <trkpt lat="43.03629" lon="0.812">
        <ele>511</ele>
        <time>2019-04-22T14:45:06.008Z</time>
      </trkpt>
      <trkpt lat="43.03618" lon="0.81195">
        <ele>510.8419968</ele>
        <time>2019-04-22T14:45:08.008Z</time>
      </trkpt>
      <trkpt lat="43.03609" lon="0.8119">
        <ele>509.8419968</ele>
        <time>2019-04-22T14:45:10.008Z</time>
      </trkpt>
      <trkpt lat="43.03598" lon="0.81184">
        <ele>509</ele>
        <time>2019-04-22T14:45:12.008Z</time>
      </trkpt>
      <trkpt lat="43.03586" lon="0.81178">
        <ele>509</ele>
        <time>2019-04-22T14:45:14.008Z</time>
      </trkpt>
      <trkpt lat="43.03575" lon="0.81171">
        <ele>508.3679872</ele>
        <time>2019-04-22T14:45:16.008Z</time>
      </trkpt>
      <trkpt lat="43.03565" lon="0.81158">
        <ele>505</ele>
        <time>2019-04-22T14:45:18.008Z</time>
      </trkpt>
      <trkpt lat="43.03555" lon="0.81146">
        <ele>505</ele>
        <time>2019-04-22T14:45:20.008Z</time>
      </trkpt>
      <trkpt lat="43.03544" lon="0.81132">
        <ele>501.5259904</ele>
        <time>2019-04-22T14:45:22.008Z</time>
      </trkpt>
      <trkpt lat="43.03532" lon="0.81116">
        <ele>498</ele>
        <time>2019-04-22T14:45:24.008Z</time>
      </trkpt>
      <trkpt lat="43.03522" lon="0.81102">
        <ele>497</ele>
        <time>2019-04-22T14:45:26.008Z</time>
      </trkpt>
      <trkpt lat="43.03512" lon="0.8109">
        <ele>496.8419968</ele>
        <time>2019-04-22T14:45:28.008Z</time>
      </trkpt>
      <trkpt lat="43.03505" lon="0.81076">
        <ele>496</ele>
        <time>2019-04-22T14:45:30.008Z</time>
      </trkpt>
      <trkpt lat="43.03498" lon="0.8106">
        <ele>494.8419968</ele>
        <time>2019-04-22T14:45:32.008Z</time>
      </trkpt>
      <trkpt lat="43.03489" lon="0.81045">
        <ele>493.6839936</ele>
        <time>2019-04-22T14:45:34.008Z</time>
      </trkpt>
      <trkpt lat="43.03479" lon="0.81032">
        <ele>491</ele>
        <time>2019-04-22T14:45:36.008Z</time>
      </trkpt>
      <trkpt lat="43.0347" lon="0.81018">
        <ele>489.8419968</ele>
        <time>2019-04-22T14:45:38.008Z</time>
      </trkpt>
      <trkpt lat="43.03462" lon="0.81005">
        <ele>486.8419968</ele>
        <time>2019-04-22T14:45:40.008Z</time>
      </trkpt>
      <trkpt lat="43.03451" lon="0.80989">
        <ele>484.6839936</ele>
        <time>2019-04-22T14:45:43.008Z</time>
      </trkpt>
      <trkpt lat="43.03444" lon="0.80978">
        <ele>482</ele>
        <time>2019-04-22T14:45:45.008Z</time>
      </trkpt>
      <trkpt lat="43.03439" lon="0.80964">
        <ele>480</ele>
        <time>2019-04-22T14:45:47.008Z</time>
      </trkpt>
      <trkpt lat="43.03429" lon="0.80957">
        <ele>477.8419968</ele>
        <time>2019-04-22T14:45:50.008Z</time>
      </trkpt>
      <trkpt lat="43.0342" lon="0.80965">
        <ele>475.8419968</ele>
        <time>2019-04-22T14:45:53.008Z</time>
      </trkpt>
      <trkpt lat="43.03413" lon="0.80979">
        <ele>473.8419968</ele>
        <time>2019-04-22T14:45:55.008Z</time>
      </trkpt>
      <trkpt lat="43.03406" lon="0.80991">
        <ele>471.8419968</ele>
        <time>2019-04-22T14:45:57.008Z</time>
      </trkpt>
      <trkpt lat="43.03402" lon="0.81001">
        <ele>469.8419968</ele>
        <time>2019-04-22T14:45:59.008Z</time>
      </trkpt>
      <trkpt lat="43.03396" lon="0.81012">
        <ele>467.8419968</ele>
        <time>2019-04-22T14:46:01.008Z</time>
      </trkpt>
      <trkpt lat="43.0339" lon="0.81022">
        <ele>466.8419968</ele>
        <time>2019-04-22T14:46:03.008Z</time>
      </trkpt>
      <trkpt lat="43.03385" lon="0.81034">
        <ele>463.8419968</ele>
        <time>2019-04-22T14:46:05.008Z</time>
      </trkpt>
      <trkpt lat="43.03377" lon="0.81048">
        <ele>462</ele>
        <time>2019-04-22T14:46:07.008Z</time>
      </trkpt>
      <trkpt lat="43.03372" lon="0.81066">
        <ele>461.8419968</ele>
        <time>2019-04-22T14:46:09.008Z</time>
      </trkpt>
      <trkpt lat="43.03372" lon="0.81083">
        <ele>460</ele>
        <time>2019-04-22T14:46:11.008Z</time>
      </trkpt>
      <trkpt lat="43.03374" lon="0.81099">
        <ele>458.8419968</ele>
        <time>2019-04-22T14:46:13.008Z</time>
      </trkpt>
      <trkpt lat="43.03382" lon="0.81112">
        <ele>456.8419968</ele>
        <time>2019-04-22T14:46:16.008Z</time>
      </trkpt>
      <trkpt lat="43.03387" lon="0.81124">
        <ele>454.8419968</ele>
        <time>2019-04-22T14:46:19.008Z</time>
      </trkpt>
      <trkpt lat="43.0338" lon="0.81133">
        <ele>450.8419968</ele>
        <time>2019-04-22T14:46:22.008Z</time>
      </trkpt>
      <trkpt lat="43.03367" lon="0.81145">
        <ele>449</ele>
        <time>2019-04-22T14:46:25.008Z</time>
      </trkpt>
      <trkpt lat="43.03355" lon="0.81155">
        <ele>448.8419968</ele>
        <time>2019-04-22T14:46:27.008Z</time>
      </trkpt>
      <trkpt lat="43.03344" lon="0.81161">
        <ele>446.8419968</ele>
        <time>2019-04-22T14:46:29.008Z</time>
      </trkpt>
      <trkpt lat="43.03333" lon="0.81166">
        <ele>446.1580032</ele>
        <time>2019-04-22T14:46:31.008Z</time>
      </trkpt>
      <trkpt lat="43.03327" lon="0.81179">
        <ele>447</ele>
        <time>2019-04-22T14:46:33.008Z</time>
      </trkpt>
      <trkpt lat="43.03325" lon="0.81197">
        <ele>447</ele>
        <time>2019-04-22T14:46:36.008Z</time>
      </trkpt>
      <trkpt lat="43.03315" lon="0.81205">
        <ele>447</ele>
        <time>2019-04-22T14:46:38.008Z</time>
      </trkpt>
      <trkpt lat="43.03305" lon="0.8121">
        <ele>447</ele>
        <time>2019-04-22T14:46:40.008Z</time>
      </trkpt>
      <trkpt lat="43.03297" lon="0.81218">
        <ele>446</ele>
        <time>2019-04-22T14:46:42.008Z</time>
      </trkpt>
      <trkpt lat="43.03288" lon="0.81225">
        <ele>446</ele>
        <time>2019-04-22T14:46:44.008Z</time>
      </trkpt>
      <trkpt lat="43.03276" lon="0.81232">
        <ele>446</ele>
        <time>2019-04-22T14:46:47.008Z</time>
      </trkpt>
      <trkpt lat="43.03266" lon="0.81246">
        <ele>446</ele>
        <time>2019-04-22T14:46:50.008Z</time>
      </trkpt>
      <trkpt lat="43.03263" lon="0.81258">
        <ele>445</ele>
        <time>2019-04-22T14:46:52.008Z</time>
      </trkpt>
      <trkpt lat="43.03258" lon="0.8127">
        <ele>445</ele>
        <time>2019-04-22T14:46:54.008Z</time>
      </trkpt>
      <trkpt lat="43.03252" lon="0.81284">
        <ele>445</ele>
        <time>2019-04-22T14:46:57.008Z</time>
      </trkpt>
      <trkpt lat="43.0325" lon="0.81295">
        <ele>444.6839936</ele>
        <time>2019-04-22T14:47:01.008Z</time>
      </trkpt>
      <trkpt lat="43.03255" lon="0.81303">
        <ele>443</ele>
        <time>2019-04-22T14:47:12.008Z</time>
      </trkpt>
      <trkpt lat="43.03257" lon="0.81312">
        <ele>443</ele>
        <time>2019-04-22T14:47:14.008Z</time>
      </trkpt>
      <trkpt lat="43.03258" lon="0.81325">
        <ele>443</ele>
        <time>2019-04-22T14:47:16.008Z</time>
      </trkpt>
      <trkpt lat="43.03256" lon="0.81341">
        <ele>443</ele>
        <time>2019-04-22T14:47:18.008Z</time>
      </trkpt>
      <trkpt lat="43.03256" lon="0.81359">
        <ele>443</ele>
        <time>2019-04-22T14:47:20.008Z</time>
      </trkpt>
      <trkpt lat="43.03257" lon="0.81374">
        <ele>439</ele>
        <time>2019-04-22T14:47:22.008Z</time>
      </trkpt>
      <trkpt lat="43.03254" lon="0.81392">
        <ele>439</ele>
        <time>2019-04-22T14:47:24.008Z</time>
      </trkpt>
      <trkpt lat="43.03251" lon="0.81412">
        <ele>438.5259904</ele>
        <time>2019-04-22T14:47:26.008Z</time>
      </trkpt>
      <trkpt lat="43.03247" lon="0.81434">
        <ele>436</ele>
        <time>2019-04-22T14:47:28.008Z</time>
      </trkpt>
      <trkpt lat="43.03243" lon="0.81458">
        <ele>436</ele>
        <time>2019-04-22T14:47:30.008Z</time>
      </trkpt>
      <trkpt lat="43.03239" lon="0.81481">
        <ele>432.8419968</ele>
        <time>2019-04-22T14:47:32.008Z</time>
      </trkpt>
      <trkpt lat="43.03236" lon="0.81493">
        <ele>431.8419968</ele>
        <time>2019-04-22T14:47:33.008Z</time>
      </trkpt>
      <trkpt lat="43.03234" lon="0.81506">
        <ele>431</ele>
        <time>2019-04-22T14:47:34.008Z</time>
      </trkpt>
      <trkpt lat="43.03233" lon="0.81518">
        <ele>431</ele>
        <time>2019-04-22T14:47:35.008Z</time>
      </trkpt>
      <trkpt lat="43.03231" lon="0.81531">
        <ele>431</ele>
        <time>2019-04-22T14:47:36.008Z</time>
      </trkpt>
      <trkpt lat="43.03229" lon="0.81543">
        <ele>431</ele>
        <time>2019-04-22T14:47:37.008Z</time>
      </trkpt>
      <trkpt lat="43.03228" lon="0.81554">
        <ele>431</ele>
        <time>2019-04-22T14:47:38.008Z</time>
      </trkpt>
      <trkpt lat="43.03226" lon="0.81565">
        <ele>431</ele>
        <time>2019-04-22T14:47:39.008Z</time>
      </trkpt>
      <trkpt lat="43.03222" lon="0.81585">
        <ele>431</ele>
        <time>2019-04-22T14:47:41.008Z</time>
      </trkpt>
      <trkpt lat="43.03219" lon="0.81604">
        <ele>431</ele>
        <time>2019-04-22T14:47:43.008Z</time>
      </trkpt>
      <trkpt lat="43.0322" lon="0.81624">
        <ele>431</ele>
        <time>2019-04-22T14:47:45.008Z</time>
      </trkpt>
      <trkpt lat="43.03228" lon="0.81643">
        <ele>429</ele>
        <time>2019-04-22T14:47:47.008Z</time>
      </trkpt>
      <trkpt lat="43.03234" lon="0.81652">
        <ele>429</ele>
        <time>2019-04-22T14:47:48.008Z</time>
      </trkpt>
      <trkpt lat="43.0324" lon="0.81662">
        <ele>429</ele>
        <time>2019-04-22T14:47:49.008Z</time>
      </trkpt>
      <trkpt lat="43.03246" lon="0.81671">
        <ele>429</ele>
        <time>2019-04-22T14:47:50.008Z</time>
      </trkpt>
      <trkpt lat="43.03252" lon="0.8168">
        <ele>428.6839936</ele>
        <time>2019-04-22T14:47:51.008Z</time>
      </trkpt>
      <trkpt lat="43.03262" lon="0.81698">
        <ele>427</ele>
        <time>2019-04-22T14:47:53.008Z</time>
      </trkpt>
      <trkpt lat="43.03268" lon="0.81707">
        <ele>427</ele>
        <time>2019-04-22T14:47:54.008Z</time>
      </trkpt>
      <trkpt lat="43.03272" lon="0.81717">
        <ele>427</ele>
        <time>2019-04-22T14:47:55.008Z</time>
      </trkpt>
      <trkpt lat="43.03275" lon="0.81726">
        <ele>426.8419968</ele>
        <time>2019-04-22T14:47:56.008Z</time>
      </trkpt>
      <trkpt lat="43.03276" lon="0.81736">
        <ele>426</ele>
        <time>2019-04-22T14:47:57.008Z</time>
      </trkpt>
      <trkpt lat="43.03274" lon="0.81745">
        <ele>426</ele>
        <time>2019-04-22T14:47:58.008Z</time>
      </trkpt>
      <trkpt lat="43.03271" lon="0.81753">
        <ele>426</ele>
        <time>2019-04-22T14:47:59.008Z</time>
      </trkpt>
      <trkpt lat="43.03267" lon="0.8176">
        <ele>426</ele>
        <time>2019-04-22T14:48:00.008Z</time>
      </trkpt>
      <trkpt lat="43.03263" lon="0.81768">
        <ele>426.14948993445</ele>
        <time>2019-04-22T14:48:01.008Z</time>
      </trkpt>
      <trkpt lat="43.03257" lon="0.81781">
        <ele>427</ele>
        <time>2019-04-22T14:48:03.008Z</time>
      </trkpt>
      <trkpt lat="43.03252" lon="0.81793">
        <ele>427</ele>
        <time>2019-04-22T14:48:05.008Z</time>
      </trkpt>
      <trkpt lat="43.0325" lon="0.81799">
        <ele>427</ele>
        <time>2019-04-22T14:48:06.008Z</time>
      </trkpt>
      <trkpt lat="43.03246" lon="0.8181">
        <ele>427</ele>
        <time>2019-04-22T14:48:08.008Z</time>
      </trkpt>
      <trkpt lat="43.03244" lon="0.8182">
        <ele>427</ele>
        <time>2019-04-22T14:48:10.008Z</time>
      </trkpt>
      <trkpt lat="43.03242" lon="0.81831">
        <ele>431</ele>
        <time>2019-04-22T14:48:12.008Z</time>
      </trkpt>
      <trkpt lat="43.0324" lon="0.8184">
        <ele>431</ele>
        <time>2019-04-22T14:48:14.008Z</time>
      </trkpt>
      <trkpt lat="43.03239" lon="0.81845">
        <ele>431</ele>
        <time>2019-04-22T14:48:15.008Z</time>
      </trkpt>
      <trkpt lat="43.03238" lon="0.81855">
        <ele>433</ele>
        <time>2019-04-22T14:48:17.008Z</time>
      </trkpt>
      <trkpt lat="43.03238" lon="0.81861">
        <ele>433</ele>
        <time>2019-04-22T14:48:19.008Z</time>
      </trkpt>
      <trkpt lat="43.03242" lon="0.81863">
        <ele>435</ele>
        <time>2019-04-22T14:48:22.008Z</time>
      </trkpt>
      <trkpt lat="43.03246" lon="0.81859">
        <ele>435</ele>
        <time>2019-04-22T14:48:24.008Z</time>
      </trkpt>
      <trkpt lat="43.0325" lon="0.81854">
        <ele>435.1580032</ele>
        <time>2019-04-22T14:48:26.008Z</time>
      </trkpt>
      <trkpt lat="43.03253" lon="0.81849">
        <ele>436</ele>
        <time>2019-04-22T14:48:28.008Z</time>
      </trkpt>
      <trkpt lat="43.03258" lon="0.81844">
        <ele>436</ele>
        <time>2019-04-22T14:48:30.008Z</time>
      </trkpt>
      <trkpt lat="43.03262" lon="0.8184">
        <ele>437</ele>
        <time>2019-04-22T14:48:32.008Z</time>
      </trkpt>
      <trkpt lat="43.03267" lon="0.81836">
        <ele>437</ele>
        <time>2019-04-22T14:48:34.008Z</time>
      </trkpt>
      <trkpt lat="43.03272" lon="0.81833">
        <ele>437.1580032</ele>
        <time>2019-04-22T14:48:36.008Z</time>
      </trkpt>
      <trkpt lat="43.03277" lon="0.8183">
        <ele>438</ele>
        <time>2019-04-22T14:48:38.008Z</time>
      </trkpt>
      <trkpt lat="43.03282" lon="0.81828">
        <ele>438</ele>
        <time>2019-04-22T14:48:40.008Z</time>
      </trkpt>
      <trkpt lat="43.03287" lon="0.81829">
        <ele>440</ele>
        <time>2019-04-22T14:48:42.008Z</time>
      </trkpt>
      <trkpt lat="43.0329" lon="0.81835">
        <ele>440</ele>
        <time>2019-04-22T14:48:44.008Z</time>
      </trkpt>
      <trkpt lat="43.03291" lon="0.81842">
        <ele>440.3160064</ele>
        <time>2019-04-22T14:48:46.008Z</time>
      </trkpt>
      <trkpt lat="43.03292" lon="0.81848">
        <ele>442</ele>
        <time>2019-04-22T14:48:48.008Z</time>
      </trkpt>
      <trkpt lat="43.03293" lon="0.81857">
        <ele>442.1580032</ele>
        <time>2019-04-22T14:48:51.008Z</time>
      </trkpt>
      <trkpt lat="43.03297" lon="0.81864">
        <ele>443</ele>
        <time>2019-04-22T14:48:54.008Z</time>
      </trkpt>
      <trkpt lat="43.03301" lon="0.81866">
        <ele>443.1580032</ele>
        <time>2019-04-22T14:48:56.008Z</time>
      </trkpt>
      <trkpt lat="43.03305" lon="0.81867">
        <ele>444</ele>
        <time>2019-04-22T14:48:58.008Z</time>
      </trkpt>
      <trkpt lat="43.0331" lon="0.81867">
        <ele>444</ele>
        <time>2019-04-22T14:49:00.008Z</time>
      </trkpt>
      <trkpt lat="43.03314" lon="0.81866">
        <ele>447</ele>
        <time>2019-04-22T14:49:02.008Z</time>
      </trkpt>
      <trkpt lat="43.03318" lon="0.81864">
        <ele>447</ele>
        <time>2019-04-22T14:49:04.008Z</time>
      </trkpt>
      <trkpt lat="43.03322" lon="0.8186">
        <ele>447.1580032</ele>
        <time>2019-04-22T14:49:06.008Z</time>
      </trkpt>
      <trkpt lat="43.03326" lon="0.81856">
        <ele>448</ele>
        <time>2019-04-22T14:49:08.008Z</time>
      </trkpt>
      <trkpt lat="43.03328" lon="0.8185">
        <ele>448</ele>
        <time>2019-04-22T14:49:10.008Z</time>
      </trkpt>
      <trkpt lat="43.03331" lon="0.81845">
        <ele>449</ele>
        <time>2019-04-22T14:49:12.008Z</time>
      </trkpt>
      <trkpt lat="43.03334" lon="0.8184">
        <ele>449</ele>
        <time>2019-04-22T14:49:14.008Z</time>
      </trkpt>
      <trkpt lat="43.03337" lon="0.81833">
        <ele>449</ele>
        <time>2019-04-22T14:49:17.008Z</time>
      </trkpt>
      <trkpt lat="43.03343" lon="0.81828">
        <ele>449</ele>
        <time>2019-04-22T14:49:20.008Z</time>
      </trkpt>
      <trkpt lat="43.03347" lon="0.81828">
        <ele>450</ele>
        <time>2019-04-22T14:49:22.008Z</time>
      </trkpt>
      <trkpt lat="43.03352" lon="0.81831">
        <ele>450</ele>
        <time>2019-04-22T14:49:24.008Z</time>
      </trkpt>
      <trkpt lat="43.03354" lon="0.81836">
        <ele>450</ele>
        <time>2019-04-22T14:49:26.008Z</time>
      </trkpt>
      <trkpt lat="43.03356" lon="0.81842">
        <ele>450</ele>
        <time>2019-04-22T14:49:28.008Z</time>
      </trkpt>
      <trkpt lat="43.03357" lon="0.81849">
        <ele>450</ele>
        <time>2019-04-22T14:49:30.008Z</time>
      </trkpt>
      <trkpt lat="43.03359" lon="0.81855">
        <ele>453</ele>
        <time>2019-04-22T14:49:32.008Z</time>
      </trkpt>
      <trkpt lat="43.0336" lon="0.81862">
        <ele>453</ele>
        <time>2019-04-22T14:49:34.008Z</time>
      </trkpt>
      <trkpt lat="43.03361" lon="0.81868">
        <ele>453.1580032</ele>
        <time>2019-04-22T14:49:36.008Z</time>
      </trkpt>
      <trkpt lat="43.03362" lon="0.81875">
        <ele>454</ele>
        <time>2019-04-22T14:49:38.008Z</time>
      </trkpt>
      <trkpt lat="43.03362" lon="0.81881">
        <ele>454</ele>
        <time>2019-04-22T14:49:40.008Z</time>
      </trkpt>
      <trkpt lat="43.03363" lon="0.81888">
        <ele>455</ele>
        <time>2019-04-22T14:49:42.008Z</time>
      </trkpt>
      <trkpt lat="43.03365" lon="0.81894">
        <ele>455</ele>
        <time>2019-04-22T14:49:44.008Z</time>
      </trkpt>
      <trkpt lat="43.03366" lon="0.81901">
        <ele>455.1580032</ele>
        <time>2019-04-22T14:49:46.008Z</time>
      </trkpt>
      <trkpt lat="43.03367" lon="0.81908">
        <ele>456</ele>
        <time>2019-04-22T14:49:48.008Z</time>
      </trkpt>
      <trkpt lat="43.03368" lon="0.81915">
        <ele>456</ele>
        <time>2019-04-22T14:49:50.008Z</time>
      </trkpt>
      <trkpt lat="43.0337" lon="0.81923">
        <ele>457</ele>
        <time>2019-04-22T14:49:52.008Z</time>
      </trkpt>
      <trkpt lat="43.03371" lon="0.8193">
        <ele>457</ele>
        <time>2019-04-22T14:49:54.008Z</time>
      </trkpt>
      <trkpt lat="43.03372" lon="0.81937">
        <ele>457</ele>
        <time>2019-04-22T14:49:56.008Z</time>
      </trkpt>
      <trkpt lat="43.03373" lon="0.81945">
        <ele>457</ele>
        <time>2019-04-22T14:49:58.008Z</time>
      </trkpt>
      <trkpt lat="43.03374" lon="0.81953">
        <ele>457</ele>
        <time>2019-04-22T14:50:00.008Z</time>
      </trkpt>
      <trkpt lat="43.03375" lon="0.8196">
        <ele>458</ele>
        <time>2019-04-22T14:50:02.008Z</time>
      </trkpt>
      <trkpt lat="43.03377" lon="0.81968">
        <ele>458</ele>
        <time>2019-04-22T14:50:04.008Z</time>
      </trkpt>
      <trkpt lat="43.03379" lon="0.81978">
        <ele>458</ele>
        <time>2019-04-22T14:50:07.008Z</time>
      </trkpt>
      <trkpt lat="43.03381" lon="0.81985">
        <ele>458</ele>
        <time>2019-04-22T14:50:09.008Z</time>
      </trkpt>
      <trkpt lat="43.03383" lon="0.81992">
        <ele>458.3160064</ele>
        <time>2019-04-22T14:50:11.008Z</time>
      </trkpt>
      <trkpt lat="43.03385" lon="0.81999">
        <ele>460</ele>
        <time>2019-04-22T14:50:13.008Z</time>
      </trkpt>
      <trkpt lat="43.03388" lon="0.82009">
        <ele>460</ele>
        <time>2019-04-22T14:50:16.008Z</time>
      </trkpt>
      <trkpt lat="43.03391" lon="0.82019">
        <ele>460</ele>
        <time>2019-04-22T14:50:19.008Z</time>
      </trkpt>
      <trkpt lat="43.03394" lon="0.82027">
        <ele>460.3160064</ele>
        <time>2019-04-22T14:50:21.008Z</time>
      </trkpt>
      <trkpt lat="43.03397" lon="0.82034">
        <ele>462</ele>
        <time>2019-04-22T14:50:23.008Z</time>
      </trkpt>
      <trkpt lat="43.034" lon="0.82041">
        <ele>462</ele>
        <time>2019-04-22T14:50:25.008Z</time>
      </trkpt>
      <trkpt lat="43.03402" lon="0.82049">
        <ele>462</ele>
        <time>2019-04-22T14:50:27.008Z</time>
      </trkpt>
      <trkpt lat="43.03404" lon="0.82057">
        <ele>462</ele>
        <time>2019-04-22T14:50:29.008Z</time>
      </trkpt>
      <trkpt lat="43.03406" lon="0.82065">
        <ele>462</ele>
        <time>2019-04-22T14:50:31.008Z</time>
      </trkpt>
      <trkpt lat="43.03409" lon="0.82073">
        <ele>462</ele>
        <time>2019-04-22T14:50:33.008Z</time>
      </trkpt>
      <trkpt lat="43.03414" lon="0.82081">
        <ele>462</ele>
        <time>2019-04-22T14:50:36.008Z</time>
      </trkpt>
      <trkpt lat="43.03415" lon="0.8209">
        <ele>462</ele>
        <time>2019-04-22T14:50:38.008Z</time>
      </trkpt>
      <trkpt lat="43.03416" lon="0.82099">
        <ele>462</ele>
        <time>2019-04-22T14:50:40.008Z</time>
      </trkpt>
      <trkpt lat="43.03417" lon="0.82107">
        <ele>464</ele>
        <time>2019-04-22T14:50:42.008Z</time>
      </trkpt>
      <trkpt lat="43.03417" lon="0.82116">
        <ele>464</ele>
        <time>2019-04-22T14:50:44.008Z</time>
      </trkpt>
      <trkpt lat="43.03418" lon="0.82124">
        <ele>464</ele>
        <time>2019-04-22T14:50:46.008Z</time>
      </trkpt>
      <trkpt lat="43.03418" lon="0.82132">
        <ele>464</ele>
        <time>2019-04-22T14:50:48.008Z</time>
      </trkpt>
      <trkpt lat="43.03418" lon="0.82141">
        <ele>464</ele>
        <time>2019-04-22T14:50:50.008Z</time>
      </trkpt>
      <trkpt lat="43.03417" lon="0.8215">
        <ele>465</ele>
        <time>2019-04-22T14:50:52.008Z</time>
      </trkpt>
      <trkpt lat="43.03417" lon="0.82161">
        <ele>465</ele>
        <time>2019-04-22T14:50:54.008Z</time>
      </trkpt>
      <trkpt lat="43.03417" lon="0.8217">
        <ele>465</ele>
        <time>2019-04-22T14:50:56.008Z</time>
      </trkpt>
      <trkpt lat="43.03418" lon="0.82179">
        <ele>465</ele>
        <time>2019-04-22T14:50:58.008Z</time>
      </trkpt>
      <trkpt lat="43.03418" lon="0.82189">
        <ele>465</ele>
        <time>2019-04-22T14:51:00.008Z</time>
      </trkpt>
      <trkpt lat="43.03422" lon="0.82196">
        <ele>462</ele>
        <time>2019-04-22T14:51:03.008Z</time>
      </trkpt>
      <trkpt lat="43.03428" lon="0.822">
        <ele>462</ele>
        <time>2019-04-22T14:51:05.008Z</time>
      </trkpt>
      <trkpt lat="43.03437" lon="0.82203">
        <ele>462</ele>
        <time>2019-04-22T14:51:07.008Z</time>
      </trkpt>
      <trkpt lat="43.03448" lon="0.82206">
        <ele>462</ele>
        <time>2019-04-22T14:51:09.008Z</time>
      </trkpt>
      <trkpt lat="43.03458" lon="0.82213">
        <ele>462</ele>
        <time>2019-04-22T14:51:11.008Z</time>
      </trkpt>
      <trkpt lat="43.03466" lon="0.82223">
        <ele>462</ele>
        <time>2019-04-22T14:51:13.008Z</time>
      </trkpt>
      <trkpt lat="43.03473" lon="0.82236">
        <ele>462</ele>
        <time>2019-04-22T14:51:15.008Z</time>
      </trkpt>
      <trkpt lat="43.03476" lon="0.82243">
        <ele>462</ele>
        <time>2019-04-22T14:51:16.008Z</time>
      </trkpt>
      <trkpt lat="43.03478" lon="0.8225">
        <ele>462</ele>
        <time>2019-04-22T14:51:17.008Z</time>
      </trkpt>
      <trkpt lat="43.03481" lon="0.82257">
        <ele>462</ele>
        <time>2019-04-22T14:51:18.008Z</time>
      </trkpt>
      <trkpt lat="43.03483" lon="0.82264">
        <ele>462</ele>
        <time>2019-04-22T14:51:19.008Z</time>
      </trkpt>
      <trkpt lat="43.03485" lon="0.82272">
        <ele>462</ele>
        <time>2019-04-22T14:51:20.008Z</time>
      </trkpt>
      <trkpt lat="43.03487" lon="0.82279">
        <ele>461.8419968</ele>
        <time>2019-04-22T14:51:21.008Z</time>
      </trkpt>
      <trkpt lat="43.03492" lon="0.82293">
        <ele>461</ele>
        <time>2019-04-22T14:51:23.008Z</time>
      </trkpt>
      <trkpt lat="43.03497" lon="0.82308">
        <ele>461</ele>
        <time>2019-04-22T14:51:25.008Z</time>
      </trkpt>
      <trkpt lat="43.03501" lon="0.82323">
        <ele>461</ele>
        <time>2019-04-22T14:51:27.008Z</time>
      </trkpt>
      <trkpt lat="43.03503" lon="0.8233">
        <ele>461</ele>
        <time>2019-04-22T14:51:28.008Z</time>
      </trkpt>
      <trkpt lat="43.03505" lon="0.82337">
        <ele>461</ele>
        <time>2019-04-22T14:51:29.008Z</time>
      </trkpt>
      <trkpt lat="43.03507" lon="0.82345">
        <ele>461</ele>
        <time>2019-04-22T14:51:30.008Z</time>
      </trkpt>
      <trkpt lat="43.03509" lon="0.82352">
        <ele>461</ele>
        <time>2019-04-22T14:51:31.008Z</time>
      </trkpt>
      <trkpt lat="43.03513" lon="0.82366">
        <ele>461</ele>
        <time>2019-04-22T14:51:33.008Z</time>
      </trkpt>
      <trkpt lat="43.03516" lon="0.8238">
        <ele>461</ele>
        <time>2019-04-22T14:51:35.008Z</time>
      </trkpt>
      <trkpt lat="43.0352" lon="0.82394">
        <ele>461</ele>
        <time>2019-04-22T14:51:37.008Z</time>
      </trkpt>
      <trkpt lat="43.03523" lon="0.82407">
        <ele>461</ele>
        <time>2019-04-22T14:51:39.008Z</time>
      </trkpt>
      <trkpt lat="43.03527" lon="0.8242">
        <ele>461.14948993445</ele>
        <time>2019-04-22T14:51:41.008Z</time>
      </trkpt>
      <trkpt lat="43.0353" lon="0.82432">
        <ele>462</ele>
        <time>2019-04-22T14:51:43.008Z</time>
      </trkpt>
      <trkpt lat="43.03533" lon="0.82443">
        <ele>462</ele>
        <time>2019-04-22T14:51:45.008Z</time>
      </trkpt>
      <trkpt lat="43.03535" lon="0.82449">
        <ele>462</ele>
        <time>2019-04-22T14:51:46.008Z</time>
      </trkpt>
      <trkpt lat="43.03536" lon="0.82455">
        <ele>462</ele>
        <time>2019-04-22T14:51:47.008Z</time>
      </trkpt>
      <trkpt lat="43.03538" lon="0.8246">
        <ele>462</ele>
        <time>2019-04-22T14:51:48.008Z</time>
      </trkpt>
      <trkpt lat="43.0354" lon="0.82466">
        <ele>462</ele>
        <time>2019-04-22T14:51:49.008Z</time>
      </trkpt>
      <trkpt lat="43.03541" lon="0.82471">
        <ele>462</ele>
        <time>2019-04-22T14:51:50.008Z</time>
      </trkpt>
      <trkpt lat="43.03542" lon="0.82477">
        <ele>462.1580032</ele>
        <time>2019-04-22T14:51:51.008Z</time>
      </trkpt>
      <trkpt lat="43.03543" lon="0.82482">
        <ele>463</ele>
        <time>2019-04-22T14:51:52.008Z</time>
      </trkpt>
      <trkpt lat="43.03544" lon="0.82487">
        <ele>463</ele>
        <time>2019-04-22T14:51:53.008Z</time>
      </trkpt>
      <trkpt lat="43.03545" lon="0.82492">
        <ele>463</ele>
        <time>2019-04-22T14:51:54.008Z</time>
      </trkpt>
      <trkpt lat="43.03545" lon="0.82497">
        <ele>463</ele>
        <time>2019-04-22T14:51:55.008Z</time>
      </trkpt>
      <trkpt lat="43.03545" lon="0.82507">
        <ele>463</ele>
        <time>2019-04-22T14:51:57.008Z</time>
      </trkpt>
      <trkpt lat="43.03545" lon="0.82517">
        <ele>463</ele>
        <time>2019-04-22T14:51:59.008Z</time>
      </trkpt>
      <trkpt lat="43.03545" lon="0.82526">
        <ele>463.790016</ele>
        <time>2019-04-22T14:52:01.008Z</time>
      </trkpt>
      <trkpt lat="43.03544" lon="0.82535">
        <ele>468.1580032</ele>
        <time>2019-04-22T14:52:03.008Z</time>
      </trkpt>
      <trkpt lat="43.03542" lon="0.82544">
        <ele>469.1580032</ele>
        <time>2019-04-22T14:52:05.008Z</time>
      </trkpt>
      <trkpt lat="43.0354" lon="0.82553">
        <ele>470</ele>
        <time>2019-04-22T14:52:07.008Z</time>
      </trkpt>
      <trkpt lat="43.03538" lon="0.82561">
        <ele>470.1580032</ele>
        <time>2019-04-22T14:52:09.008Z</time>
      </trkpt>
      <trkpt lat="43.03536" lon="0.82568">
        <ele>471.1580032</ele>
        <time>2019-04-22T14:52:11.008Z</time>
      </trkpt>
      <trkpt lat="43.03534" lon="0.82576">
        <ele>472</ele>
        <time>2019-04-22T14:52:13.008Z</time>
      </trkpt>
      <trkpt lat="43.03532" lon="0.82584">
        <ele>472</ele>
        <time>2019-04-22T14:52:15.008Z</time>
      </trkpt>
      <trkpt lat="43.03531" lon="0.82592">
        <ele>473</ele>
        <time>2019-04-22T14:52:17.008Z</time>
      </trkpt>
      <trkpt lat="43.03529" lon="0.82599">
        <ele>473</ele>
        <time>2019-04-22T14:52:19.008Z</time>
      </trkpt>
      <trkpt lat="43.03527" lon="0.82607">
        <ele>473</ele>
        <time>2019-04-22T14:52:21.008Z</time>
      </trkpt>
      <trkpt lat="43.03526" lon="0.82615">
        <ele>473</ele>
        <time>2019-04-22T14:52:23.008Z</time>
      </trkpt>
      <trkpt lat="43.03525" lon="0.82623">
        <ele>473</ele>
        <time>2019-04-22T14:52:25.008Z</time>
      </trkpt>
      <trkpt lat="43.03523" lon="0.82631">
        <ele>473</ele>
        <time>2019-04-22T14:52:27.008Z</time>
      </trkpt>
      <trkpt lat="43.03521" lon="0.82638">
        <ele>473</ele>
        <time>2019-04-22T14:52:29.008Z</time>
      </trkpt>
      <trkpt lat="43.0352" lon="0.82646">
        <ele>473.3160064</ele>
        <time>2019-04-22T14:52:31.008Z</time>
      </trkpt>
      <trkpt lat="43.03518" lon="0.82654">
        <ele>475</ele>
        <time>2019-04-22T14:52:33.008Z</time>
      </trkpt>
      <trkpt lat="43.03517" lon="0.82662">
        <ele>475</ele>
        <time>2019-04-22T14:52:35.008Z</time>
      </trkpt>
      <trkpt lat="43.03515" lon="0.8267">
        <ele>475</ele>
        <time>2019-04-22T14:52:37.008Z</time>
      </trkpt>
      <trkpt lat="43.03512" lon="0.82681">
        <ele>475</ele>
        <time>2019-04-22T14:52:40.008Z</time>
      </trkpt>
      <trkpt lat="43.03509" lon="0.82693">
        <ele>478</ele>
        <time>2019-04-22T14:52:43.008Z</time>
      </trkpt>
      <trkpt lat="43.03506" lon="0.82704">
        <ele>478</ele>
        <time>2019-04-22T14:52:46.008Z</time>
      </trkpt>
      <trkpt lat="43.03504" lon="0.82712">
        <ele>478</ele>
        <time>2019-04-22T14:52:48.008Z</time>
      </trkpt>
      <trkpt lat="43.03501" lon="0.82723">
        <ele>478.1580032</ele>
        <time>2019-04-22T14:52:51.008Z</time>
      </trkpt>
      <trkpt lat="43.03497" lon="0.82735">
        <ele>479</ele>
        <time>2019-04-22T14:52:54.008Z</time>
      </trkpt>
      <trkpt lat="43.03493" lon="0.82746">
        <ele>479</ele>
        <time>2019-04-22T14:52:57.008Z</time>
      </trkpt>
      <trkpt lat="43.03489" lon="0.82757">
        <ele>479</ele>
        <time>2019-04-22T14:53:00.008Z</time>
      </trkpt>
      <trkpt lat="43.03486" lon="0.82768">
        <ele>483</ele>
        <time>2019-04-22T14:53:03.008Z</time>
      </trkpt>
      <trkpt lat="43.03482" lon="0.82779">
        <ele>483.1580032</ele>
        <time>2019-04-22T14:53:06.008Z</time>
      </trkpt>
      <trkpt lat="43.03479" lon="0.8279">
        <ele>484</ele>
        <time>2019-04-22T14:53:09.008Z</time>
      </trkpt>
      <trkpt lat="43.03476" lon="0.828">
        <ele>485</ele>
        <time>2019-04-22T14:53:12.008Z</time>
      </trkpt>
      <trkpt lat="43.03474" lon="0.82807">
        <ele>485</ele>
        <time>2019-04-22T14:53:14.008Z</time>
      </trkpt>
      <trkpt lat="43.03473" lon="0.82814">
        <ele>485.1580032</ele>
        <time>2019-04-22T14:53:16.008Z</time>
      </trkpt>
      <trkpt lat="43.03472" lon="0.82824">
        <ele>486</ele>
        <time>2019-04-22T14:53:19.008Z</time>
      </trkpt>
      <trkpt lat="43.0347" lon="0.82834">
        <ele>487</ele>
        <time>2019-04-22T14:53:22.008Z</time>
      </trkpt>
      <trkpt lat="43.03469" lon="0.82844">
        <ele>487</ele>
        <time>2019-04-22T14:53:25.008Z</time>
      </trkpt>
      <trkpt lat="43.03464" lon="0.8285">
        <ele>487</ele>
        <time>2019-04-22T14:53:28.008Z</time>
      </trkpt>
      <trkpt lat="43.03457" lon="0.82852">
        <ele>487.3160064</ele>
        <time>2019-04-22T14:53:31.008Z</time>
      </trkpt>
      <trkpt lat="43.03452" lon="0.82853">
        <ele>489</ele>
        <time>2019-04-22T14:53:33.008Z</time>
      </trkpt>
      <trkpt lat="43.03449" lon="0.82856">
        <ele>489</ele>
        <time>2019-04-22T14:53:35.008Z</time>
      </trkpt>
      <trkpt lat="43.03444" lon="0.8286">
        <ele>489</ele>
        <time>2019-04-22T14:53:38.008Z</time>
      </trkpt>
      <trkpt lat="43.03438" lon="0.82865">
        <ele>492</ele>
        <time>2019-04-22T14:53:42.008Z</time>
      </trkpt>
      <trkpt lat="43.03433" lon="0.82871">
        <ele>492.4740096</ele>
        <time>2019-04-22T14:53:46.008Z</time>
      </trkpt>
      <trkpt lat="43.03428" lon="0.82876">
        <ele>495</ele>
        <time>2019-04-22T14:53:50.008Z</time>
      </trkpt>
      <trkpt lat="43.03422" lon="0.82881">
        <ele>496</ele>
        <time>2019-04-22T14:53:54.008Z</time>
      </trkpt>
      <trkpt lat="43.03416" lon="0.82885">
        <ele>497</ele>
        <time>2019-04-22T14:53:58.008Z</time>
      </trkpt>
      <trkpt lat="43.03408" lon="0.8289">
        <ele>499</ele>
        <time>2019-04-22T14:54:04.008Z</time>
      </trkpt>
      <trkpt lat="43.034" lon="0.82895">
        <ele>500</ele>
        <time>2019-04-22T14:54:09.008Z</time>
      </trkpt>
      <trkpt lat="43.03393" lon="0.82898">
        <ele>501</ele>
        <time>2019-04-22T14:54:13.008Z</time>
      </trkpt>
      <trkpt lat="43.03386" lon="0.82905">
        <ele>503</ele>
        <time>2019-04-22T14:54:18.008Z</time>
      </trkpt>
      <trkpt lat="43.03378" lon="0.82912">
        <ele>504</ele>
        <time>2019-04-22T14:54:24.008Z</time>
      </trkpt>
      <trkpt lat="43.03369" lon="0.82919">
        <ele>506</ele>
        <time>2019-04-22T14:54:30.008Z</time>
      </trkpt>
      <trkpt lat="43.03362" lon="0.82924">
        <ele>506</ele>
        <time>2019-04-22T14:54:34.008Z</time>
      </trkpt>
      <trkpt lat="43.03356" lon="0.82929">
        <ele>506</ele>
        <time>2019-04-22T14:54:38.008Z</time>
      </trkpt>
      <trkpt lat="43.0335" lon="0.82934">
        <ele>507</ele>
        <time>2019-04-22T14:54:42.008Z</time>
      </trkpt>
      <trkpt lat="43.03345" lon="0.82937">
        <ele>507</ele>
        <time>2019-04-22T14:54:45.008Z</time>
      </trkpt>
      <trkpt lat="43.0334" lon="0.82941">
        <ele>507</ele>
        <time>2019-04-22T14:54:48.008Z</time>
      </trkpt>
      <trkpt lat="43.03335" lon="0.82946">
        <ele>507.4740096</ele>
        <time>2019-04-22T14:54:51.008Z</time>
      </trkpt>
      <trkpt lat="43.03327" lon="0.82954">
        <ele>510.3160064</ele>
        <time>2019-04-22T14:54:56.008Z</time>
      </trkpt>
      <trkpt lat="43.0332" lon="0.82964">
        <ele>511.8419968</ele>
        <time>2019-04-22T14:55:01.008Z</time>
      </trkpt>
      <trkpt lat="43.03314" lon="0.82972">
        <ele>511</ele>
        <time>2019-04-22T14:55:05.008Z</time>
      </trkpt>
      <trkpt lat="43.0331" lon="0.82978">
        <ele>511</ele>
        <time>2019-04-22T14:55:08.008Z</time>
      </trkpt>
      <trkpt lat="43.03306" lon="0.82985">
        <ele>511.3160064</ele>
        <time>2019-04-22T14:55:11.008Z</time>
      </trkpt>
      <trkpt lat="43.03302" lon="0.82992">
        <ele>513</ele>
        <time>2019-04-22T14:55:14.008Z</time>
      </trkpt>
      <trkpt lat="43.03298" lon="0.82999">
        <ele>513</ele>
        <time>2019-04-22T14:55:17.008Z</time>
      </trkpt>
      <trkpt lat="43.03294" lon="0.83006">
        <ele>513</ele>
        <time>2019-04-22T14:55:20.008Z</time>
      </trkpt>
      <trkpt lat="43.0329" lon="0.83014">
        <ele>512</ele>
        <time>2019-04-22T14:55:23.008Z</time>
      </trkpt>
      <trkpt lat="43.03286" lon="0.83022">
        <ele>512</ele>
        <time>2019-04-22T14:55:26.008Z</time>
      </trkpt>
      <trkpt lat="43.03282" lon="0.8303">
        <ele>512</ele>
        <time>2019-04-22T14:55:29.008Z</time>
      </trkpt>
      <trkpt lat="43.03279" lon="0.83035">
        <ele>512.3160064</ele>
        <time>2019-04-22T14:55:31.008Z</time>
      </trkpt>
      <trkpt lat="43.03275" lon="0.83043">
        <ele>514</ele>
        <time>2019-04-22T14:55:34.008Z</time>
      </trkpt>
      <trkpt lat="43.03271" lon="0.83051">
        <ele>514</ele>
        <time>2019-04-22T14:55:37.008Z</time>
      </trkpt>
      <trkpt lat="43.03267" lon="0.83059">
        <ele>514</ele>
        <time>2019-04-22T14:55:40.008Z</time>
      </trkpt>
      <trkpt lat="43.03264" lon="0.83064">
        <ele>514</ele>
        <time>2019-04-22T14:55:42.008Z</time>
      </trkpt>
      <trkpt lat="43.03262" lon="0.83069">
        <ele>514</ele>
        <time>2019-04-22T14:55:44.008Z</time>
      </trkpt>
      <trkpt lat="43.03255" lon="0.83079">
        <ele>514</ele>
        <time>2019-04-22T14:55:48.008Z</time>
      </trkpt>
      <trkpt lat="43.0325" lon="0.83086">
        <ele>514.3160064</ele>
        <time>2019-04-22T14:55:51.008Z</time>
      </trkpt>
      <trkpt lat="43.03244" lon="0.83094">
        <ele>516</ele>
        <time>2019-04-22T14:55:54.008Z</time>
      </trkpt>
      <trkpt lat="43.03238" lon="0.83102">
        <ele>516</ele>
        <time>2019-04-22T14:55:57.008Z</time>
      </trkpt>
      <trkpt lat="43.03231" lon="0.8311">
        <ele>516</ele>
        <time>2019-04-22T14:56:00.008Z</time>
      </trkpt>
      <trkpt lat="43.03227" lon="0.83116">
        <ele>516</ele>
        <time>2019-04-22T14:56:02.008Z</time>
      </trkpt>
      <trkpt lat="43.03222" lon="0.83122">
        <ele>516</ele>
        <time>2019-04-22T14:56:04.008Z</time>
      </trkpt>
      <trkpt lat="43.03217" lon="0.83128">
        <ele>516</ele>
        <time>2019-04-22T14:56:06.008Z</time>
      </trkpt>
      <trkpt lat="43.03213" lon="0.83134">
        <ele>516</ele>
        <time>2019-04-22T14:56:08.008Z</time>
      </trkpt>
      <trkpt lat="43.03208" lon="0.83141">
        <ele>516</ele>
        <time>2019-04-22T14:56:10.008Z</time>
      </trkpt>
      <trkpt lat="43.03203" lon="0.83147">
        <ele>517</ele>
        <time>2019-04-22T14:56:12.008Z</time>
      </trkpt>
      <trkpt lat="43.03199" lon="0.83154">
        <ele>517</ele>
        <time>2019-04-22T14:56:14.008Z</time>
      </trkpt>
      <trkpt lat="43.03194" lon="0.83161">
        <ele>517</ele>
        <time>2019-04-22T14:56:16.008Z</time>
      </trkpt>
      <trkpt lat="43.03189" lon="0.83167">
        <ele>517</ele>
        <time>2019-04-22T14:56:18.008Z</time>
      </trkpt>
      <trkpt lat="43.03181" lon="0.83177">
        <ele>517</ele>
        <time>2019-04-22T14:56:21.008Z</time>
      </trkpt>
      <trkpt lat="43.03176" lon="0.83184">
        <ele>517</ele>
        <time>2019-04-22T14:56:23.008Z</time>
      </trkpt>
      <trkpt lat="43.03169" lon="0.83192">
        <ele>517</ele>
        <time>2019-04-22T14:56:25.008Z</time>
      </trkpt>
      <trkpt lat="43.03163" lon="0.832">
        <ele>517</ele>
        <time>2019-04-22T14:56:27.008Z</time>
      </trkpt>
      <trkpt lat="43.03156" lon="0.83207">
        <ele>517</ele>
        <time>2019-04-22T14:56:29.008Z</time>
      </trkpt>
      <trkpt lat="43.03149" lon="0.83215">
        <ele>517</ele>
        <time>2019-04-22T14:56:31.008Z</time>
      </trkpt>
      <trkpt lat="43.03143" lon="0.83223">
        <ele>517</ele>
        <time>2019-04-22T14:56:33.008Z</time>
      </trkpt>
      <trkpt lat="43.03136" lon="0.8323">
        <ele>517</ele>
        <time>2019-04-22T14:56:35.008Z</time>
      </trkpt>
      <trkpt lat="43.0313" lon="0.83238">
        <ele>517</ele>
        <time>2019-04-22T14:56:37.008Z</time>
      </trkpt>
      <trkpt lat="43.03123" lon="0.83245">
        <ele>517</ele>
        <time>2019-04-22T14:56:39.008Z</time>
      </trkpt>
      <trkpt lat="43.03117" lon="0.83252">
        <ele>516.84356069247</ele>
        <time>2019-04-22T14:56:41.008Z</time>
      </trkpt>
      <trkpt lat="43.0311" lon="0.83259">
        <ele>516</ele>
        <time>2019-04-22T14:56:43.008Z</time>
      </trkpt>
      <trkpt lat="43.03103" lon="0.83266">
        <ele>516</ele>
        <time>2019-04-22T14:56:45.008Z</time>
      </trkpt>
      <trkpt lat="43.03096" lon="0.83272">
        <ele>516</ele>
        <time>2019-04-22T14:56:47.008Z</time>
      </trkpt>
      <trkpt lat="43.03089" lon="0.83279">
        <ele>516</ele>
        <time>2019-04-22T14:56:49.008Z</time>
      </trkpt>
      <trkpt lat="43.03078" lon="0.83287">
        <ele>516</ele>
        <time>2019-04-22T14:56:52.008Z</time>
      </trkpt>
      <trkpt lat="43.03072" lon="0.83293">
        <ele>516</ele>
        <time>2019-04-22T14:56:54.008Z</time>
      </trkpt>
      <trkpt lat="43.03062" lon="0.833">
        <ele>516</ele>
        <time>2019-04-22T14:56:57.008Z</time>
      </trkpt>
      <trkpt lat="43.03054" lon="0.83308">
        <ele>516</ele>
        <time>2019-04-22T14:57:00.008Z</time>
      </trkpt>
      <trkpt lat="43.0305" lon="0.83312">
        <ele>516</ele>
        <time>2019-04-22T14:58:39.008Z</time>
      </trkpt>
      <trkpt lat="43.03042" lon="0.83317">
        <ele>516</ele>
        <time>2019-04-22T14:58:43.008Z</time>
      </trkpt>
      <trkpt lat="43.03032" lon="0.83323">
        <ele>516</ele>
        <time>2019-04-22T14:58:46.008Z</time>
      </trkpt>
      <trkpt lat="43.03026" lon="0.83327">
        <ele>516</ele>
        <time>2019-04-22T14:58:48.008Z</time>
      </trkpt>
      <trkpt lat="43.03019" lon="0.83331">
        <ele>516</ele>
        <time>2019-04-22T14:58:50.008Z</time>
      </trkpt>
      <trkpt lat="43.03008" lon="0.83339">
        <ele>517</ele>
        <time>2019-04-22T14:58:53.008Z</time>
      </trkpt>
      <trkpt lat="43.02997" lon="0.83348">
        <ele>517</ele>
        <time>2019-04-22T14:58:56.008Z</time>
      </trkpt>
      <trkpt lat="43.0299" lon="0.83353">
        <ele>517</ele>
        <time>2019-04-22T14:58:58.008Z</time>
      </trkpt>
      <trkpt lat="43.02982" lon="0.83358">
        <ele>517</ele>
        <time>2019-04-22T14:59:00.008Z</time>
      </trkpt>
      <trkpt lat="43.02974" lon="0.83363">
        <ele>516</ele>
        <time>2019-04-22T14:59:02.008Z</time>
      </trkpt>
      <trkpt lat="43.02966" lon="0.83367">
        <ele>516</ele>
        <time>2019-04-22T14:59:04.008Z</time>
      </trkpt>
      <trkpt lat="43.02957" lon="0.8337">
        <ele>516</ele>
        <time>2019-04-22T14:59:06.008Z</time>
      </trkpt>
      <trkpt lat="43.02949" lon="0.83375">
        <ele>516</ele>
        <time>2019-04-22T14:59:08.008Z</time>
      </trkpt>
      <trkpt lat="43.0294" lon="0.83379">
        <ele>516</ele>
        <time>2019-04-22T14:59:10.008Z</time>
      </trkpt>
      <trkpt lat="43.02931" lon="0.83383">
        <ele>517</ele>
        <time>2019-04-22T14:59:12.008Z</time>
      </trkpt>
      <trkpt lat="43.02922" lon="0.83386">
        <ele>517</ele>
        <time>2019-04-22T14:59:14.008Z</time>
      </trkpt>
      <trkpt lat="43.02909" lon="0.8339">
        <ele>517</ele>
        <time>2019-04-22T14:59:17.008Z</time>
      </trkpt>
      <trkpt lat="43.02902" lon="0.83392">
        <ele>517</ele>
        <time>2019-04-22T14:59:19.008Z</time>
      </trkpt>
      <trkpt lat="43.0289" lon="0.83395">
        <ele>519</ele>
        <time>2019-04-22T14:59:22.008Z</time>
      </trkpt>
      <trkpt lat="43.02879" lon="0.83398">
        <ele>519</ele>
        <time>2019-04-22T14:59:25.008Z</time>
      </trkpt>
      <trkpt lat="43.02872" lon="0.834">
        <ele>519</ele>
        <time>2019-04-22T14:59:27.008Z</time>
      </trkpt>
      <trkpt lat="43.02864" lon="0.83403">
        <ele>519</ele>
        <time>2019-04-22T14:59:29.008Z</time>
      </trkpt>
      <trkpt lat="43.02857" lon="0.83405">
        <ele>519.3160064</ele>
        <time>2019-04-22T14:59:31.008Z</time>
      </trkpt>
      <trkpt lat="43.02846" lon="0.83409">
        <ele>521</ele>
        <time>2019-04-22T14:59:34.008Z</time>
      </trkpt>
      <trkpt lat="43.02839" lon="0.83412">
        <ele>521</ele>
        <time>2019-04-22T14:59:36.008Z</time>
      </trkpt>
      <trkpt lat="43.02832" lon="0.83414">
        <ele>521</ele>
        <time>2019-04-22T14:59:38.008Z</time>
      </trkpt>
      <trkpt lat="43.02822" lon="0.83417">
        <ele>521.3160064</ele>
        <time>2019-04-22T14:59:41.008Z</time>
      </trkpt>
      <trkpt lat="43.02812" lon="0.83421">
        <ele>523</ele>
        <time>2019-04-22T14:59:44.008Z</time>
      </trkpt>
      <trkpt lat="43.02801" lon="0.83424">
        <ele>523</ele>
        <time>2019-04-22T14:59:47.008Z</time>
      </trkpt>
      <trkpt lat="43.02795" lon="0.83426">
        <ele>523</ele>
        <time>2019-04-22T14:59:49.008Z</time>
      </trkpt>
      <trkpt lat="43.02788" lon="0.83428">
        <ele>523.3160064</ele>
        <time>2019-04-22T14:59:51.008Z</time>
      </trkpt>
      <trkpt lat="43.02778" lon="0.83431">
        <ele>525</ele>
        <time>2019-04-22T14:59:54.008Z</time>
      </trkpt>
      <trkpt lat="43.02768" lon="0.83434">
        <ele>527</ele>
        <time>2019-04-22T14:59:57.008Z</time>
      </trkpt>
      <trkpt lat="43.02761" lon="0.83436">
        <ele>527</ele>
        <time>2019-04-22T14:59:59.008Z</time>
      </trkpt>
      <trkpt lat="43.02754" lon="0.83437">
        <ele>527.1580032</ele>
        <time>2019-04-22T15:00:01.008Z</time>
      </trkpt>
      <trkpt lat="43.02744" lon="0.8344">
        <ele>528</ele>
        <time>2019-04-22T15:00:04.008Z</time>
      </trkpt>
      <trkpt lat="43.02737" lon="0.83442">
        <ele>528.3160064</ele>
        <time>2019-04-22T15:00:06.008Z</time>
      </trkpt>
      <trkpt lat="43.0273" lon="0.83444">
        <ele>530</ele>
        <time>2019-04-22T15:00:08.008Z</time>
      </trkpt>
      <trkpt lat="43.02724" lon="0.83446">
        <ele>530</ele>
        <time>2019-04-22T15:00:10.008Z</time>
      </trkpt>
      <trkpt lat="43.02718" lon="0.83448">
        <ele>531</ele>
        <time>2019-04-22T15:00:12.008Z</time>
      </trkpt>
      <trkpt lat="43.02711" lon="0.83451">
        <ele>531</ele>
        <time>2019-04-22T15:00:14.008Z</time>
      </trkpt>
      <trkpt lat="43.02703" lon="0.83454">
        <ele>531</ele>
        <time>2019-04-22T15:00:17.008Z</time>
      </trkpt>
      <trkpt lat="43.02697" lon="0.83458">
        <ele>531</ele>
        <time>2019-04-22T15:00:19.008Z</time>
      </trkpt>
      <trkpt lat="43.02692" lon="0.83462">
        <ele>531</ele>
        <time>2019-04-22T15:00:21.008Z</time>
      </trkpt>
      <trkpt lat="43.02682" lon="0.8347">
        <ele>531</ele>
        <time>2019-04-22T15:00:24.008Z</time>
      </trkpt>
      <trkpt lat="43.0267" lon="0.83478">
        <ele>531</ele>
        <time>2019-04-22T15:00:27.008Z</time>
      </trkpt>
      <trkpt lat="43.02658" lon="0.83486">
        <ele>531</ele>
        <time>2019-04-22T15:00:29.008Z</time>
      </trkpt>
      <trkpt lat="43.02652" lon="0.83491">
        <ele>531</ele>
        <time>2019-04-22T15:00:30.008Z</time>
      </trkpt>
      <trkpt lat="43.02641" lon="0.83501">
        <ele>527</ele>
        <time>2019-04-22T15:00:32.008Z</time>
      </trkpt>
      <trkpt lat="43.02634" lon="0.83506">
        <ele>527</ele>
        <time>2019-04-22T15:00:33.008Z</time>
      </trkpt>
      <trkpt lat="43.02628" lon="0.83513">
        <ele>527</ele>
        <time>2019-04-22T15:00:34.008Z</time>
      </trkpt>
      <trkpt lat="43.02622" lon="0.8352">
        <ele>527</ele>
        <time>2019-04-22T15:00:35.008Z</time>
      </trkpt>
      <trkpt lat="43.02617" lon="0.83528">
        <ele>526.6839936</ele>
        <time>2019-04-22T15:00:36.008Z</time>
      </trkpt>
      <trkpt lat="43.02612" lon="0.83537">
        <ele>525</ele>
        <time>2019-04-22T15:00:37.008Z</time>
      </trkpt>
      <trkpt lat="43.02608" lon="0.83546">
        <ele>525</ele>
        <time>2019-04-22T15:00:38.008Z</time>
      </trkpt>
      <trkpt lat="43.02605" lon="0.83556">
        <ele>525</ele>
        <time>2019-04-22T15:00:39.008Z</time>
      </trkpt>
      <trkpt lat="43.02601" lon="0.83564">
        <ele>525</ele>
        <time>2019-04-22T15:00:40.008Z</time>
      </trkpt>
      <trkpt lat="43.02597" lon="0.83572">
        <ele>524.55153019666</ele>
        <time>2019-04-22T15:00:41.008Z</time>
      </trkpt>
      <trkpt lat="43.02592" lon="0.83577">
        <ele>521.6839936</ele>
        <time>2019-04-22T15:00:42.008Z</time>
      </trkpt>
      <trkpt lat="43.02586" lon="0.83581">
        <ele>519.8419968</ele>
        <time>2019-04-22T15:00:43.008Z</time>
      </trkpt>
      <trkpt lat="43.0258" lon="0.83584">
        <ele>519</ele>
        <time>2019-04-22T15:00:44.008Z</time>
      </trkpt>
      <trkpt lat="43.02573" lon="0.83587">
        <ele>519</ele>
        <time>2019-04-22T15:00:45.008Z</time>
      </trkpt>
      <trkpt lat="43.02566" lon="0.8359">
        <ele>519</ele>
        <time>2019-04-22T15:00:46.008Z</time>
      </trkpt>
      <trkpt lat="43.02552" lon="0.83595">
        <ele>519</ele>
        <time>2019-04-22T15:00:48.008Z</time>
      </trkpt>
      <trkpt lat="43.02545" lon="0.83597">
        <ele>519</ele>
        <time>2019-04-22T15:00:49.008Z</time>
      </trkpt>
      <trkpt lat="43.02539" lon="0.836">
        <ele>519</ele>
        <time>2019-04-22T15:00:50.008Z</time>
      </trkpt>
      <trkpt lat="43.02532" lon="0.83604">
        <ele>519</ele>
        <time>2019-04-22T15:00:51.008Z</time>
      </trkpt>
      <trkpt lat="43.02519" lon="0.83609">
        <ele>519</ele>
        <time>2019-04-22T15:00:53.008Z</time>
      </trkpt>
      <trkpt lat="43.02508" lon="0.83614">
        <ele>519</ele>
        <time>2019-04-22T15:00:55.008Z</time>
      </trkpt>
      <trkpt lat="43.02498" lon="0.83619">
        <ele>520</ele>
        <time>2019-04-22T15:00:57.008Z</time>
      </trkpt>
      <trkpt lat="43.02488" lon="0.83622">
        <ele>520</ele>
        <time>2019-04-22T15:00:59.008Z</time>
      </trkpt>
      <trkpt lat="43.02473" lon="0.83626">
        <ele>522</ele>
        <time>2019-04-22T15:01:02.008Z</time>
      </trkpt>
      <trkpt lat="43.02464" lon="0.83628">
        <ele>522</ele>
        <time>2019-04-22T15:01:04.008Z</time>
      </trkpt>
      <trkpt lat="43.02455" lon="0.83629">
        <ele>522.1580032</ele>
        <time>2019-04-22T15:01:06.008Z</time>
      </trkpt>
      <trkpt lat="43.02448" lon="0.8363">
        <ele>523</ele>
        <time>2019-04-22T15:01:08.008Z</time>
      </trkpt>
      <trkpt lat="43.02437" lon="0.8363">
        <ele>523.3160064</ele>
        <time>2019-04-22T15:01:11.008Z</time>
      </trkpt>
      <trkpt lat="43.02424" lon="0.83631">
        <ele>525</ele>
        <time>2019-04-22T15:01:15.008Z</time>
      </trkpt>
      <trkpt lat="43.02415" lon="0.83632">
        <ele>525</ele>
        <time>2019-04-22T15:01:19.008Z</time>
      </trkpt>
      <trkpt lat="43.02405" lon="0.83631">
        <ele>528</ele>
        <time>2019-04-22T15:01:22.008Z</time>
      </trkpt>
      <trkpt lat="43.02396" lon="0.83631">
        <ele>528</ele>
        <time>2019-04-22T15:01:25.008Z</time>
      </trkpt>
      <trkpt lat="43.02387" lon="0.8363">
        <ele>530</ele>
        <time>2019-04-22T15:01:28.008Z</time>
      </trkpt>
      <trkpt lat="43.02378" lon="0.83629">
        <ele>530.1580032</ele>
        <time>2019-04-22T15:01:31.008Z</time>
      </trkpt>
      <trkpt lat="43.0237" lon="0.83627">
        <ele>531</ele>
        <time>2019-04-22T15:01:34.008Z</time>
      </trkpt>
      <trkpt lat="43.02361" lon="0.83626">
        <ele>532</ele>
        <time>2019-04-22T15:01:37.008Z</time>
      </trkpt>
      <trkpt lat="43.02353" lon="0.83626">
        <ele>532</ele>
        <time>2019-04-22T15:01:40.008Z</time>
      </trkpt>
      <trkpt lat="43.02343" lon="0.83626">
        <ele>533</ele>
        <time>2019-04-22T15:01:43.008Z</time>
      </trkpt>
      <trkpt lat="43.02336" lon="0.83627">
        <ele>533</ele>
        <time>2019-04-22T15:01:45.008Z</time>
      </trkpt>
      <trkpt lat="43.02333" lon="0.83627">
        <ele>533</ele>
        <time>2019-04-22T15:01:46.008Z</time>
      </trkpt>
      <trkpt lat="43.02329" lon="0.83628">
        <ele>533</ele>
        <time>2019-04-22T15:01:47.008Z</time>
      </trkpt>
      <trkpt lat="43.02326" lon="0.83629">
        <ele>533</ele>
        <time>2019-04-22T15:01:48.008Z</time>
      </trkpt>
      <trkpt lat="43.02322" lon="0.8363">
        <ele>533</ele>
        <time>2019-04-22T15:01:49.008Z</time>
      </trkpt>
      <trkpt lat="43.02316" lon="0.83632">
        <ele>533.1580032</ele>
        <time>2019-04-22T15:01:51.008Z</time>
      </trkpt>
      <trkpt lat="43.0231" lon="0.83634">
        <ele>534</ele>
        <time>2019-04-22T15:01:53.008Z</time>
      </trkpt>
      <trkpt lat="43.02304" lon="0.83636">
        <ele>534</ele>
        <time>2019-04-22T15:01:55.008Z</time>
      </trkpt>
      <trkpt lat="43.02297" lon="0.83638">
        <ele>534</ele>
        <time>2019-04-22T15:01:57.008Z</time>
      </trkpt>
      <trkpt lat="43.02291" lon="0.83641">
        <ele>534</ele>
        <time>2019-04-22T15:01:59.008Z</time>
      </trkpt>
      <trkpt lat="43.02282" lon="0.83645">
        <ele>535</ele>
        <time>2019-04-22T15:02:02.008Z</time>
      </trkpt>
      <trkpt lat="43.02273" lon="0.83649">
        <ele>535</ele>
        <time>2019-04-22T15:02:05.008Z</time>
      </trkpt>
      <trkpt lat="43.02268" lon="0.83651">
        <ele>535</ele>
        <time>2019-04-22T15:02:07.008Z</time>
      </trkpt>
      <trkpt lat="43.02256" lon="0.83655">
        <ele>535.46931792259</ele>
        <time>2019-04-22T15:02:11.008Z</time>
      </trkpt>
      <trkpt lat="43.0225" lon="0.83656">
        <ele>538</ele>
        <time>2019-04-22T15:02:13.008Z</time>
      </trkpt>
      <trkpt lat="43.02244" lon="0.83657">
        <ele>538</ele>
        <time>2019-04-22T15:02:15.008Z</time>
      </trkpt>
      <trkpt lat="43.02234" lon="0.83658">
        <ele>539</ele>
        <time>2019-04-22T15:02:19.008Z</time>
      </trkpt>
      <trkpt lat="43.02229" lon="0.83657">
        <ele>539.3160064</ele>
        <time>2019-04-22T15:02:21.008Z</time>
      </trkpt>
      <trkpt lat="43.02222" lon="0.83656">
        <ele>541</ele>
        <time>2019-04-22T15:02:24.008Z</time>
      </trkpt>
      <trkpt lat="43.02215" lon="0.83655">
        <ele>543</ele>
        <time>2019-04-22T15:02:27.008Z</time>
      </trkpt>
      <trkpt lat="43.02207" lon="0.83655">
        <ele>543</ele>
        <time>2019-04-22T15:02:30.008Z</time>
      </trkpt>
      <trkpt lat="43.022" lon="0.83654">
        <ele>544</ele>
        <time>2019-04-22T15:02:33.008Z</time>
      </trkpt>
      <trkpt lat="43.0219" lon="0.83656">
        <ele>546</ele>
        <time>2019-04-22T15:02:37.008Z</time>
      </trkpt>
      <trkpt lat="43.02181" lon="0.8366">
        <ele>546.3160064</ele>
        <time>2019-04-22T15:02:41.008Z</time>
      </trkpt>
      <trkpt lat="43.02173" lon="0.83664">
        <ele>548</ele>
        <time>2019-04-22T15:02:44.008Z</time>
      </trkpt>
      <trkpt lat="43.02165" lon="0.83667">
        <ele>550</ele>
        <time>2019-04-22T15:02:47.008Z</time>
      </trkpt>
      <trkpt lat="43.02156" lon="0.83671">
        <ele>550</ele>
        <time>2019-04-22T15:02:50.008Z</time>
      </trkpt>
      <trkpt lat="43.02146" lon="0.83675">
        <ele>550</ele>
        <time>2019-04-22T15:02:53.008Z</time>
      </trkpt>
      <trkpt lat="43.02137" lon="0.83678">
        <ele>550</ele>
        <time>2019-04-22T15:02:56.008Z</time>
      </trkpt>
      <trkpt lat="43.02128" lon="0.83683">
        <ele>550</ele>
        <time>2019-04-22T15:02:59.008Z</time>
      </trkpt>
      <trkpt lat="43.02119" lon="0.83687">
        <ele>551</ele>
        <time>2019-04-22T15:03:02.008Z</time>
      </trkpt>
      <trkpt lat="43.0211" lon="0.83691">
        <ele>551</ele>
        <time>2019-04-22T15:03:05.008Z</time>
      </trkpt>
      <trkpt lat="43.02101" lon="0.83695">
        <ele>551</ele>
        <time>2019-04-22T15:03:08.008Z</time>
      </trkpt>
      <trkpt lat="43.02093" lon="0.83699">
        <ele>551.1580032</ele>
        <time>2019-04-22T15:03:11.008Z</time>
      </trkpt>
      <trkpt lat="43.02084" lon="0.83702">
        <ele>552</ele>
        <time>2019-04-22T15:03:14.008Z</time>
      </trkpt>
      <trkpt lat="43.02072" lon="0.83707">
        <ele>552</ele>
        <time>2019-04-22T15:03:18.008Z</time>
      </trkpt>
      <trkpt lat="43.02063" lon="0.83711">
        <ele>552.3160064</ele>
        <time>2019-04-22T15:03:21.008Z</time>
      </trkpt>
      <trkpt lat="43.02053" lon="0.83716">
        <ele>554</ele>
        <time>2019-04-22T15:03:25.008Z</time>
      </trkpt>
      <trkpt lat="43.02043" lon="0.83722">
        <ele>554</ele>
        <time>2019-04-22T15:03:29.008Z</time>
      </trkpt>
      <trkpt lat="43.02034" lon="0.83726">
        <ele>556</ele>
        <time>2019-04-22T15:03:32.008Z</time>
      </trkpt>
      <trkpt lat="43.02026" lon="0.8373">
        <ele>556</ele>
        <time>2019-04-22T15:03:35.008Z</time>
      </trkpt>
      <trkpt lat="43.02017" lon="0.83734">
        <ele>556</ele>
        <time>2019-04-22T15:03:38.008Z</time>
      </trkpt>
      <trkpt lat="43.02008" lon="0.83739">
        <ele>556.3160064</ele>
        <time>2019-04-22T15:03:41.008Z</time>
      </trkpt>
      <trkpt lat="43.02002" lon="0.83742">
        <ele>558</ele>
        <time>2019-04-22T15:03:43.008Z</time>
      </trkpt>
      <trkpt lat="43.01992" lon="0.83752">
        <ele>558</ele>
        <time>2019-04-22T15:03:47.008Z</time>
      </trkpt>
      <trkpt lat="43.01987" lon="0.83758">
        <ele>558</ele>
        <time>2019-04-22T15:03:49.008Z</time>
      </trkpt>
      <trkpt lat="43.0198" lon="0.83766">
        <ele>560</ele>
        <time>2019-04-22T15:03:52.008Z</time>
      </trkpt>
      <trkpt lat="43.01974" lon="0.83776">
        <ele>560</ele>
        <time>2019-04-22T15:03:55.008Z</time>
      </trkpt>
      <trkpt lat="43.01969" lon="0.83787">
        <ele>560</ele>
        <time>2019-04-22T15:03:58.008Z</time>
      </trkpt>
      <trkpt lat="43.01964" lon="0.83801">
        <ele>559.8419968</ele>
        <time>2019-04-22T15:04:01.008Z</time>
      </trkpt>
      <trkpt lat="43.01962" lon="0.83816">
        <ele>559</ele>
        <time>2019-04-22T15:04:04.008Z</time>
      </trkpt>
      <trkpt lat="43.01965" lon="0.83833">
        <ele>559</ele>
        <time>2019-04-22T15:04:07.008Z</time>
      </trkpt>
      <trkpt lat="43.01967" lon="0.83846">
        <ele>559</ele>
        <time>2019-04-22T15:04:09.008Z</time>
      </trkpt>
      <trkpt lat="43.01969" lon="0.83862">
        <ele>559</ele>
        <time>2019-04-22T15:04:11.008Z</time>
      </trkpt>
      <trkpt lat="43.01971" lon="0.83875">
        <ele>559</ele>
        <time>2019-04-22T15:04:13.008Z</time>
      </trkpt>
      <trkpt lat="43.01974" lon="0.83888">
        <ele>559</ele>
        <time>2019-04-22T15:04:15.008Z</time>
      </trkpt>
      <trkpt lat="43.01978" lon="0.83906">
        <ele>559</ele>
        <time>2019-04-22T15:04:18.008Z</time>
      </trkpt>
      <trkpt lat="43.01981" lon="0.83926">
        <ele>559</ele>
        <time>2019-04-22T15:04:21.008Z</time>
      </trkpt>
      <trkpt lat="43.01983" lon="0.8394">
        <ele>559</ele>
        <time>2019-04-22T15:04:23.008Z</time>
      </trkpt>
      <trkpt lat="43.01984" lon="0.8396">
        <ele>559</ele>
        <time>2019-04-22T15:04:26.008Z</time>
      </trkpt>
      <trkpt lat="43.01985" lon="0.83979">
        <ele>559</ele>
        <time>2019-04-22T15:04:29.008Z</time>
      </trkpt>
      <trkpt lat="43.01985" lon="0.83996">
        <ele>559</ele>
        <time>2019-04-22T15:04:32.008Z</time>
      </trkpt>
      <trkpt lat="43.01984" lon="0.8401">
        <ele>559</ele>
        <time>2019-04-22T15:04:34.008Z</time>
      </trkpt>
      <trkpt lat="43.01984" lon="0.84031">
        <ele>559</ele>
        <time>2019-04-22T15:04:37.008Z</time>
      </trkpt>
      <trkpt lat="43.01985" lon="0.84045">
        <ele>559</ele>
        <time>2019-04-22T15:04:39.008Z</time>
      </trkpt>
      <trkpt lat="43.01986" lon="0.8406">
        <ele>559.1580032</ele>
        <time>2019-04-22T15:04:41.008Z</time>
      </trkpt>
      <trkpt lat="43.01987" lon="0.84073">
        <ele>560</ele>
        <time>2019-04-22T15:04:43.008Z</time>
      </trkpt>
      <trkpt lat="43.0199" lon="0.84093">
        <ele>560</ele>
        <time>2019-04-22T15:04:46.008Z</time>
      </trkpt>
      <trkpt lat="43.01994" lon="0.84113">
        <ele>560</ele>
        <time>2019-04-22T15:04:49.008Z</time>
      </trkpt>
      <trkpt lat="43.01997" lon="0.84126">
        <ele>560.1580032</ele>
        <time>2019-04-22T15:04:51.008Z</time>
      </trkpt>
      <trkpt lat="43.02002" lon="0.84139">
        <ele>561</ele>
        <time>2019-04-22T15:04:53.008Z</time>
      </trkpt>
      <trkpt lat="43.02007" lon="0.84151">
        <ele>561</ele>
        <time>2019-04-22T15:04:55.008Z</time>
      </trkpt>
      <trkpt lat="43.02013" lon="0.84163">
        <ele>561</ele>
        <time>2019-04-22T15:04:57.008Z</time>
      </trkpt>
      <trkpt lat="43.02016" lon="0.84176">
        <ele>561</ele>
        <time>2019-04-22T15:04:59.008Z</time>
      </trkpt>
      <trkpt lat="43.02018" lon="0.84195">
        <ele>561</ele>
        <time>2019-04-22T15:05:02.008Z</time>
      </trkpt>
      <trkpt lat="43.02018" lon="0.84211">
        <ele>561</ele>
        <time>2019-04-22T15:05:05.008Z</time>
      </trkpt>
      <trkpt lat="43.02019" lon="0.84229">
        <ele>561</ele>
        <time>2019-04-22T15:05:08.008Z</time>
      </trkpt>
      <trkpt lat="43.02021" lon="0.84243">
        <ele>561</ele>
        <time>2019-04-22T15:05:10.008Z</time>
      </trkpt>
      <trkpt lat="43.02024" lon="0.84256">
        <ele>561</ele>
        <time>2019-04-22T15:05:12.008Z</time>
      </trkpt>
      <trkpt lat="43.02027" lon="0.8427">
        <ele>561</ele>
        <time>2019-04-22T15:05:14.008Z</time>
      </trkpt>
      <trkpt lat="43.02031" lon="0.84284">
        <ele>561</ele>
        <time>2019-04-22T15:05:16.008Z</time>
      </trkpt>
      <trkpt lat="43.02033" lon="0.84299">
        <ele>561</ele>
        <time>2019-04-22T15:05:18.008Z</time>
      </trkpt>
      <trkpt lat="43.02035" lon="0.84315">
        <ele>561</ele>
        <time>2019-04-22T15:05:20.008Z</time>
      </trkpt>
      <trkpt lat="43.02036" lon="0.8433">
        <ele>559</ele>
        <time>2019-04-22T15:05:22.008Z</time>
      </trkpt>
      <trkpt lat="43.02036" lon="0.84346">
        <ele>559</ele>
        <time>2019-04-22T15:05:24.008Z</time>
      </trkpt>
      <trkpt lat="43.02035" lon="0.84362">
        <ele>559</ele>
        <time>2019-04-22T15:05:26.008Z</time>
      </trkpt>
      <trkpt lat="43.02033" lon="0.84378">
        <ele>559</ele>
        <time>2019-04-22T15:05:28.008Z</time>
      </trkpt>
      <trkpt lat="43.02031" lon="0.84393">
        <ele>559</ele>
        <time>2019-04-22T15:05:30.008Z</time>
      </trkpt>
      <trkpt lat="43.02029" lon="0.84409">
        <ele>558</ele>
        <time>2019-04-22T15:05:32.008Z</time>
      </trkpt>
      <trkpt lat="43.02027" lon="0.84425">
        <ele>558</ele>
        <time>2019-04-22T15:05:34.008Z</time>
      </trkpt>
      <trkpt lat="43.02025" lon="0.84438">
        <ele>558</ele>
        <time>2019-04-22T15:05:36.008Z</time>
      </trkpt>
      <trkpt lat="43.02024" lon="0.84458">
        <ele>558</ele>
        <time>2019-04-22T15:05:39.008Z</time>
      </trkpt>
      <trkpt lat="43.02025" lon="0.84478">
        <ele>558</ele>
        <time>2019-04-22T15:05:42.008Z</time>
      </trkpt>
      <trkpt lat="43.02026" lon="0.84493">
        <ele>558</ele>
        <time>2019-04-22T15:05:44.008Z</time>
      </trkpt>
      <trkpt lat="43.02028" lon="0.84509">
        <ele>558</ele>
        <time>2019-04-22T15:05:46.008Z</time>
      </trkpt>
      <trkpt lat="43.02029" lon="0.84524">
        <ele>558</ele>
        <time>2019-04-22T15:05:48.008Z</time>
      </trkpt>
      <trkpt lat="43.02032" lon="0.84539">
        <ele>558</ele>
        <time>2019-04-22T15:05:50.008Z</time>
      </trkpt>
      <trkpt lat="43.02037" lon="0.84554">
        <ele>558</ele>
        <time>2019-04-22T15:05:52.008Z</time>
      </trkpt>
      <trkpt lat="43.02045" lon="0.84565">
        <ele>558</ele>
        <time>2019-04-22T15:05:54.008Z</time>
      </trkpt>
      <trkpt lat="43.02056" lon="0.84572">
        <ele>558</ele>
        <time>2019-04-22T15:05:56.008Z</time>
      </trkpt>
      <trkpt lat="43.02067" lon="0.84577">
        <ele>558</ele>
        <time>2019-04-22T15:05:58.008Z</time>
      </trkpt>
      <trkpt lat="43.02073" lon="0.84578">
        <ele>558</ele>
        <time>2019-04-22T15:05:59.008Z</time>
      </trkpt>
      <trkpt lat="43.02079" lon="0.8458">
        <ele>558</ele>
        <time>2019-04-22T15:06:00.008Z</time>
      </trkpt>
      <trkpt lat="43.02084" lon="0.84581">
        <ele>557.8419968</ele>
        <time>2019-04-22T15:06:01.008Z</time>
      </trkpt>
      <trkpt lat="43.0209" lon="0.84583">
        <ele>557</ele>
        <time>2019-04-22T15:06:02.008Z</time>
      </trkpt>
      <trkpt lat="43.02095" lon="0.84585">
        <ele>557</ele>
        <time>2019-04-22T15:06:03.008Z</time>
      </trkpt>
      <trkpt lat="43.02108" lon="0.84587">
        <ele>557</ele>
        <time>2019-04-22T15:06:06.008Z</time>
      </trkpt>
      <trkpt lat="43.02118" lon="0.84582">
        <ele>557</ele>
        <time>2019-04-22T15:06:08.008Z</time>
      </trkpt>
      <trkpt lat="43.02127" lon="0.84574">
        <ele>557</ele>
        <time>2019-04-22T15:06:10.008Z</time>
      </trkpt>
      <trkpt lat="43.02137" lon="0.84563">
        <ele>555</ele>
        <time>2019-04-22T15:06:12.008Z</time>
      </trkpt>
      <trkpt lat="43.02148" lon="0.84552">
        <ele>555</ele>
        <time>2019-04-22T15:06:14.008Z</time>
      </trkpt>
      <trkpt lat="43.02154" lon="0.84547">
        <ele>555</ele>
        <time>2019-04-22T15:06:15.008Z</time>
      </trkpt>
      <trkpt lat="43.0216" lon="0.84541">
        <ele>555</ele>
        <time>2019-04-22T15:06:16.008Z</time>
      </trkpt>
      <trkpt lat="43.02165" lon="0.84536">
        <ele>555</ele>
        <time>2019-04-22T15:06:17.008Z</time>
      </trkpt>
      <trkpt lat="43.02171" lon="0.84532">
        <ele>555</ele>
        <time>2019-04-22T15:06:18.008Z</time>
      </trkpt>
      <trkpt lat="43.02177" lon="0.84528">
        <ele>555</ele>
        <time>2019-04-22T15:06:19.008Z</time>
      </trkpt>
      <trkpt lat="43.02184" lon="0.84524">
        <ele>555</ele>
        <time>2019-04-22T15:06:20.008Z</time>
      </trkpt>
      <trkpt lat="43.0219" lon="0.84521">
        <ele>554.3679872</ele>
        <time>2019-04-22T15:06:21.008Z</time>
      </trkpt>
      <trkpt lat="43.02196" lon="0.84518">
        <ele>551</ele>
        <time>2019-04-22T15:06:22.008Z</time>
      </trkpt>
      <trkpt lat="43.02203" lon="0.84515">
        <ele>551</ele>
        <time>2019-04-22T15:06:23.008Z</time>
      </trkpt>
      <trkpt lat="43.02211" lon="0.84512">
        <ele>551</ele>
        <time>2019-04-22T15:06:24.008Z</time>
      </trkpt>
      <trkpt lat="43.02218" lon="0.84509">
        <ele>551</ele>
        <time>2019-04-22T15:06:25.008Z</time>
      </trkpt>
      <trkpt lat="43.02225" lon="0.84505">
        <ele>550.3679872</ele>
        <time>2019-04-22T15:06:26.008Z</time>
      </trkpt>
      <trkpt lat="43.02233" lon="0.84501">
        <ele>547</ele>
        <time>2019-04-22T15:06:27.008Z</time>
      </trkpt>
      <trkpt lat="43.02241" lon="0.84496">
        <ele>547</ele>
        <time>2019-04-22T15:06:28.008Z</time>
      </trkpt>
      <trkpt lat="43.02249" lon="0.84492">
        <ele>547</ele>
        <time>2019-04-22T15:06:29.008Z</time>
      </trkpt>
      <trkpt lat="43.02256" lon="0.84487">
        <ele>547</ele>
        <time>2019-04-22T15:06:30.008Z</time>
      </trkpt>
      <trkpt lat="43.02264" lon="0.84482">
        <ele>546.5259904</ele>
        <time>2019-04-22T15:06:31.008Z</time>
      </trkpt>
      <trkpt lat="43.02272" lon="0.84476">
        <ele>543.8419968</ele>
        <time>2019-04-22T15:06:32.008Z</time>
      </trkpt>
      <trkpt lat="43.0228" lon="0.84471">
        <ele>543</ele>
        <time>2019-04-22T15:06:33.008Z</time>
      </trkpt>
      <trkpt lat="43.02288" lon="0.84465">
        <ele>542.6839936</ele>
        <time>2019-04-22T15:06:34.008Z</time>
      </trkpt>
      <trkpt lat="43.02296" lon="0.84458">
        <ele>540.8419968</ele>
        <time>2019-04-22T15:06:35.008Z</time>
      </trkpt>
      <trkpt lat="43.02304" lon="0.84452">
        <ele>539.8419968</ele>
        <time>2019-04-22T15:06:36.008Z</time>
      </trkpt>
      <trkpt lat="43.02312" lon="0.84446">
        <ele>538.8419968</ele>
        <time>2019-04-22T15:06:37.008Z</time>
      </trkpt>
      <trkpt lat="43.02321" lon="0.8444">
        <ele>538</ele>
        <time>2019-04-22T15:06:38.008Z</time>
      </trkpt>
      <trkpt lat="43.0233" lon="0.84434">
        <ele>537.8419968</ele>
        <time>2019-04-22T15:06:39.008Z</time>
      </trkpt>
      <trkpt lat="43.0234" lon="0.84428">
        <ele>537</ele>
        <time>2019-04-22T15:06:40.008Z</time>
      </trkpt>
      <trkpt lat="43.0235" lon="0.84421">
        <ele>536.8419968</ele>
        <time>2019-04-22T15:06:41.008Z</time>
      </trkpt>
      <trkpt lat="43.0236" lon="0.84416">
        <ele>535.8419968</ele>
        <time>2019-04-22T15:06:42.008Z</time>
      </trkpt>
      <trkpt lat="43.0237" lon="0.8441">
        <ele>535</ele>
        <time>2019-04-22T15:06:43.008Z</time>
      </trkpt>
      <trkpt lat="43.02381" lon="0.84404">
        <ele>534.8419968</ele>
        <time>2019-04-22T15:06:44.008Z</time>
      </trkpt>
      <trkpt lat="43.02391" lon="0.84399">
        <ele>533.8419968</ele>
        <time>2019-04-22T15:06:45.008Z</time>
      </trkpt>
      <trkpt lat="43.02401" lon="0.84396">
        <ele>533</ele>
        <time>2019-04-22T15:06:46.008Z</time>
      </trkpt>
      <trkpt lat="43.02411" lon="0.84392">
        <ele>532.8419968</ele>
        <time>2019-04-22T15:06:47.008Z</time>
      </trkpt>
      <trkpt lat="43.02421" lon="0.8439">
        <ele>531.8419968</ele>
        <time>2019-04-22T15:06:48.008Z</time>
      </trkpt>
      <trkpt lat="43.0243" lon="0.84387">
        <ele>531</ele>
        <time>2019-04-22T15:06:49.008Z</time>
      </trkpt>
      <trkpt lat="43.02439" lon="0.84385">
        <ele>531</ele>
        <time>2019-04-22T15:06:50.008Z</time>
      </trkpt>
      <trkpt lat="43.02448" lon="0.84384">
        <ele>531</ele>
        <time>2019-04-22T15:06:51.008Z</time>
      </trkpt>
      <trkpt lat="43.02457" lon="0.84382">
        <ele>531</ele>
        <time>2019-04-22T15:06:52.008Z</time>
      </trkpt>
      <trkpt lat="43.02466" lon="0.84381">
        <ele>531</ele>
        <time>2019-04-22T15:06:53.008Z</time>
      </trkpt>
      <trkpt lat="43.02475" lon="0.8438">
        <ele>531</ele>
        <time>2019-04-22T15:06:54.008Z</time>
      </trkpt>
      <trkpt lat="43.02484" lon="0.84379">
        <ele>531</ele>
        <time>2019-04-22T15:06:55.008Z</time>
      </trkpt>
      <trkpt lat="43.02493" lon="0.84379">
        <ele>530.6839936</ele>
        <time>2019-04-22T15:06:56.008Z</time>
      </trkpt>
      <trkpt lat="43.02502" lon="0.84379">
        <ele>529</ele>
        <time>2019-04-22T15:06:57.008Z</time>
      </trkpt>
      <trkpt lat="43.02511" lon="0.84381">
        <ele>529</ele>
        <time>2019-04-22T15:06:58.008Z</time>
      </trkpt>
      <trkpt lat="43.02519" lon="0.84382">
        <ele>529</ele>
        <time>2019-04-22T15:06:59.008Z</time>
      </trkpt>
      <trkpt lat="43.02535" lon="0.84387">
        <ele>528.0519808</ele>
        <time>2019-04-22T15:07:01.008Z</time>
      </trkpt>
      <trkpt lat="43.02549" lon="0.84393">
        <ele>522.8419968</ele>
        <time>2019-04-22T15:07:03.008Z</time>
      </trkpt>
      <trkpt lat="43.02563" lon="0.84397">
        <ele>521.8419968</ele>
        <time>2019-04-22T15:07:05.008Z</time>
      </trkpt>
      <trkpt lat="43.02577" lon="0.84401">
        <ele>520</ele>
        <time>2019-04-22T15:07:07.008Z</time>
      </trkpt>
      <trkpt lat="43.02585" lon="0.84403">
        <ele>520</ele>
        <time>2019-04-22T15:07:08.008Z</time>
      </trkpt>
      <trkpt lat="43.02592" lon="0.84405">
        <ele>520</ele>
        <time>2019-04-22T15:07:09.008Z</time>
      </trkpt>
      <trkpt lat="43.026" lon="0.84406">
        <ele>519.8419968</ele>
        <time>2019-04-22T15:07:10.008Z</time>
      </trkpt>
      <trkpt lat="43.02608" lon="0.84407">
        <ele>519</ele>
        <time>2019-04-22T15:07:11.008Z</time>
      </trkpt>
      <trkpt lat="43.02615" lon="0.84408">
        <ele>519</ele>
        <time>2019-04-22T15:07:12.008Z</time>
      </trkpt>
      <trkpt lat="43.02623" lon="0.84409">
        <ele>519</ele>
        <time>2019-04-22T15:07:13.008Z</time>
      </trkpt>
      <trkpt lat="43.02632" lon="0.84409">
        <ele>519</ele>
        <time>2019-04-22T15:07:14.008Z</time>
      </trkpt>
      <trkpt lat="43.0264" lon="0.8441">
        <ele>519</ele>
        <time>2019-04-22T15:07:15.008Z</time>
      </trkpt>
      <trkpt lat="43.02648" lon="0.84411">
        <ele>518.6839936</ele>
        <time>2019-04-22T15:07:16.008Z</time>
      </trkpt>
      <trkpt lat="43.02656" lon="0.84412">
        <ele>517</ele>
        <time>2019-04-22T15:07:17.008Z</time>
      </trkpt>
      <trkpt lat="43.02664" lon="0.84414">
        <ele>517</ele>
        <time>2019-04-22T15:07:18.008Z</time>
      </trkpt>
      <trkpt lat="43.02673" lon="0.84416">
        <ele>517</ele>
        <time>2019-04-22T15:07:19.008Z</time>
      </trkpt>
      <trkpt lat="43.02681" lon="0.84418">
        <ele>517</ele>
        <time>2019-04-22T15:07:20.008Z</time>
      </trkpt>
      <trkpt lat="43.0269" lon="0.8442">
        <ele>516.5259904</ele>
        <time>2019-04-22T15:07:21.008Z</time>
      </trkpt>
      <trkpt lat="43.02706" lon="0.84424">
        <ele>514</ele>
        <time>2019-04-22T15:07:23.008Z</time>
      </trkpt>
      <trkpt lat="43.02722" lon="0.84428">
        <ele>514</ele>
        <time>2019-04-22T15:07:25.008Z</time>
      </trkpt>
      <trkpt lat="43.02737" lon="0.84432">
        <ele>513</ele>
        <time>2019-04-22T15:07:27.008Z</time>
      </trkpt>
      <trkpt lat="43.02742" lon="0.84433">
        <ele>513</ele>
        <time>2019-04-22T15:07:28.008Z</time>
      </trkpt>
      <trkpt lat="43.02746" lon="0.84435">
        <ele>513</ele>
        <time>2019-04-22T15:07:31.008Z</time>
      </trkpt>
      <trkpt lat="43.02739" lon="0.84437">
        <ele>513</ele>
        <time>2019-04-22T15:07:45.008Z</time>
      </trkpt>
      <trkpt lat="43.02742" lon="0.84448">
        <ele>513</ele>
        <time>2019-04-22T15:07:57.008Z</time>
      </trkpt>
      <trkpt lat="43.0275" lon="0.84455">
        <ele>513</ele>
        <time>2019-04-22T15:07:59.008Z</time>
      </trkpt>
      <trkpt lat="43.02763" lon="0.84466">
        <ele>511.7359744</ele>
        <time>2019-04-22T15:08:01.008Z</time>
      </trkpt>
      <trkpt lat="43.02769" lon="0.84472">
        <ele>504.8419968</ele>
        <time>2019-04-22T15:08:02.008Z</time>
      </trkpt>
      <trkpt lat="43.02776" lon="0.84478">
        <ele>503.8419968</ele>
        <time>2019-04-22T15:08:03.008Z</time>
      </trkpt>
      <trkpt lat="43.02782" lon="0.84485">
        <ele>502.8419968</ele>
        <time>2019-04-22T15:08:04.008Z</time>
      </trkpt>
      <trkpt lat="43.02789" lon="0.84491">
        <ele>501.8419968</ele>
        <time>2019-04-22T15:08:05.008Z</time>
      </trkpt>
      <trkpt lat="43.02803" lon="0.84504">
        <ele>499.8419968</ele>
        <time>2019-04-22T15:08:07.008Z</time>
      </trkpt>
      <trkpt lat="43.02817" lon="0.84518">
        <ele>497.8419968</ele>
        <time>2019-04-22T15:08:09.008Z</time>
      </trkpt>
      <trkpt lat="43.02828" lon="0.84532">
        <ele>496</ele>
        <time>2019-04-22T15:08:11.008Z</time>
      </trkpt>
      <trkpt lat="43.02837" lon="0.84545">
        <ele>495</ele>
        <time>2019-04-22T15:08:13.008Z</time>
      </trkpt>
      <trkpt lat="43.0284" lon="0.84559">
        <ele>493.6839936</ele>
        <time>2019-04-22T15:08:15.008Z</time>
      </trkpt>
      <trkpt lat="43.02838" lon="0.84577">
        <ele>490.85051006555</ele>
        <time>2019-04-22T15:08:17.008Z</time>
      </trkpt>
      <trkpt lat="43.02833" lon="0.84594">
        <ele>489</ele>
        <time>2019-04-22T15:08:19.008Z</time>
      </trkpt>
      <trkpt lat="43.02825" lon="0.84606">
        <ele>489</ele>
        <time>2019-04-22T15:08:21.008Z</time>
      </trkpt>
      <trkpt lat="43.02819" lon="0.84616">
        <ele>489</ele>
        <time>2019-04-22T15:08:24.008Z</time>
      </trkpt>
      <trkpt lat="43.02825" lon="0.84627">
        <ele>489</ele>
        <time>2019-04-22T15:08:29.008Z</time>
      </trkpt>
      <trkpt lat="43.02834" lon="0.84636">
        <ele>489</ele>
        <time>2019-04-22T15:08:33.008Z</time>
      </trkpt>
      <trkpt lat="43.0284" lon="0.84652">
        <ele>489</ele>
        <time>2019-04-22T15:08:37.008Z</time>
      </trkpt>
      <trkpt lat="43.02848" lon="0.84667">
        <ele>489</ele>
        <time>2019-04-22T15:08:40.008Z</time>
      </trkpt>
      <trkpt lat="43.02852" lon="0.8468">
        <ele>488</ele>
        <time>2019-04-22T15:08:42.008Z</time>
      </trkpt>
      <trkpt lat="43.02857" lon="0.84693">
        <ele>488</ele>
        <time>2019-04-22T15:08:44.008Z</time>
      </trkpt>
      <trkpt lat="43.02862" lon="0.84704">
        <ele>488</ele>
        <time>2019-04-22T15:08:46.008Z</time>
      </trkpt>
      <trkpt lat="43.02865" lon="0.84717">
        <ele>488</ele>
        <time>2019-04-22T15:08:49.008Z</time>
      </trkpt>
      <trkpt lat="43.02865" lon="0.84731">
        <ele>489</ele>
        <time>2019-04-22T15:08:54.008Z</time>
      </trkpt>
      <trkpt lat="43.02867" lon="0.84746">
        <ele>489</ele>
        <time>2019-04-22T15:08:58.008Z</time>
      </trkpt>
      <trkpt lat="43.0287" lon="0.84756">
        <ele>489</ele>
        <time>2019-04-22T15:09:02.008Z</time>
      </trkpt>
      <trkpt lat="43.02877" lon="0.84766">
        <ele>489</ele>
        <time>2019-04-22T15:09:07.008Z</time>
      </trkpt>
      <trkpt lat="43.0288" lon="0.84779">
        <ele>491</ele>
        <time>2019-04-22T15:09:12.008Z</time>
      </trkpt>
      <trkpt lat="43.02882" lon="0.84791">
        <ele>491</ele>
        <time>2019-04-22T15:09:16.008Z</time>
      </trkpt>
      <trkpt lat="43.02885" lon="0.84806">
        <ele>491</ele>
        <time>2019-04-22T15:09:20.008Z</time>
      </trkpt>
      <trkpt lat="43.02887" lon="0.84819">
        <ele>492</ele>
        <time>2019-04-22T15:09:25.008Z</time>
      </trkpt>
      <trkpt lat="43.02892" lon="0.84832">
        <ele>492</ele>
        <time>2019-04-22T15:09:29.008Z</time>
      </trkpt>
      <trkpt lat="43.02895" lon="0.84847">
        <ele>492</ele>
        <time>2019-04-22T15:09:33.008Z</time>
      </trkpt>
      <trkpt lat="43.02898" lon="0.84863">
        <ele>492</ele>
        <time>2019-04-22T15:09:37.008Z</time>
      </trkpt>
      <trkpt lat="43.02903" lon="0.84874">
        <ele>492</ele>
        <time>2019-04-22T15:09:40.008Z</time>
      </trkpt>
      <trkpt lat="43.02907" lon="0.84885">
        <ele>491</ele>
        <time>2019-04-22T15:09:43.008Z</time>
      </trkpt>
      <trkpt lat="43.02911" lon="0.84897">
        <ele>491</ele>
        <time>2019-04-22T15:09:46.008Z</time>
      </trkpt>
      <trkpt lat="43.02913" lon="0.8491">
        <ele>491</ele>
        <time>2019-04-22T15:09:49.008Z</time>
      </trkpt>
      <trkpt lat="43.02917" lon="0.84924">
        <ele>491</ele>
        <time>2019-04-22T15:09:53.008Z</time>
      </trkpt>
      <trkpt lat="43.0292" lon="0.84935">
        <ele>491</ele>
        <time>2019-04-22T15:09:56.008Z</time>
      </trkpt>
      <trkpt lat="43.02924" lon="0.84949">
        <ele>491</ele>
        <time>2019-04-22T15:09:59.008Z</time>
      </trkpt>
      <trkpt lat="43.02927" lon="0.84964">
        <ele>492</ele>
        <time>2019-04-22T15:10:03.008Z</time>
      </trkpt>
      <trkpt lat="43.0293" lon="0.84977">
        <ele>492</ele>
        <time>2019-04-22T15:10:06.008Z</time>
      </trkpt>
      <trkpt lat="43.02933" lon="0.84988">
        <ele>492</ele>
        <time>2019-04-22T15:10:09.008Z</time>
      </trkpt>
      <trkpt lat="43.02935" lon="0.85">
        <ele>493</ele>
        <time>2019-04-22T15:10:12.008Z</time>
      </trkpt>
      <trkpt lat="43.02937" lon="0.85012">
        <ele>493</ele>
        <time>2019-04-22T15:10:15.008Z</time>
      </trkpt>
      <trkpt lat="43.0294" lon="0.85023">
        <ele>493</ele>
        <time>2019-04-22T15:10:17.008Z</time>
      </trkpt>
      <trkpt lat="43.02944" lon="0.85034">
        <ele>493</ele>
        <time>2019-04-22T15:10:20.008Z</time>
      </trkpt>
      <trkpt lat="43.02947" lon="0.85046">
        <ele>494</ele>
        <time>2019-04-22T15:10:23.008Z</time>
      </trkpt>
      <trkpt lat="43.0295" lon="0.85059">
        <ele>494</ele>
        <time>2019-04-22T15:10:26.008Z</time>
      </trkpt>
      <trkpt lat="43.02953" lon="0.85071">
        <ele>494</ele>
        <time>2019-04-22T15:10:29.008Z</time>
      </trkpt>
      <trkpt lat="43.02956" lon="0.85081">
        <ele>494.1580032</ele>
        <time>2019-04-22T15:10:31.008Z</time>
      </trkpt>
      <trkpt lat="43.02959" lon="0.85094">
        <ele>495</ele>
        <time>2019-04-22T15:10:35.008Z</time>
      </trkpt>
      <trkpt lat="43.02958" lon="0.85107">
        <ele>495</ele>
        <time>2019-04-22T15:10:38.008Z</time>
      </trkpt>
      <trkpt lat="43.02959" lon="0.8512">
        <ele>495.1580032</ele>
        <time>2019-04-22T15:10:41.008Z</time>
      </trkpt>
      <trkpt lat="43.0296" lon="0.85132">
        <ele>496</ele>
        <time>2019-04-22T15:10:44.008Z</time>
      </trkpt>
      <trkpt lat="43.02962" lon="0.85144">
        <ele>496</ele>
        <time>2019-04-22T15:10:47.008Z</time>
      </trkpt>
      <trkpt lat="43.02962" lon="0.85157">
        <ele>496</ele>
        <time>2019-04-22T15:10:50.008Z</time>
      </trkpt>
      <trkpt lat="43.02963" lon="0.85169">
        <ele>496</ele>
        <time>2019-04-22T15:10:53.008Z</time>
      </trkpt>
      <trkpt lat="43.02964" lon="0.85179">
        <ele>496</ele>
        <time>2019-04-22T15:10:55.008Z</time>
      </trkpt>
      <trkpt lat="43.02967" lon="0.85191">
        <ele>496</ele>
        <time>2019-04-22T15:10:58.008Z</time>
      </trkpt>
      <trkpt lat="43.02968" lon="0.85203">
        <ele>498</ele>
        <time>2019-04-22T15:11:02.008Z</time>
      </trkpt>
      <trkpt lat="43.02971" lon="0.85218">
        <ele>498</ele>
        <time>2019-04-22T15:11:06.008Z</time>
      </trkpt>
      <trkpt lat="43.02973" lon="0.85229">
        <ele>498</ele>
        <time>2019-04-22T15:11:09.008Z</time>
      </trkpt>
      <trkpt lat="43.02975" lon="0.85242">
        <ele>500</ele>
        <time>2019-04-22T15:11:12.008Z</time>
      </trkpt>
      <trkpt lat="43.02976" lon="0.85253">
        <ele>500</ele>
        <time>2019-04-22T15:11:15.008Z</time>
      </trkpt>
      <trkpt lat="43.02977" lon="0.85264">
        <ele>500</ele>
        <time>2019-04-22T15:11:18.008Z</time>
      </trkpt>
      <trkpt lat="43.02978" lon="0.85276">
        <ele>500.1580032</ele>
        <time>2019-04-22T15:11:21.008Z</time>
      </trkpt>
      <trkpt lat="43.02977" lon="0.85287">
        <ele>501</ele>
        <time>2019-04-22T15:11:24.008Z</time>
      </trkpt>
      <trkpt lat="43.02976" lon="0.85303">
        <ele>501</ele>
        <time>2019-04-22T15:11:27.008Z</time>
      </trkpt>
      <trkpt lat="43.02975" lon="0.85322">
        <ele>500.8419968</ele>
        <time>2019-04-22T15:11:31.008Z</time>
      </trkpt>
      <trkpt lat="43.02976" lon="0.85338">
        <ele>500</ele>
        <time>2019-04-22T15:11:33.008Z</time>
      </trkpt>
      <trkpt lat="43.02972" lon="0.8535">
        <ele>500</ele>
        <time>2019-04-22T15:11:35.008Z</time>
      </trkpt>
      <trkpt lat="43.02967" lon="0.85359">
        <ele>500</ele>
        <time>2019-04-22T15:11:38.008Z</time>
      </trkpt>
      <trkpt lat="43.02961" lon="0.85369">
        <ele>501</ele>
        <time>2019-04-22T15:11:42.008Z</time>
      </trkpt>
      <trkpt lat="43.02956" lon="0.85377">
        <ele>501</ele>
        <time>2019-04-22T15:11:45.008Z</time>
      </trkpt>
      <trkpt lat="43.02951" lon="0.85384">
        <ele>501</ele>
        <time>2019-04-22T15:11:48.008Z</time>
      </trkpt>
      <trkpt lat="43.02945" lon="0.85392">
        <ele>501.4740096</ele>
        <time>2019-04-22T15:11:51.008Z</time>
      </trkpt>
      <trkpt lat="43.0294" lon="0.85401">
        <ele>504</ele>
        <time>2019-04-22T15:11:54.008Z</time>
      </trkpt>
      <trkpt lat="43.02935" lon="0.8541">
        <ele>505</ele>
        <time>2019-04-22T15:11:57.008Z</time>
      </trkpt>
      <trkpt lat="43.02931" lon="0.85416">
        <ele>505</ele>
        <time>2019-04-22T15:11:59.008Z</time>
      </trkpt>
      <trkpt lat="43.02926" lon="0.85424">
        <ele>507</ele>
        <time>2019-04-22T15:12:02.008Z</time>
      </trkpt>
      <trkpt lat="43.02922" lon="0.85431">
        <ele>507</ele>
        <time>2019-04-22T15:12:05.008Z</time>
      </trkpt>
      <trkpt lat="43.02914" lon="0.85445">
        <ele>507</ele>
        <time>2019-04-22T15:12:10.008Z</time>
      </trkpt>
      <trkpt lat="43.02908" lon="0.8546">
        <ele>508</ele>
        <time>2019-04-22T15:12:14.008Z</time>
      </trkpt>
      <trkpt lat="43.02902" lon="0.85471">
        <ele>508</ele>
        <time>2019-04-22T15:12:17.008Z</time>
      </trkpt>
      <trkpt lat="43.02893" lon="0.85481">
        <ele>508.1580032</ele>
        <time>2019-04-22T15:12:21.008Z</time>
      </trkpt>
      <trkpt lat="43.02885" lon="0.85493">
        <ele>509</ele>
        <time>2019-04-22T15:12:25.008Z</time>
      </trkpt>
      <trkpt lat="43.02877" lon="0.85506">
        <ele>509</ele>
        <time>2019-04-22T15:12:29.008Z</time>
      </trkpt>
      <trkpt lat="43.0287" lon="0.85519">
        <ele>510</ele>
        <time>2019-04-22T15:12:33.008Z</time>
      </trkpt>
      <trkpt lat="43.02863" lon="0.8553">
        <ele>510</ele>
        <time>2019-04-22T15:12:37.008Z</time>
      </trkpt>
      <trkpt lat="43.02857" lon="0.85542">
        <ele>510</ele>
        <time>2019-04-22T15:12:41.008Z</time>
      </trkpt>
      <trkpt lat="43.02851" lon="0.85554">
        <ele>510</ele>
        <time>2019-04-22T15:12:44.008Z</time>
      </trkpt>
      <trkpt lat="43.02845" lon="0.85569">
        <ele>510</ele>
        <time>2019-04-22T15:12:47.008Z</time>
      </trkpt>
      <trkpt lat="43.02841" lon="0.85583">
        <ele>510</ele>
        <time>2019-04-22T15:12:49.008Z</time>
      </trkpt>
      <trkpt lat="43.02839" lon="0.85599">
        <ele>510</ele>
        <time>2019-04-22T15:12:52.008Z</time>
      </trkpt>
      <trkpt lat="43.02847" lon="0.85611">
        <ele>510</ele>
        <time>2019-04-22T15:12:57.008Z</time>
      </trkpt>
      <trkpt lat="43.02859" lon="0.85615">
        <ele>509.8419968</ele>
        <time>2019-04-22T15:13:01.008Z</time>
      </trkpt>
      <trkpt lat="43.0286" lon="0.85631">
        <ele>510</ele>
        <time>2019-04-22T15:13:46.008Z</time>
      </trkpt>
      <trkpt lat="43.02854" lon="0.85639">
        <ele>510</ele>
        <time>2019-04-22T15:13:50.008Z</time>
      </trkpt>
      <trkpt lat="43.02845" lon="0.85646">
        <ele>511</ele>
        <time>2019-04-22T15:13:55.008Z</time>
      </trkpt>
      <trkpt lat="43.02837" lon="0.85655">
        <ele>511</ele>
        <time>2019-04-22T15:14:00.008Z</time>
      </trkpt>
      <trkpt lat="43.02829" lon="0.85664">
        <ele>515.1580032</ele>
        <time>2019-04-22T15:14:06.008Z</time>
      </trkpt>
      <trkpt lat="43.02821" lon="0.85672">
        <ele>517</ele>
        <time>2019-04-22T15:14:12.008Z</time>
      </trkpt>
      <trkpt lat="43.02814" lon="0.85682">
        <ele>517</ele>
        <time>2019-04-22T15:14:20.008Z</time>
      </trkpt>
      <trkpt lat="43.02809" lon="0.85695">
        <ele>519</ele>
        <time>2019-04-22T15:14:27.008Z</time>
      </trkpt>
      <trkpt lat="43.02803" lon="0.85708">
        <ele>521</ele>
        <time>2019-04-22T15:14:34.008Z</time>
      </trkpt>
      <trkpt lat="43.02796" lon="0.85719">
        <ele>521</ele>
        <time>2019-04-22T15:14:40.008Z</time>
      </trkpt>
      <trkpt lat="43.02789" lon="0.85729">
        <ele>525.1580032</ele>
        <time>2019-04-22T15:14:46.008Z</time>
      </trkpt>
      <trkpt lat="43.02782" lon="0.8574">
        <ele>528</ele>
        <time>2019-04-22T15:14:53.008Z</time>
      </trkpt>
      <trkpt lat="43.02774" lon="0.85748">
        <ele>529</ele>
        <time>2019-04-22T15:14:59.008Z</time>
      </trkpt>
      <trkpt lat="43.02767" lon="0.85759">
        <ele>529</ele>
        <time>2019-04-22T15:15:06.008Z</time>
      </trkpt>
      <trkpt lat="43.02759" lon="0.8577">
        <ele>532</ele>
        <time>2019-04-22T15:15:13.008Z</time>
      </trkpt>
      <trkpt lat="43.02752" lon="0.85782">
        <ele>534</ele>
        <time>2019-04-22T15:15:19.008Z</time>
      </trkpt>
      <trkpt lat="43.02745" lon="0.85792">
        <ele>535</ele>
        <time>2019-04-22T15:15:25.008Z</time>
      </trkpt>
      <trkpt lat="43.02738" lon="0.85803">
        <ele>537</ele>
        <time>2019-04-22T15:15:31.008Z</time>
      </trkpt>
      <trkpt lat="43.02729" lon="0.8581">
        <ele>537</ele>
        <time>2019-04-22T15:15:37.008Z</time>
      </trkpt>
      <trkpt lat="43.02719" lon="0.85818">
        <ele>539</ele>
        <time>2019-04-22T15:15:44.008Z</time>
      </trkpt>
      <trkpt lat="43.02709" lon="0.85825">
        <ele>539</ele>
        <time>2019-04-22T15:15:50.008Z</time>
      </trkpt>
      <trkpt lat="43.02701" lon="0.85833">
        <ele>541</ele>
        <time>2019-04-22T15:15:55.008Z</time>
      </trkpt>
      <trkpt lat="43.02693" lon="0.85842">
        <ele>541.3160064</ele>
        <time>2019-04-22T15:16:01.008Z</time>
      </trkpt>
      <trkpt lat="43.02686" lon="0.85851">
        <ele>543</ele>
        <time>2019-04-22T15:16:07.008Z</time>
      </trkpt>
      <trkpt lat="43.02678" lon="0.85859">
        <ele>545</ele>
        <time>2019-04-22T15:16:13.008Z</time>
      </trkpt>
      <trkpt lat="43.0267" lon="0.85868">
        <ele>545</ele>
        <time>2019-04-22T15:16:19.008Z</time>
      </trkpt>
      <trkpt lat="43.02662" lon="0.85879">
        <ele>547</ele>
        <time>2019-04-22T15:16:25.008Z</time>
      </trkpt>
      <trkpt lat="43.02655" lon="0.8589">
        <ele>547.6320128</ele>
        <time>2019-04-22T15:16:31.008Z</time>
      </trkpt>
      <trkpt lat="43.02647" lon="0.859">
        <ele>553</ele>
        <time>2019-04-22T15:16:38.008Z</time>
      </trkpt>
      <trkpt lat="43.02641" lon="0.85912">
        <ele>554</ele>
        <time>2019-04-22T15:16:45.008Z</time>
      </trkpt>
      <trkpt lat="43.02634" lon="0.85922">
        <ele>557</ele>
        <time>2019-04-22T15:16:52.008Z</time>
      </trkpt>
      <trkpt lat="43.02627" lon="0.85932">
        <ele>559</ele>
        <time>2019-04-22T15:16:58.008Z</time>
      </trkpt>
      <trkpt lat="43.02621" lon="0.85944">
        <ele>561</ele>
        <time>2019-04-22T15:17:05.008Z</time>
      </trkpt>
      <trkpt lat="43.02612" lon="0.85952">
        <ele>562</ele>
        <time>2019-04-22T15:17:15.008Z</time>
      </trkpt>
      <trkpt lat="43.02605" lon="0.85963">
        <ele>564</ele>
        <time>2019-04-22T15:17:27.008Z</time>
      </trkpt>
      <trkpt lat="43.02597" lon="0.85971">
        <ele>567</ele>
        <time>2019-04-22T15:17:39.008Z</time>
      </trkpt>
      <trkpt lat="43.02589" lon="0.85977">
        <ele>569.1580032</ele>
        <time>2019-04-22T15:17:51.008Z</time>
      </trkpt>
      <trkpt lat="43.02581" lon="0.85984">
        <ele>572</ele>
        <time>2019-04-22T15:18:03.008Z</time>
      </trkpt>
      <trkpt lat="43.02573" lon="0.8599">
        <ele>574</ele>
        <time>2019-04-22T15:18:15.008Z</time>
      </trkpt>
      <trkpt lat="43.02564" lon="0.85993">
        <ele>576</ele>
        <time>2019-04-22T15:18:27.008Z</time>
      </trkpt>
      <trkpt lat="43.02556" lon="0.86002">
        <ele>577</ele>
        <time>2019-04-22T15:18:40.008Z</time>
      </trkpt>
      <trkpt lat="43.02548" lon="0.86012">
        <ele>579.1580032</ele>
        <time>2019-04-22T15:18:51.008Z</time>
      </trkpt>
      <trkpt lat="43.02548" lon="0.86026">
        <ele>585</ele>
        <time>2019-04-22T15:19:16.008Z</time>
      </trkpt>
      <trkpt lat="43.02555" lon="0.86027">
        <ele>586</ele>
        <time>2019-04-22T15:19:35.008Z</time>
      </trkpt>
      <trkpt lat="43.02561" lon="0.86031">
        <ele>586</ele>
        <time>2019-04-22T15:19:38.008Z</time>
      </trkpt>
      <trkpt lat="43.02568" lon="0.86037">
        <ele>588</ele>
        <time>2019-04-22T15:19:42.008Z</time>
      </trkpt>
      <trkpt lat="43.02576" lon="0.86043">
        <ele>589</ele>
        <time>2019-04-22T15:19:47.008Z</time>
      </trkpt>
      <trkpt lat="43.02582" lon="0.8605">
        <ele>589</ele>
        <time>2019-04-22T15:19:50.008Z</time>
      </trkpt>
      <trkpt lat="43.02587" lon="0.86058">
        <ele>591</ele>
        <time>2019-04-22T15:19:54.008Z</time>
      </trkpt>
      <trkpt lat="43.02591" lon="0.86068">
        <ele>593</ele>
        <time>2019-04-22T15:19:59.008Z</time>
      </trkpt>
      <trkpt lat="43.026" lon="0.86078">
        <ele>594</ele>
        <time>2019-04-22T15:20:05.008Z</time>
      </trkpt>
      <trkpt lat="43.02607" lon="0.86088">
        <ele>595.3160064</ele>
        <time>2019-04-22T15:20:11.008Z</time>
      </trkpt>
      <trkpt lat="43.02615" lon="0.86098">
        <ele>597</ele>
        <time>2019-04-22T15:20:16.008Z</time>
      </trkpt>
      <trkpt lat="43.02623" lon="0.86106">
        <ele>597</ele>
        <time>2019-04-22T15:20:20.008Z</time>
      </trkpt>
      <trkpt lat="43.0263" lon="0.86108">
        <ele>598</ele>
        <time>2019-04-22T15:20:23.008Z</time>
      </trkpt>
      <trkpt lat="43.02639" lon="0.8611">
        <ele>598</ele>
        <time>2019-04-22T15:20:27.008Z</time>
      </trkpt>
      <trkpt lat="43.02647" lon="0.8611">
        <ele>598.1580032</ele>
        <time>2019-04-22T15:20:31.008Z</time>
      </trkpt>
      <trkpt lat="43.02656" lon="0.86109">
        <ele>599</ele>
        <time>2019-04-22T15:20:36.008Z</time>
      </trkpt>
      <trkpt lat="43.02665" lon="0.86106">
        <ele>599.4740096</ele>
        <time>2019-04-22T15:20:41.008Z</time>
      </trkpt>
      <trkpt lat="43.02672" lon="0.86099">
        <ele>602.3128746499</ele>
        <time>2019-04-22T15:20:46.008Z</time>
      </trkpt>
      <trkpt lat="43.02679" lon="0.86091">
        <ele>604.3160064</ele>
        <time>2019-04-22T15:20:51.008Z</time>
      </trkpt>
      <trkpt lat="43.02686" lon="0.86087">
        <ele>606</ele>
        <time>2019-04-22T15:20:55.008Z</time>
      </trkpt>
      <trkpt lat="43.02693" lon="0.86081">
        <ele>607</ele>
        <time>2019-04-22T15:21:00.008Z</time>
      </trkpt>
      <trkpt lat="43.027" lon="0.86077">
        <ele>608</ele>
        <time>2019-04-22T15:21:05.008Z</time>
      </trkpt>
      <trkpt lat="43.02707" lon="0.86075">
        <ele>610</ele>
        <time>2019-04-22T15:21:09.008Z</time>
      </trkpt>
      <trkpt lat="43.02715" lon="0.86073">
        <ele>612</ele>
        <time>2019-04-22T15:21:14.008Z</time>
      </trkpt>
      <trkpt lat="43.02724" lon="0.86071">
        <ele>613</ele>
        <time>2019-04-22T15:21:19.008Z</time>
      </trkpt>
      <trkpt lat="43.02731" lon="0.86069">
        <ele>614</ele>
        <time>2019-04-22T15:21:23.008Z</time>
      </trkpt>
      <trkpt lat="43.02739" lon="0.86067">
        <ele>614</ele>
        <time>2019-04-22T15:21:28.008Z</time>
      </trkpt>
      <trkpt lat="43.02746" lon="0.86064">
        <ele>616</ele>
        <time>2019-04-22T15:21:32.008Z</time>
      </trkpt>
      <trkpt lat="43.02752" lon="0.8606">
        <ele>618</ele>
        <time>2019-04-22T15:21:37.008Z</time>
      </trkpt>
      <trkpt lat="43.02762" lon="0.86057">
        <ele>619</ele>
        <time>2019-04-22T15:21:43.008Z</time>
      </trkpt>
      <trkpt lat="43.02768" lon="0.86059">
        <ele>621</ele>
        <time>2019-04-22T15:21:47.008Z</time>
      </trkpt>
      <trkpt lat="43.02771" lon="0.86066">
        <ele>621.3160064</ele>
        <time>2019-04-22T15:21:51.008Z</time>
      </trkpt>
      <trkpt lat="43.02772" lon="0.86076">
        <ele>623.3160064</ele>
        <time>2019-04-22T15:21:56.008Z</time>
      </trkpt>
      <trkpt lat="43.02773" lon="0.86082">
        <ele>625</ele>
        <time>2019-04-22T15:21:59.008Z</time>
      </trkpt>
      <trkpt lat="43.02774" lon="0.8609">
        <ele>627</ele>
        <time>2019-04-22T15:22:03.008Z</time>
      </trkpt>
      <trkpt lat="43.02774" lon="0.86097">
        <ele>627</ele>
        <time>2019-04-22T15:22:06.008Z</time>
      </trkpt>
      <trkpt lat="43.02772" lon="0.86105">
        <ele>627</ele>
        <time>2019-04-22T15:22:09.008Z</time>
      </trkpt>
      <trkpt lat="43.02771" lon="0.86111">
        <ele>628</ele>
        <time>2019-04-22T15:22:12.008Z</time>
      </trkpt>
      <trkpt lat="43.02769" lon="0.86117">
        <ele>627.8419968</ele>
        <time>2019-04-22T15:22:15.008Z</time>
      </trkpt>
      <trkpt lat="43.02766" lon="0.86123">
        <ele>627</ele>
        <time>2019-04-22T15:22:18.008Z</time>
      </trkpt>
      <trkpt lat="43.02764" lon="0.86128">
        <ele>627.3160064</ele>
        <time>2019-04-22T15:22:21.008Z</time>
      </trkpt>
      <trkpt lat="43.02761" lon="0.86134">
        <ele>629</ele>
        <time>2019-04-22T15:22:24.008Z</time>
      </trkpt>
      <trkpt lat="43.02758" lon="0.8614">
        <ele>629</ele>
        <time>2019-04-22T15:22:27.008Z</time>
      </trkpt>
      <trkpt lat="43.02757" lon="0.86147">
        <ele>629</ele>
        <time>2019-04-22T15:22:30.008Z</time>
      </trkpt>
      <trkpt lat="43.02756" lon="0.86153">
        <ele>633</ele>
        <time>2019-04-22T15:22:33.008Z</time>
      </trkpt>
      <trkpt lat="43.02754" lon="0.8616">
        <ele>633.3160064</ele>
        <time>2019-04-22T15:22:36.008Z</time>
      </trkpt>
      <trkpt lat="43.02753" lon="0.86167">
        <ele>635</ele>
        <time>2019-04-22T15:22:39.008Z</time>
      </trkpt>
      <trkpt lat="43.02751" lon="0.86173">
        <ele>637</ele>
        <time>2019-04-22T15:22:42.008Z</time>
      </trkpt>
      <trkpt lat="43.02749" lon="0.86183">
        <ele>637.1580032</ele>
        <time>2019-04-22T15:22:46.008Z</time>
      </trkpt>
      <trkpt lat="43.02747" lon="0.8619">
        <ele>638</ele>
        <time>2019-04-22T15:22:49.008Z</time>
      </trkpt>
      <trkpt lat="43.02745" lon="0.86196">
        <ele>640</ele>
        <time>2019-04-22T15:22:52.008Z</time>
      </trkpt>
      <trkpt lat="43.02742" lon="0.86203">
        <ele>640</ele>
        <time>2019-04-22T15:22:55.008Z</time>
      </trkpt>
      <trkpt lat="43.02739" lon="0.86209">
        <ele>640</ele>
        <time>2019-04-22T15:22:58.008Z</time>
      </trkpt>
      <trkpt lat="43.02736" lon="0.86216">
        <ele>640</ele>
        <time>2019-04-22T15:23:01.008Z</time>
      </trkpt>
      <trkpt lat="43.02733" lon="0.86222">
        <ele>640</ele>
        <time>2019-04-22T15:23:04.008Z</time>
      </trkpt>
      <trkpt lat="43.0273" lon="0.86228">
        <ele>640</ele>
        <time>2019-04-22T15:23:07.008Z</time>
      </trkpt>
      <trkpt lat="43.02726" lon="0.86236">
        <ele>640.3160064</ele>
        <time>2019-04-22T15:23:11.008Z</time>
      </trkpt>
      <trkpt lat="43.02722" lon="0.86243">
        <ele>642</ele>
        <time>2019-04-22T15:23:14.008Z</time>
      </trkpt>
      <trkpt lat="43.02717" lon="0.8625">
        <ele>642</ele>
        <time>2019-04-22T15:23:17.008Z</time>
      </trkpt>
      <trkpt lat="43.02713" lon="0.86256">
        <ele>642</ele>
        <time>2019-04-22T15:23:20.008Z</time>
      </trkpt>
      <trkpt lat="43.02705" lon="0.86267">
        <ele>644</ele>
        <time>2019-04-22T15:23:25.008Z</time>
      </trkpt>
      <trkpt lat="43.02697" lon="0.86277">
        <ele>644</ele>
        <time>2019-04-22T15:23:30.008Z</time>
      </trkpt>
      <trkpt lat="43.02691" lon="0.86286">
        <ele>645</ele>
        <time>2019-04-22T15:23:34.008Z</time>
      </trkpt>
      <trkpt lat="43.02683" lon="0.86296">
        <ele>645</ele>
        <time>2019-04-22T15:23:38.008Z</time>
      </trkpt>
      <trkpt lat="43.02676" lon="0.86305">
        <ele>646</ele>
        <time>2019-04-22T15:23:42.008Z</time>
      </trkpt>
      <trkpt lat="43.02669" lon="0.86314">
        <ele>646</ele>
        <time>2019-04-22T15:23:46.008Z</time>
      </trkpt>
      <trkpt lat="43.02661" lon="0.86325">
        <ele>648</ele>
        <time>2019-04-22T15:23:52.008Z</time>
      </trkpt>
      <trkpt lat="43.02653" lon="0.86335">
        <ele>648</ele>
        <time>2019-04-22T15:23:57.008Z</time>
      </trkpt>
      <trkpt lat="43.02645" lon="0.86346">
        <ele>652</ele>
        <time>2019-04-22T15:24:03.008Z</time>
      </trkpt>
      <trkpt lat="43.0264" lon="0.86351">
        <ele>652</ele>
        <time>2019-04-22T15:24:06.008Z</time>
      </trkpt>
      <trkpt lat="43.02634" lon="0.86358">
        <ele>652</ele>
        <time>2019-04-22T15:24:10.008Z</time>
      </trkpt>
      <trkpt lat="43.02629" lon="0.86365">
        <ele>653</ele>
        <time>2019-04-22T15:24:14.008Z</time>
      </trkpt>
      <trkpt lat="43.02623" lon="0.86371">
        <ele>653</ele>
        <time>2019-04-22T15:24:18.008Z</time>
      </trkpt>
      <trkpt lat="43.02618" lon="0.86376">
        <ele>656</ele>
        <time>2019-04-22T15:24:22.008Z</time>
      </trkpt>
      <trkpt lat="43.02613" lon="0.86379">
        <ele>656</ele>
        <time>2019-04-22T15:24:25.008Z</time>
      </trkpt>
      <trkpt lat="43.02607" lon="0.86385">
        <ele>658</ele>
        <time>2019-04-22T15:24:29.008Z</time>
      </trkpt>
      <trkpt lat="43.02602" lon="0.86389">
        <ele>658</ele>
        <time>2019-04-22T15:24:32.008Z</time>
      </trkpt>
      <trkpt lat="43.02595" lon="0.86394">
        <ele>658</ele>
        <time>2019-04-22T15:24:36.008Z</time>
      </trkpt>
      <trkpt lat="43.02589" lon="0.86399">
        <ele>658.4740096</ele>
        <time>2019-04-22T15:24:41.008Z</time>
      </trkpt>
      <trkpt lat="43.02582" lon="0.86406">
        <ele>663</ele>
        <time>2019-04-22T15:24:47.008Z</time>
      </trkpt>
      <trkpt lat="43.02576" lon="0.86411">
        <ele>663.1580032</ele>
        <time>2019-04-22T15:24:51.008Z</time>
      </trkpt>
      <trkpt lat="43.0257" lon="0.86415">
        <ele>664</ele>
        <time>2019-04-22T15:24:55.008Z</time>
      </trkpt>
      <trkpt lat="43.02564" lon="0.8642">
        <ele>665</ele>
        <time>2019-04-22T15:24:59.008Z</time>
      </trkpt>
      <trkpt lat="43.02558" lon="0.86426">
        <ele>667</ele>
        <time>2019-04-22T15:25:03.008Z</time>
      </trkpt>
      <trkpt lat="43.02553" lon="0.86432">
        <ele>669</ele>
        <time>2019-04-22T15:25:07.008Z</time>
      </trkpt>
      <trkpt lat="43.02547" lon="0.86439">
        <ele>670</ele>
        <time>2019-04-22T15:25:13.008Z</time>
      </trkpt>
      <trkpt lat="43.02541" lon="0.86446">
        <ele>671</ele>
        <time>2019-04-22T15:25:18.008Z</time>
      </trkpt>
      <trkpt lat="43.02535" lon="0.86453">
        <ele>673</ele>
        <time>2019-04-22T15:25:23.008Z</time>
      </trkpt>
      <trkpt lat="43.0253" lon="0.8646">
        <ele>674</ele>
        <time>2019-04-22T15:25:27.008Z</time>
      </trkpt>
      <trkpt lat="43.02526" lon="0.86467">
        <ele>674.3160064</ele>
        <time>2019-04-22T15:25:31.008Z</time>
      </trkpt>
      <trkpt lat="43.0252" lon="0.86473">
        <ele>676.1580032</ele>
        <time>2019-04-22T15:25:36.008Z</time>
      </trkpt>
      <trkpt lat="43.02516" lon="0.8648">
        <ele>677</ele>
        <time>2019-04-22T15:25:40.008Z</time>
      </trkpt>
      <trkpt lat="43.0251" lon="0.86488">
        <ele>678</ele>
        <time>2019-04-22T15:25:45.008Z</time>
      </trkpt>
      <trkpt lat="43.02505" lon="0.86495">
        <ele>678</ele>
        <time>2019-04-22T15:25:49.008Z</time>
      </trkpt>
      <trkpt lat="43.02502" lon="0.86503">
        <ele>679</ele>
        <time>2019-04-22T15:25:54.008Z</time>
      </trkpt>
      <trkpt lat="43.02499" lon="0.86511">
        <ele>679</ele>
        <time>2019-04-22T15:25:58.008Z</time>
      </trkpt>
      <trkpt lat="43.02497" lon="0.86518">
        <ele>679.59795973779</ele>
        <time>2019-04-22T15:26:01.008Z</time>
      </trkpt>
      <trkpt lat="43.02493" lon="0.86522">
        <ele>683</ele>
        <time>2019-04-22T15:26:04.008Z</time>
      </trkpt>
      <trkpt lat="43.02486" lon="0.86522">
        <ele>683</ele>
        <time>2019-04-22T15:26:08.008Z</time>
      </trkpt>
      <trkpt lat="43.0248" lon="0.86523">
        <ele>683</ele>
        <time>2019-04-22T15:26:12.008Z</time>
      </trkpt>
      <trkpt lat="43.02472" lon="0.86521">
        <ele>683</ele>
        <time>2019-04-22T15:26:17.008Z</time>
      </trkpt>
      <trkpt lat="43.02464" lon="0.8652">
        <ele>683</ele>
        <time>2019-04-22T15:26:20.008Z</time>
      </trkpt>
      <trkpt lat="43.02457" lon="0.86521">
        <ele>685</ele>
        <time>2019-04-22T15:26:23.008Z</time>
      </trkpt>
      <trkpt lat="43.02451" lon="0.86521">
        <ele>685</ele>
        <time>2019-04-22T15:26:26.008Z</time>
      </trkpt>
      <trkpt lat="43.02444" lon="0.8652">
        <ele>685</ele>
        <time>2019-04-22T15:26:29.008Z</time>
      </trkpt>
      <trkpt lat="43.02438" lon="0.86519">
        <ele>686</ele>
        <time>2019-04-22T15:26:32.008Z</time>
      </trkpt>
      <trkpt lat="43.02432" lon="0.86519">
        <ele>686</ele>
        <time>2019-04-22T15:26:35.008Z</time>
      </trkpt>
      <trkpt lat="43.02425" lon="0.86518">
        <ele>686</ele>
        <time>2019-04-22T15:26:38.008Z</time>
      </trkpt>
      <trkpt lat="43.02419" lon="0.86519">
        <ele>686.1580032</ele>
        <time>2019-04-22T15:26:41.008Z</time>
      </trkpt>
      <trkpt lat="43.02413" lon="0.8652">
        <ele>687</ele>
        <time>2019-04-22T15:26:44.008Z</time>
      </trkpt>
      <trkpt lat="43.02407" lon="0.8652">
        <ele>687</ele>
        <time>2019-04-22T15:26:47.008Z</time>
      </trkpt>
      <trkpt lat="43.02401" lon="0.8652">
        <ele>687</ele>
        <time>2019-04-22T15:26:50.008Z</time>
      </trkpt>
      <trkpt lat="43.02394" lon="0.86519">
        <ele>690</ele>
        <time>2019-04-22T15:26:53.008Z</time>
      </trkpt>
      <trkpt lat="43.02388" lon="0.86518">
        <ele>690.1580032</ele>
        <time>2019-04-22T15:26:56.008Z</time>
      </trkpt>
      <trkpt lat="43.02382" lon="0.86517">
        <ele>691</ele>
        <time>2019-04-22T15:26:59.008Z</time>
      </trkpt>
      <trkpt lat="43.02373" lon="0.86518">
        <ele>691</ele>
        <time>2019-04-22T15:27:04.008Z</time>
      </trkpt>
      <trkpt lat="43.02361" lon="0.86515">
        <ele>691</ele>
        <time>2019-04-22T15:27:09.008Z</time>
      </trkpt>
      <trkpt lat="43.02352" lon="0.86512">
        <ele>692</ele>
        <time>2019-04-22T15:27:13.008Z</time>
      </trkpt>
      <trkpt lat="43.02343" lon="0.8651">
        <ele>692</ele>
        <time>2019-04-22T15:27:17.008Z</time>
      </trkpt>
      <trkpt lat="43.02334" lon="0.8651">
        <ele>692.1580032</ele>
        <time>2019-04-22T15:27:21.008Z</time>
      </trkpt>
      <trkpt lat="43.02325" lon="0.86511">
        <ele>693.1580032</ele>
        <time>2019-04-22T15:27:25.008Z</time>
      </trkpt>
      <trkpt lat="43.02314" lon="0.86506">
        <ele>694</ele>
        <time>2019-04-22T15:27:30.008Z</time>
      </trkpt>
      <trkpt lat="43.02305" lon="0.86504">
        <ele>695</ele>
        <time>2019-04-22T15:27:34.008Z</time>
      </trkpt>
      <trkpt lat="43.02295" lon="0.86505">
        <ele>695</ele>
        <time>2019-04-22T15:27:38.008Z</time>
      </trkpt>
      <trkpt lat="43.02286" lon="0.86504">
        <ele>697</ele>
        <time>2019-04-22T15:27:42.008Z</time>
      </trkpt>
      <trkpt lat="43.0228" lon="0.86503">
        <ele>697</ele>
        <time>2019-04-22T15:27:45.008Z</time>
      </trkpt>
      <trkpt lat="43.02271" lon="0.86503">
        <ele>697</ele>
        <time>2019-04-22T15:27:49.008Z</time>
      </trkpt>
      <trkpt lat="43.02262" lon="0.86502">
        <ele>699</ele>
        <time>2019-04-22T15:27:53.008Z</time>
      </trkpt>
      <trkpt lat="43.02253" lon="0.86501">
        <ele>699</ele>
        <time>2019-04-22T15:27:57.008Z</time>
      </trkpt>
      <trkpt lat="43.02244" lon="0.865">
        <ele>699.3160064</ele>
        <time>2019-04-22T15:28:01.008Z</time>
      </trkpt>
      <trkpt lat="43.02237" lon="0.865">
        <ele>701</ele>
        <time>2019-04-22T15:28:04.008Z</time>
      </trkpt>
      <trkpt lat="43.02228" lon="0.86501">
        <ele>701</ele>
        <time>2019-04-22T15:28:08.008Z</time>
      </trkpt>
      <trkpt lat="43.02221" lon="0.86505">
        <ele>701</ele>
        <time>2019-04-22T15:28:12.008Z</time>
      </trkpt>
      <trkpt lat="43.02215" lon="0.86508">
        <ele>701</ele>
        <time>2019-04-22T15:28:15.008Z</time>
      </trkpt>
      <trkpt lat="43.02209" lon="0.86513">
        <ele>701</ele>
        <time>2019-04-22T15:28:18.008Z</time>
      </trkpt>
      <trkpt lat="43.02202" lon="0.86516">
        <ele>701.3160064</ele>
        <time>2019-04-22T15:28:21.008Z</time>
      </trkpt>
      <trkpt lat="43.02196" lon="0.86519">
        <ele>703</ele>
        <time>2019-04-22T15:28:24.008Z</time>
      </trkpt>
      <trkpt lat="43.02187" lon="0.86523">
        <ele>703</ele>
        <time>2019-04-22T15:28:29.008Z</time>
      </trkpt>
      <trkpt lat="43.02176" lon="0.86525">
        <ele>703</ele>
        <time>2019-04-22T15:28:32.008Z</time>
      </trkpt>
      <trkpt lat="43.02166" lon="0.86528">
        <ele>703</ele>
        <time>2019-04-22T15:28:35.008Z</time>
      </trkpt>
      <trkpt lat="43.02157" lon="0.86528">
        <ele>703</ele>
        <time>2019-04-22T15:28:38.008Z</time>
      </trkpt>
      <trkpt lat="43.02147" lon="0.86525">
        <ele>702.8419968</ele>
        <time>2019-04-22T15:28:41.008Z</time>
      </trkpt>
      <trkpt lat="43.02133" lon="0.86519">
        <ele>702</ele>
        <time>2019-04-22T15:28:44.008Z</time>
      </trkpt>
      <trkpt lat="43.02122" lon="0.86515">
        <ele>702</ele>
        <time>2019-04-22T15:28:46.008Z</time>
      </trkpt>
      <trkpt lat="43.02107" lon="0.86512">
        <ele>702</ele>
        <time>2019-04-22T15:28:48.008Z</time>
      </trkpt>
      <trkpt lat="43.02091" lon="0.86513">
        <ele>702</ele>
        <time>2019-04-22T15:28:50.008Z</time>
      </trkpt>
      <trkpt lat="43.02082" lon="0.86515">
        <ele>701.209984</ele>
        <time>2019-04-22T15:28:51.008Z</time>
      </trkpt>
      <trkpt lat="43.02072" lon="0.86516">
        <ele>697</ele>
        <time>2019-04-22T15:28:52.008Z</time>
      </trkpt>
      <trkpt lat="43.02063" lon="0.86516">
        <ele>697</ele>
        <time>2019-04-22T15:28:53.008Z</time>
      </trkpt>
      <trkpt lat="43.02055" lon="0.86513">
        <ele>697</ele>
        <time>2019-04-22T15:28:54.008Z</time>
      </trkpt>
      <trkpt lat="43.02046" lon="0.86511">
        <ele>697</ele>
        <time>2019-04-22T15:28:55.008Z</time>
      </trkpt>
      <trkpt lat="43.02039" lon="0.86508">
        <ele>696.6839936</ele>
        <time>2019-04-22T15:28:56.008Z</time>
      </trkpt>
      <trkpt lat="43.02032" lon="0.86505">
        <ele>695</ele>
        <time>2019-04-22T15:28:57.008Z</time>
      </trkpt>
      <trkpt lat="43.02019" lon="0.86501">
        <ele>695</ele>
        <time>2019-04-22T15:28:59.008Z</time>
      </trkpt>
      <trkpt lat="43.02006" lon="0.86497">
        <ele>696</ele>
        <time>2019-04-22T15:29:02.008Z</time>
      </trkpt>
      <trkpt lat="43.01994" lon="0.86494">
        <ele>696</ele>
        <time>2019-04-22T15:29:06.008Z</time>
      </trkpt>
      <trkpt lat="43.01986" lon="0.86492">
        <ele>696</ele>
        <time>2019-04-22T15:29:09.008Z</time>
      </trkpt>
      <trkpt lat="43.01979" lon="0.86489">
        <ele>698</ele>
        <time>2019-04-22T15:29:12.008Z</time>
      </trkpt>
      <trkpt lat="43.01974" lon="0.86487">
        <ele>698</ele>
        <time>2019-04-22T15:29:14.008Z</time>
      </trkpt>
      <trkpt lat="43.01969" lon="0.86484">
        <ele>698</ele>
        <time>2019-04-22T15:29:16.008Z</time>
      </trkpt>
      <trkpt lat="43.01964" lon="0.86481">
        <ele>698</ele>
        <time>2019-04-22T15:29:18.008Z</time>
      </trkpt>
      <trkpt lat="43.01955" lon="0.86475">
        <ele>701</ele>
        <time>2019-04-22T15:29:22.008Z</time>
      </trkpt>
      <trkpt lat="43.01948" lon="0.8647">
        <ele>701</ele>
        <time>2019-04-22T15:29:25.008Z</time>
      </trkpt>
      <trkpt lat="43.01941" lon="0.86464">
        <ele>701</ele>
        <time>2019-04-22T15:29:28.008Z</time>
      </trkpt>
      <trkpt lat="43.01935" lon="0.86457">
        <ele>701.3160064</ele>
        <time>2019-04-22T15:29:31.008Z</time>
      </trkpt>
      <trkpt lat="43.01932" lon="0.86452">
        <ele>703</ele>
        <time>2019-04-22T15:29:33.008Z</time>
      </trkpt>
      <trkpt lat="43.01928" lon="0.86447">
        <ele>703</ele>
        <time>2019-04-22T15:29:35.008Z</time>
      </trkpt>
      <trkpt lat="43.01924" lon="0.86441">
        <ele>703</ele>
        <time>2019-04-22T15:29:37.008Z</time>
      </trkpt>
      <trkpt lat="43.01921" lon="0.86436">
        <ele>703</ele>
        <time>2019-04-22T15:29:39.008Z</time>
      </trkpt>
      <trkpt lat="43.01917" lon="0.8643">
        <ele>703.1580032</ele>
        <time>2019-04-22T15:29:41.008Z</time>
      </trkpt>
      <trkpt lat="43.01914" lon="0.86425">
        <ele>704</ele>
        <time>2019-04-22T15:29:43.008Z</time>
      </trkpt>
      <trkpt lat="43.01911" lon="0.86419">
        <ele>704</ele>
        <time>2019-04-22T15:29:45.008Z</time>
      </trkpt>
      <trkpt lat="43.01908" lon="0.86412">
        <ele>704</ele>
        <time>2019-04-22T15:29:47.008Z</time>
      </trkpt>
      <trkpt lat="43.01904" lon="0.86406">
        <ele>704</ele>
        <time>2019-04-22T15:29:49.008Z</time>
      </trkpt>
      <trkpt lat="43.019" lon="0.86399">
        <ele>704.1580032</ele>
        <time>2019-04-22T15:29:51.008Z</time>
      </trkpt>
      <trkpt lat="43.01897" lon="0.86393">
        <ele>705</ele>
        <time>2019-04-22T15:29:53.008Z</time>
      </trkpt>
      <trkpt lat="43.01893" lon="0.86387">
        <ele>705</ele>
        <time>2019-04-22T15:29:55.008Z</time>
      </trkpt>
      <trkpt lat="43.0189" lon="0.86381">
        <ele>705</ele>
        <time>2019-04-22T15:29:57.008Z</time>
      </trkpt>
      <trkpt lat="43.01887" lon="0.86375">
        <ele>705</ele>
        <time>2019-04-22T15:29:59.008Z</time>
      </trkpt>
      <trkpt lat="43.01885" lon="0.86369">
        <ele>705.4740096</ele>
        <time>2019-04-22T15:30:01.008Z</time>
      </trkpt>
      <trkpt lat="43.01883" lon="0.86362">
        <ele>708</ele>
        <time>2019-04-22T15:30:03.008Z</time>
      </trkpt>
      <trkpt lat="43.01881" lon="0.86355">
        <ele>708</ele>
        <time>2019-04-22T15:30:05.008Z</time>
      </trkpt>
      <trkpt lat="43.0188" lon="0.86348">
        <ele>709</ele>
        <time>2019-04-22T15:30:07.008Z</time>
      </trkpt>
      <trkpt lat="43.0188" lon="0.86341">
        <ele>709</ele>
        <time>2019-04-22T15:30:09.008Z</time>
      </trkpt>
      <trkpt lat="43.01879" lon="0.86335">
        <ele>709.1580032</ele>
        <time>2019-04-22T15:30:11.008Z</time>
      </trkpt>
      <trkpt lat="43.0188" lon="0.86328">
        <ele>710</ele>
        <time>2019-04-22T15:30:13.008Z</time>
      </trkpt>
      <trkpt lat="43.0188" lon="0.86321">
        <ele>710</ele>
        <time>2019-04-22T15:30:15.008Z</time>
      </trkpt>
      <trkpt lat="43.01883" lon="0.86313">
        <ele>710</ele>
        <time>2019-04-22T15:30:18.008Z</time>
      </trkpt>
      <trkpt lat="43.01885" lon="0.86306">
        <ele>710</ele>
        <time>2019-04-22T15:30:20.008Z</time>
      </trkpt>
      <trkpt lat="43.01886" lon="0.86298">
        <ele>710</ele>
        <time>2019-04-22T15:30:22.008Z</time>
      </trkpt>
      <trkpt lat="43.01888" lon="0.86291">
        <ele>710</ele>
        <time>2019-04-22T15:30:24.008Z</time>
      </trkpt>
      <trkpt lat="43.01889" lon="0.86284">
        <ele>710</ele>
        <time>2019-04-22T15:30:26.008Z</time>
      </trkpt>
      <trkpt lat="43.01891" lon="0.86277">
        <ele>710</ele>
        <time>2019-04-22T15:30:28.008Z</time>
      </trkpt>
      <trkpt lat="43.01892" lon="0.86271">
        <ele>710</ele>
        <time>2019-04-22T15:30:30.008Z</time>
      </trkpt>
      <trkpt lat="43.01892" lon="0.86264">
        <ele>712</ele>
        <time>2019-04-22T15:30:32.008Z</time>
      </trkpt>
      <trkpt lat="43.01892" lon="0.86256">
        <ele>712</ele>
        <time>2019-04-22T15:30:34.008Z</time>
      </trkpt>
      <trkpt lat="43.01889" lon="0.86247">
        <ele>712</ele>
        <time>2019-04-22T15:30:37.008Z</time>
      </trkpt>
      <trkpt lat="43.01885" lon="0.86239">
        <ele>712</ele>
        <time>2019-04-22T15:30:40.008Z</time>
      </trkpt>
      <trkpt lat="43.01881" lon="0.86234">
        <ele>713</ele>
        <time>2019-04-22T15:30:42.008Z</time>
      </trkpt>
      <trkpt lat="43.01878" lon="0.8623">
        <ele>713</ele>
        <time>2019-04-22T15:30:44.008Z</time>
      </trkpt>
      <trkpt lat="43.01874" lon="0.86226">
        <ele>713</ele>
        <time>2019-04-22T15:30:46.008Z</time>
      </trkpt>
      <trkpt lat="43.01869" lon="0.86219">
        <ele>713</ele>
        <time>2019-04-22T15:30:49.008Z</time>
      </trkpt>
      <trkpt lat="43.01866" lon="0.86215">
        <ele>713.4740096</ele>
        <time>2019-04-22T15:30:51.008Z</time>
      </trkpt>
      <trkpt lat="43.01861" lon="0.86208">
        <ele>716</ele>
        <time>2019-04-22T15:30:54.008Z</time>
      </trkpt>
      <trkpt lat="43.01857" lon="0.86204">
        <ele>716.4740096</ele>
        <time>2019-04-22T15:30:56.008Z</time>
      </trkpt>
      <trkpt lat="43.01853" lon="0.86196">
        <ele>719</ele>
        <time>2019-04-22T15:30:59.008Z</time>
      </trkpt>
      <trkpt lat="43.0185" lon="0.86188">
        <ele>720</ele>
        <time>2019-04-22T15:31:02.008Z</time>
      </trkpt>
      <trkpt lat="43.01846" lon="0.86179">
        <ele>720</ele>
        <time>2019-04-22T15:31:05.008Z</time>
      </trkpt>
      <trkpt lat="43.01844" lon="0.86173">
        <ele>721</ele>
        <time>2019-04-22T15:31:07.008Z</time>
      </trkpt>
      <trkpt lat="43.01842" lon="0.86168">
        <ele>721</ele>
        <time>2019-04-22T15:31:09.008Z</time>
      </trkpt>
      <trkpt lat="43.01839" lon="0.86162">
        <ele>721.1580032</ele>
        <time>2019-04-22T15:31:11.008Z</time>
      </trkpt>
      <trkpt lat="43.01837" lon="0.86156">
        <ele>722</ele>
        <time>2019-04-22T15:31:13.008Z</time>
      </trkpt>
      <trkpt lat="43.01836" lon="0.8615">
        <ele>722</ele>
        <time>2019-04-22T15:31:15.008Z</time>
      </trkpt>
      <trkpt lat="43.01834" lon="0.86144">
        <ele>722</ele>
        <time>2019-04-22T15:31:17.008Z</time>
      </trkpt>
      <trkpt lat="43.01832" lon="0.86135">
        <ele>721</ele>
        <time>2019-04-22T15:31:19.008Z</time>
      </trkpt>
      <trkpt lat="43.01829" lon="0.86126">
        <ele>721</ele>
        <time>2019-04-22T15:31:21.008Z</time>
      </trkpt>
      <trkpt lat="43.01825" lon="0.86116">
        <ele>721</ele>
        <time>2019-04-22T15:31:23.008Z</time>
      </trkpt>
      <trkpt lat="43.01821" lon="0.86107">
        <ele>721</ele>
        <time>2019-04-22T15:31:25.008Z</time>
      </trkpt>
      <trkpt lat="43.01815" lon="0.86099">
        <ele>721</ele>
        <time>2019-04-22T15:31:27.008Z</time>
      </trkpt>
      <trkpt lat="43.0181" lon="0.8609">
        <ele>721</ele>
        <time>2019-04-22T15:31:29.008Z</time>
      </trkpt>
      <trkpt lat="43.01804" lon="0.86084">
        <ele>720.8419968</ele>
        <time>2019-04-22T15:31:31.008Z</time>
      </trkpt>
      <trkpt lat="43.01797" lon="0.86076">
        <ele>720</ele>
        <time>2019-04-22T15:31:33.008Z</time>
      </trkpt>
      <trkpt lat="43.0179" lon="0.86068">
        <ele>720</ele>
        <time>2019-04-22T15:31:35.008Z</time>
      </trkpt>
      <trkpt lat="43.01785" lon="0.8606">
        <ele>720</ele>
        <time>2019-04-22T15:31:37.008Z</time>
      </trkpt>
      <trkpt lat="43.0178" lon="0.86048">
        <ele>720</ele>
        <time>2019-04-22T15:31:40.008Z</time>
      </trkpt>
      <trkpt lat="43.01775" lon="0.86036">
        <ele>720</ele>
        <time>2019-04-22T15:31:43.008Z</time>
      </trkpt>
      <trkpt lat="43.01771" lon="0.86028">
        <ele>720</ele>
        <time>2019-04-22T15:31:45.008Z</time>
      </trkpt>
      <trkpt lat="43.01763" lon="0.86019">
        <ele>720</ele>
        <time>2019-04-22T15:31:48.008Z</time>
      </trkpt>
      <trkpt lat="43.01756" lon="0.86011">
        <ele>720</ele>
        <time>2019-04-22T15:31:50.008Z</time>
      </trkpt>
      <trkpt lat="43.01743" lon="0.86">
        <ele>718</ele>
        <time>2019-04-22T15:31:53.008Z</time>
      </trkpt>
      <trkpt lat="43.01731" lon="0.85989">
        <ele>718</ele>
        <time>2019-04-22T15:31:55.008Z</time>
      </trkpt>
      <trkpt lat="43.01716" lon="0.85978">
        <ele>718</ele>
        <time>2019-04-22T15:31:57.008Z</time>
      </trkpt>
      <trkpt lat="43.01707" lon="0.85971">
        <ele>718</ele>
        <time>2019-04-22T15:31:58.008Z</time>
      </trkpt>
      <trkpt lat="43.01699" lon="0.85965">
        <ele>718</ele>
        <time>2019-04-22T15:31:59.008Z</time>
      </trkpt>
      <trkpt lat="43.0169" lon="0.85959">
        <ele>718</ele>
        <time>2019-04-22T15:32:00.008Z</time>
      </trkpt>
      <trkpt lat="43.0168" lon="0.85954">
        <ele>716.7359744</ele>
        <time>2019-04-22T15:32:01.008Z</time>
      </trkpt>
      <trkpt lat="43.0167" lon="0.85951">
        <ele>710</ele>
        <time>2019-04-22T15:32:02.008Z</time>
      </trkpt>
      <trkpt lat="43.01661" lon="0.8595">
        <ele>710</ele>
        <time>2019-04-22T15:32:03.008Z</time>
      </trkpt>
      <trkpt lat="43.01652" lon="0.8595">
        <ele>710.1580032</ele>
        <time>2019-04-22T15:32:04.008Z</time>
      </trkpt>
      <trkpt lat="43.01643" lon="0.8595">
        <ele>711.1580032</ele>
        <time>2019-04-22T15:32:05.008Z</time>
      </trkpt>
      <trkpt lat="43.01627" lon="0.85947">
        <ele>711.8419968</ele>
        <time>2019-04-22T15:32:07.008Z</time>
      </trkpt>
      <trkpt lat="43.01621" lon="0.85945">
        <ele>711</ele>
        <time>2019-04-22T15:32:08.008Z</time>
      </trkpt>
      <trkpt lat="43.01612" lon="0.85944">
        <ele>711.1580032</ele>
        <time>2019-04-22T15:32:10.008Z</time>
      </trkpt>
      <trkpt lat="43.01605" lon="0.85949">
        <ele>712</ele>
        <time>2019-04-22T15:32:12.008Z</time>
      </trkpt>
      <trkpt lat="43.016" lon="0.85945">
        <ele>712</ele>
        <time>2019-04-22T15:32:14.008Z</time>
      </trkpt>
      <trkpt lat="43.016" lon="0.85936">
        <ele>712</ele>
        <time>2019-04-22T15:32:16.008Z</time>
      </trkpt>
      <trkpt lat="43.01602" lon="0.85928">
        <ele>712</ele>
        <time>2019-04-22T15:32:18.008Z</time>
      </trkpt>
      <trkpt lat="43.01604" lon="0.8592">
        <ele>712</ele>
        <time>2019-04-22T15:32:20.008Z</time>
      </trkpt>
      <trkpt lat="43.01604" lon="0.85912">
        <ele>712</ele>
        <time>2019-04-22T15:32:22.008Z</time>
      </trkpt>
      <trkpt lat="43.01604" lon="0.85905">
        <ele>712</ele>
        <time>2019-04-22T15:32:24.008Z</time>
      </trkpt>
      <trkpt lat="43.01603" lon="0.85899">
        <ele>712</ele>
        <time>2019-04-22T15:32:26.008Z</time>
      </trkpt>
      <trkpt lat="43.01602" lon="0.85889">
        <ele>712</ele>
        <time>2019-04-22T15:32:29.008Z</time>
      </trkpt>
      <trkpt lat="43.016" lon="0.85879">
        <ele>713</ele>
        <time>2019-04-22T15:32:32.008Z</time>
      </trkpt>
      <trkpt lat="43.01598" lon="0.85868">
        <ele>713</ele>
        <time>2019-04-22T15:32:35.008Z</time>
      </trkpt>
      <trkpt lat="43.01597" lon="0.85857">
        <ele>713</ele>
        <time>2019-04-22T15:32:38.008Z</time>
      </trkpt>
      <trkpt lat="43.01595" lon="0.85848">
        <ele>713.3160064</ele>
        <time>2019-04-22T15:32:41.008Z</time>
      </trkpt>
      <trkpt lat="43.01594" lon="0.85839">
        <ele>715</ele>
        <time>2019-04-22T15:32:44.008Z</time>
      </trkpt>
      <trkpt lat="43.01592" lon="0.8583">
        <ele>715</ele>
        <time>2019-04-22T15:32:47.008Z</time>
      </trkpt>
      <trkpt lat="43.0159" lon="0.85823">
        <ele>715</ele>
        <time>2019-04-22T15:32:49.008Z</time>
      </trkpt>
      <trkpt lat="43.01586" lon="0.85815">
        <ele>716</ele>
        <time>2019-04-22T15:32:52.008Z</time>
      </trkpt>
      <trkpt lat="43.01581" lon="0.85808">
        <ele>716</ele>
        <time>2019-04-22T15:32:55.008Z</time>
      </trkpt>
      <trkpt lat="43.01577" lon="0.85804">
        <ele>716</ele>
        <time>2019-04-22T15:32:57.008Z</time>
      </trkpt>
      <trkpt lat="43.01573" lon="0.85799">
        <ele>716</ele>
        <time>2019-04-22T15:32:59.008Z</time>
      </trkpt>
      <trkpt lat="43.01569" lon="0.85796">
        <ele>716.3160064</ele>
        <time>2019-04-22T15:33:01.008Z</time>
      </trkpt>
      <trkpt lat="43.01564" lon="0.85794">
        <ele>718</ele>
        <time>2019-04-22T15:33:03.008Z</time>
      </trkpt>
      <trkpt lat="43.01559" lon="0.85792">
        <ele>718</ele>
        <time>2019-04-22T15:33:05.008Z</time>
      </trkpt>
      <trkpt lat="43.01554" lon="0.8579">
        <ele>718</ele>
        <time>2019-04-22T15:33:07.008Z</time>
      </trkpt>
      <trkpt lat="43.01548" lon="0.85788">
        <ele>718</ele>
        <time>2019-04-22T15:33:09.008Z</time>
      </trkpt>
      <trkpt lat="43.01543" lon="0.85787">
        <ele>718.3160064</ele>
        <time>2019-04-22T15:33:11.008Z</time>
      </trkpt>
      <trkpt lat="43.01538" lon="0.85787">
        <ele>720</ele>
        <time>2019-04-22T15:33:13.008Z</time>
      </trkpt>
      <trkpt lat="43.01533" lon="0.85787">
        <ele>720</ele>
        <time>2019-04-22T15:33:15.008Z</time>
      </trkpt>
      <trkpt lat="43.01527" lon="0.85787">
        <ele>720</ele>
        <time>2019-04-22T15:33:17.008Z</time>
      </trkpt>
      <trkpt lat="43.01519" lon="0.85787">
        <ele>720</ele>
        <time>2019-04-22T15:33:20.008Z</time>
      </trkpt>
      <trkpt lat="43.01514" lon="0.85787">
        <ele>721</ele>
        <time>2019-04-22T15:33:22.008Z</time>
      </trkpt>
      <trkpt lat="43.01509" lon="0.85787">
        <ele>721</ele>
        <time>2019-04-22T15:33:24.008Z</time>
      </trkpt>
      <trkpt lat="43.01503" lon="0.85787">
        <ele>721</ele>
        <time>2019-04-22T15:33:26.008Z</time>
      </trkpt>
      <trkpt lat="43.01498" lon="0.85786">
        <ele>721</ele>
        <time>2019-04-22T15:33:28.008Z</time>
      </trkpt>
      <trkpt lat="43.01493" lon="0.85786">
        <ele>721</ele>
        <time>2019-04-22T15:33:30.008Z</time>
      </trkpt>
      <trkpt lat="43.01488" lon="0.85786">
        <ele>723</ele>
        <time>2019-04-22T15:33:32.008Z</time>
      </trkpt>
      <trkpt lat="43.01483" lon="0.85786">
        <ele>723</ele>
        <time>2019-04-22T15:33:34.008Z</time>
      </trkpt>
      <trkpt lat="43.01478" lon="0.85786">
        <ele>723</ele>
        <time>2019-04-22T15:33:36.008Z</time>
      </trkpt>
      <trkpt lat="43.01473" lon="0.85784">
        <ele>723</ele>
        <time>2019-04-22T15:33:38.008Z</time>
      </trkpt>
      <trkpt lat="43.01468" lon="0.85783">
        <ele>723</ele>
        <time>2019-04-22T15:33:40.008Z</time>
      </trkpt>
      <trkpt lat="43.01463" lon="0.85782">
        <ele>724</ele>
        <time>2019-04-22T15:33:42.008Z</time>
      </trkpt>
      <trkpt lat="43.01458" lon="0.85781">
        <ele>724</ele>
        <time>2019-04-22T15:33:44.008Z</time>
      </trkpt>
      <trkpt lat="43.01453" lon="0.8578">
        <ele>724</ele>
        <time>2019-04-22T15:33:46.008Z</time>
      </trkpt>
      <trkpt lat="43.01448" lon="0.85779">
        <ele>724</ele>
        <time>2019-04-22T15:33:48.008Z</time>
      </trkpt>
      <trkpt lat="43.01442" lon="0.85777">
        <ele>724</ele>
        <time>2019-04-22T15:33:50.008Z</time>
      </trkpt>
      <trkpt lat="43.01435" lon="0.85773">
        <ele>726</ele>
        <time>2019-04-22T15:33:53.008Z</time>
      </trkpt>
      <trkpt lat="43.01427" lon="0.85768">
        <ele>726</ele>
        <time>2019-04-22T15:33:56.008Z</time>
      </trkpt>
      <trkpt lat="43.0142" lon="0.85761">
        <ele>726</ele>
        <time>2019-04-22T15:33:59.008Z</time>
      </trkpt>
      <trkpt lat="43.01414" lon="0.85754">
        <ele>727</ele>
        <time>2019-04-22T15:34:02.008Z</time>
      </trkpt>
      <trkpt lat="43.01407" lon="0.85749">
        <ele>727</ele>
        <time>2019-04-22T15:34:05.008Z</time>
      </trkpt>
      <trkpt lat="43.014" lon="0.85742">
        <ele>727</ele>
        <time>2019-04-22T15:34:08.008Z</time>
      </trkpt>
      <trkpt lat="43.01393" lon="0.85736">
        <ele>727.3160064</ele>
        <time>2019-04-22T15:34:11.008Z</time>
      </trkpt>
      <trkpt lat="43.01386" lon="0.85732">
        <ele>729</ele>
        <time>2019-04-22T15:34:14.008Z</time>
      </trkpt>
      <trkpt lat="43.01379" lon="0.85722">
        <ele>729</ele>
        <time>2019-04-22T15:34:17.008Z</time>
      </trkpt>
      <trkpt lat="43.01373" lon="0.85713">
        <ele>729</ele>
        <time>2019-04-22T15:34:20.008Z</time>
      </trkpt>
      <trkpt lat="43.01368" lon="0.85703">
        <ele>731</ele>
        <time>2019-04-22T15:34:24.008Z</time>
      </trkpt>
      <trkpt lat="43.01363" lon="0.85694">
        <ele>731</ele>
        <time>2019-04-22T15:34:29.008Z</time>
      </trkpt>
      <trkpt lat="43.01358" lon="0.85683">
        <ele>732</ele>
        <time>2019-04-22T15:34:33.008Z</time>
      </trkpt>
      <trkpt lat="43.01353" lon="0.85673">
        <ele>733</ele>
        <time>2019-04-22T15:34:37.008Z</time>
      </trkpt>
      <trkpt lat="43.01349" lon="0.85665">
        <ele>733</ele>
        <time>2019-04-22T15:34:40.008Z</time>
      </trkpt>
      <trkpt lat="43.01347" lon="0.85655">
        <ele>734</ele>
        <time>2019-04-22T15:34:43.008Z</time>
      </trkpt>
      <trkpt lat="43.01345" lon="0.85644">
        <ele>734</ele>
        <time>2019-04-22T15:34:47.008Z</time>
      </trkpt>
      <trkpt lat="43.01344" lon="0.85633">
        <ele>734</ele>
        <time>2019-04-22T15:34:50.008Z</time>
      </trkpt>
      <trkpt lat="43.0134" lon="0.85621">
        <ele>735</ele>
        <time>2019-04-22T15:34:53.008Z</time>
      </trkpt>
      <trkpt lat="43.01338" lon="0.85611">
        <ele>735</ele>
        <time>2019-04-22T15:34:56.008Z</time>
      </trkpt>
      <trkpt lat="43.01333" lon="0.85601">
        <ele>735</ele>
        <time>2019-04-22T15:34:59.008Z</time>
      </trkpt>
      <trkpt lat="43.01329" lon="0.85591">
        <ele>736</ele>
        <time>2019-04-22T15:35:02.008Z</time>
      </trkpt>
      <trkpt lat="43.01323" lon="0.85583">
        <ele>736</ele>
        <time>2019-04-22T15:35:05.008Z</time>
      </trkpt>
      <trkpt lat="43.01319" lon="0.85575">
        <ele>736</ele>
        <time>2019-04-22T15:35:08.008Z</time>
      </trkpt>
      <trkpt lat="43.01311" lon="0.85567">
        <ele>737</ele>
        <time>2019-04-22T15:35:12.008Z</time>
      </trkpt>
      <trkpt lat="43.01302" lon="0.85561">
        <ele>737</ele>
        <time>2019-04-22T15:35:15.008Z</time>
      </trkpt>
      <trkpt lat="43.01296" lon="0.85558">
        <ele>737</ele>
        <time>2019-04-22T15:35:17.008Z</time>
      </trkpt>
      <trkpt lat="43.01287" lon="0.85552">
        <ele>737</ele>
        <time>2019-04-22T15:35:20.008Z</time>
      </trkpt>
      <trkpt lat="43.0128" lon="0.85549">
        <ele>739</ele>
        <time>2019-04-22T15:35:23.008Z</time>
      </trkpt>
      <trkpt lat="43.01272" lon="0.85546">
        <ele>739</ele>
        <time>2019-04-22T15:35:26.008Z</time>
      </trkpt>
      <trkpt lat="43.01264" lon="0.85545">
        <ele>739</ele>
        <time>2019-04-22T15:35:29.008Z</time>
      </trkpt>
      <trkpt lat="43.01257" lon="0.85545">
        <ele>741</ele>
        <time>2019-04-22T15:35:32.008Z</time>
      </trkpt>
      <trkpt lat="43.01249" lon="0.85543">
        <ele>741</ele>
        <time>2019-04-22T15:35:35.008Z</time>
      </trkpt>
      <trkpt lat="43.01244" lon="0.85541">
        <ele>741</ele>
        <time>2019-04-22T15:35:37.008Z</time>
      </trkpt>
      <trkpt lat="43.01239" lon="0.8554">
        <ele>741</ele>
        <time>2019-04-22T15:35:39.008Z</time>
      </trkpt>
      <trkpt lat="43.01234" lon="0.85538">
        <ele>741.1580032</ele>
        <time>2019-04-22T15:35:41.008Z</time>
      </trkpt>
      <trkpt lat="43.01229" lon="0.85537">
        <ele>742</ele>
        <time>2019-04-22T15:35:43.008Z</time>
      </trkpt>
      <trkpt lat="43.01224" lon="0.85535">
        <ele>742</ele>
        <time>2019-04-22T15:35:45.008Z</time>
      </trkpt>
      <trkpt lat="43.01219" lon="0.85533">
        <ele>742</ele>
        <time>2019-04-22T15:35:47.008Z</time>
      </trkpt>
      <trkpt lat="43.01214" lon="0.85531">
        <ele>742</ele>
        <time>2019-04-22T15:35:49.008Z</time>
      </trkpt>
      <trkpt lat="43.01209" lon="0.8553">
        <ele>742.3160064</ele>
        <time>2019-04-22T15:35:51.008Z</time>
      </trkpt>
      <trkpt lat="43.01204" lon="0.85528">
        <ele>744</ele>
        <time>2019-04-22T15:35:53.008Z</time>
      </trkpt>
      <trkpt lat="43.012" lon="0.85527">
        <ele>744</ele>
        <time>2019-04-22T15:35:55.008Z</time>
      </trkpt>
      <trkpt lat="43.01195" lon="0.85525">
        <ele>744</ele>
        <time>2019-04-22T15:35:57.008Z</time>
      </trkpt>
      <trkpt lat="43.0119" lon="0.85524">
        <ele>744</ele>
        <time>2019-04-22T15:35:59.008Z</time>
      </trkpt>
      <trkpt lat="43.01184" lon="0.85523">
        <ele>744.1580032</ele>
        <time>2019-04-22T15:36:01.008Z</time>
      </trkpt>
      <trkpt lat="43.01179" lon="0.85522">
        <ele>745</ele>
        <time>2019-04-22T15:36:03.008Z</time>
      </trkpt>
      <trkpt lat="43.01174" lon="0.85521">
        <ele>745</ele>
        <time>2019-04-22T15:36:05.008Z</time>
      </trkpt>
      <trkpt lat="43.01169" lon="0.85521">
        <ele>745</ele>
        <time>2019-04-22T15:36:07.008Z</time>
      </trkpt>
      <trkpt lat="43.01164" lon="0.8552">
        <ele>745</ele>
        <time>2019-04-22T15:36:09.008Z</time>
      </trkpt>
      <trkpt lat="43.01159" lon="0.8552">
        <ele>745.1580032</ele>
        <time>2019-04-22T15:36:11.008Z</time>
      </trkpt>
      <trkpt lat="43.01156" lon="0.8552">
        <ele>746</ele>
        <time>2019-04-22T15:36:12.008Z</time>
      </trkpt>
      <trkpt lat="43.01154" lon="0.8552">
        <ele>746</ele>
        <time>2019-04-22T15:36:13.008Z</time>
      </trkpt>
      <trkpt lat="43.01151" lon="0.8552">
        <ele>746</ele>
        <time>2019-04-22T15:36:14.008Z</time>
      </trkpt>
      <trkpt lat="43.01149" lon="0.8552">
        <ele>746</ele>
        <time>2019-04-22T15:36:15.008Z</time>
      </trkpt>
      <trkpt lat="43.01146" lon="0.8552">
        <ele>746</ele>
        <time>2019-04-22T15:36:16.008Z</time>
      </trkpt>
      <trkpt lat="43.01144" lon="0.8552">
        <ele>746</ele>
        <time>2019-04-22T15:36:17.008Z</time>
      </trkpt>
      <trkpt lat="43.01141" lon="0.8552">
        <ele>746</ele>
        <time>2019-04-22T15:36:18.008Z</time>
      </trkpt>
      <trkpt lat="43.01139" lon="0.85519">
        <ele>746</ele>
        <time>2019-04-22T15:36:19.008Z</time>
      </trkpt>
      <trkpt lat="43.01136" lon="0.85519">
        <ele>746</ele>
        <time>2019-04-22T15:36:20.008Z</time>
      </trkpt>
      <trkpt lat="43.01134" lon="0.85519">
        <ele>746.1580032</ele>
        <time>2019-04-22T15:36:21.008Z</time>
      </trkpt>
      <trkpt lat="43.01124" lon="0.85518">
        <ele>747</ele>
        <time>2019-04-22T15:36:25.008Z</time>
      </trkpt>
      <trkpt lat="43.01114" lon="0.85516">
        <ele>747</ele>
        <time>2019-04-22T15:36:29.008Z</time>
      </trkpt>
      <trkpt lat="43.01109" lon="0.85516">
        <ele>747.3160064</ele>
        <time>2019-04-22T15:36:31.008Z</time>
      </trkpt>
      <trkpt lat="43.01104" lon="0.85516">
        <ele>749</ele>
        <time>2019-04-22T15:36:33.008Z</time>
      </trkpt>
      <trkpt lat="43.01099" lon="0.85515">
        <ele>749</ele>
        <time>2019-04-22T15:36:35.008Z</time>
      </trkpt>
      <trkpt lat="43.01094" lon="0.85514">
        <ele>749</ele>
        <time>2019-04-22T15:36:37.008Z</time>
      </trkpt>
      <trkpt lat="43.01089" lon="0.85513">
        <ele>749</ele>
        <time>2019-04-22T15:36:39.008Z</time>
      </trkpt>
      <trkpt lat="43.01084" lon="0.85511">
        <ele>749.3160064</ele>
        <time>2019-04-22T15:36:41.008Z</time>
      </trkpt>
      <trkpt lat="43.01079" lon="0.85509">
        <ele>751</ele>
        <time>2019-04-22T15:36:43.008Z</time>
      </trkpt>
      <trkpt lat="43.01074" lon="0.85507">
        <ele>751</ele>
        <time>2019-04-22T15:36:45.008Z</time>
      </trkpt>
      <trkpt lat="43.0107" lon="0.85504">
        <ele>751</ele>
        <time>2019-04-22T15:36:47.008Z</time>
      </trkpt>
      <trkpt lat="43.01065" lon="0.85501">
        <ele>751</ele>
        <time>2019-04-22T15:36:49.008Z</time>
      </trkpt>
      <trkpt lat="43.0106" lon="0.85497">
        <ele>751.1580032</ele>
        <time>2019-04-22T15:36:51.008Z</time>
      </trkpt>
      <trkpt lat="43.01056" lon="0.85493">
        <ele>752</ele>
        <time>2019-04-22T15:36:53.008Z</time>
      </trkpt>
      <trkpt lat="43.01052" lon="0.85489">
        <ele>752</ele>
        <time>2019-04-22T15:36:55.008Z</time>
      </trkpt>
      <trkpt lat="43.01049" lon="0.85485">
        <ele>752</ele>
        <time>2019-04-22T15:36:57.008Z</time>
      </trkpt>
      <trkpt lat="43.01045" lon="0.8548">
        <ele>752</ele>
        <time>2019-04-22T15:36:59.008Z</time>
      </trkpt>
      <trkpt lat="43.01041" lon="0.85477">
        <ele>752.3160064</ele>
        <time>2019-04-22T15:37:01.008Z</time>
      </trkpt>
      <trkpt lat="43.01037" lon="0.85473">
        <ele>754</ele>
        <time>2019-04-22T15:37:03.008Z</time>
      </trkpt>
      <trkpt lat="43.01035" lon="0.85468">
        <ele>754</ele>
        <time>2019-04-22T15:37:05.008Z</time>
      </trkpt>
      <trkpt lat="43.01034" lon="0.85463">
        <ele>754</ele>
        <time>2019-04-22T15:37:07.008Z</time>
      </trkpt>
      <trkpt lat="43.01035" lon="0.85461">
        <ele>753</ele>
        <time>2019-04-22T15:38:43.008Z</time>
      </trkpt>
      <trkpt lat="43.01034" lon="0.85458">
        <ele>753</ele>
        <time>2019-04-22T15:42:42.008Z</time>
      </trkpt>
      <trkpt lat="43.0103" lon="0.85457">
        <ele>753</ele>
        <time>2019-04-22T15:43:55.008Z</time>
      </trkpt>
      <trkpt lat="43.01024" lon="0.85455">
        <ele>753</ele>
        <time>2019-04-22T15:43:58.008Z</time>
      </trkpt>
      <trkpt lat="43.0102" lon="0.85453">
        <ele>753</ele>
        <time>2019-04-22T15:44:00.008Z</time>
      </trkpt>
      <trkpt lat="43.01015" lon="0.8545">
        <ele>754</ele>
        <time>2019-04-22T15:44:02.008Z</time>
      </trkpt>
      <trkpt lat="43.0101" lon="0.85448">
        <ele>754</ele>
        <time>2019-04-22T15:44:04.008Z</time>
      </trkpt>
      <trkpt lat="43.01005" lon="0.85446">
        <ele>754</ele>
        <time>2019-04-22T15:44:06.008Z</time>
      </trkpt>
      <trkpt lat="43.01001" lon="0.85443">
        <ele>754</ele>
        <time>2019-04-22T15:44:08.008Z</time>
      </trkpt>
      <trkpt lat="43.00996" lon="0.85441">
        <ele>754</ele>
        <time>2019-04-22T15:44:10.008Z</time>
      </trkpt>
      <trkpt lat="43.00991" lon="0.85439">
        <ele>756</ele>
        <time>2019-04-22T15:44:12.008Z</time>
      </trkpt>
      <trkpt lat="43.00986" lon="0.85439">
        <ele>756</ele>
        <time>2019-04-22T15:44:14.008Z</time>
      </trkpt>
      <trkpt lat="43.00981" lon="0.85439">
        <ele>756</ele>
        <time>2019-04-22T15:44:16.008Z</time>
      </trkpt>
      <trkpt lat="43.00976" lon="0.85439">
        <ele>756</ele>
        <time>2019-04-22T15:44:18.008Z</time>
      </trkpt>
      <trkpt lat="43.00971" lon="0.8544">
        <ele>756</ele>
        <time>2019-04-22T15:44:20.008Z</time>
      </trkpt>
      <trkpt lat="43.00967" lon="0.85443">
        <ele>758</ele>
        <time>2019-04-22T15:44:22.008Z</time>
      </trkpt>
      <trkpt lat="43.00962" lon="0.85445">
        <ele>758</ele>
        <time>2019-04-22T15:44:24.008Z</time>
      </trkpt>
      <trkpt lat="43.00958" lon="0.85448">
        <ele>758</ele>
        <time>2019-04-22T15:44:26.008Z</time>
      </trkpt>
      <trkpt lat="43.00953" lon="0.8545">
        <ele>758</ele>
        <time>2019-04-22T15:44:28.008Z</time>
      </trkpt>
      <trkpt lat="43.00948" lon="0.85453">
        <ele>758</ele>
        <time>2019-04-22T15:44:30.008Z</time>
      </trkpt>
      <trkpt lat="43.00944" lon="0.85456">
        <ele>759</ele>
        <time>2019-04-22T15:44:32.008Z</time>
      </trkpt>
      <trkpt lat="43.00939" lon="0.85459">
        <ele>759</ele>
        <time>2019-04-22T15:44:34.008Z</time>
      </trkpt>
      <trkpt lat="43.00934" lon="0.85462">
        <ele>759</ele>
        <time>2019-04-22T15:44:36.008Z</time>
      </trkpt>
      <trkpt lat="43.00932" lon="0.85464">
        <ele>759</ele>
        <time>2019-04-22T15:44:37.008Z</time>
      </trkpt>
      <trkpt lat="43.00927" lon="0.85466">
        <ele>759</ele>
        <time>2019-04-22T15:44:39.008Z</time>
      </trkpt>
      <trkpt lat="43.00925" lon="0.85468">
        <ele>759</ele>
        <time>2019-04-22T15:44:40.008Z</time>
      </trkpt>
      <trkpt lat="43.00923" lon="0.85469">
        <ele>759.3160064</ele>
        <time>2019-04-22T15:44:41.008Z</time>
      </trkpt>
      <trkpt lat="43.0092" lon="0.8547">
        <ele>761</ele>
        <time>2019-04-22T15:44:42.008Z</time>
      </trkpt>
      <trkpt lat="43.00918" lon="0.85472">
        <ele>761</ele>
        <time>2019-04-22T15:44:43.008Z</time>
      </trkpt>
      <trkpt lat="43.00913" lon="0.85474">
        <ele>761</ele>
        <time>2019-04-22T15:44:45.008Z</time>
      </trkpt>
      <trkpt lat="43.00909" lon="0.85477">
        <ele>761</ele>
        <time>2019-04-22T15:44:47.008Z</time>
      </trkpt>
      <trkpt lat="43.00907" lon="0.85479">
        <ele>761</ele>
        <time>2019-04-22T15:44:48.008Z</time>
      </trkpt>
      <trkpt lat="43.00904" lon="0.8548">
        <ele>761</ele>
        <time>2019-04-22T15:44:49.008Z</time>
      </trkpt>
      <trkpt lat="43.00902" lon="0.85482">
        <ele>761</ele>
        <time>2019-04-22T15:44:50.008Z</time>
      </trkpt>
      <trkpt lat="43.00899" lon="0.85483">
        <ele>761</ele>
        <time>2019-04-22T15:44:51.008Z</time>
      </trkpt>
      <trkpt lat="43.00895" lon="0.85486">
        <ele>761</ele>
        <time>2019-04-22T15:44:53.008Z</time>
      </trkpt>
      <trkpt lat="43.0089" lon="0.85489">
        <ele>761</ele>
        <time>2019-04-22T15:44:55.008Z</time>
      </trkpt>
      <trkpt lat="43.00885" lon="0.85492">
        <ele>761</ele>
        <time>2019-04-22T15:44:57.008Z</time>
      </trkpt>
      <trkpt lat="43.0088" lon="0.85494">
        <ele>761</ele>
        <time>2019-04-22T15:44:59.008Z</time>
      </trkpt>
      <trkpt lat="43.00876" lon="0.85497">
        <ele>761</ele>
        <time>2019-04-22T15:45:01.008Z</time>
      </trkpt>
      <trkpt lat="43.00871" lon="0.85499">
        <ele>761</ele>
        <time>2019-04-22T15:45:03.008Z</time>
      </trkpt>
      <trkpt lat="43.00867" lon="0.85502">
        <ele>761</ele>
        <time>2019-04-22T15:45:05.008Z</time>
      </trkpt>
      <trkpt lat="43.00862" lon="0.85503">
        <ele>761</ele>
        <time>2019-04-22T15:45:07.008Z</time>
      </trkpt>
      <trkpt lat="43.00857" lon="0.85504">
        <ele>761</ele>
        <time>2019-04-22T15:45:09.008Z</time>
      </trkpt>
      <trkpt lat="43.00853" lon="0.85502">
        <ele>761.3160064</ele>
        <time>2019-04-22T15:45:11.008Z</time>
      </trkpt>
      <trkpt lat="43.00848" lon="0.855">
        <ele>763</ele>
        <time>2019-04-22T15:45:13.008Z</time>
      </trkpt>
      <trkpt lat="43.00842" lon="0.85498">
        <ele>763</ele>
        <time>2019-04-22T15:45:15.008Z</time>
      </trkpt>
      <trkpt lat="43.00837" lon="0.85496">
        <ele>763</ele>
        <time>2019-04-22T15:45:17.008Z</time>
      </trkpt>
      <trkpt lat="43.00833" lon="0.85492">
        <ele>763</ele>
        <time>2019-04-22T15:45:19.008Z</time>
      </trkpt>
      <trkpt lat="43.00827" lon="0.85487">
        <ele>764</ele>
        <time>2019-04-22T15:45:22.008Z</time>
      </trkpt>
      <trkpt lat="43.00821" lon="0.85479">
        <ele>764</ele>
        <time>2019-04-22T15:45:27.008Z</time>
      </trkpt>
      <trkpt lat="43.00815" lon="0.85468">
        <ele>764.3160064</ele>
        <time>2019-04-22T15:45:31.008Z</time>
      </trkpt>
      <trkpt lat="43.0081" lon="0.8546">
        <ele>766</ele>
        <time>2019-04-22T15:45:34.008Z</time>
      </trkpt>
      <trkpt lat="43.00804" lon="0.8545">
        <ele>766</ele>
        <time>2019-04-22T15:45:39.008Z</time>
      </trkpt>
      <trkpt lat="43.00797" lon="0.85439">
        <ele>769</ele>
        <time>2019-04-22T15:45:43.008Z</time>
      </trkpt>
      <trkpt lat="43.0079" lon="0.85428">
        <ele>770</ele>
        <time>2019-04-22T15:45:47.008Z</time>
      </trkpt>
      <trkpt lat="43.00783" lon="0.85416">
        <ele>770</ele>
        <time>2019-04-22T15:45:51.008Z</time>
      </trkpt>
      <trkpt lat="43.00778" lon="0.85405">
        <ele>770</ele>
        <time>2019-04-22T15:45:55.008Z</time>
      </trkpt>
      <trkpt lat="43.00774" lon="0.85392">
        <ele>770</ele>
        <time>2019-04-22T15:46:00.008Z</time>
      </trkpt>
      <trkpt lat="43.00769" lon="0.8538">
        <ele>772</ele>
        <time>2019-04-22T15:46:05.008Z</time>
      </trkpt>
      <trkpt lat="43.00765" lon="0.85367">
        <ele>773</ele>
        <time>2019-04-22T15:46:10.008Z</time>
      </trkpt>
      <trkpt lat="43.00764" lon="0.85358">
        <ele>775</ele>
        <time>2019-04-22T15:46:13.008Z</time>
      </trkpt>
      <trkpt lat="43.00762" lon="0.85344">
        <ele>776</ele>
        <time>2019-04-22T15:46:17.008Z</time>
      </trkpt>
      <trkpt lat="43.0076" lon="0.85332">
        <ele>776</ele>
        <time>2019-04-22T15:46:20.008Z</time>
      </trkpt>
      <trkpt lat="43.00757" lon="0.85321">
        <ele>777</ele>
        <time>2019-04-22T15:46:23.008Z</time>
      </trkpt>
      <trkpt lat="43.00755" lon="0.85309">
        <ele>777</ele>
        <time>2019-04-22T15:46:27.008Z</time>
      </trkpt>
      <trkpt lat="43.00753" lon="0.85295">
        <ele>779</ele>
        <time>2019-04-22T15:46:32.008Z</time>
      </trkpt>
      <trkpt lat="43.00751" lon="0.85278">
        <ele>779</ele>
        <time>2019-04-22T15:46:37.008Z</time>
      </trkpt>
      <trkpt lat="43.00746" lon="0.85263">
        <ele>781</ele>
        <time>2019-04-22T15:46:42.008Z</time>
      </trkpt>
      <trkpt lat="43.00744" lon="0.85247">
        <ele>783</ele>
        <time>2019-04-22T15:46:47.008Z</time>
      </trkpt>
      <trkpt lat="43.00741" lon="0.85232">
        <ele>784</ele>
        <time>2019-04-22T15:46:52.008Z</time>
      </trkpt>
      <trkpt lat="43.00735" lon="0.85218">
        <ele>785</ele>
        <time>2019-04-22T15:46:57.008Z</time>
      </trkpt>
      <trkpt lat="43.00729" lon="0.85231">
        <ele>786</ele>
        <time>2019-04-22T15:47:05.008Z</time>
      </trkpt>
      <trkpt lat="43.00732" lon="0.85245">
        <ele>786</ele>
        <time>2019-04-22T15:47:09.008Z</time>
      </trkpt>
      <trkpt lat="43.00734" lon="0.85261">
        <ele>788</ele>
        <time>2019-04-22T15:47:14.008Z</time>
      </trkpt>
      <trkpt lat="43.00734" lon="0.85277">
        <ele>788</ele>
        <time>2019-04-22T15:47:19.008Z</time>
      </trkpt>
      <trkpt lat="43.00733" lon="0.85292">
        <ele>789</ele>
        <time>2019-04-22T15:47:24.008Z</time>
      </trkpt>
      <trkpt lat="43.00731" lon="0.85303">
        <ele>789</ele>
        <time>2019-04-22T15:47:28.008Z</time>
      </trkpt>
      <trkpt lat="43.0073" lon="0.85314">
        <ele>789.3160064</ele>
        <time>2019-04-22T15:47:31.008Z</time>
      </trkpt>
      <trkpt lat="43.0073" lon="0.85326">
        <ele>791</ele>
        <time>2019-04-22T15:47:34.008Z</time>
      </trkpt>
      <trkpt lat="43.00729" lon="0.85336">
        <ele>791</ele>
        <time>2019-04-22T15:47:37.008Z</time>
      </trkpt>
      <trkpt lat="43.00729" lon="0.85346">
        <ele>791</ele>
        <time>2019-04-22T15:47:40.008Z</time>
      </trkpt>
      <trkpt lat="43.00729" lon="0.85357">
        <ele>792</ele>
        <time>2019-04-22T15:47:43.008Z</time>
      </trkpt>
      <trkpt lat="43.0073" lon="0.8537">
        <ele>792</ele>
        <time>2019-04-22T15:47:47.008Z</time>
      </trkpt>
      <trkpt lat="43.00731" lon="0.8538">
        <ele>792</ele>
        <time>2019-04-22T15:47:50.008Z</time>
      </trkpt>
      <trkpt lat="43.00731" lon="0.85389">
        <ele>794</ele>
        <time>2019-04-22T15:47:53.008Z</time>
      </trkpt>
      <trkpt lat="43.00731" lon="0.854">
        <ele>794</ele>
        <time>2019-04-22T15:47:56.008Z</time>
      </trkpt>
      <trkpt lat="43.00733" lon="0.85413">
        <ele>794</ele>
        <time>2019-04-22T15:48:00.008Z</time>
      </trkpt>
      <trkpt lat="43.00733" lon="0.85423">
        <ele>795</ele>
        <time>2019-04-22T15:48:03.008Z</time>
      </trkpt>
      <trkpt lat="43.00733" lon="0.85433">
        <ele>795</ele>
        <time>2019-04-22T15:48:06.008Z</time>
      </trkpt>
      <trkpt lat="43.00733" lon="0.85446">
        <ele>796</ele>
        <time>2019-04-22T15:48:10.008Z</time>
      </trkpt>
      <trkpt lat="43.00734" lon="0.85458">
        <ele>797</ele>
        <time>2019-04-22T15:48:14.008Z</time>
      </trkpt>
      <trkpt lat="43.00734" lon="0.85472">
        <ele>797</ele>
        <time>2019-04-22T15:48:18.008Z</time>
      </trkpt>
      <trkpt lat="43.00732" lon="0.85483">
        <ele>797.3160064</ele>
        <time>2019-04-22T15:48:21.008Z</time>
      </trkpt>
      <trkpt lat="43.00731" lon="0.85493">
        <ele>799</ele>
        <time>2019-04-22T15:48:24.008Z</time>
      </trkpt>
      <trkpt lat="43.0073" lon="0.85504">
        <ele>799</ele>
        <time>2019-04-22T15:48:27.008Z</time>
      </trkpt>
      <trkpt lat="43.00727" lon="0.85513">
        <ele>799</ele>
        <time>2019-04-22T15:48:30.008Z</time>
      </trkpt>
      <trkpt lat="43.00724" lon="0.85522">
        <ele>801</ele>
        <time>2019-04-22T15:48:33.008Z</time>
      </trkpt>
      <trkpt lat="43.00722" lon="0.85532">
        <ele>801</ele>
        <time>2019-04-22T15:48:36.008Z</time>
      </trkpt>
      <trkpt lat="43.00721" lon="0.85538">
        <ele>801</ele>
        <time>2019-04-22T15:48:38.008Z</time>
      </trkpt>
      <trkpt lat="43.00718" lon="0.85548">
        <ele>801</ele>
        <time>2019-04-22T15:48:41.008Z</time>
      </trkpt>
      <trkpt lat="43.00715" lon="0.85557">
        <ele>801</ele>
        <time>2019-04-22T15:48:44.008Z</time>
      </trkpt>
      <trkpt lat="43.00712" lon="0.85567">
        <ele>801</ele>
        <time>2019-04-22T15:48:47.008Z</time>
      </trkpt>
      <trkpt lat="43.00709" lon="0.85576">
        <ele>801</ele>
        <time>2019-04-22T15:48:50.008Z</time>
      </trkpt>
      <trkpt lat="43.00707" lon="0.85582">
        <ele>803</ele>
        <time>2019-04-22T15:48:52.008Z</time>
      </trkpt>
      <trkpt lat="43.00704" lon="0.85588">
        <ele>803</ele>
        <time>2019-04-22T15:48:54.008Z</time>
      </trkpt>
      <trkpt lat="43.00702" lon="0.85594">
        <ele>803</ele>
        <time>2019-04-22T15:48:56.008Z</time>
      </trkpt>
      <trkpt lat="43.00699" lon="0.85599">
        <ele>803</ele>
        <time>2019-04-22T15:48:58.008Z</time>
      </trkpt>
      <trkpt lat="43.00696" lon="0.85605">
        <ele>803</ele>
        <time>2019-04-22T15:49:00.008Z</time>
      </trkpt>
      <trkpt lat="43.00692" lon="0.8561">
        <ele>805</ele>
        <time>2019-04-22T15:49:02.008Z</time>
      </trkpt>
      <trkpt lat="43.00689" lon="0.85614">
        <ele>805</ele>
        <time>2019-04-22T15:49:04.008Z</time>
      </trkpt>
      <trkpt lat="43.00683" lon="0.85621">
        <ele>805</ele>
        <time>2019-04-22T15:49:07.008Z</time>
      </trkpt>
      <trkpt lat="43.00677" lon="0.85627">
        <ele>805</ele>
        <time>2019-04-22T15:49:10.008Z</time>
      </trkpt>
      <trkpt lat="43.00673" lon="0.85631">
        <ele>806</ele>
        <time>2019-04-22T15:49:12.008Z</time>
      </trkpt>
      <trkpt lat="43.00667" lon="0.85636">
        <ele>806</ele>
        <time>2019-04-22T15:49:15.008Z</time>
      </trkpt>
      <trkpt lat="43.00659" lon="0.85643">
        <ele>806</ele>
        <time>2019-04-22T15:49:19.008Z</time>
      </trkpt>
      <trkpt lat="43.0065" lon="0.85649">
        <ele>809</ele>
        <time>2019-04-22T15:49:23.008Z</time>
      </trkpt>
      <trkpt lat="43.00641" lon="0.85655">
        <ele>809</ele>
        <time>2019-04-22T15:49:27.008Z</time>
      </trkpt>
      <trkpt lat="43.00631" lon="0.8566">
        <ele>811</ele>
        <time>2019-04-22T15:49:32.008Z</time>
      </trkpt>
      <trkpt lat="43.00624" lon="0.85661">
        <ele>811</ele>
        <time>2019-04-22T15:49:35.008Z</time>
      </trkpt>
      <trkpt lat="43.00617" lon="0.85662">
        <ele>811</ele>
        <time>2019-04-22T15:49:38.008Z</time>
      </trkpt>
      <trkpt lat="43.00608" lon="0.85664">
        <ele>811.3160064</ele>
        <time>2019-04-22T15:49:41.008Z</time>
      </trkpt>
      <trkpt lat="43.00601" lon="0.85666">
        <ele>813</ele>
        <time>2019-04-22T15:49:44.008Z</time>
      </trkpt>
      <trkpt lat="43.0059" lon="0.85668">
        <ele>813</ele>
        <time>2019-04-22T15:49:49.008Z</time>
      </trkpt>
      <trkpt lat="43.00578" lon="0.85672">
        <ele>815</ele>
        <time>2019-04-22T15:49:54.008Z</time>
      </trkpt>
      <trkpt lat="43.00568" lon="0.85673">
        <ele>815</ele>
        <time>2019-04-22T15:49:58.008Z</time>
      </trkpt>
      <trkpt lat="43.00562" lon="0.85673">
        <ele>815</ele>
        <time>2019-04-22T15:50:01.008Z</time>
      </trkpt>
      <trkpt lat="43.00552" lon="0.85675">
        <ele>815</ele>
        <time>2019-04-22T15:50:05.008Z</time>
      </trkpt>
      <trkpt lat="43.00539" lon="0.85676">
        <ele>815</ele>
        <time>2019-04-22T15:50:10.008Z</time>
      </trkpt>
      <trkpt lat="43.00532" lon="0.85675">
        <ele>817</ele>
        <time>2019-04-22T15:50:13.008Z</time>
      </trkpt>
      <trkpt lat="43.00524" lon="0.85673">
        <ele>817</ele>
        <time>2019-04-22T15:50:16.008Z</time>
      </trkpt>
      <trkpt lat="43.00518" lon="0.85669">
        <ele>817</ele>
        <time>2019-04-22T15:50:19.008Z</time>
      </trkpt>
      <trkpt lat="43.00512" lon="0.85663">
        <ele>819</ele>
        <time>2019-04-22T15:50:22.008Z</time>
      </trkpt>
      <trkpt lat="43.00506" lon="0.85658">
        <ele>819</ele>
        <time>2019-04-22T15:50:25.008Z</time>
      </trkpt>
      <trkpt lat="43.00502" lon="0.85653">
        <ele>819</ele>
        <time>2019-04-22T15:50:27.008Z</time>
      </trkpt>
      <trkpt lat="43.00499" lon="0.85648">
        <ele>819</ele>
        <time>2019-04-22T15:50:29.008Z</time>
      </trkpt>
      <trkpt lat="43.00496" lon="0.85642">
        <ele>819.1580032</ele>
        <time>2019-04-22T15:50:31.008Z</time>
      </trkpt>
      <trkpt lat="43.00493" lon="0.85636">
        <ele>820</ele>
        <time>2019-04-22T15:50:33.008Z</time>
      </trkpt>
      <trkpt lat="43.00489" lon="0.85631">
        <ele>820</ele>
        <time>2019-04-22T15:50:35.008Z</time>
      </trkpt>
      <trkpt lat="43.00484" lon="0.85624">
        <ele>820</ele>
        <time>2019-04-22T15:50:38.008Z</time>
      </trkpt>
      <trkpt lat="43.0048" lon="0.8562">
        <ele>820</ele>
        <time>2019-04-22T15:50:40.008Z</time>
      </trkpt>
      <trkpt lat="43.00477" lon="0.85615">
        <ele>821</ele>
        <time>2019-04-22T15:50:42.008Z</time>
      </trkpt>
      <trkpt lat="43.00473" lon="0.8561">
        <ele>821</ele>
        <time>2019-04-22T15:50:44.008Z</time>
      </trkpt>
      <trkpt lat="43.00469" lon="0.85606">
        <ele>821</ele>
        <time>2019-04-22T15:50:46.008Z</time>
      </trkpt>
      <trkpt lat="43.00466" lon="0.856">
        <ele>821</ele>
        <time>2019-04-22T15:50:48.008Z</time>
      </trkpt>
      <trkpt lat="43.0046" lon="0.85594">
        <ele>821.1580032</ele>
        <time>2019-04-22T15:50:51.008Z</time>
      </trkpt>
      <trkpt lat="43.00456" lon="0.85589">
        <ele>822</ele>
        <time>2019-04-22T15:50:53.008Z</time>
      </trkpt>
      <trkpt lat="43.00449" lon="0.85582">
        <ele>822</ele>
        <time>2019-04-22T15:50:56.008Z</time>
      </trkpt>
      <trkpt lat="43.00442" lon="0.85576">
        <ele>822</ele>
        <time>2019-04-22T15:50:59.008Z</time>
      </trkpt>
      <trkpt lat="43.00435" lon="0.85571">
        <ele>823</ele>
        <time>2019-04-22T15:51:02.008Z</time>
      </trkpt>
      <trkpt lat="43.00428" lon="0.85567">
        <ele>823</ele>
        <time>2019-04-22T15:51:05.008Z</time>
      </trkpt>
      <trkpt lat="43.00424" lon="0.85564">
        <ele>823</ele>
        <time>2019-04-22T15:51:07.008Z</time>
      </trkpt>
      <trkpt lat="43.00417" lon="0.8556">
        <ele>823</ele>
        <time>2019-04-22T15:51:10.008Z</time>
      </trkpt>
      <trkpt lat="43.0041" lon="0.85555">
        <ele>824</ele>
        <time>2019-04-22T15:51:13.008Z</time>
      </trkpt>
      <trkpt lat="43.00405" lon="0.85552">
        <ele>824</ele>
        <time>2019-04-22T15:51:15.008Z</time>
      </trkpt>
      <trkpt lat="43.004" lon="0.85548">
        <ele>824</ele>
        <time>2019-04-22T15:51:17.008Z</time>
      </trkpt>
      <trkpt lat="43.00395" lon="0.85545">
        <ele>824</ele>
        <time>2019-04-22T15:51:19.008Z</time>
      </trkpt>
      <trkpt lat="43.00388" lon="0.85541">
        <ele>824</ele>
        <time>2019-04-22T15:51:22.008Z</time>
      </trkpt>
      <trkpt lat="43.00383" lon="0.85538">
        <ele>824</ele>
        <time>2019-04-22T15:51:24.008Z</time>
      </trkpt>
      <trkpt lat="43.00378" lon="0.85535">
        <ele>824</ele>
        <time>2019-04-22T15:51:26.008Z</time>
      </trkpt>
      <trkpt lat="43.00374" lon="0.85533">
        <ele>824</ele>
        <time>2019-04-22T15:51:28.008Z</time>
      </trkpt>
      <trkpt lat="43.00369" lon="0.85531">
        <ele>824</ele>
        <time>2019-04-22T15:51:30.008Z</time>
      </trkpt>
      <trkpt lat="43.00364" lon="0.85527">
        <ele>826</ele>
        <time>2019-04-22T15:51:32.008Z</time>
      </trkpt>
      <trkpt lat="43.00359" lon="0.85524">
        <ele>826</ele>
        <time>2019-04-22T15:51:34.008Z</time>
      </trkpt>
      <trkpt lat="43.00355" lon="0.8552">
        <ele>826</ele>
        <time>2019-04-22T15:51:36.008Z</time>
      </trkpt>
      <trkpt lat="43.00348" lon="0.85514">
        <ele>826</ele>
        <time>2019-04-22T15:51:39.008Z</time>
      </trkpt>
      <trkpt lat="43.00344" lon="0.8551">
        <ele>826</ele>
        <time>2019-04-22T15:51:41.008Z</time>
      </trkpt>
      <trkpt lat="43.00339" lon="0.85505">
        <ele>826</ele>
        <time>2019-04-22T15:51:43.008Z</time>
      </trkpt>
      <trkpt lat="43.00335" lon="0.855">
        <ele>826</ele>
        <time>2019-04-22T15:51:45.008Z</time>
      </trkpt>
      <trkpt lat="43.00331" lon="0.85495">
        <ele>826</ele>
        <time>2019-04-22T15:51:47.008Z</time>
      </trkpt>
      <trkpt lat="43.00327" lon="0.85489">
        <ele>826</ele>
        <time>2019-04-22T15:51:49.008Z</time>
      </trkpt>
      <trkpt lat="43.00323" lon="0.85483">
        <ele>826.1580032</ele>
        <time>2019-04-22T15:51:51.008Z</time>
      </trkpt>
      <trkpt lat="43.00317" lon="0.8547">
        <ele>827</ele>
        <time>2019-04-22T15:51:55.008Z</time>
      </trkpt>
      <trkpt lat="43.00313" lon="0.85457">
        <ele>827</ele>
        <time>2019-04-22T15:51:59.008Z</time>
      </trkpt>
      <trkpt lat="43.0031" lon="0.85443">
        <ele>828</ele>
        <time>2019-04-22T15:52:03.008Z</time>
      </trkpt>
      <trkpt lat="43.00308" lon="0.85436">
        <ele>828</ele>
        <time>2019-04-22T15:52:05.008Z</time>
      </trkpt>
      <trkpt lat="43.00306" lon="0.85425">
        <ele>828</ele>
        <time>2019-04-22T15:52:08.008Z</time>
      </trkpt>
      <trkpt lat="43.00303" lon="0.85414">
        <ele>828.3160064</ele>
        <time>2019-04-22T15:52:11.008Z</time>
      </trkpt>
      <trkpt lat="43.003" lon="0.85403">
        <ele>830</ele>
        <time>2019-04-22T15:52:14.008Z</time>
      </trkpt>
      <trkpt lat="43.00297" lon="0.85393">
        <ele>830</ele>
        <time>2019-04-22T15:52:17.008Z</time>
      </trkpt>
      <trkpt lat="43.00295" lon="0.85386">
        <ele>830</ele>
        <time>2019-04-22T15:52:19.008Z</time>
      </trkpt>
      <trkpt lat="43.0029" lon="0.85373">
        <ele>831</ele>
        <time>2019-04-22T15:52:23.008Z</time>
      </trkpt>
      <trkpt lat="43.00286" lon="0.85363">
        <ele>831</ele>
        <time>2019-04-22T15:52:26.008Z</time>
      </trkpt>
      <trkpt lat="43.00281" lon="0.8535">
        <ele>831</ele>
        <time>2019-04-22T15:52:30.008Z</time>
      </trkpt>
      <trkpt lat="43.00276" lon="0.85338">
        <ele>832</ele>
        <time>2019-04-22T15:52:34.008Z</time>
      </trkpt>
      <trkpt lat="43.0027" lon="0.85327">
        <ele>832</ele>
        <time>2019-04-22T15:52:38.008Z</time>
      </trkpt>
      <trkpt lat="43.00265" lon="0.85317">
        <ele>832.1580032</ele>
        <time>2019-04-22T15:52:41.008Z</time>
      </trkpt>
      <trkpt lat="43.0026" lon="0.85308">
        <ele>833</ele>
        <time>2019-04-22T15:52:44.008Z</time>
      </trkpt>
      <trkpt lat="43.00254" lon="0.853">
        <ele>833</ele>
        <time>2019-04-22T15:52:47.008Z</time>
      </trkpt>
      <trkpt lat="43.00248" lon="0.85292">
        <ele>833</ele>
        <time>2019-04-22T15:52:50.008Z</time>
      </trkpt>
      <trkpt lat="43.00241" lon="0.85282">
        <ele>833</ele>
        <time>2019-04-22T15:52:53.008Z</time>
      </trkpt>
      <trkpt lat="43.00234" lon="0.85275">
        <ele>833</ele>
        <time>2019-04-22T15:52:58.008Z</time>
      </trkpt>
      <trkpt lat="43.00227" lon="0.85266">
        <ele>833.1580032</ele>
        <time>2019-04-22T15:53:01.008Z</time>
      </trkpt>
      <trkpt lat="43.00222" lon="0.85257">
        <ele>834</ele>
        <time>2019-04-22T15:53:04.008Z</time>
      </trkpt>
      <trkpt lat="43.00215" lon="0.85247">
        <ele>834</ele>
        <time>2019-04-22T15:53:08.008Z</time>
      </trkpt>
      <trkpt lat="43.00208" lon="0.8524">
        <ele>834.1580032</ele>
        <time>2019-04-22T15:53:11.008Z</time>
      </trkpt>
      <trkpt lat="43.00201" lon="0.85233">
        <ele>835</ele>
        <time>2019-04-22T15:53:14.008Z</time>
      </trkpt>
      <trkpt lat="43.00194" lon="0.85227">
        <ele>835</ele>
        <time>2019-04-22T15:53:17.008Z</time>
      </trkpt>
      <trkpt lat="43.00188" lon="0.85221">
        <ele>835</ele>
        <time>2019-04-22T15:53:20.008Z</time>
      </trkpt>
      <trkpt lat="43.00181" lon="0.85215">
        <ele>837</ele>
        <time>2019-04-22T15:53:23.008Z</time>
      </trkpt>
      <trkpt lat="43.00173" lon="0.85209">
        <ele>837</ele>
        <time>2019-04-22T15:53:26.008Z</time>
      </trkpt>
      <trkpt lat="43.00163" lon="0.85207">
        <ele>839</ele>
        <time>2019-04-22T15:53:32.008Z</time>
      </trkpt>
      <trkpt lat="43.00152" lon="0.85207">
        <ele>839</ele>
        <time>2019-04-22T15:53:37.008Z</time>
      </trkpt>
      <trkpt lat="43.0014" lon="0.85211">
        <ele>839</ele>
        <time>2019-04-22T15:53:41.008Z</time>
      </trkpt>
      <trkpt lat="43.00131" lon="0.8522">
        <ele>839</ele>
        <time>2019-04-22T15:53:45.008Z</time>
      </trkpt>
      <trkpt lat="43.00122" lon="0.85229">
        <ele>839</ele>
        <time>2019-04-22T15:53:49.008Z</time>
      </trkpt>
      <trkpt lat="43.00113" lon="0.85238">
        <ele>840</ele>
        <time>2019-04-22T15:53:53.008Z</time>
      </trkpt>
      <trkpt lat="43.00104" lon="0.85248">
        <ele>840</ele>
        <time>2019-04-22T15:53:57.008Z</time>
      </trkpt>
      <trkpt lat="43.00096" lon="0.85257">
        <ele>840.1580032</ele>
        <time>2019-04-22T15:54:01.008Z</time>
      </trkpt>
      <trkpt lat="43.00086" lon="0.85261">
        <ele>841</ele>
        <time>2019-04-22T15:54:05.008Z</time>
      </trkpt>
      <trkpt lat="43.00076" lon="0.85264">
        <ele>841</ele>
        <time>2019-04-22T15:54:09.008Z</time>
      </trkpt>
      <trkpt lat="43.00066" lon="0.85269">
        <ele>842</ele>
        <time>2019-04-22T15:54:14.008Z</time>
      </trkpt>
      <trkpt lat="43.00054" lon="0.85268">
        <ele>842</ele>
        <time>2019-04-22T15:54:20.008Z</time>
      </trkpt>
      <trkpt lat="43.00043" lon="0.85273">
        <ele>843</ele>
        <time>2019-04-22T15:54:25.008Z</time>
      </trkpt>
      <trkpt lat="43.00032" lon="0.85274">
        <ele>843</ele>
        <time>2019-04-22T15:54:29.008Z</time>
      </trkpt>
      <trkpt lat="43.00025" lon="0.85275">
        <ele>844</ele>
        <time>2019-04-22T15:54:32.008Z</time>
      </trkpt>
      <trkpt lat="43.00014" lon="0.85275">
        <ele>844</ele>
        <time>2019-04-22T15:54:36.008Z</time>
      </trkpt>
      <trkpt lat="43.00004" lon="0.85277">
        <ele>844</ele>
        <time>2019-04-22T15:54:40.008Z</time>
      </trkpt>
      <trkpt lat="42.99993" lon="0.85278">
        <ele>845</ele>
        <time>2019-04-22T15:54:44.008Z</time>
      </trkpt>
      <trkpt lat="42.99983" lon="0.85282">
        <ele>845</ele>
        <time>2019-04-22T15:54:48.008Z</time>
      </trkpt>
      <trkpt lat="42.99973" lon="0.85285">
        <ele>846</ele>
        <time>2019-04-22T15:54:52.008Z</time>
      </trkpt>
      <trkpt lat="42.99963" lon="0.85288">
        <ele>846</ele>
        <time>2019-04-22T15:54:56.008Z</time>
      </trkpt>
      <trkpt lat="42.99951" lon="0.8529">
        <ele>846</ele>
        <time>2019-04-22T15:55:00.008Z</time>
      </trkpt>
      <trkpt lat="42.99938" lon="0.85291">
        <ele>847</ele>
        <time>2019-04-22T15:55:04.008Z</time>
      </trkpt>
      <trkpt lat="42.99927" lon="0.85297">
        <ele>848</ele>
        <time>2019-04-22T15:55:09.008Z</time>
      </trkpt>
      <trkpt lat="42.99916" lon="0.85302">
        <ele>848</ele>
        <time>2019-04-22T15:55:13.008Z</time>
      </trkpt>
      <trkpt lat="42.99905" lon="0.85307">
        <ele>848</ele>
        <time>2019-04-22T15:55:17.008Z</time>
      </trkpt>
      <trkpt lat="42.99894" lon="0.85311">
        <ele>848.1580032</ele>
        <time>2019-04-22T15:55:21.008Z</time>
      </trkpt>
      <trkpt lat="42.99884" lon="0.85317">
        <ele>849</ele>
        <time>2019-04-22T15:55:25.008Z</time>
      </trkpt>
      <trkpt lat="42.99872" lon="0.8532">
        <ele>850</ele>
        <time>2019-04-22T15:55:29.008Z</time>
      </trkpt>
      <trkpt lat="42.9986" lon="0.85324">
        <ele>850</ele>
        <time>2019-04-22T15:55:33.008Z</time>
      </trkpt>
      <trkpt lat="42.99849" lon="0.85327">
        <ele>850</ele>
        <time>2019-04-22T15:55:37.008Z</time>
      </trkpt>
      <trkpt lat="42.99838" lon="0.85333">
        <ele>850.1580032</ele>
        <time>2019-04-22T15:55:41.008Z</time>
      </trkpt>
      <trkpt lat="42.99827" lon="0.85338">
        <ele>851</ele>
        <time>2019-04-22T15:55:45.008Z</time>
      </trkpt>
      <trkpt lat="42.99817" lon="0.85344">
        <ele>851</ele>
        <time>2019-04-22T15:55:49.008Z</time>
      </trkpt>
      <trkpt lat="42.99809" lon="0.85349">
        <ele>851</ele>
        <time>2019-04-22T15:55:52.008Z</time>
      </trkpt>
      <trkpt lat="42.99798" lon="0.85355">
        <ele>851</ele>
        <time>2019-04-22T15:55:57.008Z</time>
      </trkpt>
      <trkpt lat="42.99789" lon="0.85361">
        <ele>852</ele>
        <time>2019-04-22T15:56:00.008Z</time>
      </trkpt>
      <trkpt lat="42.9978" lon="0.85367">
        <ele>853</ele>
        <time>2019-04-22T15:56:03.008Z</time>
      </trkpt>
      <trkpt lat="42.99769" lon="0.85374">
        <ele>853</ele>
        <time>2019-04-22T15:56:07.008Z</time>
      </trkpt>
      <trkpt lat="42.99758" lon="0.85377">
        <ele>853</ele>
        <time>2019-04-22T15:56:11.008Z</time>
      </trkpt>
      <trkpt lat="42.99747" lon="0.85374">
        <ele>853</ele>
        <time>2019-04-22T15:56:15.008Z</time>
      </trkpt>
      <trkpt lat="42.99737" lon="0.85367">
        <ele>853</ele>
        <time>2019-04-22T15:56:19.008Z</time>
      </trkpt>
      <trkpt lat="42.99724" lon="0.85367">
        <ele>855</ele>
        <time>2019-04-22T15:56:23.008Z</time>
      </trkpt>
      <trkpt lat="42.99713" lon="0.85374">
        <ele>855</ele>
        <time>2019-04-22T15:56:27.008Z</time>
      </trkpt>
      <trkpt lat="42.99703" lon="0.8538">
        <ele>855</ele>
        <time>2019-04-22T15:56:30.008Z</time>
      </trkpt>
      <trkpt lat="42.99695" lon="0.85383">
        <ele>855</ele>
        <time>2019-04-22T15:56:33.008Z</time>
      </trkpt>
      <trkpt lat="42.99683" lon="0.8538">
        <ele>855</ele>
        <time>2019-04-22T15:56:36.008Z</time>
      </trkpt>
      <trkpt lat="42.99672" lon="0.85375">
        <ele>855</ele>
        <time>2019-04-22T15:56:39.008Z</time>
      </trkpt>
      <trkpt lat="42.99662" lon="0.85369">
        <ele>857</ele>
        <time>2019-04-22T15:56:42.008Z</time>
      </trkpt>
      <trkpt lat="42.99653" lon="0.85362">
        <ele>857</ele>
        <time>2019-04-22T15:56:45.008Z</time>
      </trkpt>
      <trkpt lat="42.99643" lon="0.85357">
        <ele>857</ele>
        <time>2019-04-22T15:56:49.008Z</time>
      </trkpt>
      <trkpt lat="42.99631" lon="0.85356">
        <ele>858</ele>
        <time>2019-04-22T15:56:54.008Z</time>
      </trkpt>
      <trkpt lat="42.99619" lon="0.85363">
        <ele>858</ele>
        <time>2019-04-22T15:56:58.008Z</time>
      </trkpt>
      <trkpt lat="42.9961" lon="0.85369">
        <ele>858.3160064</ele>
        <time>2019-04-22T15:57:01.008Z</time>
      </trkpt>
      <trkpt lat="42.99597" lon="0.85371">
        <ele>860</ele>
        <time>2019-04-22T15:57:05.008Z</time>
      </trkpt>
      <trkpt lat="42.99587" lon="0.85368">
        <ele>860</ele>
        <time>2019-04-22T15:57:08.008Z</time>
      </trkpt>
      <trkpt lat="42.99576" lon="0.85363">
        <ele>860.1580032</ele>
        <time>2019-04-22T15:57:11.008Z</time>
      </trkpt>
      <trkpt lat="42.99567" lon="0.85359">
        <ele>861</ele>
        <time>2019-04-22T15:57:14.008Z</time>
      </trkpt>
      <trkpt lat="42.99559" lon="0.85354">
        <ele>861</ele>
        <time>2019-04-22T15:57:17.008Z</time>
      </trkpt>
      <trkpt lat="42.99547" lon="0.85347">
        <ele>861.3160064</ele>
        <time>2019-04-22T15:57:21.008Z</time>
      </trkpt>
      <trkpt lat="42.99535" lon="0.85341">
        <ele>863</ele>
        <time>2019-04-22T15:57:25.008Z</time>
      </trkpt>
      <trkpt lat="42.99527" lon="0.85336">
        <ele>863</ele>
        <time>2019-04-22T15:57:28.008Z</time>
      </trkpt>
      <trkpt lat="42.99518" lon="0.85333">
        <ele>863</ele>
        <time>2019-04-22T15:57:31.008Z</time>
      </trkpt>
      <trkpt lat="42.99508" lon="0.85331">
        <ele>863</ele>
        <time>2019-04-22T15:57:34.008Z</time>
      </trkpt>
      <trkpt lat="42.995" lon="0.85329">
        <ele>863</ele>
        <time>2019-04-22T15:57:38.008Z</time>
      </trkpt>
      <trkpt lat="42.99491" lon="0.85328">
        <ele>863.3160064</ele>
        <time>2019-04-22T15:57:41.008Z</time>
      </trkpt>
      <trkpt lat="42.99483" lon="0.8533">
        <ele>865</ele>
        <time>2019-04-22T15:57:44.008Z</time>
      </trkpt>
      <trkpt lat="42.99471" lon="0.85329">
        <ele>865</ele>
        <time>2019-04-22T15:57:48.008Z</time>
      </trkpt>
      <trkpt lat="42.9946" lon="0.85331">
        <ele>867</ele>
        <time>2019-04-22T15:57:52.008Z</time>
      </trkpt>
      <trkpt lat="42.9945" lon="0.85332">
        <ele>867</ele>
        <time>2019-04-22T15:57:56.008Z</time>
      </trkpt>
      <trkpt lat="42.99439" lon="0.85331">
        <ele>867</ele>
        <time>2019-04-22T15:58:00.008Z</time>
      </trkpt>
      <trkpt lat="42.99429" lon="0.85333">
        <ele>868</ele>
        <time>2019-04-22T15:58:05.008Z</time>
      </trkpt>
      <trkpt lat="42.99419" lon="0.85337">
        <ele>868</ele>
        <time>2019-04-22T15:58:09.008Z</time>
      </trkpt>
      <trkpt lat="42.99408" lon="0.85343">
        <ele>869</ele>
        <time>2019-04-22T15:58:13.008Z</time>
      </trkpt>
      <trkpt lat="42.99398" lon="0.85352">
        <ele>869</ele>
        <time>2019-04-22T15:58:17.008Z</time>
      </trkpt>
      <trkpt lat="42.99388" lon="0.85358">
        <ele>869</ele>
        <time>2019-04-22T15:58:21.008Z</time>
      </trkpt>
      <trkpt lat="42.99377" lon="0.85365">
        <ele>869</ele>
        <time>2019-04-22T15:58:26.008Z</time>
      </trkpt>
      <trkpt lat="42.99366" lon="0.85371">
        <ele>869</ele>
        <time>2019-04-22T15:58:29.008Z</time>
      </trkpt>
      <trkpt lat="42.99356" lon="0.8538">
        <ele>869</ele>
        <time>2019-04-22T15:58:32.008Z</time>
      </trkpt>
      <trkpt lat="42.99344" lon="0.8539">
        <ele>869</ele>
        <time>2019-04-22T15:58:35.008Z</time>
      </trkpt>
      <trkpt lat="42.99335" lon="0.85402">
        <ele>869</ele>
        <time>2019-04-22T15:58:38.008Z</time>
      </trkpt>
      <trkpt lat="42.99327" lon="0.85415">
        <ele>868.8419968</ele>
        <time>2019-04-22T15:58:41.008Z</time>
      </trkpt>
      <trkpt lat="42.99323" lon="0.85429">
        <ele>868</ele>
        <time>2019-04-22T15:58:44.008Z</time>
      </trkpt>
      <trkpt lat="42.99325" lon="0.85445">
        <ele>868</ele>
        <time>2019-04-22T15:58:48.008Z</time>
      </trkpt>
      <trkpt lat="42.99327" lon="0.8546">
        <ele>869</ele>
        <time>2019-04-22T15:58:52.008Z</time>
      </trkpt>
      <trkpt lat="42.99333" lon="0.85475">
        <ele>869</ele>
        <time>2019-04-22T15:58:58.008Z</time>
      </trkpt>
      <trkpt lat="42.99339" lon="0.85487">
        <ele>871</ele>
        <time>2019-04-22T15:59:02.008Z</time>
      </trkpt>
      <trkpt lat="42.99347" lon="0.85498">
        <ele>871</ele>
        <time>2019-04-22T15:59:05.008Z</time>
      </trkpt>
      <trkpt lat="42.99354" lon="0.85512">
        <ele>871</ele>
        <time>2019-04-22T15:59:09.008Z</time>
      </trkpt>
      <trkpt lat="42.99359" lon="0.85526">
        <ele>872</ele>
        <time>2019-04-22T15:59:13.008Z</time>
      </trkpt>
      <trkpt lat="42.99364" lon="0.8554">
        <ele>872</ele>
        <time>2019-04-22T15:59:18.008Z</time>
      </trkpt>
      <trkpt lat="42.99368" lon="0.85553">
        <ele>873</ele>
        <time>2019-04-22T15:59:23.008Z</time>
      </trkpt>
      <trkpt lat="42.99373" lon="0.85569">
        <ele>873</ele>
        <time>2019-04-22T15:59:28.008Z</time>
      </trkpt>
      <trkpt lat="42.99376" lon="0.85584">
        <ele>875</ele>
        <time>2019-04-22T15:59:34.008Z</time>
      </trkpt>
      <trkpt lat="42.99381" lon="0.85597">
        <ele>875</ele>
        <time>2019-04-22T15:59:38.008Z</time>
      </trkpt>
      <trkpt lat="42.99383" lon="0.85611">
        <ele>877</ele>
        <time>2019-04-22T15:59:43.008Z</time>
      </trkpt>
      <trkpt lat="42.99381" lon="0.85625">
        <ele>877</ele>
        <time>2019-04-22T15:59:47.008Z</time>
      </trkpt>
      <trkpt lat="42.99377" lon="0.85638">
        <ele>877.3160064</ele>
        <time>2019-04-22T15:59:51.008Z</time>
      </trkpt>
      <trkpt lat="42.99374" lon="0.85654">
        <ele>879</ele>
        <time>2019-04-22T15:59:56.008Z</time>
      </trkpt>
      <trkpt lat="42.99376" lon="0.85669">
        <ele>879</ele>
        <time>2019-04-22T16:00:00.008Z</time>
      </trkpt>
      <trkpt lat="42.99381" lon="0.85683">
        <ele>880</ele>
        <time>2019-04-22T16:00:04.008Z</time>
      </trkpt>
      <trkpt lat="42.99389" lon="0.85694">
        <ele>880</ele>
        <time>2019-04-22T16:00:09.008Z</time>
      </trkpt>
      <trkpt lat="42.99401" lon="0.85703">
        <ele>880</ele>
        <time>2019-04-22T16:00:13.008Z</time>
      </trkpt>
      <trkpt lat="42.99412" lon="0.85712">
        <ele>880</ele>
        <time>2019-04-22T16:00:17.008Z</time>
      </trkpt>
      <trkpt lat="42.9942" lon="0.85724">
        <ele>881</ele>
        <time>2019-04-22T16:00:22.008Z</time>
      </trkpt>
      <trkpt lat="42.9943" lon="0.85735">
        <ele>881</ele>
        <time>2019-04-22T16:00:26.008Z</time>
      </trkpt>
      <trkpt lat="42.99438" lon="0.85742">
        <ele>881</ele>
        <time>2019-04-22T16:00:30.008Z</time>
      </trkpt>
      <trkpt lat="42.99447" lon="0.85754">
        <ele>881</ele>
        <time>2019-04-22T16:00:33.008Z</time>
      </trkpt>
      <trkpt lat="42.99452" lon="0.85766">
        <ele>881</ele>
        <time>2019-04-22T16:00:37.008Z</time>
      </trkpt>
      <trkpt lat="42.99452" lon="0.85783">
        <ele>881</ele>
        <time>2019-04-22T16:00:41.008Z</time>
      </trkpt>
      <trkpt lat="42.9945" lon="0.85798">
        <ele>881</ele>
        <time>2019-04-22T16:00:44.008Z</time>
      </trkpt>
      <trkpt lat="42.99447" lon="0.85812">
        <ele>881</ele>
        <time>2019-04-22T16:00:47.008Z</time>
      </trkpt>
      <trkpt lat="42.99441" lon="0.85826">
        <ele>881</ele>
        <time>2019-04-22T16:00:50.008Z</time>
      </trkpt>
      <trkpt lat="42.99433" lon="0.85839">
        <ele>881</ele>
        <time>2019-04-22T16:00:53.008Z</time>
      </trkpt>
      <trkpt lat="42.99424" lon="0.85848">
        <ele>881</ele>
        <time>2019-04-22T16:00:56.008Z</time>
      </trkpt>
      <trkpt lat="42.99414" lon="0.85855">
        <ele>881</ele>
        <time>2019-04-22T16:00:59.008Z</time>
      </trkpt>
      <trkpt lat="42.99402" lon="0.85861">
        <ele>880</ele>
        <time>2019-04-22T16:01:02.008Z</time>
      </trkpt>
      <trkpt lat="42.99391" lon="0.85865">
        <ele>880</ele>
        <time>2019-04-22T16:01:05.008Z</time>
      </trkpt>
      <trkpt lat="42.99377" lon="0.85866">
        <ele>880</ele>
        <time>2019-04-22T16:01:07.008Z</time>
      </trkpt>
      <trkpt lat="42.99364" lon="0.85866">
        <ele>880</ele>
        <time>2019-04-22T16:01:09.008Z</time>
      </trkpt>
      <trkpt lat="42.99349" lon="0.85867">
        <ele>879.3679872</ele>
        <time>2019-04-22T16:01:11.008Z</time>
      </trkpt>
      <trkpt lat="42.99332" lon="0.85865">
        <ele>876</ele>
        <time>2019-04-22T16:01:13.008Z</time>
      </trkpt>
      <trkpt lat="42.99317" lon="0.85859">
        <ele>876</ele>
        <time>2019-04-22T16:01:15.008Z</time>
      </trkpt>
      <trkpt lat="42.99302" lon="0.85854">
        <ele>873</ele>
        <time>2019-04-22T16:01:17.008Z</time>
      </trkpt>
      <trkpt lat="42.99287" lon="0.85855">
        <ele>873</ele>
        <time>2019-04-22T16:01:19.008Z</time>
      </trkpt>
      <trkpt lat="42.99276" lon="0.85857">
        <ele>873</ele>
        <time>2019-04-22T16:01:20.008Z</time>
      </trkpt>
      <trkpt lat="42.9926" lon="0.8587">
        <ele>870.6839936</ele>
        <time>2019-04-22T16:01:22.008Z</time>
      </trkpt>
      <trkpt lat="42.99247" lon="0.85889">
        <ele>867.8419968</ele>
        <time>2019-04-22T16:01:24.008Z</time>
      </trkpt>
      <trkpt lat="42.99231" lon="0.85905">
        <ele>867.84356267505</ele>
        <time>2019-04-22T16:01:26.008Z</time>
      </trkpt>
      <trkpt lat="42.99215" lon="0.85916">
        <ele>864.8419968</ele>
        <time>2019-04-22T16:01:28.008Z</time>
      </trkpt>
      <trkpt lat="42.99199" lon="0.85927">
        <ele>863.8419968</ele>
        <time>2019-04-22T16:01:30.008Z</time>
      </trkpt>
      <trkpt lat="42.99189" lon="0.8594">
        <ele>863</ele>
        <time>2019-04-22T16:01:32.008Z</time>
      </trkpt>
      <trkpt lat="42.9918" lon="0.85959">
        <ele>861.8419968</ele>
        <time>2019-04-22T16:01:34.008Z</time>
      </trkpt>
      <trkpt lat="42.99165" lon="0.85975">
        <ele>860.8419968</ele>
        <time>2019-04-22T16:01:36.008Z</time>
      </trkpt>
      <trkpt lat="42.9915" lon="0.85981">
        <ele>857.8419968</ele>
        <time>2019-04-22T16:01:38.008Z</time>
      </trkpt>
      <trkpt lat="42.99134" lon="0.85978">
        <ele>856</ele>
        <time>2019-04-22T16:01:40.008Z</time>
      </trkpt>
      <trkpt lat="42.99119" lon="0.85973">
        <ele>855.1580032</ele>
        <time>2019-04-22T16:01:42.008Z</time>
      </trkpt>
      <trkpt lat="42.99104" lon="0.85972">
        <ele>855.8419968</ele>
        <time>2019-04-22T16:01:44.008Z</time>
      </trkpt>
      <trkpt lat="42.99088" lon="0.85972">
        <ele>854</ele>
        <time>2019-04-22T16:01:46.008Z</time>
      </trkpt>
      <trkpt lat="42.99072" lon="0.85976">
        <ele>852.6839936</ele>
        <time>2019-04-22T16:01:48.008Z</time>
      </trkpt>
      <trkpt lat="42.99054" lon="0.8598">
        <ele>850</ele>
        <time>2019-04-22T16:01:50.008Z</time>
      </trkpt>
      <trkpt lat="42.99038" lon="0.85976">
        <ele>849.8419968</ele>
        <time>2019-04-22T16:01:52.008Z</time>
      </trkpt>
      <trkpt lat="42.99023" lon="0.85972">
        <ele>849</ele>
        <time>2019-04-22T16:01:54.008Z</time>
      </trkpt>
      <trkpt lat="42.99011" lon="0.8597">
        <ele>849</ele>
        <time>2019-04-22T16:01:56.008Z</time>
      </trkpt>
      <trkpt lat="42.99001" lon="0.85972">
        <ele>848.8419968</ele>
        <time>2019-04-22T16:01:58.008Z</time>
      </trkpt>
      <trkpt lat="42.9899" lon="0.85975">
        <ele>848</ele>
        <time>2019-04-22T16:02:00.008Z</time>
      </trkpt>
      <trkpt lat="42.98977" lon="0.8598">
        <ele>847</ele>
        <time>2019-04-22T16:02:02.008Z</time>
      </trkpt>
      <trkpt lat="42.98961" lon="0.85988">
        <ele>847</ele>
        <time>2019-04-22T16:02:04.008Z</time>
      </trkpt>
      <trkpt lat="42.98948" lon="0.85992">
        <ele>846.8419968</ele>
        <time>2019-04-22T16:02:06.008Z</time>
      </trkpt>
      <trkpt lat="42.98931" lon="0.85995">
        <ele>846</ele>
        <time>2019-04-22T16:02:08.008Z</time>
      </trkpt>
      <trkpt lat="42.98913" lon="0.86001">
        <ele>846</ele>
        <time>2019-04-22T16:02:10.008Z</time>
      </trkpt>
      <trkpt lat="42.989" lon="0.86002">
        <ele>843</ele>
        <time>2019-04-22T16:02:12.008Z</time>
      </trkpt>
      <trkpt lat="42.98884" lon="0.86005">
        <ele>843</ele>
        <time>2019-04-22T16:02:14.008Z</time>
      </trkpt>
      <trkpt lat="42.9887" lon="0.86007">
        <ele>842.6839936</ele>
        <time>2019-04-22T16:02:16.008Z</time>
      </trkpt>
      <trkpt lat="42.98867" lon="0.86025">
        <ele>841</ele>
        <time>2019-04-22T16:02:19.008Z</time>
      </trkpt>
      <trkpt lat="42.98871" lon="0.86041">
        <ele>840.8419968</ele>
        <time>2019-04-22T16:02:21.008Z</time>
      </trkpt>
      <trkpt lat="42.98875" lon="0.86053">
        <ele>840</ele>
        <time>2019-04-22T16:02:23.008Z</time>
      </trkpt>
      <trkpt lat="42.98878" lon="0.8607">
        <ele>840.1580032</ele>
        <time>2019-04-22T16:02:26.008Z</time>
      </trkpt>
      <trkpt lat="42.98882" lon="0.86085">
        <ele>841</ele>
        <time>2019-04-22T16:02:29.008Z</time>
      </trkpt>
      <trkpt lat="42.98883" lon="0.86099">
        <ele>843</ele>
        <time>2019-04-22T16:02:33.008Z</time>
      </trkpt>
      <trkpt lat="42.98888" lon="0.86116">
        <ele>844</ele>
        <time>2019-04-22T16:02:37.008Z</time>
      </trkpt>
      <trkpt lat="42.98891" lon="0.8613">
        <ele>844</ele>
        <time>2019-04-22T16:02:40.008Z</time>
      </trkpt>
      <trkpt lat="42.98896" lon="0.86143">
        <ele>845</ele>
        <time>2019-04-22T16:02:43.008Z</time>
      </trkpt>
      <trkpt lat="42.98902" lon="0.86156">
        <ele>845</ele>
        <time>2019-04-22T16:02:46.008Z</time>
      </trkpt>
      <trkpt lat="42.98906" lon="0.86171">
        <ele>845</ele>
        <time>2019-04-22T16:02:50.008Z</time>
      </trkpt>
      <trkpt lat="42.98912" lon="0.86187">
        <ele>845</ele>
        <time>2019-04-22T16:02:54.008Z</time>
      </trkpt>
      <trkpt lat="42.98917" lon="0.86201">
        <ele>845</ele>
        <time>2019-04-22T16:02:57.008Z</time>
      </trkpt>
      <trkpt lat="42.9892" lon="0.86218">
        <ele>845</ele>
        <time>2019-04-22T16:03:01.008Z</time>
      </trkpt>
      <trkpt lat="42.98926" lon="0.86235">
        <ele>845</ele>
        <time>2019-04-22T16:03:05.008Z</time>
      </trkpt>
      <trkpt lat="42.98932" lon="0.86247">
        <ele>845</ele>
        <time>2019-04-22T16:03:08.008Z</time>
      </trkpt>
      <trkpt lat="42.98935" lon="0.86261">
        <ele>846</ele>
        <time>2019-04-22T16:03:13.008Z</time>
      </trkpt>
      <trkpt lat="42.98939" lon="0.86274">
        <ele>846</ele>
        <time>2019-04-22T16:03:18.008Z</time>
      </trkpt>
      <trkpt lat="42.98943" lon="0.86289">
        <ele>848</ele>
        <time>2019-04-22T16:03:24.008Z</time>
      </trkpt>
      <trkpt lat="42.98947" lon="0.86302">
        <ele>848</ele>
        <time>2019-04-22T16:03:29.008Z</time>
      </trkpt>
      <trkpt lat="42.98948" lon="0.86316">
        <ele>851</ele>
        <time>2019-04-22T16:03:36.008Z</time>
      </trkpt>
      <trkpt lat="42.98946" lon="0.8633">
        <ele>853</ele>
        <time>2019-04-22T16:03:45.008Z</time>
      </trkpt>
      <trkpt lat="42.98948" lon="0.86346">
        <ele>853</ele>
        <time>2019-04-22T16:03:52.008Z</time>
      </trkpt>
      <trkpt lat="42.98955" lon="0.86358">
        <ele>853</ele>
        <time>2019-04-22T16:03:58.008Z</time>
      </trkpt>
      <trkpt lat="42.98967" lon="0.86363">
        <ele>851</ele>
        <time>2019-04-22T16:04:03.008Z</time>
      </trkpt>
      <trkpt lat="42.98984" lon="0.86369">
        <ele>851</ele>
        <time>2019-04-22T16:04:06.008Z</time>
      </trkpt>
      <trkpt lat="42.99" lon="0.86372">
        <ele>851</ele>
        <time>2019-04-22T16:04:08.008Z</time>
      </trkpt>
      <trkpt lat="42.99012" lon="0.86376">
        <ele>851</ele>
        <time>2019-04-22T16:04:10.008Z</time>
      </trkpt>
      <trkpt lat="42.99023" lon="0.86385">
        <ele>850</ele>
        <time>2019-04-22T16:04:12.008Z</time>
      </trkpt>
      <trkpt lat="42.99036" lon="0.86394">
        <ele>850</ele>
        <time>2019-04-22T16:04:14.008Z</time>
      </trkpt>
      <trkpt lat="42.9905" lon="0.86402">
        <ele>850</ele>
        <time>2019-04-22T16:04:16.008Z</time>
      </trkpt>
      <trkpt lat="42.99062" lon="0.8641">
        <ele>850</ele>
        <time>2019-04-22T16:04:18.008Z</time>
      </trkpt>
      <trkpt lat="42.99072" lon="0.86419">
        <ele>850</ele>
        <time>2019-04-22T16:04:20.008Z</time>
      </trkpt>
      <trkpt lat="42.99082" lon="0.86432">
        <ele>847</ele>
        <time>2019-04-22T16:04:22.008Z</time>
      </trkpt>
      <trkpt lat="42.99102" lon="0.86459">
        <ele>847</ele>
        <time>2019-04-22T16:04:25.008Z</time>
      </trkpt>
      <trkpt lat="42.99111" lon="0.86477">
        <ele>845</ele>
        <time>2019-04-22T16:04:27.008Z</time>
      </trkpt>
      <trkpt lat="42.99121" lon="0.86499">
        <ele>845</ele>
        <time>2019-04-22T16:04:29.008Z</time>
      </trkpt>
      <trkpt lat="42.9913" lon="0.86518">
        <ele>844.8419968</ele>
        <time>2019-04-22T16:04:31.008Z</time>
      </trkpt>
      <trkpt lat="42.99136" lon="0.86533">
        <ele>844</ele>
        <time>2019-04-22T16:04:33.008Z</time>
      </trkpt>
      <trkpt lat="42.99142" lon="0.86545">
        <ele>844</ele>
        <time>2019-04-22T16:04:35.008Z</time>
      </trkpt>
      <trkpt lat="42.99141" lon="0.86559">
        <ele>842</ele>
        <time>2019-04-22T16:05:36.008Z</time>
      </trkpt>
      <trkpt lat="42.99156" lon="0.86561">
        <ele>842</ele>
        <time>2019-04-22T16:05:40.008Z</time>
      </trkpt>
      <trkpt lat="42.99167" lon="0.86561">
        <ele>838</ele>
        <time>2019-04-22T16:05:42.008Z</time>
      </trkpt>
      <trkpt lat="42.9918" lon="0.86563">
        <ele>838</ele>
        <time>2019-04-22T16:05:44.008Z</time>
      </trkpt>
      <trkpt lat="42.9919" lon="0.86571">
        <ele>837.5259904</ele>
        <time>2019-04-22T16:05:46.008Z</time>
      </trkpt>
      <trkpt lat="42.99196" lon="0.86583">
        <ele>835</ele>
        <time>2019-04-22T16:05:48.008Z</time>
      </trkpt>
      <trkpt lat="42.99207" lon="0.86594">
        <ele>834.5259904</ele>
        <time>2019-04-22T16:05:51.008Z</time>
      </trkpt>
      <trkpt lat="42.99217" lon="0.86598">
        <ele>830.8419968</ele>
        <time>2019-04-22T16:05:54.008Z</time>
      </trkpt>
      <trkpt lat="42.99227" lon="0.86608">
        <ele>828.8419968</ele>
        <time>2019-04-22T16:05:56.008Z</time>
      </trkpt>
      <trkpt lat="42.99235" lon="0.8662">
        <ele>826</ele>
        <time>2019-04-22T16:05:59.008Z</time>
      </trkpt>
      <trkpt lat="42.99244" lon="0.86631">
        <ele>822</ele>
        <time>2019-04-22T16:06:02.008Z</time>
      </trkpt>
      <trkpt lat="42.99254" lon="0.8664">
        <ele>819.8419968</ele>
        <time>2019-04-22T16:06:05.008Z</time>
      </trkpt>
      <trkpt lat="42.99262" lon="0.86651">
        <ele>817.8419968</ele>
        <time>2019-04-22T16:06:08.008Z</time>
      </trkpt>
      <trkpt lat="42.99274" lon="0.86656">
        <ele>813.8419968</ele>
        <time>2019-04-22T16:06:12.008Z</time>
      </trkpt>
      <trkpt lat="42.99283" lon="0.86662">
        <ele>810.6839936</ele>
        <time>2019-04-22T16:06:15.008Z</time>
      </trkpt>
      <trkpt lat="42.99294" lon="0.8667">
        <ele>807.8419968</ele>
        <time>2019-04-22T16:06:18.008Z</time>
      </trkpt>
      <trkpt lat="42.99305" lon="0.86672">
        <ele>804.6839936</ele>
        <time>2019-04-22T16:06:21.008Z</time>
      </trkpt>
      <trkpt lat="42.99318" lon="0.86675">
        <ele>800.8419968</ele>
        <time>2019-04-22T16:06:24.008Z</time>
      </trkpt>
      <trkpt lat="42.99329" lon="0.86678">
        <ele>799.6839936</ele>
        <time>2019-04-22T16:06:26.008Z</time>
      </trkpt>
      <trkpt lat="42.99342" lon="0.86683">
        <ele>794.6839936</ele>
        <time>2019-04-22T16:06:29.008Z</time>
      </trkpt>
      <trkpt lat="42.99353" lon="0.86685">
        <ele>791.8419968</ele>
        <time>2019-04-22T16:06:31.008Z</time>
      </trkpt>
      <trkpt lat="42.99365" lon="0.86684">
        <ele>790.8419968</ele>
        <time>2019-04-22T16:06:33.008Z</time>
      </trkpt>
      <trkpt lat="42.99381" lon="0.86686">
        <ele>788.8419968</ele>
        <time>2019-04-22T16:06:35.008Z</time>
      </trkpt>
      <trkpt lat="42.99391" lon="0.86684">
        <ele>787</ele>
        <time>2019-04-22T16:06:37.008Z</time>
      </trkpt>
      <trkpt lat="42.99401" lon="0.86679">
        <ele>782.8419968</ele>
        <time>2019-04-22T16:06:43.008Z</time>
      </trkpt>
      <trkpt lat="42.99414" lon="0.86681">
        <ele>778.8419968</ele>
        <time>2019-04-22T16:06:47.008Z</time>
      </trkpt>
      <trkpt lat="42.99428" lon="0.8668">
        <ele>773.8419968</ele>
        <time>2019-04-22T16:06:50.008Z</time>
      </trkpt>
      <trkpt lat="42.99439" lon="0.86678">
        <ele>770.8419968</ele>
        <time>2019-04-22T16:06:53.008Z</time>
      </trkpt>
      <trkpt lat="42.99449" lon="0.86685">
        <ele>766.8419968</ele>
        <time>2019-04-22T16:06:56.008Z</time>
      </trkpt>
      <trkpt lat="42.99457" lon="0.86701">
        <ele>764</ele>
        <time>2019-04-22T16:06:59.008Z</time>
      </trkpt>
      <trkpt lat="42.99465" lon="0.86717">
        <ele>764</ele>
        <time>2019-04-22T16:07:01.008Z</time>
      </trkpt>
      <trkpt lat="42.99471" lon="0.86729">
        <ele>762.8419968</ele>
        <time>2019-04-22T16:07:03.008Z</time>
      </trkpt>
      <trkpt lat="42.99475" lon="0.86746">
        <ele>760</ele>
        <time>2019-04-22T16:07:06.008Z</time>
      </trkpt>
      <trkpt lat="42.99479" lon="0.8676">
        <ele>758.8419968</ele>
        <time>2019-04-22T16:07:09.008Z</time>
      </trkpt>
      <trkpt lat="42.99486" lon="0.8677">
        <ele>755</ele>
        <time>2019-04-22T16:07:12.008Z</time>
      </trkpt>
      <trkpt lat="42.99495" lon="0.86779">
        <ele>753.8419968</ele>
        <time>2019-04-22T16:07:14.008Z</time>
      </trkpt>
      <trkpt lat="42.99509" lon="0.86787">
        <ele>750.8419968</ele>
        <time>2019-04-22T16:07:16.008Z</time>
      </trkpt>
      <trkpt lat="42.99523" lon="0.86794">
        <ele>747.6839936</ele>
        <time>2019-04-22T16:07:18.008Z</time>
      </trkpt>
      <trkpt lat="42.99534" lon="0.86799">
        <ele>744.8419968</ele>
        <time>2019-04-22T16:07:20.008Z</time>
      </trkpt>
      <trkpt lat="42.99546" lon="0.86807">
        <ele>742.5259904</ele>
        <time>2019-04-22T16:07:22.008Z</time>
      </trkpt>
      <trkpt lat="42.99557" lon="0.86811">
        <ele>738.8419968</ele>
        <time>2019-04-22T16:07:24.008Z</time>
      </trkpt>
      <trkpt lat="42.99567" lon="0.86816">
        <ele>735.8419968</ele>
        <time>2019-04-22T16:07:27.008Z</time>
      </trkpt>
      <trkpt lat="42.99575" lon="0.86826">
        <ele>731.8419968</ele>
        <time>2019-04-22T16:07:29.008Z</time>
      </trkpt>
      <trkpt lat="42.99584" lon="0.86837">
        <ele>729.6839936</ele>
        <time>2019-04-22T16:07:31.008Z</time>
      </trkpt>
      <trkpt lat="42.99591" lon="0.8685">
        <ele>726.6839936</ele>
        <time>2019-04-22T16:07:34.008Z</time>
      </trkpt>
      <trkpt lat="42.996" lon="0.86863">
        <ele>723.8419968</ele>
        <time>2019-04-22T16:07:36.008Z</time>
      </trkpt>
      <trkpt lat="42.99609" lon="0.86875">
        <ele>720.8419968</ele>
        <time>2019-04-22T16:07:38.008Z</time>
      </trkpt>
      <trkpt lat="42.99617" lon="0.86889">
        <ele>719</ele>
        <time>2019-04-22T16:07:40.008Z</time>
      </trkpt>
      <trkpt lat="42.99628" lon="0.86901">
        <ele>717.8419968</ele>
        <time>2019-04-22T16:07:42.008Z</time>
      </trkpt>
      <trkpt lat="42.99637" lon="0.86915">
        <ele>715.8419968</ele>
        <time>2019-04-22T16:07:44.008Z</time>
      </trkpt>
      <trkpt lat="42.99645" lon="0.86932">
        <ele>711.8419968</ele>
        <time>2019-04-22T16:07:46.008Z</time>
      </trkpt>
      <trkpt lat="42.99655" lon="0.86947">
        <ele>710</ele>
        <time>2019-04-22T16:07:48.008Z</time>
      </trkpt>
      <trkpt lat="42.99664" lon="0.86962">
        <ele>707.8419968</ele>
        <time>2019-04-22T16:07:51.008Z</time>
      </trkpt>
      <trkpt lat="42.99674" lon="0.86972">
        <ele>703.6839936</ele>
        <time>2019-04-22T16:07:54.008Z</time>
      </trkpt>
      <trkpt lat="42.99682" lon="0.86984">
        <ele>700.6839936</ele>
        <time>2019-04-22T16:07:56.008Z</time>
      </trkpt>
      <trkpt lat="42.99691" lon="0.86996">
        <ele>698.8419968</ele>
        <time>2019-04-22T16:07:58.008Z</time>
      </trkpt>
      <trkpt lat="42.99697" lon="0.87012">
        <ele>694.6839936</ele>
        <time>2019-04-22T16:08:01.008Z</time>
      </trkpt>
      <trkpt lat="42.99698" lon="0.8703">
        <ele>692</ele>
        <time>2019-04-22T16:08:04.008Z</time>
      </trkpt>
      <trkpt lat="42.9971" lon="0.87018">
        <ele>684.6839936</ele>
        <time>2019-04-22T16:08:11.008Z</time>
      </trkpt>
      <trkpt lat="42.9972" lon="0.87005">
        <ele>683</ele>
        <time>2019-04-22T16:08:14.008Z</time>
      </trkpt>
      <trkpt lat="42.99724" lon="0.86991">
        <ele>680.8419968</ele>
        <time>2019-04-22T16:08:16.008Z</time>
      </trkpt>
      <trkpt lat="42.99726" lon="0.86977">
        <ele>677.8419968</ele>
        <time>2019-04-22T16:08:18.008Z</time>
      </trkpt>
      <trkpt lat="42.9973" lon="0.86958">
        <ele>674.8419968</ele>
        <time>2019-04-22T16:08:21.008Z</time>
      </trkpt>
      <trkpt lat="42.99735" lon="0.86946">
        <ele>673.8419968</ele>
        <time>2019-04-22T16:08:23.008Z</time>
      </trkpt>
      <trkpt lat="42.99747" lon="0.86944">
        <ele>669.8419968</ele>
        <time>2019-04-22T16:08:26.008Z</time>
      </trkpt>
      <trkpt lat="42.99758" lon="0.86949">
        <ele>667.8419968</ele>
        <time>2019-04-22T16:08:28.008Z</time>
      </trkpt>
      <trkpt lat="42.99769" lon="0.86954">
        <ele>665.8419968</ele>
        <time>2019-04-22T16:08:30.008Z</time>
      </trkpt>
      <trkpt lat="42.99783" lon="0.86964">
        <ele>664.6839936</ele>
        <time>2019-04-22T16:08:32.008Z</time>
      </trkpt>
      <trkpt lat="42.99797" lon="0.86972">
        <ele>660.8419968</ele>
        <time>2019-04-22T16:08:34.008Z</time>
      </trkpt>
      <trkpt lat="42.99809" lon="0.86982">
        <ele>657.8419968</ele>
        <time>2019-04-22T16:08:37.008Z</time>
      </trkpt>
      <trkpt lat="42.99819" lon="0.86986">
        <ele>654.8419968</ele>
        <time>2019-04-22T16:08:42.008Z</time>
      </trkpt>
      <trkpt lat="42.99832" lon="0.86987">
        <ele>652.8419968</ele>
        <time>2019-04-22T16:08:45.008Z</time>
      </trkpt>
      <trkpt lat="42.99844" lon="0.86991">
        <ele>650.6839936</ele>
        <time>2019-04-22T16:08:48.008Z</time>
      </trkpt>
      <trkpt lat="42.99855" lon="0.87001">
        <ele>647.8419968</ele>
        <time>2019-04-22T16:08:50.008Z</time>
      </trkpt>
      <trkpt lat="42.99863" lon="0.87011">
        <ele>645.6839936</ele>
        <time>2019-04-22T16:08:52.008Z</time>
      </trkpt>
      <trkpt lat="42.9987" lon="0.87023">
        <ele>640.8419968</ele>
        <time>2019-04-22T16:08:55.008Z</time>
      </trkpt>
      <trkpt lat="42.99876" lon="0.87035">
        <ele>637.8419968</ele>
        <time>2019-04-22T16:08:58.008Z</time>
      </trkpt>
      <trkpt lat="42.99881" lon="0.87051">
        <ele>633.8419968</ele>
        <time>2019-04-22T16:09:01.008Z</time>
      </trkpt>
      <trkpt lat="42.9989" lon="0.87057">
        <ele>628.6839936</ele>
        <time>2019-04-22T16:09:08.008Z</time>
      </trkpt>
      <trkpt lat="42.99894" lon="0.87071">
        <ele>625.8419968</ele>
        <time>2019-04-22T16:09:11.008Z</time>
      </trkpt>
      <trkpt lat="42.99894" lon="0.87085">
        <ele>621.8419968</ele>
        <time>2019-04-22T16:09:13.008Z</time>
      </trkpt>
      <trkpt lat="42.99894" lon="0.87104">
        <ele>620</ele>
        <time>2019-04-22T16:09:16.008Z</time>
      </trkpt>
      <trkpt lat="42.99898" lon="0.87121">
        <ele>617</ele>
        <time>2019-04-22T16:09:19.008Z</time>
      </trkpt>
      <trkpt lat="42.99901" lon="0.87137">
        <ele>616</ele>
        <time>2019-04-22T16:09:22.008Z</time>
      </trkpt>
      <trkpt lat="42.99903" lon="0.87153">
        <ele>614</ele>
        <time>2019-04-22T16:09:52.008Z</time>
      </trkpt>
      <trkpt lat="42.99905" lon="0.87169">
        <ele>614</ele>
        <time>2019-04-22T16:09:55.008Z</time>
      </trkpt>
      <trkpt lat="42.99909" lon="0.87183">
        <ele>614</ele>
        <time>2019-04-22T16:09:57.008Z</time>
      </trkpt>
      <trkpt lat="42.99914" lon="0.87196">
        <ele>614</ele>
        <time>2019-04-22T16:09:59.008Z</time>
      </trkpt>
      <trkpt lat="42.99915" lon="0.87212">
        <ele>606.1580032</ele>
        <time>2019-04-22T16:10:02.008Z</time>
      </trkpt>
      <trkpt lat="42.99907" lon="0.87222">
        <ele>607</ele>
        <time>2019-04-22T16:10:05.008Z</time>
      </trkpt>
      <trkpt lat="42.99899" lon="0.87233">
        <ele>609</ele>
        <time>2019-04-22T16:10:11.008Z</time>
      </trkpt>
      <trkpt lat="42.9989" lon="0.8724">
        <ele>609.3160064</ele>
        <time>2019-04-22T16:10:16.008Z</time>
      </trkpt>
      <trkpt lat="42.99878" lon="0.87239">
        <ele>611</ele>
        <time>2019-04-22T16:10:20.008Z</time>
      </trkpt>
      <trkpt lat="42.99869" lon="0.87231">
        <ele>611</ele>
        <time>2019-04-22T16:10:24.008Z</time>
      </trkpt>
      <trkpt lat="42.99861" lon="0.87219">
        <ele>611</ele>
        <time>2019-04-22T16:10:29.008Z</time>
      </trkpt>
      <trkpt lat="42.99851" lon="0.87211">
        <ele>611</ele>
        <time>2019-04-22T16:10:34.008Z</time>
      </trkpt>
      <trkpt lat="42.9984" lon="0.87209">
        <ele>613</ele>
        <time>2019-04-22T16:10:42.008Z</time>
      </trkpt>
      <trkpt lat="42.9983" lon="0.87211">
        <ele>613</ele>
        <time>2019-04-22T16:10:47.008Z</time>
      </trkpt>
      <trkpt lat="42.99819" lon="0.87206">
        <ele>613.4740096</ele>
        <time>2019-04-22T16:10:51.008Z</time>
      </trkpt>
      <trkpt lat="42.9981" lon="0.87196">
        <ele>616</ele>
        <time>2019-04-22T16:10:55.008Z</time>
      </trkpt>
      <trkpt lat="42.99804" lon="0.87182">
        <ele>617</ele>
        <time>2019-04-22T16:11:00.008Z</time>
      </trkpt>
      <trkpt lat="42.99798" lon="0.87168">
        <ele>618</ele>
        <time>2019-04-22T16:11:05.008Z</time>
      </trkpt>
      <trkpt lat="42.99788" lon="0.87159">
        <ele>618</ele>
        <time>2019-04-22T16:11:10.008Z</time>
      </trkpt>
      <trkpt lat="42.99777" lon="0.87156">
        <ele>620</ele>
        <time>2019-04-22T16:11:17.008Z</time>
      </trkpt>
      <trkpt lat="42.99768" lon="0.87151">
        <ele>621</ele>
        <time>2019-04-22T16:11:23.008Z</time>
      </trkpt>
      <trkpt lat="42.99757" lon="0.87153">
        <ele>621</ele>
        <time>2019-04-22T16:11:28.008Z</time>
      </trkpt>
      <trkpt lat="42.99746" lon="0.87158">
        <ele>622</ele>
        <time>2019-04-22T16:11:34.008Z</time>
      </trkpt>
      <trkpt lat="42.99736" lon="0.87163">
        <ele>622</ele>
        <time>2019-04-22T16:11:38.008Z</time>
      </trkpt>
      <trkpt lat="42.99726" lon="0.87164">
        <ele>624</ele>
        <time>2019-04-22T16:11:42.008Z</time>
      </trkpt>
      <trkpt lat="42.99715" lon="0.87161">
        <ele>624</ele>
        <time>2019-04-22T16:11:47.008Z</time>
      </trkpt>
      <trkpt lat="42.99703" lon="0.87159">
        <ele>625</ele>
        <time>2019-04-22T16:11:53.008Z</time>
      </trkpt>
      <trkpt lat="42.99693" lon="0.87154">
        <ele>625</ele>
        <time>2019-04-22T16:11:56.008Z</time>
      </trkpt>
      <trkpt lat="42.99682" lon="0.87153">
        <ele>625.4740096</ele>
        <time>2019-04-22T16:12:01.008Z</time>
      </trkpt>
      <trkpt lat="42.9967" lon="0.87147">
        <ele>628</ele>
        <time>2019-04-22T16:12:05.008Z</time>
      </trkpt>
      <trkpt lat="42.9966" lon="0.87142">
        <ele>629</ele>
        <time>2019-04-22T16:12:10.008Z</time>
      </trkpt>
      <trkpt lat="42.99649" lon="0.87137">
        <ele>629</ele>
        <time>2019-04-22T16:12:15.008Z</time>
      </trkpt>
      <trkpt lat="42.99638" lon="0.87131">
        <ele>629</ele>
        <time>2019-04-22T16:12:20.008Z</time>
      </trkpt>
      <trkpt lat="42.99628" lon="0.87124">
        <ele>631</ele>
        <time>2019-04-22T16:12:26.008Z</time>
      </trkpt>
      <trkpt lat="42.99619" lon="0.87118">
        <ele>631.3160064</ele>
        <time>2019-04-22T16:12:31.008Z</time>
      </trkpt>
      <trkpt lat="42.99609" lon="0.87108">
        <ele>633</ele>
        <time>2019-04-22T16:12:36.008Z</time>
      </trkpt>
      <trkpt lat="42.99601" lon="0.87101">
        <ele>633</ele>
        <time>2019-04-22T16:12:40.008Z</time>
      </trkpt>
      <trkpt lat="42.99591" lon="0.87092">
        <ele>637</ele>
        <time>2019-04-22T16:12:44.008Z</time>
      </trkpt>
      <trkpt lat="42.99582" lon="0.87086">
        <ele>638</ele>
        <time>2019-04-22T16:12:49.008Z</time>
      </trkpt>
      <trkpt lat="42.99573" lon="0.87078">
        <ele>638</ele>
        <time>2019-04-22T16:12:57.008Z</time>
      </trkpt>
      <trkpt lat="42.99563" lon="0.87075">
        <ele>640</ele>
        <time>2019-04-22T16:13:02.008Z</time>
      </trkpt>
      <trkpt lat="42.99553" lon="0.8707">
        <ele>640</ele>
        <time>2019-04-22T16:13:06.008Z</time>
      </trkpt>
      <trkpt lat="42.99544" lon="0.87067">
        <ele>640</ele>
        <time>2019-04-22T16:13:10.008Z</time>
      </trkpt>
      <trkpt lat="42.99532" lon="0.87068">
        <ele>641</ele>
        <time>2019-04-22T16:13:14.008Z</time>
      </trkpt>
      <trkpt lat="42.9952" lon="0.8707">
        <ele>641</ele>
        <time>2019-04-22T16:13:18.008Z</time>
      </trkpt>
      <trkpt lat="42.99509" lon="0.8707">
        <ele>641</ele>
        <time>2019-04-22T16:13:21.008Z</time>
      </trkpt>
      <trkpt lat="42.99498" lon="0.87065">
        <ele>641</ele>
        <time>2019-04-22T16:13:24.008Z</time>
      </trkpt>
      <trkpt lat="42.99488" lon="0.87059">
        <ele>641</ele>
        <time>2019-04-22T16:13:27.008Z</time>
      </trkpt>
      <trkpt lat="42.99477" lon="0.87052">
        <ele>641</ele>
        <time>2019-04-22T16:13:31.008Z</time>
      </trkpt>
      <trkpt lat="42.99472" lon="0.87047">
        <ele>641</ele>
        <time>2019-04-22T16:13:33.008Z</time>
      </trkpt>
      <trkpt lat="42.99468" lon="0.87043">
        <ele>641</ele>
        <time>2019-04-22T16:13:35.008Z</time>
      </trkpt>
      <trkpt lat="42.99464" lon="0.87039">
        <ele>641</ele>
        <time>2019-04-22T16:13:37.008Z</time>
      </trkpt>
      <trkpt lat="42.9946" lon="0.87035">
        <ele>641</ele>
        <time>2019-04-22T16:13:39.008Z</time>
      </trkpt>
      <trkpt lat="42.99457" lon="0.87029">
        <ele>641.3160064</ele>
        <time>2019-04-22T16:13:41.008Z</time>
      </trkpt>
      <trkpt lat="42.9945" lon="0.8702">
        <ele>643</ele>
        <time>2019-04-22T16:13:47.008Z</time>
      </trkpt>
      <trkpt lat="42.99444" lon="0.87031">
        <ele>645</ele>
        <time>2019-04-22T16:13:55.008Z</time>
      </trkpt>
      <trkpt lat="42.99447" lon="0.87049">
        <ele>645</ele>
        <time>2019-04-22T16:13:59.008Z</time>
      </trkpt>
      <trkpt lat="42.99454" lon="0.87064">
        <ele>642</ele>
        <time>2019-04-22T16:14:02.008Z</time>
      </trkpt>
      <trkpt lat="42.9946" lon="0.87077">
        <ele>642</ele>
        <time>2019-04-22T16:14:04.008Z</time>
      </trkpt>
      <trkpt lat="42.99467" lon="0.87093">
        <ele>641.6839936</ele>
        <time>2019-04-22T16:14:06.008Z</time>
      </trkpt>
      <trkpt lat="42.99474" lon="0.87109">
        <ele>640</ele>
        <time>2019-04-22T16:14:08.008Z</time>
      </trkpt>
      <trkpt lat="42.99477" lon="0.87125">
        <ele>640</ele>
        <time>2019-04-22T16:14:10.008Z</time>
      </trkpt>
      <trkpt lat="42.99481" lon="0.8714">
        <ele>636.8419968</ele>
        <time>2019-04-22T16:14:12.008Z</time>
      </trkpt>
      <trkpt lat="42.99477" lon="0.87159">
        <ele>634.8419968</ele>
        <time>2019-04-22T16:14:15.008Z</time>
      </trkpt>
      <trkpt lat="42.99472" lon="0.87171">
        <ele>634</ele>
        <time>2019-04-22T16:14:17.008Z</time>
      </trkpt>
      <trkpt lat="42.99465" lon="0.87187">
        <ele>634</ele>
        <time>2019-04-22T16:14:20.008Z</time>
      </trkpt>
      <trkpt lat="42.99456" lon="0.87178">
        <ele>634</ele>
        <time>2019-04-22T16:14:25.008Z</time>
      </trkpt>
      <trkpt lat="42.99467" lon="0.87176">
        <ele>633</ele>
        <time>2019-04-22T16:14:30.008Z</time>
      </trkpt>
      <trkpt lat="42.9948" lon="0.87184">
        <ele>633</ele>
        <time>2019-04-22T16:14:32.008Z</time>
      </trkpt>
      <trkpt lat="42.99494" lon="0.87192">
        <ele>633</ele>
        <time>2019-04-22T16:14:34.008Z</time>
      </trkpt>
      <trkpt lat="42.99506" lon="0.87203">
        <ele>633</ele>
        <time>2019-04-22T16:14:36.008Z</time>
      </trkpt>
      <trkpt lat="42.99513" lon="0.87213">
        <ele>633</ele>
        <time>2019-04-22T16:14:38.008Z</time>
      </trkpt>
      <trkpt lat="42.99523" lon="0.87227">
        <ele>633</ele>
        <time>2019-04-22T16:14:41.008Z</time>
      </trkpt>
      <trkpt lat="42.99532" lon="0.8724">
        <ele>633</ele>
        <time>2019-04-22T16:14:44.008Z</time>
      </trkpt>
      <trkpt lat="42.9954" lon="0.87249">
        <ele>633</ele>
        <time>2019-04-22T16:14:46.008Z</time>
      </trkpt>
      <trkpt lat="42.9955" lon="0.87263">
        <ele>633</ele>
        <time>2019-04-22T16:14:49.008Z</time>
      </trkpt>
      <trkpt lat="42.99556" lon="0.87276">
        <ele>632</ele>
        <time>2019-04-22T16:14:52.008Z</time>
      </trkpt>
      <trkpt lat="42.99564" lon="0.87288">
        <ele>632</ele>
        <time>2019-04-22T16:14:55.008Z</time>
      </trkpt>
      <trkpt lat="42.9957" lon="0.87301">
        <ele>632</ele>
        <time>2019-04-22T16:14:58.008Z</time>
      </trkpt>
      <trkpt lat="42.9958" lon="0.87312">
        <ele>632</ele>
        <time>2019-04-22T16:15:01.008Z</time>
      </trkpt>
      <trkpt lat="42.99588" lon="0.87323">
        <ele>632</ele>
        <time>2019-04-22T16:15:03.008Z</time>
      </trkpt>
      <trkpt lat="42.99595" lon="0.87333">
        <ele>632</ele>
        <time>2019-04-22T16:15:05.008Z</time>
      </trkpt>
      <trkpt lat="42.996" lon="0.87346">
        <ele>632</ele>
        <time>2019-04-22T16:15:08.008Z</time>
      </trkpt>
      <trkpt lat="42.99609" lon="0.87355">
        <ele>632</ele>
        <time>2019-04-22T16:15:11.008Z</time>
      </trkpt>
      <trkpt lat="42.99617" lon="0.87368">
        <ele>632</ele>
        <time>2019-04-22T16:15:14.008Z</time>
      </trkpt>
      <trkpt lat="42.99627" lon="0.8738">
        <ele>632</ele>
        <time>2019-04-22T16:15:16.008Z</time>
      </trkpt>
      <trkpt lat="42.99638" lon="0.87392">
        <ele>632</ele>
        <time>2019-04-22T16:15:18.008Z</time>
      </trkpt>
      <trkpt lat="42.99645" lon="0.87404">
        <ele>632</ele>
        <time>2019-04-22T16:15:21.008Z</time>
      </trkpt>
      <trkpt lat="42.99654" lon="0.87415">
        <ele>632</ele>
        <time>2019-04-22T16:15:25.008Z</time>
      </trkpt>
      <trkpt lat="42.99662" lon="0.87429">
        <ele>632</ele>
        <time>2019-04-22T16:15:28.008Z</time>
      </trkpt>
      <trkpt lat="42.99671" lon="0.87442">
        <ele>632</ele>
        <time>2019-04-22T16:15:30.008Z</time>
      </trkpt>
      <trkpt lat="42.99678" lon="0.87453">
        <ele>631</ele>
        <time>2019-04-22T16:15:32.008Z</time>
      </trkpt>
      <trkpt lat="42.99685" lon="0.87468">
        <ele>631</ele>
        <time>2019-04-22T16:15:35.008Z</time>
      </trkpt>
      <trkpt lat="42.99692" lon="0.8748">
        <ele>631</ele>
        <time>2019-04-22T16:15:37.008Z</time>
      </trkpt>
      <trkpt lat="42.99697" lon="0.87496">
        <ele>631</ele>
        <time>2019-04-22T16:15:40.008Z</time>
      </trkpt>
      <trkpt lat="42.99698" lon="0.87514">
        <ele>631</ele>
        <time>2019-04-22T16:15:43.008Z</time>
      </trkpt>
      <trkpt lat="42.99696" lon="0.87527">
        <ele>631</ele>
        <time>2019-04-22T16:15:46.008Z</time>
      </trkpt>
      <trkpt lat="42.9969" lon="0.87539">
        <ele>631</ele>
        <time>2019-04-22T16:15:49.008Z</time>
      </trkpt>
      <trkpt lat="42.99683" lon="0.8755">
        <ele>633</ele>
        <time>2019-04-22T16:15:52.008Z</time>
      </trkpt>
      <trkpt lat="42.99677" lon="0.87565">
        <ele>633</ele>
        <time>2019-04-22T16:15:56.008Z</time>
      </trkpt>
      <trkpt lat="42.9967" lon="0.87574">
        <ele>633</ele>
        <time>2019-04-22T16:15:59.008Z</time>
      </trkpt>
      <trkpt lat="42.99659" lon="0.87583">
        <ele>634</ele>
        <time>2019-04-22T16:16:03.008Z</time>
      </trkpt>
      <trkpt lat="42.9965" lon="0.87589">
        <ele>634</ele>
        <time>2019-04-22T16:16:06.008Z</time>
      </trkpt>
      <trkpt lat="42.99643" lon="0.87597">
        <ele>634</ele>
        <time>2019-04-22T16:16:09.008Z</time>
      </trkpt>
      <trkpt lat="42.99635" lon="0.87605">
        <ele>634</ele>
        <time>2019-04-22T16:16:12.008Z</time>
      </trkpt>
      <trkpt lat="42.99624" lon="0.87613">
        <ele>634</ele>
        <time>2019-04-22T16:16:16.008Z</time>
      </trkpt>
      <trkpt lat="42.99616" lon="0.87622">
        <ele>634</ele>
        <time>2019-04-22T16:16:19.008Z</time>
      </trkpt>
      <trkpt lat="42.99605" lon="0.87627">
        <ele>634</ele>
        <time>2019-04-22T16:16:22.008Z</time>
      </trkpt>
      <trkpt lat="42.99595" lon="0.87634">
        <ele>634</ele>
        <time>2019-04-22T16:16:25.008Z</time>
      </trkpt>
      <trkpt lat="42.99588" lon="0.87645">
        <ele>634</ele>
        <time>2019-04-22T16:16:30.008Z</time>
      </trkpt>
      <trkpt lat="42.9958" lon="0.87656">
        <ele>635</ele>
        <time>2019-04-22T16:16:35.008Z</time>
      </trkpt>
      <trkpt lat="42.99578" lon="0.87671">
        <ele>635</ele>
        <time>2019-04-22T16:16:39.008Z</time>
      </trkpt>
      <trkpt lat="42.99575" lon="0.87687">
        <ele>635</ele>
        <time>2019-04-22T16:16:42.008Z</time>
      </trkpt>
      <trkpt lat="42.99573" lon="0.87704">
        <ele>635</ele>
        <time>2019-04-22T16:16:45.008Z</time>
      </trkpt>
      <trkpt lat="42.99567" lon="0.87718">
        <ele>635</ele>
        <time>2019-04-22T16:16:48.008Z</time>
      </trkpt>
      <trkpt lat="42.99566" lon="0.87735">
        <ele>634.8419968</ele>
        <time>2019-04-22T16:16:51.008Z</time>
      </trkpt>
      <trkpt lat="42.99567" lon="0.87751">
        <ele>634</ele>
        <time>2019-04-22T16:16:54.008Z</time>
      </trkpt>
      <trkpt lat="42.99569" lon="0.87764">
        <ele>634</ele>
        <time>2019-04-22T16:16:57.008Z</time>
      </trkpt>
      <trkpt lat="42.99578" lon="0.87772">
        <ele>634</ele>
        <time>2019-04-22T16:17:00.008Z</time>
      </trkpt>
      <trkpt lat="42.99588" lon="0.87769">
        <ele>635</ele>
        <time>2019-04-22T16:17:05.008Z</time>
      </trkpt>
      <trkpt lat="42.99598" lon="0.87774">
        <ele>637</ele>
        <time>2019-04-22T16:17:16.008Z</time>
      </trkpt>
      <trkpt lat="42.99607" lon="0.87786">
        <ele>638</ele>
        <time>2019-04-22T16:17:24.008Z</time>
      </trkpt>
      <trkpt lat="42.99618" lon="0.87795">
        <ele>638</ele>
        <time>2019-04-22T16:17:28.008Z</time>
      </trkpt>
      <trkpt lat="42.99627" lon="0.87802">
        <ele>638.3160064</ele>
        <time>2019-04-22T16:17:31.008Z</time>
      </trkpt>
      <trkpt lat="42.99637" lon="0.8781">
        <ele>640</ele>
        <time>2019-04-22T16:17:36.008Z</time>
      </trkpt>
      <trkpt lat="42.99644" lon="0.8782">
        <ele>640.4740096</ele>
        <time>2019-04-22T16:17:41.008Z</time>
      </trkpt>
      <trkpt lat="42.99654" lon="0.87828">
        <ele>644</ele>
        <time>2019-04-22T16:17:47.008Z</time>
      </trkpt>
      <trkpt lat="42.99664" lon="0.87836">
        <ele>644.3160064</ele>
        <time>2019-04-22T16:17:51.008Z</time>
      </trkpt>
      <trkpt lat="42.99673" lon="0.87846">
        <ele>646.1580032</ele>
        <time>2019-04-22T16:17:56.008Z</time>
      </trkpt>
      <trkpt lat="42.99683" lon="0.87853">
        <ele>647</ele>
        <time>2019-04-22T16:18:00.008Z</time>
      </trkpt>
      <trkpt lat="42.99691" lon="0.87862">
        <ele>647</ele>
        <time>2019-04-22T16:18:06.008Z</time>
      </trkpt>
      <trkpt lat="42.99702" lon="0.87871">
        <ele>647.3160064</ele>
        <time>2019-04-22T16:18:11.008Z</time>
      </trkpt>
      <trkpt lat="42.99712" lon="0.87883">
        <ele>649</ele>
        <time>2019-04-22T16:18:15.008Z</time>
      </trkpt>
      <trkpt lat="42.99715" lon="0.87896">
        <ele>649</ele>
        <time>2019-04-22T16:18:19.008Z</time>
      </trkpt>
      <trkpt lat="42.99721" lon="0.87909">
        <ele>650</ele>
        <time>2019-04-22T16:18:22.008Z</time>
      </trkpt>
      <trkpt lat="42.99726" lon="0.87923">
        <ele>650</ele>
        <time>2019-04-22T16:18:26.008Z</time>
      </trkpt>
      <trkpt lat="42.99723" lon="0.87936">
        <ele>650</ele>
        <time>2019-04-22T16:18:30.008Z</time>
      </trkpt>
      <trkpt lat="42.99715" lon="0.87947">
        <ele>652</ele>
        <time>2019-04-22T16:18:35.008Z</time>
      </trkpt>
      <trkpt lat="42.99706" lon="0.87954">
        <ele>652.1580032</ele>
        <time>2019-04-22T16:18:41.008Z</time>
      </trkpt>
      <trkpt lat="42.99696" lon="0.87956">
        <ele>653</ele>
        <time>2019-04-22T16:18:45.008Z</time>
      </trkpt>
      <trkpt lat="42.99686" lon="0.87959">
        <ele>653</ele>
        <time>2019-04-22T16:18:49.008Z</time>
      </trkpt>
      <trkpt lat="42.99673" lon="0.87963">
        <ele>655</ele>
        <time>2019-04-22T16:18:54.008Z</time>
      </trkpt>
      <trkpt lat="42.99662" lon="0.87969">
        <ele>655</ele>
        <time>2019-04-22T16:18:58.008Z</time>
      </trkpt>
      <trkpt lat="42.99651" lon="0.87977">
        <ele>655</ele>
        <time>2019-04-22T16:19:02.008Z</time>
      </trkpt>
      <trkpt lat="42.99643" lon="0.87985">
        <ele>655</ele>
        <time>2019-04-22T16:19:05.008Z</time>
      </trkpt>
      <trkpt lat="42.99635" lon="0.87998">
        <ele>655</ele>
        <time>2019-04-22T16:19:09.008Z</time>
      </trkpt>
      <trkpt lat="42.99634" lon="0.88013">
        <ele>655</ele>
        <time>2019-04-22T16:19:12.008Z</time>
      </trkpt>
      <trkpt lat="42.99636" lon="0.88029">
        <ele>655</ele>
        <time>2019-04-22T16:19:16.008Z</time>
      </trkpt>
      <trkpt lat="42.99637" lon="0.88043">
        <ele>655</ele>
        <time>2019-04-22T16:19:20.008Z</time>
      </trkpt>
      <trkpt lat="42.99637" lon="0.88057">
        <ele>654</ele>
        <time>2019-04-22T16:19:24.008Z</time>
      </trkpt>
      <trkpt lat="42.99636" lon="0.88074">
        <ele>654</ele>
        <time>2019-04-22T16:19:29.008Z</time>
      </trkpt>
      <trkpt lat="42.99635" lon="0.88088">
        <ele>656</ele>
        <time>2019-04-22T16:19:34.008Z</time>
      </trkpt>
      <trkpt lat="42.99631" lon="0.88104">
        <ele>656</ele>
        <time>2019-04-22T16:19:39.008Z</time>
      </trkpt>
      <trkpt lat="42.9963" lon="0.8812">
        <ele>656</ele>
        <time>2019-04-22T16:19:43.008Z</time>
      </trkpt>
      <trkpt lat="42.99628" lon="0.88137">
        <ele>656</ele>
        <time>2019-04-22T16:19:47.008Z</time>
      </trkpt>
      <trkpt lat="42.99625" lon="0.88154">
        <ele>656.3160064</ele>
        <time>2019-04-22T16:19:51.008Z</time>
      </trkpt>
      <trkpt lat="42.99626" lon="0.8817">
        <ele>658</ele>
        <time>2019-04-22T16:19:55.008Z</time>
      </trkpt>
      <trkpt lat="42.99625" lon="0.88185">
        <ele>658</ele>
        <time>2019-04-22T16:19:59.008Z</time>
      </trkpt>
      <trkpt lat="42.99624" lon="0.88199">
        <ele>659</ele>
        <time>2019-04-22T16:20:03.008Z</time>
      </trkpt>
      <trkpt lat="42.99624" lon="0.88215">
        <ele>659</ele>
        <time>2019-04-22T16:20:07.008Z</time>
      </trkpt>
      <trkpt lat="42.99625" lon="0.88233">
        <ele>659</ele>
        <time>2019-04-22T16:20:11.008Z</time>
      </trkpt>
      <trkpt lat="42.99628" lon="0.88248">
        <ele>659</ele>
        <time>2019-04-22T16:20:15.008Z</time>
      </trkpt>
      <trkpt lat="42.99633" lon="0.88265">
        <ele>659</ele>
        <time>2019-04-22T16:20:19.008Z</time>
      </trkpt>
      <trkpt lat="42.99637" lon="0.88282">
        <ele>659</ele>
        <time>2019-04-22T16:20:23.008Z</time>
      </trkpt>
      <trkpt lat="42.99636" lon="0.88295">
        <ele>659</ele>
        <time>2019-04-22T16:20:27.008Z</time>
      </trkpt>
      <trkpt lat="42.99644" lon="0.88305">
        <ele>656</ele>
        <time>2019-04-22T16:20:32.008Z</time>
      </trkpt>
      <trkpt lat="42.99658" lon="0.88316">
        <ele>656</ele>
        <time>2019-04-22T16:20:35.008Z</time>
      </trkpt>
      <trkpt lat="42.99674" lon="0.88323">
        <ele>649</ele>
        <time>2019-04-22T16:20:37.008Z</time>
      </trkpt>
      <trkpt lat="42.99692" lon="0.88332">
        <ele>649</ele>
        <time>2019-04-22T16:20:39.008Z</time>
      </trkpt>
      <trkpt lat="42.99701" lon="0.88339">
        <ele>649</ele>
        <time>2019-04-22T16:20:40.008Z</time>
      </trkpt>
      <trkpt lat="42.99711" lon="0.88354">
        <ele>642.5259904</ele>
        <time>2019-04-22T16:20:42.008Z</time>
      </trkpt>
      <trkpt lat="42.9971" lon="0.88374">
        <ele>639</ele>
        <time>2019-04-22T16:20:44.008Z</time>
      </trkpt>
      <trkpt lat="42.99709" lon="0.88393">
        <ele>638.8419968</ele>
        <time>2019-04-22T16:20:46.008Z</time>
      </trkpt>
      <trkpt lat="42.99712" lon="0.8841">
        <ele>637.6839936</ele>
        <time>2019-04-22T16:20:48.008Z</time>
      </trkpt>
      <trkpt lat="42.99717" lon="0.88424">
        <ele>634.8419968</ele>
        <time>2019-04-22T16:20:50.008Z</time>
      </trkpt>
      <trkpt lat="42.99725" lon="0.88434">
        <ele>631.8419968</ele>
        <time>2019-04-22T16:20:52.008Z</time>
      </trkpt>
      <trkpt lat="42.99738" lon="0.88439">
        <ele>629.8419968</ele>
        <time>2019-04-22T16:20:54.008Z</time>
      </trkpt>
      <trkpt lat="42.99752" lon="0.88445">
        <ele>628.8419968</ele>
        <time>2019-04-22T16:20:56.008Z</time>
      </trkpt>
      <trkpt lat="42.99767" lon="0.88452">
        <ele>625.8419968</ele>
        <time>2019-04-22T16:20:58.008Z</time>
      </trkpt>
      <trkpt lat="42.99779" lon="0.88457">
        <ele>624.6839936</ele>
        <time>2019-04-22T16:21:00.008Z</time>
      </trkpt>
      <trkpt lat="42.99791" lon="0.88466">
        <ele>621</ele>
        <time>2019-04-22T16:21:02.008Z</time>
      </trkpt>
      <trkpt lat="42.99802" lon="0.88476">
        <ele>619.8419968</ele>
        <time>2019-04-22T16:21:04.008Z</time>
      </trkpt>
      <trkpt lat="42.99812" lon="0.88481">
        <ele>617.6839936</ele>
        <time>2019-04-22T16:21:06.008Z</time>
      </trkpt>
      <trkpt lat="42.99823" lon="0.88484">
        <ele>614.8419968</ele>
        <time>2019-04-22T16:21:08.008Z</time>
      </trkpt>
      <trkpt lat="42.99837" lon="0.88484">
        <ele>611.8419968</ele>
        <time>2019-04-22T16:21:10.008Z</time>
      </trkpt>
      <trkpt lat="42.99851" lon="0.88483">
        <ele>609.6839936</ele>
        <time>2019-04-22T16:21:12.008Z</time>
      </trkpt>
      <trkpt lat="42.99865" lon="0.88484">
        <ele>606.8419968</ele>
        <time>2019-04-22T16:21:14.008Z</time>
      </trkpt>
      <trkpt lat="42.99882" lon="0.88491">
        <ele>602.8419968</ele>
        <time>2019-04-22T16:21:16.008Z</time>
      </trkpt>
      <trkpt lat="42.99897" lon="0.88498">
        <ele>601.6839936</ele>
        <time>2019-04-22T16:21:18.008Z</time>
      </trkpt>
      <trkpt lat="42.9991" lon="0.88504">
        <ele>597.5259904</ele>
        <time>2019-04-22T16:21:20.008Z</time>
      </trkpt>
      <trkpt lat="42.99924" lon="0.88514">
        <ele>592.8419968</ele>
        <time>2019-04-22T16:21:22.008Z</time>
      </trkpt>
      <trkpt lat="42.99937" lon="0.88528">
        <ele>589.8419968</ele>
        <time>2019-04-22T16:21:24.008Z</time>
      </trkpt>
      <trkpt lat="42.9995" lon="0.88543">
        <ele>587.8419968</ele>
        <time>2019-04-22T16:21:26.008Z</time>
      </trkpt>
      <trkpt lat="42.99962" lon="0.88555">
        <ele>586.8419968</ele>
        <time>2019-04-22T16:21:28.008Z</time>
      </trkpt>
      <trkpt lat="42.99971" lon="0.88567">
        <ele>586</ele>
        <time>2019-04-22T16:21:30.008Z</time>
      </trkpt>
      <trkpt lat="42.99972" lon="0.88584">
        <ele>585</ele>
        <time>2019-04-22T16:21:33.008Z</time>
      </trkpt>
      <trkpt lat="42.99978" lon="0.88599">
        <ele>584</ele>
        <time>2019-04-22T16:21:36.008Z</time>
      </trkpt>
      <trkpt lat="42.99981" lon="0.88613">
        <ele>584.1580032</ele>
        <time>2019-04-22T16:21:39.008Z</time>
      </trkpt>
      <trkpt lat="42.99985" lon="0.88627">
        <ele>586</ele>
        <time>2019-04-22T16:21:43.008Z</time>
      </trkpt>
      <trkpt lat="42.99992" lon="0.88638">
        <ele>586</ele>
        <time>2019-04-22T16:21:46.008Z</time>
      </trkpt>
      <trkpt lat="42.99999" lon="0.88649">
        <ele>586</ele>
        <time>2019-04-22T16:21:50.008Z</time>
      </trkpt>
      <trkpt lat="43.00004" lon="0.88662">
        <ele>587</ele>
        <time>2019-04-22T16:21:54.008Z</time>
      </trkpt>
      <trkpt lat="43.0001" lon="0.88674">
        <ele>587</ele>
        <time>2019-04-22T16:21:58.008Z</time>
      </trkpt>
      <trkpt lat="43.00015" lon="0.88686">
        <ele>587.1580032</ele>
        <time>2019-04-22T16:22:01.008Z</time>
      </trkpt>
      <trkpt lat="43.00017" lon="0.88698">
        <ele>588</ele>
        <time>2019-04-22T16:22:04.008Z</time>
      </trkpt>
      <trkpt lat="43.0002" lon="0.88711">
        <ele>588</ele>
        <time>2019-04-22T16:22:07.008Z</time>
      </trkpt>
      <trkpt lat="43.00027" lon="0.88726">
        <ele>588</ele>
        <time>2019-04-22T16:22:10.008Z</time>
      </trkpt>
      <trkpt lat="43.00031" lon="0.88742">
        <ele>587</ele>
        <time>2019-04-22T16:22:13.008Z</time>
      </trkpt>
      <trkpt lat="43.00036" lon="0.8876">
        <ele>587</ele>
        <time>2019-04-22T16:22:16.008Z</time>
      </trkpt>
      <trkpt lat="43.00038" lon="0.88774">
        <ele>587</ele>
        <time>2019-04-22T16:22:18.008Z</time>
      </trkpt>
      <trkpt lat="43.00042" lon="0.88789">
        <ele>587</ele>
        <time>2019-04-22T16:22:20.008Z</time>
      </trkpt>
      <trkpt lat="43.00044" lon="0.88804">
        <ele>584</ele>
        <time>2019-04-22T16:22:22.008Z</time>
      </trkpt>
      <trkpt lat="43.00046" lon="0.8882">
        <ele>584</ele>
        <time>2019-04-22T16:22:24.008Z</time>
      </trkpt>
      <trkpt lat="43.00047" lon="0.88836">
        <ele>583.209984</ele>
        <time>2019-04-22T16:22:26.008Z</time>
      </trkpt>
      <trkpt lat="43.00045" lon="0.88851">
        <ele>579</ele>
        <time>2019-04-22T16:22:28.008Z</time>
      </trkpt>
      <trkpt lat="43.00039" lon="0.88868">
        <ele>579</ele>
        <time>2019-04-22T16:22:30.008Z</time>
      </trkpt>
      <trkpt lat="43.00036" lon="0.88887">
        <ele>573.6839936</ele>
        <time>2019-04-22T16:22:32.008Z</time>
      </trkpt>
      <trkpt lat="43.00035" lon="0.88907">
        <ele>570.8419968</ele>
        <time>2019-04-22T16:22:34.008Z</time>
      </trkpt>
      <trkpt lat="43.00034" lon="0.88924">
        <ele>568.6839936</ele>
        <time>2019-04-22T16:22:36.008Z</time>
      </trkpt>
      <trkpt lat="43.00032" lon="0.88941">
        <ele>565.8419968</ele>
        <time>2019-04-22T16:22:38.008Z</time>
      </trkpt>
      <trkpt lat="43.00028" lon="0.88953">
        <ele>563.8419968</ele>
        <time>2019-04-22T16:22:40.008Z</time>
      </trkpt>
      <trkpt lat="43.00017" lon="0.88953">
        <ele>561.8419968</ele>
        <time>2019-04-22T16:22:43.008Z</time>
      </trkpt>
      <trkpt lat="43.00009" lon="0.88935">
        <ele>559.8419968</ele>
        <time>2019-04-22T16:22:46.008Z</time>
      </trkpt>
      <trkpt lat="43.00005" lon="0.88917">
        <ele>557.8419968</ele>
        <time>2019-04-22T16:22:48.008Z</time>
      </trkpt>
      <trkpt lat="42.99997" lon="0.889">
        <ele>556.8419968</ele>
        <time>2019-04-22T16:22:50.008Z</time>
      </trkpt>
      <trkpt lat="42.99986" lon="0.8888">
        <ele>555</ele>
        <time>2019-04-22T16:22:52.008Z</time>
      </trkpt>
      <trkpt lat="42.99975" lon="0.88862">
        <ele>554</ele>
        <time>2019-04-22T16:22:54.008Z</time>
      </trkpt>
      <trkpt lat="42.99964" lon="0.88851">
        <ele>555</ele>
        <time>2019-04-22T16:22:56.008Z</time>
      </trkpt>
      <trkpt lat="42.99954" lon="0.88841">
        <ele>555</ele>
        <time>2019-04-22T16:22:58.008Z</time>
      </trkpt>
      <trkpt lat="42.99946" lon="0.88832">
        <ele>553.6839936</ele>
        <time>2019-04-22T16:23:00.008Z</time>
      </trkpt>
      <trkpt lat="42.99936" lon="0.88821">
        <ele>550</ele>
        <time>2019-04-22T16:23:02.008Z</time>
      </trkpt>
      <trkpt lat="42.99926" lon="0.88812">
        <ele>550</ele>
        <time>2019-04-22T16:23:04.008Z</time>
      </trkpt>
      <trkpt lat="42.99913" lon="0.88811">
        <ele>548</ele>
        <time>2019-04-22T16:23:07.008Z</time>
      </trkpt>
      <trkpt lat="42.99911" lon="0.88831">
        <ele>548</ele>
        <time>2019-04-22T16:23:10.008Z</time>
      </trkpt>
      <trkpt lat="42.9991" lon="0.88851">
        <ele>541.6839936</ele>
        <time>2019-04-22T16:23:12.008Z</time>
      </trkpt>
      <trkpt lat="42.99908" lon="0.88869">
        <ele>539</ele>
        <time>2019-04-22T16:23:14.008Z</time>
      </trkpt>
      <trkpt lat="42.99906" lon="0.88884">
        <ele>536.6839936</ele>
        <time>2019-04-22T16:23:16.008Z</time>
      </trkpt>
      <trkpt lat="42.99905" lon="0.88901">
        <ele>532.6839936</ele>
        <time>2019-04-22T16:23:18.008Z</time>
      </trkpt>
      <trkpt lat="42.99906" lon="0.8892">
        <ele>530</ele>
        <time>2019-04-22T16:23:20.008Z</time>
      </trkpt>
      <trkpt lat="42.99908" lon="0.88937">
        <ele>527.6839936</ele>
        <time>2019-04-22T16:23:22.008Z</time>
      </trkpt>
      <trkpt lat="42.99912" lon="0.88954">
        <ele>523.6839936</ele>
        <time>2019-04-22T16:23:24.008Z</time>
      </trkpt>
      <trkpt lat="42.99917" lon="0.88972">
        <ele>521</ele>
        <time>2019-04-22T16:23:26.008Z</time>
      </trkpt>
      <trkpt lat="42.99924" lon="0.88992">
        <ele>521</ele>
        <time>2019-04-22T16:23:28.008Z</time>
      </trkpt>
      <trkpt lat="42.99929" lon="0.89012">
        <ele>520</ele>
        <time>2019-04-22T16:23:30.008Z</time>
      </trkpt>
      <trkpt lat="42.99933" lon="0.89033">
        <ele>519</ele>
        <time>2019-04-22T16:23:32.008Z</time>
      </trkpt>
      <trkpt lat="42.99936" lon="0.89053">
        <ele>517.8419968</ele>
        <time>2019-04-22T16:23:34.008Z</time>
      </trkpt>
      <trkpt lat="42.99941" lon="0.89075">
        <ele>517</ele>
        <time>2019-04-22T16:23:36.008Z</time>
      </trkpt>
      <trkpt lat="42.99945" lon="0.89095">
        <ele>517</ele>
        <time>2019-04-22T16:23:38.008Z</time>
      </trkpt>
      <trkpt lat="42.99949" lon="0.89112">
        <ele>516.8419968</ele>
        <time>2019-04-22T16:23:40.008Z</time>
      </trkpt>
      <trkpt lat="42.99954" lon="0.89129">
        <ele>515</ele>
        <time>2019-04-22T16:23:42.008Z</time>
      </trkpt>
      <trkpt lat="42.9996" lon="0.89146">
        <ele>515</ele>
        <time>2019-04-22T16:23:44.008Z</time>
      </trkpt>
      <trkpt lat="42.9997" lon="0.89158">
        <ele>514.5259904</ele>
        <time>2019-04-22T16:23:46.008Z</time>
      </trkpt>
      <trkpt lat="42.99982" lon="0.89169">
        <ele>512</ele>
        <time>2019-04-22T16:23:48.008Z</time>
      </trkpt>
      <trkpt lat="42.99994" lon="0.89176">
        <ele>512</ele>
        <time>2019-04-22T16:23:50.008Z</time>
      </trkpt>
      <trkpt lat="43.00007" lon="0.89189">
        <ele>506.6839936</ele>
        <time>2019-04-22T16:23:52.008Z</time>
      </trkpt>
      <trkpt lat="43.00016" lon="0.89206">
        <ele>503.6839936</ele>
        <time>2019-04-22T16:23:54.008Z</time>
      </trkpt>
      <trkpt lat="43.00018" lon="0.89223">
        <ele>500.8419968</ele>
        <time>2019-04-22T16:23:56.008Z</time>
      </trkpt>
      <trkpt lat="43.00016" lon="0.89242">
        <ele>498.8419968</ele>
        <time>2019-04-22T16:23:58.008Z</time>
      </trkpt>
      <trkpt lat="43.00012" lon="0.89262">
        <ele>494.5259904</ele>
        <time>2019-04-22T16:24:01.008Z</time>
      </trkpt>
      <trkpt lat="43.00007" lon="0.89277">
        <ele>491.84356069247</ele>
        <time>2019-04-22T16:24:03.008Z</time>
      </trkpt>
      <trkpt lat="43.00001" lon="0.89292">
        <ele>489</ele>
        <time>2019-04-22T16:24:05.008Z</time>
      </trkpt>
      <trkpt lat="43.00002" lon="0.89311">
        <ele>487.5259904</ele>
        <time>2019-04-22T16:24:07.008Z</time>
      </trkpt>
      <trkpt lat="43.00004" lon="0.89329">
        <ele>485</ele>
        <time>2019-04-22T16:24:09.008Z</time>
      </trkpt>
      <trkpt lat="43.00014" lon="0.89345">
        <ele>484</ele>
        <time>2019-04-22T16:24:11.008Z</time>
      </trkpt>
      <trkpt lat="43.00024" lon="0.8936">
        <ele>483.8419968</ele>
        <time>2019-04-22T16:24:13.008Z</time>
      </trkpt>
      <trkpt lat="43.00015" lon="0.8937">
        <ele>481.8419968</ele>
        <time>2019-04-22T16:24:15.008Z</time>
      </trkpt>
      <trkpt lat="43.00002" lon="0.89377">
        <ele>479.8419968</ele>
        <time>2019-04-22T16:24:17.008Z</time>
      </trkpt>
      <trkpt lat="42.9999" lon="0.89386">
        <ele>477.8419968</ele>
        <time>2019-04-22T16:24:19.008Z</time>
      </trkpt>
      <trkpt lat="42.99979" lon="0.89402">
        <ele>475.8419968</ele>
        <time>2019-04-22T16:24:21.008Z</time>
      </trkpt>
      <trkpt lat="42.9997" lon="0.89419">
        <ele>473.8419968</ele>
        <time>2019-04-22T16:24:23.008Z</time>
      </trkpt>
      <trkpt lat="42.99966" lon="0.89438">
        <ele>473</ele>
        <time>2019-04-22T16:24:25.008Z</time>
      </trkpt>
      <trkpt lat="42.99971" lon="0.8946">
        <ele>471.6839936</ele>
        <time>2019-04-22T16:24:27.008Z</time>
      </trkpt>
      <trkpt lat="42.99978" lon="0.89474">
        <ele>469.8419968</ele>
        <time>2019-04-22T16:24:28.008Z</time>
      </trkpt>
      <trkpt lat="42.99984" lon="0.89486">
        <ele>469</ele>
        <time>2019-04-22T16:24:29.008Z</time>
      </trkpt>
      <trkpt lat="42.9999" lon="0.89499">
        <ele>468.8419968</ele>
        <time>2019-04-22T16:24:30.008Z</time>
      </trkpt>
      <trkpt lat="42.99996" lon="0.89513">
        <ele>467.8419968</ele>
        <time>2019-04-22T16:24:31.008Z</time>
      </trkpt>
      <trkpt lat="43.00001" lon="0.89525">
        <ele>466.6839936</ele>
        <time>2019-04-22T16:24:32.008Z</time>
      </trkpt>
      <trkpt lat="43.00006" lon="0.89537">
        <ele>464.8419968</ele>
        <time>2019-04-22T16:24:33.008Z</time>
      </trkpt>
      <trkpt lat="43.00011" lon="0.89548">
        <ele>464</ele>
        <time>2019-04-22T16:24:34.008Z</time>
      </trkpt>
      <trkpt lat="43.00016" lon="0.8956">
        <ele>464</ele>
        <time>2019-04-22T16:24:35.008Z</time>
      </trkpt>
      <trkpt lat="43.00026" lon="0.89581">
        <ele>464</ele>
        <time>2019-04-22T16:24:37.008Z</time>
      </trkpt>
      <trkpt lat="43.00031" lon="0.89592">
        <ele>463.8419968</ele>
        <time>2019-04-22T16:24:38.008Z</time>
      </trkpt>
      <trkpt lat="43.00036" lon="0.89602">
        <ele>462.8419968</ele>
        <time>2019-04-22T16:24:39.008Z</time>
      </trkpt>
      <trkpt lat="43.0004" lon="0.89612">
        <ele>462</ele>
        <time>2019-04-22T16:24:40.008Z</time>
      </trkpt>
      <trkpt lat="43.00044" lon="0.8962">
        <ele>462</ele>
        <time>2019-04-22T16:24:41.008Z</time>
      </trkpt>
      <trkpt lat="43.00051" lon="0.89634">
        <ele>461</ele>
        <time>2019-04-22T16:24:43.008Z</time>
      </trkpt>
      <trkpt lat="43.00053" lon="0.89646">
        <ele>461</ele>
        <time>2019-04-22T16:24:45.008Z</time>
      </trkpt>
      <trkpt lat="43.00046" lon="0.8966">
        <ele>461</ele>
        <time>2019-04-22T16:24:48.008Z</time>
      </trkpt>
      <trkpt lat="43.00041" lon="0.89669">
        <ele>461</ele>
        <time>2019-04-22T16:24:50.008Z</time>
      </trkpt>
      <trkpt lat="43.00038" lon="0.89679">
        <ele>461</ele>
        <time>2019-04-22T16:24:52.008Z</time>
      </trkpt>
      <trkpt lat="43.00033" lon="0.89687">
        <ele>461</ele>
        <time>2019-04-22T16:24:54.008Z</time>
      </trkpt>
      <trkpt lat="43.00026" lon="0.89694">
        <ele>461</ele>
        <time>2019-04-22T16:24:56.008Z</time>
      </trkpt>
      <trkpt lat="43.0002" lon="0.89701">
        <ele>461</ele>
        <time>2019-04-22T16:24:58.008Z</time>
      </trkpt>
      <trkpt lat="43.00012" lon="0.89708">
        <ele>461</ele>
        <time>2019-04-22T16:25:00.008Z</time>
      </trkpt>
      <trkpt lat="43.00003" lon="0.89715">
        <ele>460</ele>
        <time>2019-04-22T16:25:02.008Z</time>
      </trkpt>
      <trkpt lat="42.99993" lon="0.8972">
        <ele>460</ele>
        <time>2019-04-22T16:25:04.008Z</time>
      </trkpt>
      <trkpt lat="42.99982" lon="0.89724">
        <ele>460</ele>
        <time>2019-04-22T16:25:06.008Z</time>
      </trkpt>
      <trkpt lat="42.99976" lon="0.89726">
        <ele>460</ele>
        <time>2019-04-22T16:25:07.008Z</time>
      </trkpt>
      <trkpt lat="42.99969" lon="0.89728">
        <ele>460</ele>
        <time>2019-04-22T16:25:08.008Z</time>
      </trkpt>
      <trkpt lat="42.99962" lon="0.89731">
        <ele>460</ele>
        <time>2019-04-22T16:25:09.008Z</time>
      </trkpt>
      <trkpt lat="42.99954" lon="0.89733">
        <ele>460</ele>
        <time>2019-04-22T16:25:10.008Z</time>
      </trkpt>
      <trkpt lat="42.99946" lon="0.89734">
        <ele>459.3679872</ele>
        <time>2019-04-22T16:25:11.008Z</time>
      </trkpt>
      <trkpt lat="42.99938" lon="0.89736">
        <ele>456</ele>
        <time>2019-04-22T16:25:12.008Z</time>
      </trkpt>
      <trkpt lat="42.9993" lon="0.89738">
        <ele>456</ele>
        <time>2019-04-22T16:25:13.008Z</time>
      </trkpt>
      <trkpt lat="42.99921" lon="0.89741">
        <ele>456</ele>
        <time>2019-04-22T16:25:14.008Z</time>
      </trkpt>
      <trkpt lat="42.99912" lon="0.89743">
        <ele>456</ele>
        <time>2019-04-22T16:25:15.008Z</time>
      </trkpt>
      <trkpt lat="42.99904" lon="0.89746">
        <ele>455.3679872</ele>
        <time>2019-04-22T16:25:16.008Z</time>
      </trkpt>
      <trkpt lat="42.99896" lon="0.89749">
        <ele>452</ele>
        <time>2019-04-22T16:25:17.008Z</time>
      </trkpt>
      <trkpt lat="42.99879" lon="0.89756">
        <ele>452</ele>
        <time>2019-04-22T16:25:19.008Z</time>
      </trkpt>
      <trkpt lat="42.99861" lon="0.89764">
        <ele>451.3679872</ele>
        <time>2019-04-22T16:25:21.008Z</time>
      </trkpt>
      <trkpt lat="42.99851" lon="0.89768">
        <ele>447.6839936</ele>
        <time>2019-04-22T16:25:22.008Z</time>
      </trkpt>
      <trkpt lat="42.99841" lon="0.89771">
        <ele>445.8419968</ele>
        <time>2019-04-22T16:25:23.008Z</time>
      </trkpt>
      <trkpt lat="42.99832" lon="0.89775">
        <ele>445</ele>
        <time>2019-04-22T16:25:24.008Z</time>
      </trkpt>
      <trkpt lat="42.99824" lon="0.89779">
        <ele>444.8419968</ele>
        <time>2019-04-22T16:25:25.008Z</time>
      </trkpt>
      <trkpt lat="42.99816" lon="0.89783">
        <ele>443.8419968</ele>
        <time>2019-04-22T16:25:26.008Z</time>
      </trkpt>
      <trkpt lat="42.99804" lon="0.89789">
        <ele>442.8419968</ele>
        <time>2019-04-22T16:25:28.008Z</time>
      </trkpt>
      <trkpt lat="42.99792" lon="0.89797">
        <ele>442</ele>
        <time>2019-04-22T16:25:31.008Z</time>
      </trkpt>
      <trkpt lat="42.99794" lon="0.89812">
        <ele>442</ele>
        <time>2019-04-22T16:25:33.008Z</time>
      </trkpt>
      <trkpt lat="42.99798" lon="0.89826">
        <ele>442</ele>
        <time>2019-04-22T16:25:35.008Z</time>
      </trkpt>
      <trkpt lat="42.99802" lon="0.8984">
        <ele>441.8419968</ele>
        <time>2019-04-22T16:25:37.008Z</time>
      </trkpt>
      <trkpt lat="42.99806" lon="0.89853">
        <ele>441</ele>
        <time>2019-04-22T16:25:39.008Z</time>
      </trkpt>
      <trkpt lat="42.99807" lon="0.89859">
        <ele>441</ele>
        <time>2019-04-22T16:25:40.008Z</time>
      </trkpt>
      <trkpt lat="42.99809" lon="0.89866">
        <ele>441</ele>
        <time>2019-04-22T16:25:41.008Z</time>
      </trkpt>
      <trkpt lat="42.9981" lon="0.89873">
        <ele>441</ele>
        <time>2019-04-22T16:25:42.008Z</time>
      </trkpt>
      <trkpt lat="42.99812" lon="0.89879">
        <ele>441</ele>
        <time>2019-04-22T16:25:43.008Z</time>
      </trkpt>
      <trkpt lat="42.99814" lon="0.89886">
        <ele>441</ele>
        <time>2019-04-22T16:25:44.008Z</time>
      </trkpt>
      <trkpt lat="42.99815" lon="0.89892">
        <ele>441</ele>
        <time>2019-04-22T16:25:45.008Z</time>
      </trkpt>
      <trkpt lat="42.99817" lon="0.89899">
        <ele>441</ele>
        <time>2019-04-22T16:25:46.008Z</time>
      </trkpt>
      <trkpt lat="42.99819" lon="0.89906">
        <ele>441</ele>
        <time>2019-04-22T16:25:47.008Z</time>
      </trkpt>
      <trkpt lat="42.99821" lon="0.89912">
        <ele>441</ele>
        <time>2019-04-22T16:25:48.008Z</time>
      </trkpt>
      <trkpt lat="42.99823" lon="0.89918">
        <ele>441</ele>
        <time>2019-04-22T16:25:49.008Z</time>
      </trkpt>
      <trkpt lat="42.99825" lon="0.89924">
        <ele>441</ele>
        <time>2019-04-22T16:25:50.008Z</time>
      </trkpt>
      <trkpt lat="42.99828" lon="0.89929">
        <ele>441</ele>
        <time>2019-04-22T16:25:51.008Z</time>
      </trkpt>
      <trkpt lat="42.99836" lon="0.89939">
        <ele>441</ele>
        <time>2019-04-22T16:25:53.008Z</time>
      </trkpt>
      <trkpt lat="42.99843" lon="0.8995">
        <ele>441</ele>
        <time>2019-04-22T16:25:55.008Z</time>
      </trkpt>
      <trkpt lat="42.99848" lon="0.89964">
        <ele>441</ele>
        <time>2019-04-22T16:25:57.008Z</time>
      </trkpt>
      <trkpt lat="42.9985" lon="0.89981">
        <ele>441</ele>
        <time>2019-04-22T16:25:59.008Z</time>
      </trkpt>
      <trkpt lat="42.99851" lon="0.90001">
        <ele>440.209984</ele>
        <time>2019-04-22T16:26:01.008Z</time>
      </trkpt>
      <trkpt lat="42.99852" lon="0.90021">
        <ele>436</ele>
        <time>2019-04-22T16:26:03.008Z</time>
      </trkpt>
      <trkpt lat="42.99852" lon="0.90032">
        <ele>435.8419968</ele>
        <time>2019-04-22T16:26:04.008Z</time>
      </trkpt>
      <trkpt lat="42.99852" lon="0.90053">
        <ele>434</ele>
        <time>2019-04-22T16:26:06.008Z</time>
      </trkpt>
      <trkpt lat="42.99851" lon="0.90063">
        <ele>434</ele>
        <time>2019-04-22T16:26:07.008Z</time>
      </trkpt>
      <trkpt lat="42.9985" lon="0.90075">
        <ele>433.8419968</ele>
        <time>2019-04-22T16:26:08.008Z</time>
      </trkpt>
      <trkpt lat="42.9985" lon="0.90087">
        <ele>433</ele>
        <time>2019-04-22T16:26:09.008Z</time>
      </trkpt>
      <trkpt lat="42.9985" lon="0.90098">
        <ele>433</ele>
        <time>2019-04-22T16:26:10.008Z</time>
      </trkpt>
      <trkpt lat="42.9985" lon="0.90121">
        <ele>433</ele>
        <time>2019-04-22T16:26:12.008Z</time>
      </trkpt>
      <trkpt lat="42.99847" lon="0.90144">
        <ele>433</ele>
        <time>2019-04-22T16:26:14.008Z</time>
      </trkpt>
      <trkpt lat="42.99844" lon="0.90155">
        <ele>433</ele>
        <time>2019-04-22T16:26:15.008Z</time>
      </trkpt>
      <trkpt lat="42.99841" lon="0.90165">
        <ele>432.8419968</ele>
        <time>2019-04-22T16:26:16.008Z</time>
      </trkpt>
      <trkpt lat="42.99836" lon="0.90174">
        <ele>432</ele>
        <time>2019-04-22T16:26:17.008Z</time>
      </trkpt>
      <trkpt lat="42.99831" lon="0.90183">
        <ele>432</ele>
        <time>2019-04-22T16:26:18.008Z</time>
      </trkpt>
      <trkpt lat="42.99826" lon="0.9019">
        <ele>432</ele>
        <time>2019-04-22T16:26:19.008Z</time>
      </trkpt>
      <trkpt lat="42.99816" lon="0.90205">
        <ele>431.6839936</ele>
        <time>2019-04-22T16:26:21.008Z</time>
      </trkpt>
      <trkpt lat="42.99808" lon="0.90219">
        <ele>430</ele>
        <time>2019-04-22T16:26:23.008Z</time>
      </trkpt>
      <trkpt lat="42.998" lon="0.90234">
        <ele>430</ele>
        <time>2019-04-22T16:26:25.008Z</time>
      </trkpt>
      <trkpt lat="42.99793" lon="0.90251">
        <ele>429</ele>
        <time>2019-04-22T16:26:27.008Z</time>
      </trkpt>
      <trkpt lat="42.99787" lon="0.90267">
        <ele>429</ele>
        <time>2019-04-22T16:26:29.008Z</time>
      </trkpt>
      <trkpt lat="42.9978" lon="0.90283">
        <ele>429</ele>
        <time>2019-04-22T16:26:31.008Z</time>
      </trkpt>
      <trkpt lat="42.99774" lon="0.90297">
        <ele>429</ele>
        <time>2019-04-22T16:26:33.008Z</time>
      </trkpt>
      <trkpt lat="42.99767" lon="0.90312">
        <ele>429</ele>
        <time>2019-04-22T16:26:35.008Z</time>
      </trkpt>
      <trkpt lat="42.99757" lon="0.90324">
        <ele>429</ele>
        <time>2019-04-22T16:26:37.008Z</time>
      </trkpt>
      <trkpt lat="42.99747" lon="0.90337">
        <ele>429</ele>
        <time>2019-04-22T16:26:39.008Z</time>
      </trkpt>
      <trkpt lat="42.9974" lon="0.9035">
        <ele>429</ele>
        <time>2019-04-22T16:26:41.008Z</time>
      </trkpt>
      <trkpt lat="42.99734" lon="0.90364">
        <ele>429</ele>
        <time>2019-04-22T16:26:43.008Z</time>
      </trkpt>
      <trkpt lat="42.99727" lon="0.90376">
        <ele>429</ele>
        <time>2019-04-22T16:26:45.008Z</time>
      </trkpt>
      <trkpt lat="42.99721" lon="0.90386">
        <ele>429</ele>
        <time>2019-04-22T16:26:47.008Z</time>
      </trkpt>
      <trkpt lat="42.99713" lon="0.90403">
        <ele>429</ele>
        <time>2019-04-22T16:26:50.008Z</time>
      </trkpt>
      <trkpt lat="42.99706" lon="0.90415">
        <ele>428</ele>
        <time>2019-04-22T16:26:52.008Z</time>
      </trkpt>
      <trkpt lat="42.99697" lon="0.90429">
        <ele>428</ele>
        <time>2019-04-22T16:26:54.008Z</time>
      </trkpt>
      <trkpt lat="42.99685" lon="0.9044">
        <ele>428</ele>
        <time>2019-04-22T16:26:56.008Z</time>
      </trkpt>
      <trkpt lat="42.99674" lon="0.90448">
        <ele>428</ele>
        <time>2019-04-22T16:26:58.008Z</time>
      </trkpt>
      <trkpt lat="42.99664" lon="0.90455">
        <ele>428</ele>
        <time>2019-04-22T16:27:00.008Z</time>
      </trkpt>
      <trkpt lat="42.99655" lon="0.90468">
        <ele>421</ele>
        <time>2019-04-22T16:27:02.008Z</time>
      </trkpt>
      <trkpt lat="42.99648" lon="0.90485">
        <ele>421</ele>
        <time>2019-04-22T16:27:04.008Z</time>
      </trkpt>
      <trkpt lat="42.99644" lon="0.90504">
        <ele>421</ele>
        <time>2019-04-22T16:27:06.008Z</time>
      </trkpt>
      <trkpt lat="42.99639" lon="0.90522">
        <ele>421</ele>
        <time>2019-04-22T16:27:08.008Z</time>
      </trkpt>
      <trkpt lat="42.99636" lon="0.90539">
        <ele>420</ele>
        <time>2019-04-22T16:27:10.008Z</time>
      </trkpt>
      <trkpt lat="42.99633" lon="0.90556">
        <ele>420</ele>
        <time>2019-04-22T16:27:12.008Z</time>
      </trkpt>
      <trkpt lat="42.99631" lon="0.90571">
        <ele>420</ele>
        <time>2019-04-22T16:27:14.008Z</time>
      </trkpt>
      <trkpt lat="42.99629" lon="0.90586">
        <ele>420</ele>
        <time>2019-04-22T16:27:16.008Z</time>
      </trkpt>
      <trkpt lat="42.99627" lon="0.906">
        <ele>420</ele>
        <time>2019-04-22T16:27:18.008Z</time>
      </trkpt>
      <trkpt lat="42.99625" lon="0.90614">
        <ele>420</ele>
        <time>2019-04-22T16:27:20.008Z</time>
      </trkpt>
      <trkpt lat="42.99623" lon="0.90627">
        <ele>420</ele>
        <time>2019-04-22T16:27:22.008Z</time>
      </trkpt>
      <trkpt lat="42.99621" lon="0.9064">
        <ele>420</ele>
        <time>2019-04-22T16:27:24.008Z</time>
      </trkpt>
      <trkpt lat="42.99618" lon="0.90652">
        <ele>420</ele>
        <time>2019-04-22T16:27:26.008Z</time>
      </trkpt>
      <trkpt lat="42.99614" lon="0.90664">
        <ele>420</ele>
        <time>2019-04-22T16:27:28.008Z</time>
      </trkpt>
      <trkpt lat="42.99609" lon="0.90675">
        <ele>420</ele>
        <time>2019-04-22T16:27:30.008Z</time>
      </trkpt>
      <trkpt lat="42.99602" lon="0.9069">
        <ele>419</ele>
        <time>2019-04-22T16:27:33.008Z</time>
      </trkpt>
      <trkpt lat="42.99595" lon="0.90703">
        <ele>419</ele>
        <time>2019-04-22T16:27:36.008Z</time>
      </trkpt>
      <trkpt lat="42.99591" lon="0.90719">
        <ele>419</ele>
        <time>2019-04-22T16:27:39.008Z</time>
      </trkpt>
      <trkpt lat="42.99589" lon="0.90736">
        <ele>419</ele>
        <time>2019-04-22T16:27:42.008Z</time>
      </trkpt>
      <trkpt lat="42.9959" lon="0.90753">
        <ele>419</ele>
        <time>2019-04-22T16:27:45.008Z</time>
      </trkpt>
      <trkpt lat="42.99591" lon="0.90765">
        <ele>419</ele>
        <time>2019-04-22T16:27:47.008Z</time>
      </trkpt>
      <trkpt lat="42.99592" lon="0.90776">
        <ele>419</ele>
        <time>2019-04-22T16:27:49.008Z</time>
      </trkpt>
      <trkpt lat="42.99592" lon="0.90787">
        <ele>419.1580032</ele>
        <time>2019-04-22T16:27:51.008Z</time>
      </trkpt>
      <trkpt lat="42.99593" lon="0.90798">
        <ele>420</ele>
        <time>2019-04-22T16:27:53.008Z</time>
      </trkpt>
      <trkpt lat="42.99593" lon="0.90808">
        <ele>420</ele>
        <time>2019-04-22T16:27:55.008Z</time>
      </trkpt>
      <trkpt lat="42.99594" lon="0.90818">
        <ele>420</ele>
        <time>2019-04-22T16:27:57.008Z</time>
      </trkpt>
      <trkpt lat="42.99595" lon="0.90832">
        <ele>420</ele>
        <time>2019-04-22T16:28:00.008Z</time>
      </trkpt>
      <trkpt lat="42.99602" lon="0.90841">
        <ele>420</ele>
        <time>2019-04-22T16:28:03.008Z</time>
      </trkpt>
      <trkpt lat="42.99611" lon="0.90841">
        <ele>420</ele>
        <time>2019-04-22T16:28:05.008Z</time>
      </trkpt>
      <trkpt lat="42.99621" lon="0.90842">
        <ele>420</ele>
        <time>2019-04-22T16:28:07.008Z</time>
      </trkpt>
      <trkpt lat="42.99631" lon="0.90846">
        <ele>420</ele>
        <time>2019-04-22T16:28:09.008Z</time>
      </trkpt>
      <trkpt lat="42.99639" lon="0.9085">
        <ele>420</ele>
        <time>2019-04-22T16:28:11.008Z</time>
      </trkpt>
      <trkpt lat="42.99647" lon="0.90855">
        <ele>420</ele>
        <time>2019-04-22T16:28:13.008Z</time>
      </trkpt>
      <trkpt lat="42.99659" lon="0.90861">
        <ele>420</ele>
        <time>2019-04-22T16:28:16.008Z</time>
      </trkpt>
      <trkpt lat="42.9967" lon="0.90867">
        <ele>420</ele>
        <time>2019-04-22T16:28:19.008Z</time>
      </trkpt>
      <trkpt lat="42.99682" lon="0.90871">
        <ele>421</ele>
        <time>2019-04-22T16:28:22.008Z</time>
      </trkpt>
      <trkpt lat="42.99693" lon="0.90878">
        <ele>421</ele>
        <time>2019-04-22T16:28:25.008Z</time>
      </trkpt>
      <trkpt lat="42.99703" lon="0.90884">
        <ele>421</ele>
        <time>2019-04-22T16:28:28.008Z</time>
      </trkpt>
      <trkpt lat="42.99714" lon="0.90891">
        <ele>421</ele>
        <time>2019-04-22T16:28:31.008Z</time>
      </trkpt>
      <trkpt lat="42.99725" lon="0.90898">
        <ele>421</ele>
        <time>2019-04-22T16:28:34.008Z</time>
      </trkpt>
      <trkpt lat="42.99736" lon="0.90897">
        <ele>421</ele>
        <time>2019-04-22T16:28:38.008Z</time>
      </trkpt>
      <trkpt lat="42.99743" lon="0.90885">
        <ele>421</ele>
        <time>2019-04-22T16:28:41.008Z</time>
      </trkpt>
      <trkpt lat="42.99752" lon="0.90871">
        <ele>421</ele>
        <time>2019-04-22T16:28:44.008Z</time>
      </trkpt>
      <trkpt lat="42.99764" lon="0.90859">
        <ele>421</ele>
        <time>2019-04-22T16:28:47.008Z</time>
      </trkpt>
      <trkpt lat="42.99772" lon="0.9085">
        <ele>421</ele>
        <time>2019-04-22T16:28:49.008Z</time>
      </trkpt>
      <trkpt lat="42.99781" lon="0.9084">
        <ele>421</ele>
        <time>2019-04-22T16:28:51.008Z</time>
      </trkpt>
      <trkpt lat="42.99789" lon="0.90831">
        <ele>421</ele>
        <time>2019-04-22T16:28:53.008Z</time>
      </trkpt>
      <trkpt lat="42.99798" lon="0.90822">
        <ele>421</ele>
        <time>2019-04-22T16:28:55.008Z</time>
      </trkpt>
      <trkpt lat="42.99808" lon="0.90813">
        <ele>421</ele>
        <time>2019-04-22T16:28:57.008Z</time>
      </trkpt>
      <trkpt lat="42.99819" lon="0.90805">
        <ele>421</ele>
        <time>2019-04-22T16:28:59.008Z</time>
      </trkpt>
      <trkpt lat="42.9983" lon="0.90799">
        <ele>420.6839936</ele>
        <time>2019-04-22T16:29:01.008Z</time>
      </trkpt>
      <trkpt lat="42.99841" lon="0.90796">
        <ele>419</ele>
        <time>2019-04-22T16:29:03.008Z</time>
      </trkpt>
      <trkpt lat="42.99854" lon="0.90795">
        <ele>419</ele>
        <time>2019-04-22T16:29:05.008Z</time>
      </trkpt>
      <trkpt lat="42.99866" lon="0.90795">
        <ele>419</ele>
        <time>2019-04-22T16:29:08.008Z</time>
      </trkpt>
      <trkpt lat="42.99876" lon="0.90795">
        <ele>419</ele>
        <time>2019-04-22T16:29:10.008Z</time>
      </trkpt>
      <trkpt lat="42.99889" lon="0.90794">
        <ele>419</ele>
        <time>2019-04-22T16:29:12.008Z</time>
      </trkpt>
      <trkpt lat="42.99901" lon="0.90794">
        <ele>419</ele>
        <time>2019-04-22T16:29:15.008Z</time>
      </trkpt>
      <trkpt lat="42.99911" lon="0.90793">
        <ele>419</ele>
        <time>2019-04-22T16:29:17.008Z</time>
      </trkpt>
      <trkpt lat="42.99925" lon="0.90793">
        <ele>419</ele>
        <time>2019-04-22T16:29:20.008Z</time>
      </trkpt>
      <trkpt lat="42.99935" lon="0.90792">
        <ele>418</ele>
        <time>2019-04-22T16:29:22.008Z</time>
      </trkpt>
      <trkpt lat="42.99948" lon="0.90791">
        <ele>418</ele>
        <time>2019-04-22T16:29:24.008Z</time>
      </trkpt>
      <trkpt lat="42.99961" lon="0.90785">
        <ele>418</ele>
        <time>2019-04-22T16:29:27.008Z</time>
      </trkpt>
      <trkpt lat="42.99971" lon="0.90778">
        <ele>418</ele>
        <time>2019-04-22T16:29:29.008Z</time>
      </trkpt>
      <trkpt lat="42.99981" lon="0.90772">
        <ele>417.5259904</ele>
        <time>2019-04-22T16:29:31.008Z</time>
      </trkpt>
      <trkpt lat="42.99992" lon="0.90763">
        <ele>415</ele>
        <time>2019-04-22T16:29:33.008Z</time>
      </trkpt>
      <trkpt lat="43.00001" lon="0.90752">
        <ele>415</ele>
        <time>2019-04-22T16:29:35.008Z</time>
      </trkpt>
      <trkpt lat="43.00011" lon="0.90741">
        <ele>416</ele>
        <time>2019-04-22T16:29:37.008Z</time>
      </trkpt>
      <trkpt lat="43.00023" lon="0.90734">
        <ele>416</ele>
        <time>2019-04-22T16:29:39.008Z</time>
      </trkpt>
      <trkpt lat="43.00035" lon="0.90727">
        <ele>416</ele>
        <time>2019-04-22T16:29:41.008Z</time>
      </trkpt>
      <trkpt lat="43.00044" lon="0.90721">
        <ele>416</ele>
        <time>2019-04-22T16:29:43.008Z</time>
      </trkpt>
      <trkpt lat="43.00054" lon="0.9072">
        <ele>416</ele>
        <time>2019-04-22T16:29:45.008Z</time>
      </trkpt>
      <trkpt lat="43.00066" lon="0.9072">
        <ele>416</ele>
        <time>2019-04-22T16:29:47.008Z</time>
      </trkpt>
      <trkpt lat="43.00076" lon="0.90722">
        <ele>416</ele>
        <time>2019-04-22T16:29:49.008Z</time>
      </trkpt>
      <trkpt lat="43.00086" lon="0.90723">
        <ele>415.8419968</ele>
        <time>2019-04-22T16:29:51.008Z</time>
      </trkpt>
      <trkpt lat="43.00096" lon="0.90722">
        <ele>415</ele>
        <time>2019-04-22T16:29:53.008Z</time>
      </trkpt>
      <trkpt lat="43.00107" lon="0.90721">
        <ele>415</ele>
        <time>2019-04-22T16:29:55.008Z</time>
      </trkpt>
      <trkpt lat="43.00122" lon="0.90713">
        <ele>415</ele>
        <time>2019-04-22T16:29:58.008Z</time>
      </trkpt>
      <trkpt lat="43.00131" lon="0.90704">
        <ele>415</ele>
        <time>2019-04-22T16:30:00.008Z</time>
      </trkpt>
      <trkpt lat="43.0014" lon="0.90694">
        <ele>414</ele>
        <time>2019-04-22T16:30:02.008Z</time>
      </trkpt>
      <trkpt lat="43.00149" lon="0.90685">
        <ele>414</ele>
        <time>2019-04-22T16:30:04.008Z</time>
      </trkpt>
      <trkpt lat="43.00159" lon="0.90676">
        <ele>414</ele>
        <time>2019-04-22T16:30:06.008Z</time>
      </trkpt>
      <trkpt lat="43.00169" lon="0.9067">
        <ele>414</ele>
        <time>2019-04-22T16:30:08.008Z</time>
      </trkpt>
      <trkpt lat="43.0018" lon="0.90665">
        <ele>414</ele>
        <time>2019-04-22T16:30:10.008Z</time>
      </trkpt>
      <trkpt lat="43.00191" lon="0.9066">
        <ele>414</ele>
        <time>2019-04-22T16:30:12.008Z</time>
      </trkpt>
      <trkpt lat="43.00201" lon="0.90656">
        <ele>414</ele>
        <time>2019-04-22T16:30:14.008Z</time>
      </trkpt>
      <trkpt lat="43.00213" lon="0.90646">
        <ele>414</ele>
        <time>2019-04-22T16:30:17.008Z</time>
      </trkpt>
      <trkpt lat="43.00223" lon="0.9064">
        <ele>414</ele>
        <time>2019-04-22T16:30:19.008Z</time>
      </trkpt>
      <trkpt lat="43.00233" lon="0.90636">
        <ele>413.8419968</ele>
        <time>2019-04-22T16:30:21.008Z</time>
      </trkpt>
      <trkpt lat="43.00245" lon="0.90632">
        <ele>413</ele>
        <time>2019-04-22T16:30:23.008Z</time>
      </trkpt>
      <trkpt lat="43.00256" lon="0.90628">
        <ele>413</ele>
        <time>2019-04-22T16:30:25.008Z</time>
      </trkpt>
      <trkpt lat="43.00264" lon="0.90629">
        <ele>413</ele>
        <time>2019-04-22T16:30:27.008Z</time>
      </trkpt>
      <trkpt lat="43.00273" lon="0.90633">
        <ele>413</ele>
        <time>2019-04-22T16:30:29.008Z</time>
      </trkpt>
      <trkpt lat="43.00283" lon="0.90639">
        <ele>415</ele>
        <time>2019-04-22T16:30:32.008Z</time>
      </trkpt>
      <trkpt lat="43.00292" lon="0.90645">
        <ele>415</ele>
        <time>2019-04-22T16:30:35.008Z</time>
      </trkpt>
      <trkpt lat="43.00299" lon="0.90651">
        <ele>415</ele>
        <time>2019-04-22T16:30:38.008Z</time>
      </trkpt>
      <trkpt lat="43.00307" lon="0.90657">
        <ele>415.2989798689</ele>
        <time>2019-04-22T16:30:41.008Z</time>
      </trkpt>
      <trkpt lat="43.00316" lon="0.90663">
        <ele>417</ele>
        <time>2019-04-22T16:30:44.008Z</time>
      </trkpt>
      <trkpt lat="43.00326" lon="0.90671">
        <ele>419</ele>
        <time>2019-04-22T16:30:48.008Z</time>
      </trkpt>
      <trkpt lat="43.00336" lon="0.90678">
        <ele>419.1580032</ele>
        <time>2019-04-22T16:30:51.008Z</time>
      </trkpt>
      <trkpt lat="43.00346" lon="0.90679">
        <ele>420</ele>
        <time>2019-04-22T16:30:54.008Z</time>
      </trkpt>
      <trkpt lat="43.00357" lon="0.90672">
        <ele>420</ele>
        <time>2019-04-22T16:30:58.008Z</time>
      </trkpt>
      <trkpt lat="43.00364" lon="0.90664">
        <ele>420.3160064</ele>
        <time>2019-04-22T16:31:01.008Z</time>
      </trkpt>
      <trkpt lat="43.00369" lon="0.90659">
        <ele>422</ele>
        <time>2019-04-22T16:31:03.008Z</time>
      </trkpt>
      <trkpt lat="43.00377" lon="0.90651">
        <ele>422</ele>
        <time>2019-04-22T16:31:06.008Z</time>
      </trkpt>
      <trkpt lat="43.00383" lon="0.90642">
        <ele>422</ele>
        <time>2019-04-22T16:31:09.008Z</time>
      </trkpt>
      <trkpt lat="43.0039" lon="0.90634">
        <ele>424</ele>
        <time>2019-04-22T16:31:12.008Z</time>
      </trkpt>
      <trkpt lat="43.00401" lon="0.90627">
        <ele>424</ele>
        <time>2019-04-22T16:31:16.008Z</time>
      </trkpt>
      <trkpt lat="43.00414" lon="0.90624">
        <ele>424</ele>
        <time>2019-04-22T16:31:20.008Z</time>
      </trkpt>
      <trkpt lat="43.00426" lon="0.90625">
        <ele>424</ele>
        <time>2019-04-22T16:31:23.008Z</time>
      </trkpt>
      <trkpt lat="43.00435" lon="0.90624">
        <ele>424</ele>
        <time>2019-04-22T16:31:25.008Z</time>
      </trkpt>
      <trkpt lat="43.00448" lon="0.90625">
        <ele>424</ele>
        <time>2019-04-22T16:31:28.008Z</time>
      </trkpt>
      <trkpt lat="43.00461" lon="0.90625">
        <ele>423.8419968</ele>
        <time>2019-04-22T16:31:31.008Z</time>
      </trkpt>
      <trkpt lat="43.00473" lon="0.90626">
        <ele>423</ele>
        <time>2019-04-22T16:31:34.008Z</time>
      </trkpt>
      <trkpt lat="43.00485" lon="0.90626">
        <ele>423</ele>
        <time>2019-04-22T16:31:37.008Z</time>
      </trkpt>
      <trkpt lat="43.00494" lon="0.90627">
        <ele>423</ele>
        <time>2019-04-22T16:31:39.008Z</time>
      </trkpt>
      <trkpt lat="43.00504" lon="0.90626">
        <ele>422.6839936</ele>
        <time>2019-04-22T16:31:41.008Z</time>
      </trkpt>
      <trkpt lat="43.00516" lon="0.90621">
        <ele>421</ele>
        <time>2019-04-22T16:31:43.008Z</time>
      </trkpt>
      <trkpt lat="43.00529" lon="0.90615">
        <ele>421</ele>
        <time>2019-04-22T16:31:45.008Z</time>
      </trkpt>
      <trkpt lat="43.00542" lon="0.90611">
        <ele>421</ele>
        <time>2019-04-22T16:31:47.008Z</time>
      </trkpt>
      <trkpt lat="43.00554" lon="0.90609">
        <ele>421</ele>
        <time>2019-04-22T16:31:49.008Z</time>
      </trkpt>
      <trkpt lat="43.00566" lon="0.9061">
        <ele>421</ele>
        <time>2019-04-22T16:31:52.008Z</time>
      </trkpt>
      <trkpt lat="43.00577" lon="0.9061">
        <ele>421</ele>
        <time>2019-04-22T16:31:55.008Z</time>
      </trkpt>
      <trkpt lat="43.0059" lon="0.90607">
        <ele>421</ele>
        <time>2019-04-22T16:31:58.008Z</time>
      </trkpt>
      <trkpt lat="43.00601" lon="0.90606">
        <ele>421.1580032</ele>
        <time>2019-04-22T16:32:01.008Z</time>
      </trkpt>
      <trkpt lat="43.00612" lon="0.90606">
        <ele>422</ele>
        <time>2019-04-22T16:32:04.008Z</time>
      </trkpt>
      <trkpt lat="43.00624" lon="0.90605">
        <ele>422</ele>
        <time>2019-04-22T16:32:07.008Z</time>
      </trkpt>
      <trkpt lat="43.00636" lon="0.90604">
        <ele>422</ele>
        <time>2019-04-22T16:32:10.008Z</time>
      </trkpt>
      <trkpt lat="43.00648" lon="0.90603">
        <ele>424</ele>
        <time>2019-04-22T16:32:13.008Z</time>
      </trkpt>
      <trkpt lat="43.00658" lon="0.90607">
        <ele>424</ele>
        <time>2019-04-22T16:32:16.008Z</time>
      </trkpt>
      <trkpt lat="43.00667" lon="0.90613">
        <ele>424</ele>
        <time>2019-04-22T16:32:19.008Z</time>
      </trkpt>
      <trkpt lat="43.00675" lon="0.90621">
        <ele>427</ele>
        <time>2019-04-22T16:32:22.008Z</time>
      </trkpt>
      <trkpt lat="43.00684" lon="0.90624">
        <ele>426</ele>
        <time>2019-04-22T16:32:25.008Z</time>
      </trkpt>
      <trkpt lat="43.00694" lon="0.90625">
        <ele>427</ele>
        <time>2019-04-22T16:32:28.008Z</time>
      </trkpt>
      <trkpt lat="43.00705" lon="0.90627">
        <ele>427</ele>
        <time>2019-04-22T16:32:32.008Z</time>
      </trkpt>
      <trkpt lat="43.00716" lon="0.90629">
        <ele>427</ele>
        <time>2019-04-22T16:32:36.008Z</time>
      </trkpt>
      <trkpt lat="43.00724" lon="0.90633">
        <ele>427</ele>
        <time>2019-04-22T16:32:39.008Z</time>
      </trkpt>
      <trkpt lat="43.00734" lon="0.90638">
        <ele>427</ele>
        <time>2019-04-22T16:32:42.008Z</time>
      </trkpt>
      <trkpt lat="43.00744" lon="0.90645">
        <ele>427</ele>
        <time>2019-04-22T16:32:45.008Z</time>
      </trkpt>
      <trkpt lat="43.00756" lon="0.90658">
        <ele>427</ele>
        <time>2019-04-22T16:32:48.008Z</time>
      </trkpt>
      <trkpt lat="43.00767" lon="0.9067">
        <ele>427</ele>
        <time>2019-04-22T16:32:50.008Z</time>
      </trkpt>
      <trkpt lat="43.00777" lon="0.90679">
        <ele>425</ele>
        <time>2019-04-22T16:32:52.008Z</time>
      </trkpt>
      <trkpt lat="43.00788" lon="0.90683">
        <ele>425</ele>
        <time>2019-04-22T16:32:54.008Z</time>
      </trkpt>
      <trkpt lat="43.00801" lon="0.90679">
        <ele>425</ele>
        <time>2019-04-22T16:32:56.008Z</time>
      </trkpt>
      <trkpt lat="43.00814" lon="0.90673">
        <ele>425</ele>
        <time>2019-04-22T16:32:58.008Z</time>
      </trkpt>
      <trkpt lat="43.00826" lon="0.90667">
        <ele>425</ele>
        <time>2019-04-22T16:33:00.008Z</time>
      </trkpt>
      <trkpt lat="43.00836" lon="0.9066">
        <ele>422</ele>
        <time>2019-04-22T16:33:02.008Z</time>
      </trkpt>
      <trkpt lat="43.00847" lon="0.90651">
        <ele>422</ele>
        <time>2019-04-22T16:33:04.008Z</time>
      </trkpt>
      <trkpt lat="43.00859" lon="0.90646">
        <ele>422</ele>
        <time>2019-04-22T16:33:06.008Z</time>
      </trkpt>
      <trkpt lat="43.0087" lon="0.90644">
        <ele>422</ele>
        <time>2019-04-22T16:33:08.008Z</time>
      </trkpt>
      <trkpt lat="43.0088" lon="0.90646">
        <ele>422</ele>
        <time>2019-04-22T16:33:10.008Z</time>
      </trkpt>
      <trkpt lat="43.00893" lon="0.90648">
        <ele>421</ele>
        <time>2019-04-22T16:33:13.008Z</time>
      </trkpt>
      <trkpt lat="43.00906" lon="0.90651">
        <ele>421</ele>
        <time>2019-04-22T16:33:16.008Z</time>
      </trkpt>
      <trkpt lat="43.00919" lon="0.90649">
        <ele>421</ele>
        <time>2019-04-22T16:33:19.008Z</time>
      </trkpt>
      <trkpt lat="43.0093" lon="0.90647">
        <ele>420.6839936</ele>
        <time>2019-04-22T16:33:21.008Z</time>
      </trkpt>
      <trkpt lat="43.00943" lon="0.90648">
        <ele>419</ele>
        <time>2019-04-22T16:33:23.008Z</time>
      </trkpt>
      <trkpt lat="43.00958" lon="0.90647">
        <ele>419</ele>
        <time>2019-04-22T16:33:25.008Z</time>
      </trkpt>
      <trkpt lat="43.00972" lon="0.90644">
        <ele>419</ele>
        <time>2019-04-22T16:33:27.008Z</time>
      </trkpt>
      <trkpt lat="43.00987" lon="0.90642">
        <ele>419</ele>
        <time>2019-04-22T16:33:29.008Z</time>
      </trkpt>
      <trkpt lat="43.01004" lon="0.90647">
        <ele>418.0519808</ele>
        <time>2019-04-22T16:33:31.008Z</time>
      </trkpt>
      <trkpt lat="43.01014" lon="0.90649">
        <ele>412.5259904</ele>
        <time>2019-04-22T16:33:32.008Z</time>
      </trkpt>
      <trkpt lat="43.01033" lon="0.90652">
        <ele>410</ele>
        <time>2019-04-22T16:33:34.008Z</time>
      </trkpt>
      <trkpt lat="43.01048" lon="0.90653">
        <ele>410</ele>
        <time>2019-04-22T16:33:36.008Z</time>
      </trkpt>
      <trkpt lat="43.01061" lon="0.90652">
        <ele>410</ele>
        <time>2019-04-22T16:33:38.008Z</time>
      </trkpt>
      <trkpt lat="43.01074" lon="0.90651">
        <ele>410</ele>
        <time>2019-04-22T16:33:40.008Z</time>
      </trkpt>
      <trkpt lat="43.01087" lon="0.90649">
        <ele>409</ele>
        <time>2019-04-22T16:33:42.008Z</time>
      </trkpt>
      <trkpt lat="43.01101" lon="0.90645">
        <ele>409</ele>
        <time>2019-04-22T16:33:44.008Z</time>
      </trkpt>
      <trkpt lat="43.01115" lon="0.90642">
        <ele>408.209984</ele>
        <time>2019-04-22T16:33:46.008Z</time>
      </trkpt>
      <trkpt lat="43.01129" lon="0.90639">
        <ele>404</ele>
        <time>2019-04-22T16:33:48.008Z</time>
      </trkpt>
      <trkpt lat="43.01142" lon="0.90639">
        <ele>404</ele>
        <time>2019-04-22T16:33:50.008Z</time>
      </trkpt>
      <trkpt lat="43.01153" lon="0.90644">
        <ele>400</ele>
        <time>2019-04-22T16:33:52.008Z</time>
      </trkpt>
      <trkpt lat="43.01165" lon="0.90653">
        <ele>400</ele>
        <time>2019-04-22T16:33:54.008Z</time>
      </trkpt>
      <trkpt lat="43.01178" lon="0.90657">
        <ele>400</ele>
        <time>2019-04-22T16:33:56.008Z</time>
      </trkpt>
      <trkpt lat="43.0119" lon="0.90657">
        <ele>400</ele>
        <time>2019-04-22T16:33:58.008Z</time>
      </trkpt>
      <trkpt lat="43.01201" lon="0.90656">
        <ele>400.1580032</ele>
        <time>2019-04-22T16:34:00.008Z</time>
      </trkpt>
      <trkpt lat="43.01209" lon="0.90656">
        <ele>400</ele>
        <time>2019-04-22T16:34:02.008Z</time>
      </trkpt>
      <trkpt lat="43.01221" lon="0.90656">
        <ele>400</ele>
        <time>2019-04-22T16:34:05.008Z</time>
      </trkpt>
      <trkpt lat="43.01229" lon="0.90658">
        <ele>400</ele>
        <time>2019-04-22T16:34:07.008Z</time>
      </trkpt>
      <trkpt lat="43.01237" lon="0.90661">
        <ele>400</ele>
        <time>2019-04-22T16:34:09.008Z</time>
      </trkpt>
      <trkpt lat="43.01245" lon="0.90665">
        <ele>400.1580032</ele>
        <time>2019-04-22T16:34:11.008Z</time>
      </trkpt>
      <trkpt lat="43.01254" lon="0.90671">
        <ele>401</ele>
        <time>2019-04-22T16:34:13.008Z</time>
      </trkpt>
      <trkpt lat="43.01263" lon="0.90677">
        <ele>401</ele>
        <time>2019-04-22T16:34:15.008Z</time>
      </trkpt>
      <trkpt lat="43.01272" lon="0.90682">
        <ele>401</ele>
        <time>2019-04-22T16:34:17.008Z</time>
      </trkpt>
      <trkpt lat="43.01286" lon="0.90687">
        <ele>401</ele>
        <time>2019-04-22T16:34:20.008Z</time>
      </trkpt>
      <trkpt lat="43.01295" lon="0.9069">
        <ele>402</ele>
        <time>2019-04-22T16:34:22.008Z</time>
      </trkpt>
      <trkpt lat="43.01306" lon="0.90692">
        <ele>402</ele>
        <time>2019-04-22T16:34:24.008Z</time>
      </trkpt>
      <trkpt lat="43.01321" lon="0.90696">
        <ele>402</ele>
        <time>2019-04-22T16:34:27.008Z</time>
      </trkpt>
      <trkpt lat="43.01335" lon="0.90698">
        <ele>402</ele>
        <time>2019-04-22T16:34:30.008Z</time>
      </trkpt>
      <trkpt lat="43.01349" lon="0.90699">
        <ele>402</ele>
        <time>2019-04-22T16:34:33.008Z</time>
      </trkpt>
      <trkpt lat="43.01362" lon="0.90702">
        <ele>402</ele>
        <time>2019-04-22T16:34:36.008Z</time>
      </trkpt>
      <trkpt lat="43.01374" lon="0.90705">
        <ele>402</ele>
        <time>2019-04-22T16:34:39.008Z</time>
      </trkpt>
      <trkpt lat="43.01386" lon="0.90707">
        <ele>403</ele>
        <time>2019-04-22T16:34:42.008Z</time>
      </trkpt>
      <trkpt lat="43.01398" lon="0.90712">
        <ele>403</ele>
        <time>2019-04-22T16:34:45.008Z</time>
      </trkpt>
      <trkpt lat="43.01409" lon="0.90718">
        <ele>403</ele>
        <time>2019-04-22T16:34:48.008Z</time>
      </trkpt>
      <trkpt lat="43.01421" lon="0.90728">
        <ele>402.6839936</ele>
        <time>2019-04-22T16:34:51.008Z</time>
      </trkpt>
      <trkpt lat="43.0143" lon="0.90739">
        <ele>401</ele>
        <time>2019-04-22T16:34:54.008Z</time>
      </trkpt>
      <trkpt lat="43.0144" lon="0.90749">
        <ele>401</ele>
        <time>2019-04-22T16:34:56.008Z</time>
      </trkpt>
      <trkpt lat="43.01452" lon="0.90758">
        <ele>401</ele>
        <time>2019-04-22T16:34:58.008Z</time>
      </trkpt>
      <trkpt lat="43.01464" lon="0.90763">
        <ele>401</ele>
        <time>2019-04-22T16:35:01.008Z</time>
      </trkpt>
      <trkpt lat="43.01474" lon="0.90769">
        <ele>401</ele>
        <time>2019-04-22T16:35:03.008Z</time>
      </trkpt>
      <trkpt lat="43.01485" lon="0.90779">
        <ele>401</ele>
        <time>2019-04-22T16:35:06.008Z</time>
      </trkpt>
      <trkpt lat="43.01496" lon="0.90789">
        <ele>401</ele>
        <time>2019-04-22T16:35:09.008Z</time>
      </trkpt>
      <trkpt lat="43.01504" lon="0.908">
        <ele>403</ele>
        <time>2019-04-22T16:35:13.008Z</time>
      </trkpt>
      <trkpt lat="43.01513" lon="0.90808">
        <ele>403</ele>
        <time>2019-04-22T16:35:17.008Z</time>
      </trkpt>
      <trkpt lat="43.01523" lon="0.90813">
        <ele>403</ele>
        <time>2019-04-22T16:36:16.008Z</time>
      </trkpt>
      <trkpt lat="43.01534" lon="0.90818">
        <ele>403</ele>
        <time>2019-04-22T16:36:23.008Z</time>
      </trkpt>
      <trkpt lat="43.01544" lon="0.90824">
        <ele>403</ele>
        <time>2019-04-22T16:36:26.008Z</time>
      </trkpt>
      <trkpt lat="43.01554" lon="0.9083">
        <ele>403</ele>
        <time>2019-04-22T16:36:29.008Z</time>
      </trkpt>
      <trkpt lat="43.01564" lon="0.90835">
        <ele>402</ele>
        <time>2019-04-22T16:36:32.008Z</time>
      </trkpt>
      <trkpt lat="43.01577" lon="0.90844">
        <ele>402</ele>
        <time>2019-04-22T16:36:35.008Z</time>
      </trkpt>
      <trkpt lat="43.01585" lon="0.90852">
        <ele>402</ele>
        <time>2019-04-22T16:36:37.008Z</time>
      </trkpt>
      <trkpt lat="43.01594" lon="0.90861">
        <ele>402</ele>
        <time>2019-04-22T16:36:39.008Z</time>
      </trkpt>
      <trkpt lat="43.01605" lon="0.9087">
        <ele>401.6839936</ele>
        <time>2019-04-22T16:36:41.008Z</time>
      </trkpt>
      <trkpt lat="43.01614" lon="0.9088">
        <ele>400</ele>
        <time>2019-04-22T16:36:43.008Z</time>
      </trkpt>
      <trkpt lat="43.01624" lon="0.90894">
        <ele>400</ele>
        <time>2019-04-22T16:36:45.008Z</time>
      </trkpt>
      <trkpt lat="43.01636" lon="0.90908">
        <ele>400</ele>
        <time>2019-04-22T16:36:47.008Z</time>
      </trkpt>
      <trkpt lat="43.01648" lon="0.90917">
        <ele>400</ele>
        <time>2019-04-22T16:36:49.008Z</time>
      </trkpt>
      <trkpt lat="43.01658" lon="0.90924">
        <ele>399.8419968</ele>
        <time>2019-04-22T16:36:51.008Z</time>
      </trkpt>
      <trkpt lat="43.01668" lon="0.90932">
        <ele>399</ele>
        <time>2019-04-22T16:36:53.008Z</time>
      </trkpt>
      <trkpt lat="43.01676" lon="0.90939">
        <ele>399</ele>
        <time>2019-04-22T16:36:55.008Z</time>
      </trkpt>
      <trkpt lat="43.01684" lon="0.90946">
        <ele>399</ele>
        <time>2019-04-22T16:36:57.008Z</time>
      </trkpt>
      <trkpt lat="43.01691" lon="0.90952">
        <ele>399</ele>
        <time>2019-04-22T16:36:59.008Z</time>
      </trkpt>
      <trkpt lat="43.01699" lon="0.90959">
        <ele>398.8419968</ele>
        <time>2019-04-22T16:37:01.008Z</time>
      </trkpt>
      <trkpt lat="43.01707" lon="0.90965">
        <ele>398</ele>
        <time>2019-04-22T16:37:03.008Z</time>
      </trkpt>
      <trkpt lat="43.01715" lon="0.90972">
        <ele>398</ele>
        <time>2019-04-22T16:37:05.008Z</time>
      </trkpt>
      <trkpt lat="43.01724" lon="0.90979">
        <ele>398</ele>
        <time>2019-04-22T16:37:07.008Z</time>
      </trkpt>
      <trkpt lat="43.01733" lon="0.90985">
        <ele>398</ele>
        <time>2019-04-22T16:37:09.008Z</time>
      </trkpt>
      <trkpt lat="43.01743" lon="0.90992">
        <ele>397.8419968</ele>
        <time>2019-04-22T16:37:11.008Z</time>
      </trkpt>
      <trkpt lat="43.01754" lon="0.90998">
        <ele>397</ele>
        <time>2019-04-22T16:37:13.008Z</time>
      </trkpt>
      <trkpt lat="43.01763" lon="0.91004">
        <ele>397</ele>
        <time>2019-04-22T16:37:15.008Z</time>
      </trkpt>
      <trkpt lat="43.01773" lon="0.91009">
        <ele>397</ele>
        <time>2019-04-22T16:37:17.008Z</time>
      </trkpt>
      <trkpt lat="43.01784" lon="0.91016">
        <ele>397</ele>
        <time>2019-04-22T16:37:19.008Z</time>
      </trkpt>
      <trkpt lat="43.01794" lon="0.91022">
        <ele>396.8419968</ele>
        <time>2019-04-22T16:37:21.008Z</time>
      </trkpt>
      <trkpt lat="43.01804" lon="0.91028">
        <ele>396</ele>
        <time>2019-04-22T16:37:23.008Z</time>
      </trkpt>
      <trkpt lat="43.0181" lon="0.91029">
        <ele>396</ele>
        <time>2019-04-22T16:37:24.008Z</time>
      </trkpt>
      <trkpt lat="43.01817" lon="0.91029">
        <ele>396</ele>
        <time>2019-04-22T16:37:25.008Z</time>
      </trkpt>
      <trkpt lat="43.01824" lon="0.91028">
        <ele>396</ele>
        <time>2019-04-22T16:37:26.008Z</time>
      </trkpt>
      <trkpt lat="43.01831" lon="0.91026">
        <ele>396</ele>
        <time>2019-04-22T16:37:27.008Z</time>
      </trkpt>
      <trkpt lat="43.01839" lon="0.91024">
        <ele>396</ele>
        <time>2019-04-22T16:37:28.008Z</time>
      </trkpt>
      <trkpt lat="43.01847" lon="0.91023">
        <ele>396</ele>
        <time>2019-04-22T16:37:29.008Z</time>
      </trkpt>
      <trkpt lat="43.01855" lon="0.91023">
        <ele>396</ele>
        <time>2019-04-22T16:37:30.008Z</time>
      </trkpt>
      <trkpt lat="43.01864" lon="0.91023">
        <ele>395.3679872</ele>
        <time>2019-04-22T16:37:31.008Z</time>
      </trkpt>
      <trkpt lat="43.01873" lon="0.91024">
        <ele>392</ele>
        <time>2019-04-22T16:37:32.008Z</time>
      </trkpt>
      <trkpt lat="43.01882" lon="0.91026">
        <ele>392</ele>
        <time>2019-04-22T16:37:33.008Z</time>
      </trkpt>
      <trkpt lat="43.01891" lon="0.91028">
        <ele>392</ele>
        <time>2019-04-22T16:37:34.008Z</time>
      </trkpt>
      <trkpt lat="43.019" lon="0.9103">
        <ele>392</ele>
        <time>2019-04-22T16:37:35.008Z</time>
      </trkpt>
      <trkpt lat="43.01909" lon="0.91031">
        <ele>391.209984</ele>
        <time>2019-04-22T16:37:36.008Z</time>
      </trkpt>
      <trkpt lat="43.01918" lon="0.91034">
        <ele>387</ele>
        <time>2019-04-22T16:37:37.008Z</time>
      </trkpt>
      <trkpt lat="43.01928" lon="0.91037">
        <ele>387</ele>
        <time>2019-04-22T16:37:38.008Z</time>
      </trkpt>
      <trkpt lat="43.01945" lon="0.91045">
        <ele>387</ele>
        <time>2019-04-22T16:37:40.008Z</time>
      </trkpt>
      <trkpt lat="43.01962" lon="0.91059">
        <ele>384.8419968</ele>
        <time>2019-04-22T16:37:42.008Z</time>
      </trkpt>
      <trkpt lat="43.01971" lon="0.91067">
        <ele>383.8419968</ele>
        <time>2019-04-22T16:37:43.008Z</time>
      </trkpt>
      <trkpt lat="43.01987" lon="0.91082">
        <ele>383</ele>
        <time>2019-04-22T16:37:45.008Z</time>
      </trkpt>
      <trkpt lat="43.02" lon="0.91096">
        <ele>383</ele>
        <time>2019-04-22T16:37:47.008Z</time>
      </trkpt>
      <trkpt lat="43.02013" lon="0.91109">
        <ele>383</ele>
        <time>2019-04-22T16:37:49.008Z</time>
      </trkpt>
      <trkpt lat="43.0203" lon="0.91119">
        <ele>383</ele>
        <time>2019-04-22T16:37:51.008Z</time>
      </trkpt>
      <trkpt lat="43.02044" lon="0.91121">
        <ele>383</ele>
        <time>2019-04-22T16:37:53.008Z</time>
      </trkpt>
      <trkpt lat="43.02058" lon="0.91124">
        <ele>383</ele>
        <time>2019-04-22T16:37:56.008Z</time>
      </trkpt>
      <trkpt lat="43.02069" lon="0.91132">
        <ele>383</ele>
        <time>2019-04-22T16:37:59.008Z</time>
      </trkpt>
      <trkpt lat="43.02073" lon="0.91147">
        <ele>386</ele>
        <time>2019-04-22T16:38:02.008Z</time>
      </trkpt>
      <trkpt lat="43.02077" lon="0.91164">
        <ele>386</ele>
        <time>2019-04-22T16:38:05.008Z</time>
      </trkpt>
      <trkpt lat="43.02081" lon="0.91182">
        <ele>386</ele>
        <time>2019-04-22T16:38:08.008Z</time>
      </trkpt>
      <trkpt lat="43.02088" lon="0.912">
        <ele>386</ele>
        <time>2019-04-22T16:38:11.008Z</time>
      </trkpt>
      <trkpt lat="43.02094" lon="0.91211">
        <ele>386</ele>
        <time>2019-04-22T16:38:13.008Z</time>
      </trkpt>
      <trkpt lat="43.02103" lon="0.91217">
        <ele>386</ele>
        <time>2019-04-22T16:38:15.008Z</time>
      </trkpt>
      <trkpt lat="43.02113" lon="0.91222">
        <ele>386</ele>
        <time>2019-04-22T16:38:17.008Z</time>
      </trkpt>
      <trkpt lat="43.02122" lon="0.91226">
        <ele>386</ele>
        <time>2019-04-22T16:38:19.008Z</time>
      </trkpt>
      <trkpt lat="43.02131" lon="0.91231">
        <ele>386.1580032</ele>
        <time>2019-04-22T16:38:21.008Z</time>
      </trkpt>
      <trkpt lat="43.0214" lon="0.91237">
        <ele>387</ele>
        <time>2019-04-22T16:38:23.008Z</time>
      </trkpt>
      <trkpt lat="43.02148" lon="0.91245">
        <ele>387</ele>
        <time>2019-04-22T16:38:25.008Z</time>
      </trkpt>
      <trkpt lat="43.02157" lon="0.91252">
        <ele>387</ele>
        <time>2019-04-22T16:38:27.008Z</time>
      </trkpt>
      <trkpt lat="43.02165" lon="0.91259">
        <ele>387</ele>
        <time>2019-04-22T16:38:29.008Z</time>
      </trkpt>
      <trkpt lat="43.02175" lon="0.91271">
        <ele>387</ele>
        <time>2019-04-22T16:38:32.008Z</time>
      </trkpt>
      <trkpt lat="43.02181" lon="0.91279">
        <ele>387</ele>
        <time>2019-04-22T16:38:34.008Z</time>
      </trkpt>
      <trkpt lat="43.02186" lon="0.91288">
        <ele>387</ele>
        <time>2019-04-22T16:38:36.008Z</time>
      </trkpt>
      <trkpt lat="43.02192" lon="0.91298">
        <ele>387</ele>
        <time>2019-04-22T16:38:38.008Z</time>
      </trkpt>
      <trkpt lat="43.02197" lon="0.91308">
        <ele>387</ele>
        <time>2019-04-22T16:38:40.008Z</time>
      </trkpt>
      <trkpt lat="43.02203" lon="0.9132">
        <ele>387</ele>
        <time>2019-04-22T16:38:42.008Z</time>
      </trkpt>
      <trkpt lat="43.02208" lon="0.91334">
        <ele>387</ele>
        <time>2019-04-22T16:38:44.008Z</time>
      </trkpt>
      <trkpt lat="43.02211" lon="0.91342">
        <ele>387</ele>
        <time>2019-04-22T16:38:45.008Z</time>
      </trkpt>
      <trkpt lat="43.02213" lon="0.91351">
        <ele>387</ele>
        <time>2019-04-22T16:38:46.008Z</time>
      </trkpt>
      <trkpt lat="43.02215" lon="0.9136">
        <ele>387</ele>
        <time>2019-04-22T16:38:47.008Z</time>
      </trkpt>
      <trkpt lat="43.02217" lon="0.9137">
        <ele>387</ele>
        <time>2019-04-22T16:38:48.008Z</time>
      </trkpt>
      <trkpt lat="43.02219" lon="0.91379">
        <ele>387</ele>
        <time>2019-04-22T16:38:49.008Z</time>
      </trkpt>
      <trkpt lat="43.02222" lon="0.91388">
        <ele>387</ele>
        <time>2019-04-22T16:38:50.008Z</time>
      </trkpt>
      <trkpt lat="43.02229" lon="0.91404">
        <ele>384</ele>
        <time>2019-04-22T16:38:52.008Z</time>
      </trkpt>
      <trkpt lat="43.02239" lon="0.91416">
        <ele>384</ele>
        <time>2019-04-22T16:38:54.008Z</time>
      </trkpt>
      <trkpt lat="43.02248" lon="0.91428">
        <ele>383.8419968</ele>
        <time>2019-04-22T16:38:56.008Z</time>
      </trkpt>
      <trkpt lat="43.02254" lon="0.91442">
        <ele>383</ele>
        <time>2019-04-22T16:38:58.008Z</time>
      </trkpt>
      <trkpt lat="43.02257" lon="0.91455">
        <ele>383</ele>
        <time>2019-04-22T16:39:00.008Z</time>
      </trkpt>
      <trkpt lat="43.02261" lon="0.91468">
        <ele>383</ele>
        <time>2019-04-22T16:39:02.008Z</time>
      </trkpt>
      <trkpt lat="43.02265" lon="0.9148">
        <ele>383</ele>
        <time>2019-04-22T16:39:04.008Z</time>
      </trkpt>
      <trkpt lat="43.0227" lon="0.91497">
        <ele>383</ele>
        <time>2019-04-22T16:39:07.008Z</time>
      </trkpt>
      <trkpt lat="43.02273" lon="0.9151">
        <ele>383</ele>
        <time>2019-04-22T16:39:09.008Z</time>
      </trkpt>
      <trkpt lat="43.02276" lon="0.91522">
        <ele>383</ele>
        <time>2019-04-22T16:39:11.008Z</time>
      </trkpt>
      <trkpt lat="43.02279" lon="0.91535">
        <ele>383</ele>
        <time>2019-04-22T16:39:13.008Z</time>
      </trkpt>
      <trkpt lat="43.0228" lon="0.91542">
        <ele>382.8419968</ele>
        <time>2019-04-22T16:39:14.008Z</time>
      </trkpt>
      <trkpt lat="43.02281" lon="0.91548">
        <ele>382</ele>
        <time>2019-04-22T16:39:15.008Z</time>
      </trkpt>
      <trkpt lat="43.02283" lon="0.91555">
        <ele>382</ele>
        <time>2019-04-22T16:39:16.008Z</time>
      </trkpt>
      <trkpt lat="43.02284" lon="0.91561">
        <ele>382</ele>
        <time>2019-04-22T16:39:17.008Z</time>
      </trkpt>
      <trkpt lat="43.02286" lon="0.91567">
        <ele>382</ele>
        <time>2019-04-22T16:39:18.008Z</time>
      </trkpt>
      <trkpt lat="43.02287" lon="0.91573">
        <ele>382</ele>
        <time>2019-04-22T16:39:19.008Z</time>
      </trkpt>
      <trkpt lat="43.02289" lon="0.91585">
        <ele>382</ele>
        <time>2019-04-22T16:39:21.008Z</time>
      </trkpt>
      <trkpt lat="43.02292" lon="0.91598">
        <ele>382</ele>
        <time>2019-04-22T16:39:23.008Z</time>
      </trkpt>
      <trkpt lat="43.02294" lon="0.91611">
        <ele>382</ele>
        <time>2019-04-22T16:39:25.008Z</time>
      </trkpt>
      <trkpt lat="43.02297" lon="0.91625">
        <ele>382</ele>
        <time>2019-04-22T16:39:27.008Z</time>
      </trkpt>
      <trkpt lat="43.02301" lon="0.91638">
        <ele>381</ele>
        <time>2019-04-22T16:39:29.008Z</time>
      </trkpt>
      <trkpt lat="43.02305" lon="0.91651">
        <ele>381</ele>
        <time>2019-04-22T16:39:31.008Z</time>
      </trkpt>
      <trkpt lat="43.02308" lon="0.91665">
        <ele>381</ele>
        <time>2019-04-22T16:39:33.008Z</time>
      </trkpt>
      <trkpt lat="43.02313" lon="0.91678">
        <ele>381</ele>
        <time>2019-04-22T16:39:35.008Z</time>
      </trkpt>
      <trkpt lat="43.02318" lon="0.91695">
        <ele>381</ele>
        <time>2019-04-22T16:39:38.008Z</time>
      </trkpt>
      <trkpt lat="43.02323" lon="0.91713">
        <ele>381</ele>
        <time>2019-04-22T16:39:41.008Z</time>
      </trkpt>
      <trkpt lat="43.02327" lon="0.91732">
        <ele>380</ele>
        <time>2019-04-22T16:39:44.008Z</time>
      </trkpt>
      <trkpt lat="43.02333" lon="0.91749">
        <ele>380</ele>
        <time>2019-04-22T16:39:47.008Z</time>
      </trkpt>
      <trkpt lat="43.02338" lon="0.91764">
        <ele>380</ele>
        <time>2019-04-22T16:39:49.008Z</time>
      </trkpt>
      <trkpt lat="43.0234" lon="0.91777">
        <ele>380</ele>
        <time>2019-04-22T16:39:51.008Z</time>
      </trkpt>
      <trkpt lat="43.02343" lon="0.91794">
        <ele>380</ele>
        <time>2019-04-22T16:39:53.008Z</time>
      </trkpt>
      <trkpt lat="43.02346" lon="0.91809">
        <ele>380</ele>
        <time>2019-04-22T16:39:55.008Z</time>
      </trkpt>
      <trkpt lat="43.02349" lon="0.91824">
        <ele>380</ele>
        <time>2019-04-22T16:39:57.008Z</time>
      </trkpt>
      <trkpt lat="43.02352" lon="0.91838">
        <ele>380</ele>
        <time>2019-04-22T16:39:59.008Z</time>
      </trkpt>
      <trkpt lat="43.02356" lon="0.91852">
        <ele>379.6839936</ele>
        <time>2019-04-22T16:40:01.008Z</time>
      </trkpt>
      <trkpt lat="43.02362" lon="0.91864">
        <ele>378</ele>
        <time>2019-04-22T16:40:03.008Z</time>
      </trkpt>
      <trkpt lat="43.02368" lon="0.91879">
        <ele>378</ele>
        <time>2019-04-22T16:40:06.008Z</time>
      </trkpt>
      <trkpt lat="43.02375" lon="0.9189">
        <ele>378</ele>
        <time>2019-04-22T16:40:09.008Z</time>
      </trkpt>
      <trkpt lat="43.02382" lon="0.91905">
        <ele>380</ele>
        <time>2019-04-22T16:40:12.008Z</time>
      </trkpt>
      <trkpt lat="43.02388" lon="0.91918">
        <ele>380</ele>
        <time>2019-04-22T16:40:15.008Z</time>
      </trkpt>
      <trkpt lat="43.02395" lon="0.91931">
        <ele>380</ele>
        <time>2019-04-22T16:40:18.008Z</time>
      </trkpt>
      <trkpt lat="43.024" lon="0.9195">
        <ele>379.6839936</ele>
        <time>2019-04-22T16:40:21.008Z</time>
      </trkpt>
      <trkpt lat="43.02402" lon="0.91964">
        <ele>378</ele>
        <time>2019-04-22T16:40:23.008Z</time>
      </trkpt>
      <trkpt lat="43.02406" lon="0.91976">
        <ele>378</ele>
        <time>2019-04-22T16:40:25.008Z</time>
      </trkpt>
      <trkpt lat="43.02416" lon="0.91982">
        <ele>378</ele>
        <time>2019-04-22T16:40:28.008Z</time>
      </trkpt>
      <trkpt lat="43.02428" lon="0.91984">
        <ele>379</ele>
        <time>2019-04-22T16:40:33.008Z</time>
      </trkpt>
      <trkpt lat="43.02437" lon="0.91987">
        <ele>379</ele>
        <time>2019-04-22T16:40:36.008Z</time>
      </trkpt>
      <trkpt lat="43.0245" lon="0.91996">
        <ele>379</ele>
        <time>2019-04-22T16:40:39.008Z</time>
      </trkpt>
      <trkpt lat="43.02457" lon="0.92009">
        <ele>380</ele>
        <time>2019-04-22T16:40:42.008Z</time>
      </trkpt>
      <trkpt lat="43.02464" lon="0.92019">
        <ele>380</ele>
        <time>2019-04-22T16:40:45.008Z</time>
      </trkpt>
      <trkpt lat="43.02471" lon="0.92031">
        <ele>380</ele>
        <time>2019-04-22T16:40:49.008Z</time>
      </trkpt>
      <trkpt lat="43.02479" lon="0.9204">
        <ele>380</ele>
        <time>2019-04-22T16:40:52.008Z</time>
      </trkpt>
      <trkpt lat="43.02486" lon="0.92051">
        <ele>380</ele>
        <time>2019-04-22T16:40:56.008Z</time>
      </trkpt>
      <trkpt lat="43.02495" lon="0.92061">
        <ele>380</ele>
        <time>2019-04-22T16:40:59.008Z</time>
      </trkpt>
      <trkpt lat="43.02503" lon="0.92071">
        <ele>383</ele>
        <time>2019-04-22T16:41:02.008Z</time>
      </trkpt>
      <trkpt lat="43.02511" lon="0.9208">
        <ele>383</ele>
        <time>2019-04-22T16:41:05.008Z</time>
      </trkpt>
      <trkpt lat="43.02519" lon="0.92087">
        <ele>384</ele>
        <time>2019-04-22T16:41:08.008Z</time>
      </trkpt>
      <trkpt lat="43.02528" lon="0.92092">
        <ele>384.1580032</ele>
        <time>2019-04-22T16:41:11.008Z</time>
      </trkpt>
      <trkpt lat="43.02538" lon="0.92101">
        <ele>385</ele>
        <time>2019-04-22T16:41:15.008Z</time>
      </trkpt>
      <trkpt lat="43.02545" lon="0.92105">
        <ele>385</ele>
        <time>2019-04-22T16:41:17.008Z</time>
      </trkpt>
      <trkpt lat="43.02556" lon="0.92112">
        <ele>385</ele>
        <time>2019-04-22T16:41:20.008Z</time>
      </trkpt>
      <trkpt lat="43.02565" lon="0.92119">
        <ele>385</ele>
        <time>2019-04-22T16:41:22.008Z</time>
      </trkpt>
      <trkpt lat="43.02576" lon="0.92127">
        <ele>385</ele>
        <time>2019-04-22T16:41:24.008Z</time>
      </trkpt>
      <trkpt lat="43.02587" lon="0.92136">
        <ele>385</ele>
        <time>2019-04-22T16:41:26.008Z</time>
      </trkpt>
      <trkpt lat="43.02594" lon="0.92151">
        <ele>385</ele>
        <time>2019-04-22T16:41:28.008Z</time>
      </trkpt>
      <trkpt lat="43.026" lon="0.92165">
        <ele>385</ele>
        <time>2019-04-22T16:41:30.008Z</time>
      </trkpt>
      <trkpt lat="43.02607" lon="0.92176">
        <ele>384</ele>
        <time>2019-04-22T16:41:32.008Z</time>
      </trkpt>
      <trkpt lat="43.02611" lon="0.92186">
        <ele>384</ele>
        <time>2019-04-22T16:41:34.008Z</time>
      </trkpt>
      <trkpt lat="43.02615" lon="0.92197">
        <ele>384</ele>
        <time>2019-04-22T16:41:36.008Z</time>
      </trkpt>
      <trkpt lat="43.02615" lon="0.92207">
        <ele>384</ele>
        <time>2019-04-22T16:41:38.008Z</time>
      </trkpt>
      <trkpt lat="43.02615" lon="0.92217">
        <ele>384</ele>
        <time>2019-04-22T16:41:40.008Z</time>
      </trkpt>
      <trkpt lat="43.02614" lon="0.92226">
        <ele>385</ele>
        <time>2019-04-22T16:41:42.008Z</time>
      </trkpt>
      <trkpt lat="43.02615" lon="0.92236">
        <ele>385</ele>
        <time>2019-04-22T16:41:44.008Z</time>
      </trkpt>
      <trkpt lat="43.02616" lon="0.92244">
        <ele>385</ele>
        <time>2019-04-22T16:41:46.008Z</time>
      </trkpt>
      <trkpt lat="43.02618" lon="0.92252">
        <ele>385</ele>
        <time>2019-04-22T16:41:48.008Z</time>
      </trkpt>
      <trkpt lat="43.0262" lon="0.9226">
        <ele>385</ele>
        <time>2019-04-22T16:41:50.008Z</time>
      </trkpt>
      <trkpt lat="43.02622" lon="0.92269">
        <ele>388</ele>
        <time>2019-04-22T16:41:52.008Z</time>
      </trkpt>
      <trkpt lat="43.02625" lon="0.92276">
        <ele>388</ele>
        <time>2019-04-22T16:41:54.008Z</time>
      </trkpt>
      <trkpt lat="43.02628" lon="0.92284">
        <ele>388.4740096</ele>
        <time>2019-04-22T16:41:56.008Z</time>
      </trkpt>
      <trkpt lat="43.02632" lon="0.92291">
        <ele>391</ele>
        <time>2019-04-22T16:41:58.008Z</time>
      </trkpt>
      <trkpt lat="43.02635" lon="0.92298">
        <ele>390</ele>
        <time>2019-04-22T16:42:00.008Z</time>
      </trkpt>
      <trkpt lat="43.02639" lon="0.92305">
        <ele>392</ele>
        <time>2019-04-22T16:42:02.008Z</time>
      </trkpt>
      <trkpt lat="43.02643" lon="0.92312">
        <ele>392</ele>
        <time>2019-04-22T16:42:04.008Z</time>
      </trkpt>
      <trkpt lat="43.02647" lon="0.92319">
        <ele>392.3160064</ele>
        <time>2019-04-22T16:42:06.008Z</time>
      </trkpt>
      <trkpt lat="43.02653" lon="0.92331">
        <ele>394</ele>
        <time>2019-04-22T16:42:10.008Z</time>
      </trkpt>
      <trkpt lat="43.02658" lon="0.92342">
        <ele>396</ele>
        <time>2019-04-22T16:42:13.008Z</time>
      </trkpt>
      <trkpt lat="43.0266" lon="0.9235">
        <ele>395.8419968</ele>
        <time>2019-04-22T16:42:15.008Z</time>
      </trkpt>
      <trkpt lat="43.02662" lon="0.92359">
        <ele>395</ele>
        <time>2019-04-22T16:42:17.008Z</time>
      </trkpt>
      <trkpt lat="43.02663" lon="0.92368">
        <ele>395</ele>
        <time>2019-04-22T16:42:19.008Z</time>
      </trkpt>
      <trkpt lat="43.02664" lon="0.92376">
        <ele>395</ele>
        <time>2019-04-22T16:42:21.008Z</time>
      </trkpt>
      <trkpt lat="43.02666" lon="0.92385">
        <ele>395</ele>
        <time>2019-04-22T16:42:23.008Z</time>
      </trkpt>
      <trkpt lat="43.02666" lon="0.92397">
        <ele>395</ele>
        <time>2019-04-22T16:42:25.008Z</time>
      </trkpt>
      <trkpt lat="43.02666" lon="0.92404">
        <ele>395</ele>
        <time>2019-04-22T16:42:26.008Z</time>
      </trkpt>
      <trkpt lat="43.02665" lon="0.92412">
        <ele>395</ele>
        <time>2019-04-22T16:42:27.008Z</time>
      </trkpt>
      <trkpt lat="43.02665" lon="0.92419">
        <ele>395</ele>
        <time>2019-04-22T16:42:28.008Z</time>
      </trkpt>
      <trkpt lat="43.02664" lon="0.92427">
        <ele>395</ele>
        <time>2019-04-22T16:42:29.008Z</time>
      </trkpt>
      <trkpt lat="43.02664" lon="0.92435">
        <ele>395</ele>
        <time>2019-04-22T16:42:30.008Z</time>
      </trkpt>
      <trkpt lat="43.02664" lon="0.92443">
        <ele>394.8419968</ele>
        <time>2019-04-22T16:42:31.008Z</time>
      </trkpt>
      <trkpt lat="43.02664" lon="0.92458">
        <ele>394</ele>
        <time>2019-04-22T16:42:33.008Z</time>
      </trkpt>
      <trkpt lat="43.02664" lon="0.92465">
        <ele>394</ele>
        <time>2019-04-22T16:42:34.008Z</time>
      </trkpt>
      <trkpt lat="43.02665" lon="0.92479">
        <ele>394</ele>
        <time>2019-04-22T16:42:36.008Z</time>
      </trkpt>
      <trkpt lat="43.02666" lon="0.92491">
        <ele>394</ele>
        <time>2019-04-22T16:42:38.008Z</time>
      </trkpt>
      <trkpt lat="43.02667" lon="0.92497">
        <ele>394</ele>
        <time>2019-04-22T16:42:39.008Z</time>
      </trkpt>
      <trkpt lat="43.02667" lon="0.92503">
        <ele>394</ele>
        <time>2019-04-22T16:42:40.008Z</time>
      </trkpt>
      <trkpt lat="43.02669" lon="0.92509">
        <ele>394</ele>
        <time>2019-04-22T16:42:41.008Z</time>
      </trkpt>
      <trkpt lat="43.0267" lon="0.92515">
        <ele>394</ele>
        <time>2019-04-22T16:42:42.008Z</time>
      </trkpt>
      <trkpt lat="43.0267" lon="0.9252">
        <ele>393.8419968</ele>
        <time>2019-04-22T16:42:43.008Z</time>
      </trkpt>
      <trkpt lat="43.02671" lon="0.92526">
        <ele>393</ele>
        <time>2019-04-22T16:42:44.008Z</time>
      </trkpt>
      <trkpt lat="43.0267" lon="0.92532">
        <ele>393</ele>
        <time>2019-04-22T16:42:45.008Z</time>
      </trkpt>
      <trkpt lat="43.0267" lon="0.92537">
        <ele>393</ele>
        <time>2019-04-22T16:42:46.008Z</time>
      </trkpt>
      <trkpt lat="43.02667" lon="0.92547">
        <ele>393</ele>
        <time>2019-04-22T16:42:48.008Z</time>
      </trkpt>
      <trkpt lat="43.02664" lon="0.92557">
        <ele>393</ele>
        <time>2019-04-22T16:42:50.008Z</time>
      </trkpt>
      <trkpt lat="43.02661" lon="0.92566">
        <ele>395</ele>
        <time>2019-04-22T16:42:52.008Z</time>
      </trkpt>
      <trkpt lat="43.02658" lon="0.92574">
        <ele>395</ele>
        <time>2019-04-22T16:42:54.008Z</time>
      </trkpt>
      <trkpt lat="43.02656" lon="0.92583">
        <ele>395</ele>
        <time>2019-04-22T16:42:56.008Z</time>
      </trkpt>
      <trkpt lat="43.02654" lon="0.92597">
        <ele>395</ele>
        <time>2019-04-22T16:42:59.008Z</time>
      </trkpt>
      <trkpt lat="43.02652" lon="0.92606">
        <ele>395.4740096</ele>
        <time>2019-04-22T16:43:01.008Z</time>
      </trkpt>
      <trkpt lat="43.02651" lon="0.92615">
        <ele>398</ele>
        <time>2019-04-22T16:43:03.008Z</time>
      </trkpt>
      <trkpt lat="43.02649" lon="0.92624">
        <ele>398</ele>
        <time>2019-04-22T16:43:05.008Z</time>
      </trkpt>
      <trkpt lat="43.02649" lon="0.92633">
        <ele>398</ele>
        <time>2019-04-22T16:43:07.008Z</time>
      </trkpt>
      <trkpt lat="43.02649" lon="0.92646">
        <ele>398</ele>
        <time>2019-04-22T16:43:10.008Z</time>
      </trkpt>
      <trkpt lat="43.02649" lon="0.92658">
        <ele>399</ele>
        <time>2019-04-22T16:43:13.008Z</time>
      </trkpt>
      <trkpt lat="43.02649" lon="0.92667">
        <ele>399</ele>
        <time>2019-04-22T16:43:15.008Z</time>
      </trkpt>
      <trkpt lat="43.0265" lon="0.92674">
        <ele>399</ele>
        <time>2019-04-22T16:43:17.008Z</time>
      </trkpt>
      <trkpt lat="43.02653" lon="0.92683">
        <ele>399</ele>
        <time>2019-04-22T16:43:20.008Z</time>
      </trkpt>
      <trkpt lat="43.02658" lon="0.92686">
        <ele>399</ele>
        <time>2019-04-22T16:43:22.008Z</time>
      </trkpt>
      <trkpt lat="43.02668" lon="0.92685">
        <ele>399</ele>
        <time>2019-04-22T16:43:24.008Z</time>
      </trkpt>
      <trkpt lat="43.02682" lon="0.92683">
        <ele>399</ele>
        <time>2019-04-22T16:43:26.008Z</time>
      </trkpt>
      <trkpt lat="43.02691" lon="0.92683">
        <ele>399</ele>
        <time>2019-04-22T16:43:27.008Z</time>
      </trkpt>
      <trkpt lat="43.027" lon="0.92685">
        <ele>399</ele>
        <time>2019-04-22T16:43:28.008Z</time>
      </trkpt>
      <trkpt lat="43.0271" lon="0.92688">
        <ele>399</ele>
        <time>2019-04-22T16:43:29.008Z</time>
      </trkpt>
      <trkpt lat="43.0272" lon="0.92692">
        <ele>399</ele>
        <time>2019-04-22T16:43:30.008Z</time>
      </trkpt>
      <trkpt lat="43.0273" lon="0.92696">
        <ele>398.209984</ele>
        <time>2019-04-22T16:43:31.008Z</time>
      </trkpt>
      <trkpt lat="43.0274" lon="0.927">
        <ele>393.3679872</ele>
        <time>2019-04-22T16:43:32.008Z</time>
      </trkpt>
      <trkpt lat="43.02751" lon="0.92702">
        <ele>389.8419968</ele>
        <time>2019-04-22T16:43:33.008Z</time>
      </trkpt>
      <trkpt lat="43.02761" lon="0.92704">
        <ele>388.8419968</ele>
        <time>2019-04-22T16:43:34.008Z</time>
      </trkpt>
      <trkpt lat="43.02772" lon="0.92706">
        <ele>388</ele>
        <time>2019-04-22T16:43:35.008Z</time>
      </trkpt>
      <trkpt lat="43.02783" lon="0.92708">
        <ele>388</ele>
        <time>2019-04-22T16:43:36.008Z</time>
      </trkpt>
      <trkpt lat="43.02793" lon="0.92709">
        <ele>387.8419968</ele>
        <time>2019-04-22T16:43:37.008Z</time>
      </trkpt>
      <trkpt lat="43.02804" lon="0.9271">
        <ele>387</ele>
        <time>2019-04-22T16:43:38.008Z</time>
      </trkpt>
      <trkpt lat="43.02814" lon="0.92711">
        <ele>386.8419968</ele>
        <time>2019-04-22T16:43:39.008Z</time>
      </trkpt>
      <trkpt lat="43.02825" lon="0.92712">
        <ele>386</ele>
        <time>2019-04-22T16:43:40.008Z</time>
      </trkpt>
      <trkpt lat="43.02835" lon="0.92713">
        <ele>385.8419968</ele>
        <time>2019-04-22T16:43:41.008Z</time>
      </trkpt>
      <trkpt lat="43.02844" lon="0.92713">
        <ele>384.8419968</ele>
        <time>2019-04-22T16:43:42.008Z</time>
      </trkpt>
      <trkpt lat="43.02855" lon="0.92713">
        <ele>384</ele>
        <time>2019-04-22T16:43:43.008Z</time>
      </trkpt>
      <trkpt lat="43.02865" lon="0.92714">
        <ele>384</ele>
        <time>2019-04-22T16:43:44.008Z</time>
      </trkpt>
      <trkpt lat="43.02875" lon="0.92714">
        <ele>383.8419968</ele>
        <time>2019-04-22T16:43:45.008Z</time>
      </trkpt>
      <trkpt lat="43.02885" lon="0.92714">
        <ele>382.8419968</ele>
        <time>2019-04-22T16:43:46.008Z</time>
      </trkpt>
      <trkpt lat="43.02894" lon="0.92714">
        <ele>381.8419968</ele>
        <time>2019-04-22T16:43:47.008Z</time>
      </trkpt>
      <trkpt lat="43.0291" lon="0.92715">
        <ele>380</ele>
        <time>2019-04-22T16:43:49.008Z</time>
      </trkpt>
      <trkpt lat="43.02921" lon="0.9272">
        <ele>378.8419968</ele>
        <time>2019-04-22T16:43:51.008Z</time>
      </trkpt>
      <trkpt lat="43.02927" lon="0.92731">
        <ele>377</ele>
        <time>2019-04-22T16:43:53.008Z</time>
      </trkpt>
      <trkpt lat="43.02932" lon="0.92744">
        <ele>375.8419968</ele>
        <time>2019-04-22T16:43:55.008Z</time>
      </trkpt>
      <trkpt lat="43.02935" lon="0.92751">
        <ele>374.8419968</ele>
        <time>2019-04-22T16:43:56.008Z</time>
      </trkpt>
      <trkpt lat="43.02939" lon="0.92759">
        <ele>373.8419968</ele>
        <time>2019-04-22T16:43:57.008Z</time>
      </trkpt>
      <trkpt lat="43.02944" lon="0.92767">
        <ele>373</ele>
        <time>2019-04-22T16:43:58.008Z</time>
      </trkpt>
      <trkpt lat="43.02949" lon="0.92776">
        <ele>372.8419968</ele>
        <time>2019-04-22T16:43:59.008Z</time>
      </trkpt>
      <trkpt lat="43.02954" lon="0.92784">
        <ele>371.8419968</ele>
        <time>2019-04-22T16:44:00.008Z</time>
      </trkpt>
      <trkpt lat="43.02958" lon="0.92793">
        <ele>370.8419968</ele>
        <time>2019-04-22T16:44:01.008Z</time>
      </trkpt>
      <trkpt lat="43.02963" lon="0.928">
        <ele>370</ele>
        <time>2019-04-22T16:44:02.008Z</time>
      </trkpt>
      <trkpt lat="43.02968" lon="0.92807">
        <ele>369.8419968</ele>
        <time>2019-04-22T16:44:03.008Z</time>
      </trkpt>
      <trkpt lat="43.02975" lon="0.9281">
        <ele>368.8419968</ele>
        <time>2019-04-22T16:44:04.008Z</time>
      </trkpt>
      <trkpt lat="43.02983" lon="0.92812">
        <ele>368</ele>
        <time>2019-04-22T16:44:05.008Z</time>
      </trkpt>
      <trkpt lat="43.02992" lon="0.92813">
        <ele>367.8419968</ele>
        <time>2019-04-22T16:44:06.008Z</time>
      </trkpt>
      <trkpt lat="43.03001" lon="0.92813">
        <ele>366.8419968</ele>
        <time>2019-04-22T16:44:07.008Z</time>
      </trkpt>
      <trkpt lat="43.03011" lon="0.92811">
        <ele>366</ele>
        <time>2019-04-22T16:44:08.008Z</time>
      </trkpt>
      <trkpt lat="43.03021" lon="0.92811">
        <ele>366</ele>
        <time>2019-04-22T16:44:09.008Z</time>
      </trkpt>
      <trkpt lat="43.03031" lon="0.9281">
        <ele>366</ele>
        <time>2019-04-22T16:44:10.008Z</time>
      </trkpt>
      <trkpt lat="43.0304" lon="0.92811">
        <ele>366</ele>
        <time>2019-04-22T16:44:11.008Z</time>
      </trkpt>
      <trkpt lat="43.0305" lon="0.92812">
        <ele>366</ele>
        <time>2019-04-22T16:44:12.008Z</time>
      </trkpt>
      <trkpt lat="43.03059" lon="0.92815">
        <ele>366</ele>
        <time>2019-04-22T16:44:13.008Z</time>
      </trkpt>
      <trkpt lat="43.03068" lon="0.92818">
        <ele>366</ele>
        <time>2019-04-22T16:44:14.008Z</time>
      </trkpt>
      <trkpt lat="43.03076" lon="0.92821">
        <ele>366</ele>
        <time>2019-04-22T16:44:15.008Z</time>
      </trkpt>
      <trkpt lat="43.03084" lon="0.92826">
        <ele>365.5259904</ele>
        <time>2019-04-22T16:44:16.008Z</time>
      </trkpt>
      <trkpt lat="43.03092" lon="0.9283">
        <ele>363</ele>
        <time>2019-04-22T16:44:17.008Z</time>
      </trkpt>
      <trkpt lat="43.03099" lon="0.92834">
        <ele>363</ele>
        <time>2019-04-22T16:44:18.008Z</time>
      </trkpt>
      <trkpt lat="43.03107" lon="0.92838">
        <ele>363</ele>
        <time>2019-04-22T16:44:19.008Z</time>
      </trkpt>
      <trkpt lat="43.03114" lon="0.92842">
        <ele>363</ele>
        <time>2019-04-22T16:44:20.008Z</time>
      </trkpt>
      <trkpt lat="43.03122" lon="0.92847">
        <ele>362.6839936</ele>
        <time>2019-04-22T16:44:21.008Z</time>
      </trkpt>
      <trkpt lat="43.03129" lon="0.9285">
        <ele>360.8419968</ele>
        <time>2019-04-22T16:44:22.008Z</time>
      </trkpt>
      <trkpt lat="43.03137" lon="0.92854">
        <ele>360.1580032</ele>
        <time>2019-04-22T16:44:23.008Z</time>
      </trkpt>
      <trkpt lat="43.03144" lon="0.92856">
        <ele>361</ele>
        <time>2019-04-22T16:44:24.008Z</time>
      </trkpt>
      <trkpt lat="43.03152" lon="0.92859">
        <ele>361</ele>
        <time>2019-04-22T16:44:25.008Z</time>
      </trkpt>
      <trkpt lat="43.03159" lon="0.92861">
        <ele>361.1580032</ele>
        <time>2019-04-22T16:44:26.008Z</time>
      </trkpt>
      <trkpt lat="43.03166" lon="0.92865">
        <ele>362</ele>
        <time>2019-04-22T16:44:27.008Z</time>
      </trkpt>
      <trkpt lat="43.03173" lon="0.92869">
        <ele>362</ele>
        <time>2019-04-22T16:44:28.008Z</time>
      </trkpt>
      <trkpt lat="43.03179" lon="0.92873">
        <ele>362</ele>
        <time>2019-04-22T16:44:29.008Z</time>
      </trkpt>
      <trkpt lat="43.03186" lon="0.92878">
        <ele>361.8419968</ele>
        <time>2019-04-22T16:44:30.008Z</time>
      </trkpt>
      <trkpt lat="43.03193" lon="0.92883">
        <ele>361.1580032</ele>
        <time>2019-04-22T16:44:31.008Z</time>
      </trkpt>
      <trkpt lat="43.032" lon="0.92888">
        <ele>362</ele>
        <time>2019-04-22T16:44:32.008Z</time>
      </trkpt>
      <trkpt lat="43.03207" lon="0.92893">
        <ele>361.8419968</ele>
        <time>2019-04-22T16:44:33.008Z</time>
      </trkpt>
      <trkpt lat="43.03213" lon="0.92897">
        <ele>361</ele>
        <time>2019-04-22T16:44:34.008Z</time>
      </trkpt>
      <trkpt lat="43.0322" lon="0.92902">
        <ele>361</ele>
        <time>2019-04-22T16:44:35.008Z</time>
      </trkpt>
      <trkpt lat="43.03226" lon="0.92905">
        <ele>361</ele>
        <time>2019-04-22T16:44:36.008Z</time>
      </trkpt>
      <trkpt lat="43.0324" lon="0.92907">
        <ele>361</ele>
        <time>2019-04-22T16:44:38.008Z</time>
      </trkpt>
      <trkpt lat="43.03252" lon="0.9291">
        <ele>361</ele>
        <time>2019-04-22T16:44:40.008Z</time>
      </trkpt>
      <trkpt lat="43.03265" lon="0.92912">
        <ele>360</ele>
        <time>2019-04-22T16:44:42.008Z</time>
      </trkpt>
      <trkpt lat="43.03278" lon="0.92916">
        <ele>360</ele>
        <time>2019-04-22T16:44:44.008Z</time>
      </trkpt>
      <trkpt lat="43.03284" lon="0.92919">
        <ele>360</ele>
        <time>2019-04-22T16:44:45.008Z</time>
      </trkpt>
      <trkpt lat="43.03291" lon="0.92923">
        <ele>360</ele>
        <time>2019-04-22T16:44:46.008Z</time>
      </trkpt>
      <trkpt lat="43.03304" lon="0.92929">
        <ele>360</ele>
        <time>2019-04-22T16:44:48.008Z</time>
      </trkpt>
      <trkpt lat="43.03316" lon="0.92936">
        <ele>360</ele>
        <time>2019-04-22T16:44:50.008Z</time>
      </trkpt>
      <trkpt lat="43.03329" lon="0.92942">
        <ele>359</ele>
        <time>2019-04-22T16:44:52.008Z</time>
      </trkpt>
      <trkpt lat="43.03335" lon="0.92945">
        <ele>359</ele>
        <time>2019-04-22T16:44:53.008Z</time>
      </trkpt>
      <trkpt lat="43.03347" lon="0.92952">
        <ele>359</ele>
        <time>2019-04-22T16:44:55.008Z</time>
      </trkpt>
      <trkpt lat="43.03358" lon="0.92961">
        <ele>359</ele>
        <time>2019-04-22T16:44:57.008Z</time>
      </trkpt>
      <trkpt lat="43.03368" lon="0.92972">
        <ele>359</ele>
        <time>2019-04-22T16:44:59.008Z</time>
      </trkpt>
      <trkpt lat="43.03377" lon="0.92985">
        <ele>359.1580032</ele>
        <time>2019-04-22T16:45:01.008Z</time>
      </trkpt>
      <trkpt lat="43.03388" lon="0.92995">
        <ele>360</ele>
        <time>2019-04-22T16:45:03.008Z</time>
      </trkpt>
      <trkpt lat="43.03396" lon="0.93006">
        <ele>360</ele>
        <time>2019-04-22T16:45:05.008Z</time>
      </trkpt>
      <trkpt lat="43.03405" lon="0.93012">
        <ele>360</ele>
        <time>2019-04-22T16:45:07.008Z</time>
      </trkpt>
      <trkpt lat="43.03414" lon="0.9302">
        <ele>360</ele>
        <time>2019-04-22T16:45:09.008Z</time>
      </trkpt>
      <trkpt lat="43.03422" lon="0.93027">
        <ele>360.1580032</ele>
        <time>2019-04-22T16:45:11.008Z</time>
      </trkpt>
      <trkpt lat="43.03431" lon="0.93028">
        <ele>361</ele>
        <time>2019-04-22T16:45:13.008Z</time>
      </trkpt>
      <trkpt lat="43.03438" lon="0.93019">
        <ele>361</ele>
        <time>2019-04-22T16:45:15.008Z</time>
      </trkpt>
      <trkpt lat="43.03442" lon="0.93007">
        <ele>361</ele>
        <time>2019-04-22T16:45:17.008Z</time>
      </trkpt>
      <trkpt lat="43.03444" lon="0.92994">
        <ele>361</ele>
        <time>2019-04-22T16:45:19.008Z</time>
      </trkpt>
      <trkpt lat="43.03446" lon="0.92981">
        <ele>361</ele>
        <time>2019-04-22T16:45:21.008Z</time>
      </trkpt>
      <trkpt lat="43.03452" lon="0.92969">
        <ele>361</ele>
        <time>2019-04-22T16:45:23.008Z</time>
      </trkpt>
      <trkpt lat="43.03455" lon="0.92956">
        <ele>361</ele>
        <time>2019-04-22T16:45:25.008Z</time>
      </trkpt>
      <trkpt lat="43.03457" lon="0.92942">
        <ele>361</ele>
        <time>2019-04-22T16:45:27.008Z</time>
      </trkpt>
      <trkpt lat="43.03462" lon="0.9293">
        <ele>361</ele>
        <time>2019-04-22T16:45:29.008Z</time>
      </trkpt>
      <trkpt lat="43.03465" lon="0.92917">
        <ele>361.1580032</ele>
        <time>2019-04-22T16:45:31.008Z</time>
      </trkpt>
      <trkpt lat="43.03466" lon="0.92903">
        <ele>361.8419968</ele>
        <time>2019-04-22T16:45:33.008Z</time>
      </trkpt>
      <trkpt lat="43.0347" lon="0.92891">
        <ele>361</ele>
        <time>2019-04-22T16:45:35.008Z</time>
      </trkpt>
      <trkpt lat="43.03472" lon="0.92878">
        <ele>361</ele>
        <time>2019-04-22T16:45:37.008Z</time>
      </trkpt>
      <trkpt lat="43.03473" lon="0.92865">
        <ele>361</ele>
        <time>2019-04-22T16:45:39.008Z</time>
      </trkpt>
      <trkpt lat="43.03476" lon="0.92853">
        <ele>361.1580032</ele>
        <time>2019-04-22T16:45:41.008Z</time>
      </trkpt>
      <trkpt lat="43.03479" lon="0.9284">
        <ele>362</ele>
        <time>2019-04-22T16:45:43.008Z</time>
      </trkpt>
      <trkpt lat="43.03483" lon="0.92827">
        <ele>362</ele>
        <time>2019-04-22T16:45:45.008Z</time>
      </trkpt>
      <trkpt lat="43.03488" lon="0.92815">
        <ele>362</ele>
        <time>2019-04-22T16:45:47.008Z</time>
      </trkpt>
      <trkpt lat="43.03494" lon="0.92804">
        <ele>362</ele>
        <time>2019-04-22T16:45:49.008Z</time>
      </trkpt>
      <trkpt lat="43.03496" lon="0.92791">
        <ele>362.1580032</ele>
        <time>2019-04-22T16:45:51.008Z</time>
      </trkpt>
      <trkpt lat="43.03502" lon="0.92781">
        <ele>363</ele>
        <time>2019-04-22T16:45:53.008Z</time>
      </trkpt>
      <trkpt lat="43.03508" lon="0.92764">
        <ele>363</ele>
        <time>2019-04-22T16:45:56.008Z</time>
      </trkpt>
      <trkpt lat="43.03513" lon="0.92754">
        <ele>363</ele>
        <time>2019-04-22T16:45:58.008Z</time>
      </trkpt>
      <trkpt lat="43.03518" lon="0.92744">
        <ele>363</ele>
        <time>2019-04-22T16:46:00.008Z</time>
      </trkpt>
      <trkpt lat="43.03521" lon="0.92733">
        <ele>365</ele>
        <time>2019-04-22T16:46:02.008Z</time>
      </trkpt>
      <trkpt lat="43.03525" lon="0.92722">
        <ele>365</ele>
        <time>2019-04-22T16:46:04.008Z</time>
      </trkpt>
      <trkpt lat="43.03528" lon="0.92712">
        <ele>365</ele>
        <time>2019-04-22T16:46:06.008Z</time>
      </trkpt>
      <trkpt lat="43.03532" lon="0.92701">
        <ele>365</ele>
        <time>2019-04-22T16:46:08.008Z</time>
      </trkpt>
      <trkpt lat="43.03535" lon="0.92691">
        <ele>365</ele>
        <time>2019-04-22T16:46:10.008Z</time>
      </trkpt>
      <trkpt lat="43.03537" lon="0.9268">
        <ele>365</ele>
        <time>2019-04-22T16:46:12.008Z</time>
      </trkpt>
      <trkpt lat="43.03538" lon="0.92669">
        <ele>365</ele>
        <time>2019-04-22T16:46:14.008Z</time>
      </trkpt>
      <trkpt lat="43.03538" lon="0.92657">
        <ele>365</ele>
        <time>2019-04-22T16:46:16.008Z</time>
      </trkpt>
      <trkpt lat="43.03539" lon="0.92639">
        <ele>365</ele>
        <time>2019-04-22T16:46:19.008Z</time>
      </trkpt>
      <trkpt lat="43.03539" lon="0.92621">
        <ele>368</ele>
        <time>2019-04-22T16:46:22.008Z</time>
      </trkpt>
      <trkpt lat="43.0354" lon="0.92605">
        <ele>368</ele>
        <time>2019-04-22T16:46:25.008Z</time>
      </trkpt>
      <trkpt lat="43.03541" lon="0.92587">
        <ele>368</ele>
        <time>2019-04-22T16:46:28.008Z</time>
      </trkpt>
      <trkpt lat="43.03541" lon="0.92569">
        <ele>368.3160064</ele>
        <time>2019-04-22T16:46:31.008Z</time>
      </trkpt>
      <trkpt lat="43.03542" lon="0.92552">
        <ele>370</ele>
        <time>2019-04-22T16:46:34.008Z</time>
      </trkpt>
      <trkpt lat="43.03543" lon="0.92542">
        <ele>371</ele>
        <time>2019-04-22T16:46:37.008Z</time>
      </trkpt>
      <trkpt lat="43.03543" lon="0.92527">
        <ele>371.1580032</ele>
        <time>2019-04-22T16:46:41.008Z</time>
      </trkpt>
      <trkpt lat="43.03543" lon="0.92508">
        <ele>372</ele>
        <time>2019-04-22T16:46:45.008Z</time>
      </trkpt>
      <trkpt lat="43.03547" lon="0.92494">
        <ele>371</ele>
        <time>2019-04-22T16:46:48.008Z</time>
      </trkpt>
      <trkpt lat="43.03549" lon="0.92485">
        <ele>371</ele>
        <time>2019-04-22T16:46:50.008Z</time>
      </trkpt>
      <trkpt lat="43.03551" lon="0.92471">
        <ele>372</ele>
        <time>2019-04-22T16:46:53.008Z</time>
      </trkpt>
      <trkpt lat="43.03554" lon="0.92457">
        <ele>372</ele>
        <time>2019-04-22T16:46:56.008Z</time>
      </trkpt>
      <trkpt lat="43.03558" lon="0.92443">
        <ele>372</ele>
        <time>2019-04-22T16:46:59.008Z</time>
      </trkpt>
      <trkpt lat="43.0356" lon="0.92429">
        <ele>374</ele>
        <time>2019-04-22T16:47:02.008Z</time>
      </trkpt>
      <trkpt lat="43.03561" lon="0.92418">
        <ele>374</ele>
        <time>2019-04-22T16:47:04.008Z</time>
      </trkpt>
      <trkpt lat="43.03563" lon="0.92408">
        <ele>374</ele>
        <time>2019-04-22T16:47:06.008Z</time>
      </trkpt>
      <trkpt lat="43.03564" lon="0.92399">
        <ele>374</ele>
        <time>2019-04-22T16:47:08.008Z</time>
      </trkpt>
      <trkpt lat="43.03566" lon="0.92391">
        <ele>374</ele>
        <time>2019-04-22T16:47:10.008Z</time>
      </trkpt>
      <trkpt lat="43.03571" lon="0.92386">
        <ele>374</ele>
        <time>2019-04-22T16:47:12.008Z</time>
      </trkpt>
      <trkpt lat="43.03578" lon="0.92396">
        <ele>374</ele>
        <time>2019-04-22T16:47:15.008Z</time>
      </trkpt>
      <trkpt lat="43.03582" lon="0.92404">
        <ele>374</ele>
        <time>2019-04-22T16:47:17.008Z</time>
      </trkpt>
      <trkpt lat="43.03587" lon="0.92411">
        <ele>374</ele>
        <time>2019-04-22T16:47:19.008Z</time>
      </trkpt>
      <trkpt lat="43.03592" lon="0.92419">
        <ele>374.1580032</ele>
        <time>2019-04-22T16:47:21.008Z</time>
      </trkpt>
      <trkpt lat="43.03596" lon="0.92429">
        <ele>375</ele>
        <time>2019-04-22T16:47:23.008Z</time>
      </trkpt>
      <trkpt lat="43.036" lon="0.92437">
        <ele>375</ele>
        <time>2019-04-22T16:47:25.008Z</time>
      </trkpt>
      <trkpt lat="43.03604" lon="0.92444">
        <ele>375</ele>
        <time>2019-04-22T16:47:27.008Z</time>
      </trkpt>
      <trkpt lat="43.03608" lon="0.92452">
        <ele>375</ele>
        <time>2019-04-22T16:47:29.008Z</time>
      </trkpt>
      <trkpt lat="43.03613" lon="0.92458">
        <ele>375.3160064</ele>
        <time>2019-04-22T16:47:31.008Z</time>
      </trkpt>
      <trkpt lat="43.03619" lon="0.92464">
        <ele>377</ele>
        <time>2019-04-22T16:47:33.008Z</time>
      </trkpt>
      <trkpt lat="43.03625" lon="0.92468">
        <ele>377</ele>
        <time>2019-04-22T16:47:35.008Z</time>
      </trkpt>
      <trkpt lat="43.03632" lon="0.92471">
        <ele>377</ele>
        <time>2019-04-22T16:47:37.008Z</time>
      </trkpt>
      <trkpt lat="43.03638" lon="0.92475">
        <ele>377</ele>
        <time>2019-04-22T16:47:39.008Z</time>
      </trkpt>
      <trkpt lat="43.03648" lon="0.92479">
        <ele>379</ele>
        <time>2019-04-22T16:47:42.008Z</time>
      </trkpt>
      <trkpt lat="43.03655" lon="0.92482">
        <ele>379</ele>
        <time>2019-04-22T16:47:44.008Z</time>
      </trkpt>
      <trkpt lat="43.03662" lon="0.92486">
        <ele>379</ele>
        <time>2019-04-22T16:47:46.008Z</time>
      </trkpt>
      <trkpt lat="43.03668" lon="0.92489">
        <ele>379</ele>
        <time>2019-04-22T16:47:48.008Z</time>
      </trkpt>
      <trkpt lat="43.03675" lon="0.92493">
        <ele>379</ele>
        <time>2019-04-22T16:47:50.008Z</time>
      </trkpt>
      <trkpt lat="43.03667" lon="0.92487">
        <ele>379</ele>
        <time>2019-04-22T16:47:56.008Z</time>
      </trkpt>
      <trkpt lat="43.0366" lon="0.92481">
        <ele>379</ele>
        <time>2019-04-22T16:47:58.008Z</time>
      </trkpt>
      <trkpt lat="43.03652" lon="0.92478">
        <ele>378</ele>
        <time>2019-04-22T16:48:00.008Z</time>
      </trkpt>
      <trkpt lat="43.03643" lon="0.92474">
        <ele>378</ele>
        <time>2019-04-22T16:48:02.008Z</time>
      </trkpt>
      <trkpt lat="43.03635" lon="0.9247">
        <ele>378</ele>
        <time>2019-04-22T16:48:04.008Z</time>
      </trkpt>
      <trkpt lat="43.03631" lon="0.92469">
        <ele>378</ele>
        <time>2019-04-22T16:48:07.008Z</time>
      </trkpt>
    </trkseg>
  </trk>
</gpx>